<?xml version='1.0' encoding='UTF-8'?><gpx version="1.1" creator="JPX - https://github.com/jenetics/jpx" xmlns="http://www.topografix.com/GPX/1/1"><trk><trkseg><trkpt lat="42.281082575968334" lon="13.788481206970612"><ele>338.0</ele><time>2026-05-02T10:08:14Z</time></trkpt><trkpt lat="42.28114181001577" lon="13.788531429236084"><ele>338.0</ele><time>2026-05-02T10:08:30Z</time></trkpt><trkpt lat="42.2812402631383" lon="13.78838922141438"><ele>338.0</ele><time>2026-05-02T10:08:33Z</time></trkpt><trkpt lat="42.28130310993739" lon="13.788328894165486"><ele>338.0</ele><time>2026-05-02T10:08:34Z</time></trkpt><trkpt lat="42.281391713853104" lon="13.788281835714388"><ele>338.0</ele><time>2026-05-02T10:08:35Z</time></trkpt><trkpt lat="42.281486629478614" lon="13.788210861005"><ele>338.25</ele><time>2026-05-02T10:08:36Z</time></trkpt><trkpt lat="42.281585964206236" lon="13.788135893795344"><ele>338.5</ele><time>2026-05-02T10:08:37Z</time></trkpt><trkpt lat="42.28170363438081" lon="13.788056230312241"><ele>338.75</ele><time>2026-05-02T10:08:38Z</time></trkpt><trkpt lat="42.28182963091723" lon="13.787971959878835"><ele>339.0</ele><time>2026-05-02T10:08:39Z</time></trkpt><trkpt lat="42.281956842624545" lon="13.787886876873712"><ele>339.0</ele><time>2026-05-02T10:08:40Z</time></trkpt><trkpt lat="42.282096939474265" lon="13.787793085362088"><ele>339.0</ele><time>2026-05-02T10:08:41Z</time></trkpt><trkpt lat="42.28224544542142" lon="13.787692760114787"><ele>339.0</ele><time>2026-05-02T10:08:42Z</time></trkpt><trkpt lat="42.28240173029757" lon="13.787586403911442"><ele>339.6666666666667</ele><time>2026-05-02T10:08:43Z</time></trkpt><trkpt lat="42.282561546119766" lon="13.787476188238212"><ele>340.33333333333337</ele><time>2026-05-02T10:08:44Z</time></trkpt><trkpt lat="42.28271819638061" lon="13.787368155596113"><ele>341.0</ele><time>2026-05-02T10:08:45Z</time></trkpt><trkpt lat="42.28288368419318" lon="13.787254029116145"><ele>341.0</ele><time>2026-05-02T10:08:46Z</time></trkpt><trkpt lat="42.28305013757171" lon="13.787139970626846"><ele>341.0</ele><time>2026-05-02T10:08:47Z</time></trkpt><trkpt lat="42.28320290709351" lon="13.787011547001178"><ele>341.0</ele><time>2026-05-02T10:08:48Z</time></trkpt><trkpt lat="42.28335377455951" lon="13.786909248258352"><ele>341.5</ele><time>2026-05-02T10:08:49Z</time></trkpt><trkpt lat="42.283501034859334" lon="13.786810467493725"><ele>342.0</ele><time>2026-05-02T10:08:50Z</time></trkpt><trkpt lat="42.28362740701255" lon="13.786725319304582"><ele>342.5</ele><time>2026-05-02T10:08:51Z</time></trkpt><trkpt lat="42.28372704579564" lon="13.78666278466671"><ele>343.0</ele><time>2026-05-02T10:08:52Z</time></trkpt><trkpt lat="42.283797531640104" lon="13.786625400606686"><ele>343.0</ele><time>2026-05-02T10:08:53Z</time></trkpt><trkpt lat="42.28388121534178" lon="13.786580841924023"><ele>343.0</ele><time>2026-05-02T10:08:55Z</time></trkpt><trkpt lat="42.283784979560046" lon="13.786645427768983"><ele>343.0</ele><time>2026-05-02T10:09:02Z</time></trkpt><trkpt lat="42.28371222032745" lon="13.786693829241853"><ele>343.0</ele><time>2026-05-02T10:09:03Z</time></trkpt><trkpt lat="42.28355155905301" lon="13.786758109140509"><ele>343.0</ele><time>2026-05-02T10:09:04Z</time></trkpt><trkpt lat="42.28343243305429" lon="13.786844495481837"><ele>342.59999999999997</ele><time>2026-05-02T10:09:05Z</time></trkpt><trkpt lat="42.283317770426144" lon="13.786923216177865"><ele>342.2</ele><time>2026-05-02T10:09:06Z</time></trkpt><trkpt lat="42.283211458340595" lon="13.787001191795595"><ele>341.8</ele><time>2026-05-02T10:09:07Z</time></trkpt><trkpt lat="42.283122268194994" lon="13.787074242701909"><ele>341.4</ele><time>2026-05-02T10:09:08Z</time></trkpt><trkpt lat="42.283054025831646" lon="13.7871305568378"><ele>341.0</ele><time>2026-05-02T10:09:09Z</time></trkpt><trkpt lat="42.28295470837488" lon="13.787143624378484"><ele>341.0</ele><time>2026-05-02T10:09:11Z</time></trkpt><trkpt lat="42.282884121704654" lon="13.787016235611285"><ele>341.0</ele><time>2026-05-02T10:09:13Z</time></trkpt><trkpt lat="42.282843516296424" lon="13.78692925103468"><ele>341.0</ele><time>2026-05-02T10:09:14Z</time></trkpt><trkpt lat="42.282791126300324" lon="13.786820235587856"><ele>341.0</ele><time>2026-05-02T10:09:15Z</time></trkpt><trkpt lat="42.282729184707584" lon="13.786685571793214"><ele>341.0</ele><time>2026-05-02T10:09:16Z</time></trkpt><trkpt lat="42.28267039420104" lon="13.786539875294082"><ele>341.0</ele><time>2026-05-02T10:09:17Z</time></trkpt><trkpt lat="42.28261307164173" lon="13.786393239444863"><ele>341.0</ele><time>2026-05-02T10:09:18Z</time></trkpt><trkpt lat="42.28256437188303" lon="13.786251138204651"><ele>341.0</ele><time>2026-05-02T10:09:19Z</time></trkpt><trkpt lat="42.28251559219442" lon="13.786100755465663"><ele>341.0</ele><time>2026-05-02T10:09:20Z</time></trkpt><trkpt lat="42.28247079465774" lon="13.78596034054678"><ele>340.75</ele><time>2026-05-02T10:09:21Z</time></trkpt><trkpt lat="42.282421406424604" lon="13.785809144452532"><ele>340.5</ele><time>2026-05-02T10:09:22Z</time></trkpt><trkpt lat="42.282367765615255" lon="13.785661359657967"><ele>340.25</ele><time>2026-05-02T10:09:23Z</time></trkpt><trkpt lat="42.28232028334491" lon="13.785506499593511"><ele>340.0</ele><time>2026-05-02T10:09:24Z</time></trkpt><trkpt lat="42.282283586981436" lon="13.785340698748287"><ele>340.0</ele><time>2026-05-02T10:09:25Z</time></trkpt><trkpt lat="42.28223670734055" lon="13.785171799623692"><ele>340.0</ele><time>2026-05-02T10:09:26Z</time></trkpt><trkpt lat="42.282189169157505" lon="13.784996918468606"><ele>340.0</ele><time>2026-05-02T10:09:27Z</time></trkpt><trkpt lat="42.282143552952526" lon="13.784835668816568"><ele>340.0</ele><time>2026-05-02T10:09:28Z</time></trkpt><trkpt lat="42.28210244482228" lon="13.784674519643064"><ele>340.0</ele><time>2026-05-02T10:09:29Z</time></trkpt><trkpt lat="42.28205956523139" lon="13.784498426505932"><ele>340.0</ele><time>2026-05-02T10:09:30Z</time></trkpt><trkpt lat="42.28201493558802" lon="13.784322479592031"><ele>340.0</ele><time>2026-05-02T10:09:31Z</time></trkpt><trkpt lat="42.2819718051535" lon="13.78415579260706"><ele>340.0</ele><time>2026-05-02T10:09:32Z</time></trkpt><trkpt lat="42.28193034830739" lon="13.7839755808814"><ele>340.0</ele><time>2026-05-02T10:09:33Z</time></trkpt><trkpt lat="42.2818884335575" lon="13.783803914733385"><ele>340.0</ele><time>2026-05-02T10:09:34Z</time></trkpt><trkpt lat="42.28184246528999" lon="13.783614611184342"><ele>340.0</ele><time>2026-05-02T10:09:35Z</time></trkpt><trkpt lat="42.28179531590215" lon="13.783432052774327"><ele>340.0</ele><time>2026-05-02T10:09:36Z</time></trkpt><trkpt lat="42.28174376493583" lon="13.783249609365342"><ele>339.75</ele><time>2026-05-02T10:09:37Z</time></trkpt><trkpt lat="42.28168475439422" lon="13.783059380176393"><ele>339.5</ele><time>2026-05-02T10:09:38Z</time></trkpt><trkpt lat="42.281626626399934" lon="13.782877843542746"><ele>339.25</ele><time>2026-05-02T10:09:39Z</time></trkpt><trkpt lat="42.28156513805733" lon="13.782704422284562"><ele>339.0</ele><time>2026-05-02T10:09:40Z</time></trkpt><trkpt lat="42.28149672478727" lon="13.782532834376111"><ele>339.75</ele><time>2026-05-02T10:09:41Z</time></trkpt><trkpt lat="42.28143460268416" lon="13.782359105777893"><ele>340.5</ele><time>2026-05-02T10:09:42Z</time></trkpt><trkpt lat="42.28137723337558" lon="13.782197155166982"><ele>341.25</ele><time>2026-05-02T10:09:43Z</time></trkpt><trkpt lat="42.28131802123038" lon="13.782022101684747"><ele>342.0</ele><time>2026-05-02T10:09:44Z</time></trkpt><trkpt lat="42.28126110552676" lon="13.781839095647179"><ele>342.0</ele><time>2026-05-02T10:09:45Z</time></trkpt><trkpt lat="42.28120850628068" lon="13.781673459666997"><ele>342.0</ele><time>2026-05-02T10:09:46Z</time></trkpt><trkpt lat="42.28115777124661" lon="13.781518078374607"><ele>342.0</ele><time>2026-05-02T10:09:47Z</time></trkpt><trkpt lat="42.281102527173495" lon="13.781358747878283"><ele>342.0</ele><time>2026-05-02T10:09:48Z</time></trkpt><trkpt lat="42.28104470909592" lon="13.781191431019488"><ele>342.0</ele><time>2026-05-02T10:09:49Z</time></trkpt><trkpt lat="42.280996900577044" lon="13.781025433788862"><ele>342.0</ele><time>2026-05-02T10:09:50Z</time></trkpt><trkpt lat="42.28095369972323" lon="13.78085203975634"><ele>342.0</ele><time>2026-05-02T10:09:51Z</time></trkpt><trkpt lat="42.28091017257766" lon="13.780672785174431"><ele>342.0</ele><time>2026-05-02T10:09:52Z</time></trkpt><trkpt lat="42.28086967166672" lon="13.780515878715835"><ele>341.75</ele><time>2026-05-02T10:09:53Z</time></trkpt><trkpt lat="42.280832113066346" lon="13.780361404844097"><ele>341.5</ele><time>2026-05-02T10:09:54Z</time></trkpt><trkpt lat="42.28079768725016" lon="13.780194862797867"><ele>341.25</ele><time>2026-05-02T10:09:55Z</time></trkpt><trkpt lat="42.28076179365856" lon="13.780048254231724"><ele>341.0</ele><time>2026-05-02T10:09:56Z</time></trkpt><trkpt lat="42.28071585388899" lon="13.779883222772838"><ele>341.75</ele><time>2026-05-02T10:09:57Z</time></trkpt><trkpt lat="42.28065704808734" lon="13.77971370517681"><ele>342.5</ele><time>2026-05-02T10:09:58Z</time></trkpt><trkpt lat="42.280591932856865" lon="13.779564957090825"><ele>343.25</ele><time>2026-05-02T10:09:59Z</time></trkpt><trkpt lat="42.28052934929214" lon="13.779421303342874"><ele>344.0</ele><time>2026-05-02T10:10:00Z</time></trkpt><trkpt lat="42.28047364780174" lon="13.779281305733841"><ele>344.5</ele><time>2026-05-02T10:10:01Z</time></trkpt><trkpt lat="42.28042724440993" lon="13.7791453434775"><ele>345.0</ele><time>2026-05-02T10:10:02Z</time></trkpt><trkpt lat="42.2803999949185" lon="13.779011031233308"><ele>345.5</ele><time>2026-05-02T10:10:03Z</time></trkpt><trkpt lat="42.28038069813492" lon="13.77886942837393"><ele>346.0</ele><time>2026-05-02T10:10:04Z</time></trkpt><trkpt lat="42.280356653675824" lon="13.778696749770459"><ele>346.0</ele><time>2026-05-02T10:10:05Z</time></trkpt><trkpt lat="42.28033074335746" lon="13.778519105163122"><ele>346.0</ele><time>2026-05-02T10:10:06Z</time></trkpt><trkpt lat="42.28031448471479" lon="13.77833050361118"><ele>346.0</ele><time>2026-05-02T10:10:07Z</time></trkpt><trkpt lat="42.28029664826697" lon="13.778142807424674"><ele>346.0</ele><time>2026-05-02T10:10:08Z</time></trkpt><trkpt lat="42.28027594474767" lon="13.777955220208197"><ele>346.0</ele><time>2026-05-02T10:10:09Z</time></trkpt><trkpt lat="42.280252464250836" lon="13.777792096994085"><ele>346.0</ele><time>2026-05-02T10:10:10Z</time></trkpt><trkpt lat="42.2802301890455" lon="13.777621634733523"><ele>346.0</ele><time>2026-05-02T10:10:11Z</time></trkpt><trkpt lat="42.2802029416265" lon="13.77745649386259"><ele>346.0</ele><time>2026-05-02T10:10:12Z</time></trkpt><trkpt lat="42.280180924414324" lon="13.777288142681112"><ele>346.0</ele><time>2026-05-02T10:10:13Z</time></trkpt><trkpt lat="42.28015925947182" lon="13.777115060626379"><ele>346.0</ele><time>2026-05-02T10:10:14Z</time></trkpt><trkpt lat="42.28012100057448" lon="13.77694898561017"><ele>346.0</ele><time>2026-05-02T10:10:15Z</time></trkpt><trkpt lat="42.280081990733485" lon="13.776780827019543"><ele>346.0</ele><time>2026-05-02T10:10:16Z</time></trkpt><trkpt lat="42.28004839582047" lon="13.776610253865345"><ele>346.0</ele><time>2026-05-02T10:10:17Z</time></trkpt><trkpt lat="42.28001880055336" lon="13.776435692448247"><ele>346.0</ele><time>2026-05-02T10:10:18Z</time></trkpt><trkpt lat="42.279997274479776" lon="13.77626608543477"><ele>346.0</ele><time>2026-05-02T10:10:19Z</time></trkpt><trkpt lat="42.27997756845209" lon="13.776108678044965"><ele>346.0</ele><time>2026-05-02T10:10:20Z</time></trkpt><trkpt lat="42.279959455135106" lon="13.775944257279866"><ele>346.20000000000005</ele><time>2026-05-02T10:10:21Z</time></trkpt><trkpt lat="42.27995202059017" lon="13.775793108179663"><ele>346.40000000000003</ele><time>2026-05-02T10:10:22Z</time></trkpt><trkpt lat="42.27995205405636" lon="13.775668863018959"><ele>346.6</ele><time>2026-05-02T10:10:23Z</time></trkpt><trkpt lat="42.27995929150311" lon="13.775558938324291"><ele>346.8</ele><time>2026-05-02T10:10:24Z</time></trkpt><trkpt lat="42.27998256681608" lon="13.77543603578444"><ele>347.0</ele><time>2026-05-02T10:10:26Z</time></trkpt><trkpt lat="42.280076063568345" lon="13.77535645547"><ele>347.0</ele><time>2026-05-02T10:10:28Z</time></trkpt><trkpt lat="42.28015641810377" lon="13.775306191921336"><ele>347.0</ele><time>2026-05-02T10:10:29Z</time></trkpt><trkpt lat="42.28025794127431" lon="13.775238240999757"><ele>347.0</ele><time>2026-05-02T10:10:30Z</time></trkpt><trkpt lat="42.280362902065555" lon="13.775166935480375"><ele>347.0</ele><time>2026-05-02T10:10:31Z</time></trkpt><trkpt lat="42.280480298785534" lon="13.775084180926862"><ele>347.0</ele><time>2026-05-02T10:10:32Z</time></trkpt><trkpt lat="42.28059601812357" lon="13.7750053811275"><ele>347.0</ele><time>2026-05-02T10:10:33Z</time></trkpt><trkpt lat="42.280707272398466" lon="13.774928884892912"><ele>347.0</ele><time>2026-05-02T10:10:34Z</time></trkpt><trkpt lat="42.280815003430355" lon="13.774856962223277"><ele>347.0</ele><time>2026-05-02T10:10:35Z</time></trkpt><trkpt lat="42.28091507395255" lon="13.774787245568938"><ele>347.0</ele><time>2026-05-02T10:10:36Z</time></trkpt><trkpt lat="42.28101643898322" lon="13.774717106130256"><ele>347.0</ele><time>2026-05-02T10:10:37Z</time></trkpt><trkpt lat="42.28111285240451" lon="13.774651918746088"><ele>347.0</ele><time>2026-05-02T10:10:38Z</time></trkpt><trkpt lat="42.28119959540961" lon="13.774594281475558"><ele>347.0</ele><time>2026-05-02T10:10:39Z</time></trkpt><trkpt lat="42.28128508478192" lon="13.774545737523853"><ele>347.0</ele><time>2026-05-02T10:10:40Z</time></trkpt><trkpt lat="42.28137033780663" lon="13.77449766513674"><ele>347.40000000000003</ele><time>2026-05-02T10:10:41Z</time></trkpt><trkpt lat="42.28144075049772" lon="13.774456202645098"><ele>347.8</ele><time>2026-05-02T10:10:42Z</time></trkpt><trkpt lat="42.28151737914671" lon="13.774405528451707"><ele>348.2</ele><time>2026-05-02T10:10:44Z</time></trkpt><trkpt lat="42.28152991574179" lon="13.77429902700171"><ele>348.6</ele><time>2026-05-02T10:10:48Z</time></trkpt><trkpt lat="42.28144639815921" lon="13.774166207118165"><ele>349.0</ele><time>2026-05-02T10:10:50Z</time></trkpt><trkpt lat="42.2813735659756" lon="13.774089949949525"><ele>349.5</ele><time>2026-05-02T10:10:51Z</time></trkpt><trkpt lat="42.28129956178692" lon="13.773999818422432"><ele>350.0</ele><time>2026-05-02T10:10:52Z</time></trkpt><trkpt lat="42.2812101795208" lon="13.773886160205782"><ele>350.5</ele><time>2026-05-02T10:10:53Z</time></trkpt><trkpt lat="42.28111758251481" lon="13.773767089655706"><ele>351.0</ele><time>2026-05-02T10:10:54Z</time></trkpt><trkpt lat="42.2810078241946" lon="13.773627604671963"><ele>353.3333333333333</ele><time>2026-05-02T10:10:55Z</time></trkpt><trkpt lat="42.28090751607849" lon="13.773477682238873"><ele>355.66666666666663</ele><time>2026-05-02T10:10:56Z</time></trkpt><trkpt lat="42.28082817186446" lon="13.773299189922028"><ele>358.0</ele><time>2026-05-02T10:10:57Z</time></trkpt><trkpt lat="42.28073277372494" lon="13.77311483842177"><ele>358.0</ele><time>2026-05-02T10:10:58Z</time></trkpt><trkpt lat="42.28062662723598" lon="13.772939634845233"><ele>358.0</ele><time>2026-05-02T10:10:59Z</time></trkpt><trkpt lat="42.280524146982444" lon="13.772746394162052"><ele>358.0</ele><time>2026-05-02T10:11:00Z</time></trkpt><trkpt lat="42.28042497830973" lon="13.77255728468349"><ele>357.25</ele><time>2026-05-02T10:11:01Z</time></trkpt><trkpt lat="42.280342118195506" lon="13.772396632015438"><ele>356.5</ele><time>2026-05-02T10:11:02Z</time></trkpt><trkpt lat="42.280273944166034" lon="13.772252194257515"><ele>355.75</ele><time>2026-05-02T10:11:03Z</time></trkpt><trkpt lat="42.2801615761859" lon="13.772171937078792"><ele>355.0</ele><time>2026-05-02T10:11:04Z</time></trkpt><trkpt lat="42.28006372286461" lon="13.772083466970463"><ele>355.0</ele><time>2026-05-02T10:11:05Z</time></trkpt><trkpt lat="42.2799770133823" lon="13.77202077982168"><ele>355.0</ele><time>2026-05-02T10:11:06Z</time></trkpt><trkpt lat="42.27988995466582" lon="13.77195273402664"><ele>355.0</ele><time>2026-05-02T10:11:07Z</time></trkpt><trkpt lat="42.279803259000325" lon="13.771867053032407"><ele>355.0</ele><time>2026-05-02T10:11:08Z</time></trkpt><trkpt lat="42.2797186150953" lon="13.771749166689553"><ele>355.0</ele><time>2026-05-02T10:11:09Z</time></trkpt><trkpt lat="42.27964411887105" lon="13.771603458160953"><ele>355.5</ele><time>2026-05-02T10:11:10Z</time></trkpt><trkpt lat="42.27958159185904" lon="13.77143428558751"><ele>356.0</ele><time>2026-05-02T10:11:11Z</time></trkpt><trkpt lat="42.27951573692308" lon="13.771248292065387"><ele>356.5</ele><time>2026-05-02T10:11:12Z</time></trkpt><trkpt lat="42.279448088666825" lon="13.771057140256085"><ele>357.0</ele><time>2026-05-02T10:11:13Z</time></trkpt><trkpt lat="42.279378261379314" lon="13.77085929624522"><ele>357.6666666666667</ele><time>2026-05-02T10:11:14Z</time></trkpt><trkpt lat="42.27930952918303" lon="13.770664555174722"><ele>358.33333333333337</ele><time>2026-05-02T10:11:15Z</time></trkpt><trkpt lat="42.27924276117105" lon="13.77047537917876"><ele>359.0</ele><time>2026-05-02T10:11:16Z</time></trkpt><trkpt lat="42.27918398275454" lon="13.770308371621152"><ele>359.5</ele><time>2026-05-02T10:11:17Z</time></trkpt><trkpt lat="42.2791316952314" lon="13.770159383447057"><ele>360.0</ele><time>2026-05-02T10:11:18Z</time></trkpt><trkpt lat="42.27908048584743" lon="13.770014703285797"><ele>360.5</ele><time>2026-05-02T10:11:19Z</time></trkpt><trkpt lat="42.27903067556858" lon="13.769873941861096"><ele>361.0</ele><time>2026-05-02T10:11:20Z</time></trkpt><trkpt lat="42.27897854608065" lon="13.769723701168369"><ele>360.8</ele><time>2026-05-02T10:11:21Z</time></trkpt><trkpt lat="42.278933551736216" lon="13.769593202077854"><ele>360.6</ele><time>2026-05-02T10:11:22Z</time></trkpt><trkpt lat="42.278883718593086" lon="13.76949690816413"><ele>360.4</ele><time>2026-05-02T10:11:23Z</time></trkpt><trkpt lat="42.27887121237519" lon="13.76941192367761"><ele>360.2</ele><time>2026-05-02T10:11:24Z</time></trkpt><trkpt lat="42.27893020974408" lon="13.769254764619019"><ele>360.0</ele><time>2026-05-02T10:11:26Z</time></trkpt><trkpt lat="42.2790086392625" lon="13.769186026571859"><ele>360.75</ele><time>2026-05-02T10:11:27Z</time></trkpt><trkpt lat="42.27910652795699" lon="13.769114430067178"><ele>361.5</ele><time>2026-05-02T10:11:28Z</time></trkpt><trkpt lat="42.279225765975276" lon="13.769030560425383"><ele>362.25</ele><time>2026-05-02T10:11:29Z</time></trkpt><trkpt lat="42.279348360885" lon="13.768937282329256"><ele>363.0</ele><time>2026-05-02T10:11:30Z</time></trkpt><trkpt lat="42.27947609766855" lon="13.768838959653868"><ele>363.0</ele><time>2026-05-02T10:11:31Z</time></trkpt><trkpt lat="42.279609756132906" lon="13.768740991578152"><ele>363.0</ele><time>2026-05-02T10:11:32Z</time></trkpt><trkpt lat="42.27975467655934" lon="13.768632749364594"><ele>363.0</ele><time>2026-05-02T10:11:33Z</time></trkpt><trkpt lat="42.27989778994778" lon="13.768524387632246"><ele>364.3333333333333</ele><time>2026-05-02T10:11:34Z</time></trkpt><trkpt lat="42.28003603306777" lon="13.768384579962456"><ele>365.66666666666663</ele><time>2026-05-02T10:11:35Z</time></trkpt><trkpt lat="42.2801637016745" lon="13.768230058293666"><ele>367.0</ele><time>2026-05-02T10:11:36Z</time></trkpt><trkpt lat="42.28028586027725" lon="13.768062214974519"><ele>367.0</ele><time>2026-05-02T10:11:37Z</time></trkpt><trkpt lat="42.280412525383326" lon="13.767892706046009"><ele>367.0</ele><time>2026-05-02T10:11:38Z</time></trkpt><trkpt lat="42.280544803371534" lon="13.767724150529883"><ele>367.0</ele><time>2026-05-02T10:11:39Z</time></trkpt><trkpt lat="42.28069170707411" lon="13.767556064010952"><ele>368.3333333333333</ele><time>2026-05-02T10:11:40Z</time></trkpt><trkpt lat="42.2808374783488" lon="13.767415009799032"><ele>369.6666666666667</ele><time>2026-05-02T10:11:41Z</time></trkpt><trkpt lat="42.28100096917047" lon="13.767273662281308"><ele>371.0</ele><time>2026-05-02T10:11:42Z</time></trkpt><trkpt lat="42.28116509181793" lon="13.767132828116983"><ele>371.0</ele><time>2026-05-02T10:11:43Z</time></trkpt><trkpt lat="42.28132029496071" lon="13.76699999954081"><ele>371.0</ele><time>2026-05-02T10:11:44Z</time></trkpt><trkpt lat="42.28146182475409" lon="13.766870235115876"><ele>371.0</ele><time>2026-05-02T10:11:45Z</time></trkpt><trkpt lat="42.281597932013284" lon="13.766741573816025"><ele>372.6666666666667</ele><time>2026-05-02T10:11:46Z</time></trkpt><trkpt lat="42.28173267052537" lon="13.766598812174799"><ele>374.3333333333333</ele><time>2026-05-02T10:11:47Z</time></trkpt><trkpt lat="42.28185532750756" lon="13.766437056197246"><ele>376.0</ele><time>2026-05-02T10:11:48Z</time></trkpt><trkpt lat="42.28197027185567" lon="13.766260586774521"><ele>376.0</ele><time>2026-05-02T10:11:49Z</time></trkpt><trkpt lat="42.28208068442793" lon="13.76608092539729"><ele>376.0</ele><time>2026-05-02T10:11:50Z</time></trkpt><trkpt lat="42.282195755195296" lon="13.765905835926988"><ele>376.0</ele><time>2026-05-02T10:11:51Z</time></trkpt><trkpt lat="42.28231455833629" lon="13.76573622492861"><ele>377.3333333333333</ele><time>2026-05-02T10:11:52Z</time></trkpt><trkpt lat="42.282428240140774" lon="13.765565553416346"><ele>378.6666666666667</ele><time>2026-05-02T10:11:53Z</time></trkpt><trkpt lat="42.28253567515211" lon="13.76539676378319"><ele>380.0</ele><time>2026-05-02T10:11:54Z</time></trkpt><trkpt lat="42.282647864833095" lon="13.765225119147349"><ele>381.33333333333337</ele><time>2026-05-02T10:11:55Z</time></trkpt><trkpt lat="42.2827633685686" lon="13.765047440902586"><ele>382.6666666666667</ele><time>2026-05-02T10:11:56Z</time></trkpt><trkpt lat="42.28287651268233" lon="13.764870444226494"><ele>384.0</ele><time>2026-05-02T10:11:57Z</time></trkpt><trkpt lat="42.282980261668115" lon="13.764713636633823"><ele>384.0</ele><time>2026-05-02T10:11:58Z</time></trkpt><trkpt lat="42.28307815838338" lon="13.764569043127741"><ele>384.0</ele><time>2026-05-02T10:11:59Z</time></trkpt><trkpt lat="42.283172062656924" lon="13.764428622440617"><ele>384.0</ele><time>2026-05-02T10:12:00Z</time></trkpt><trkpt lat="42.283261215246384" lon="13.764298989809944"><ele>384.0</ele><time>2026-05-02T10:12:01Z</time></trkpt><trkpt lat="42.283341916917294" lon="13.764175502702479"><ele>384.6</ele><time>2026-05-02T10:12:02Z</time></trkpt><trkpt lat="42.283416789133994" lon="13.76405499706"><ele>385.2</ele><time>2026-05-02T10:12:03Z</time></trkpt><trkpt lat="42.28348805448818" lon="13.763950951852294"><ele>385.8</ele><time>2026-05-02T10:12:04Z</time></trkpt><trkpt lat="42.283550371734684" lon="13.763865093406443"><ele>386.40000000000003</ele><time>2026-05-02T10:12:05Z</time></trkpt><trkpt lat="42.283602498497125" lon="13.76378396127612"><ele>387.0</ele><time>2026-05-02T10:12:07Z</time></trkpt><trkpt lat="42.28365330650592" lon="13.763679331259018"><ele>387.0</ele><time>2026-05-02T10:12:09Z</time></trkpt><trkpt lat="42.28370833548926" lon="13.763587974218774"><ele>387.0</ele><time>2026-05-02T10:12:10Z</time></trkpt><trkpt lat="42.28377942303913" lon="13.763473066784732"><ele>387.0</ele><time>2026-05-02T10:12:11Z</time></trkpt><trkpt lat="42.28384923184793" lon="13.763328518773477"><ele>387.0</ele><time>2026-05-02T10:12:12Z</time></trkpt><trkpt lat="42.28392987069968" lon="13.763179164181365"><ele>387.0</ele><time>2026-05-02T10:12:13Z</time></trkpt><trkpt lat="42.28395571664146" lon="13.762987154498775"><ele>387.0</ele><time>2026-05-02T10:12:14Z</time></trkpt><trkpt lat="42.28400554497431" lon="13.76281153808248"><ele>387.0</ele><time>2026-05-02T10:12:15Z</time></trkpt><trkpt lat="42.284061269977556" lon="13.762608895770418"><ele>387.0</ele><time>2026-05-02T10:12:16Z</time></trkpt><trkpt lat="42.284122673389746" lon="13.762394436210354"><ele>387.0</ele><time>2026-05-02T10:12:17Z</time></trkpt><trkpt lat="42.28417550056441" lon="13.762180923633863"><ele>387.0</ele><time>2026-05-02T10:12:18Z</time></trkpt><trkpt lat="42.284224186791214" lon="13.761954288310344"><ele>387.0</ele><time>2026-05-02T10:12:19Z</time></trkpt><trkpt lat="42.28428499152256" lon="13.761725825144218"><ele>386.66666666666663</ele><time>2026-05-02T10:12:20Z</time></trkpt><trkpt lat="42.28433273086877" lon="13.761488392696508"><ele>386.3333333333333</ele><time>2026-05-02T10:12:21Z</time></trkpt><trkpt lat="42.284368820421705" lon="13.761233885325648"><ele>386.0</ele><time>2026-05-02T10:12:22Z</time></trkpt><trkpt lat="42.284421648441985" lon="13.760985959117923"><ele>386.0</ele><time>2026-05-02T10:12:23Z</time></trkpt><trkpt lat="42.284473803359944" lon="13.760729717929236"><ele>386.0</ele><time>2026-05-02T10:12:24Z</time></trkpt><trkpt lat="42.284522010655124" lon="13.760465180030433"><ele>386.0</ele><time>2026-05-02T10:12:25Z</time></trkpt><trkpt lat="42.284569667558685" lon="13.760213422523432"><ele>385.66666666666663</ele><time>2026-05-02T10:12:26Z</time></trkpt><trkpt lat="42.28460867786114" lon="13.759967675692803"><ele>385.33333333333337</ele><time>2026-05-02T10:12:27Z</time></trkpt><trkpt lat="42.28465176325655" lon="13.759729498262727"><ele>385.0</ele><time>2026-05-02T10:12:28Z</time></trkpt><trkpt lat="42.2846906131132" lon="13.759474640357846"><ele>385.6666666666667</ele><time>2026-05-02T10:12:29Z</time></trkpt><trkpt lat="42.28472100198982" lon="13.759221121246457"><ele>386.33333333333337</ele><time>2026-05-02T10:12:30Z</time></trkpt><trkpt lat="42.28473403293492" lon="13.758963296161781"><ele>387.0</ele><time>2026-05-02T10:12:31Z</time></trkpt><trkpt lat="42.284720489302295" lon="13.75870346747682"><ele>387.66666666666663</ele><time>2026-05-02T10:12:32Z</time></trkpt><trkpt lat="42.28468111535832" lon="13.758446168052014"><ele>388.3333333333333</ele><time>2026-05-02T10:12:33Z</time></trkpt><trkpt lat="42.28463531101493" lon="13.758184269963694"><ele>389.0</ele><time>2026-05-02T10:12:34Z</time></trkpt><trkpt lat="42.284590839134694" lon="13.757917763156387"><ele>388.0</ele><time>2026-05-02T10:12:35Z</time></trkpt><trkpt lat="42.284556042619144" lon="13.757661831879272"><ele>387.0</ele><time>2026-05-02T10:12:36Z</time></trkpt><trkpt lat="42.28452078226961" lon="13.757426987096284"><ele>386.0</ele><time>2026-05-02T10:12:37Z</time></trkpt><trkpt lat="42.284484287255395" lon="13.757196958792179"><ele>386.0</ele><time>2026-05-02T10:12:38Z</time></trkpt><trkpt lat="42.28443723684831" lon="13.756963901122939"><ele>386.0</ele><time>2026-05-02T10:12:39Z</time></trkpt><trkpt lat="42.284374502589564" lon="13.75671792936306"><ele>386.0</ele><time>2026-05-02T10:12:40Z</time></trkpt><trkpt lat="42.28430062119179" lon="13.75647761618585"><ele>385.66666666666663</ele><time>2026-05-02T10:12:41Z</time></trkpt><trkpt lat="42.284237798593644" lon="13.756226803221596"><ele>385.33333333333337</ele><time>2026-05-02T10:12:42Z</time></trkpt><trkpt lat="42.284130583459074" lon="13.756001081591215"><ele>385.0</ele><time>2026-05-02T10:12:43Z</time></trkpt><trkpt lat="42.28403690730682" lon="13.755769322712084"><ele>384.33333333333337</ele><time>2026-05-02T10:12:44Z</time></trkpt><trkpt lat="42.2839640936306" lon="13.755525453388657"><ele>383.6666666666667</ele><time>2026-05-02T10:12:45Z</time></trkpt><trkpt lat="42.283881175082676" lon="13.755281049725028"><ele>383.0</ele><time>2026-05-02T10:12:46Z</time></trkpt><trkpt lat="42.2838015161413" lon="13.755051720000859"><ele>383.79999999999995</ele><time>2026-05-02T10:12:47Z</time></trkpt><trkpt lat="42.28372701334391" lon="13.754879577312135"><ele>384.6</ele><time>2026-05-02T10:12:48Z</time></trkpt><trkpt lat="42.28367968390191" lon="13.754735069589579"><ele>385.4</ele><time>2026-05-02T10:12:49Z</time></trkpt><trkpt lat="42.28364919074668" lon="13.754627508810719"><ele>386.20000000000005</ele><time>2026-05-02T10:12:50Z</time></trkpt><trkpt lat="42.28362479751603" lon="13.75454011036074"><ele>387.0</ele><time>2026-05-02T10:12:51Z</time></trkpt><trkpt lat="42.28360721001587" lon="13.754429002666589"><ele>386.20000000000005</ele><time>2026-05-02T10:12:52Z</time></trkpt><trkpt lat="42.28356993548417" lon="13.75432515242586"><ele>385.4</ele><time>2026-05-02T10:12:53Z</time></trkpt><trkpt lat="42.2835489138354" lon="13.754208218180189"><ele>384.6</ele><time>2026-05-02T10:12:54Z</time></trkpt><trkpt lat="42.283523662240064" lon="13.754067851035186"><ele>383.79999999999995</ele><time>2026-05-02T10:12:55Z</time></trkpt><trkpt lat="42.283498718718675" lon="13.753912126853493"><ele>383.0</ele><time>2026-05-02T10:12:56Z</time></trkpt><trkpt lat="42.28347694180205" lon="13.753743519400805"><ele>383.0</ele><time>2026-05-02T10:12:57Z</time></trkpt><trkpt lat="42.283467894587055" lon="13.753556029775941"><ele>383.0</ele><time>2026-05-02T10:12:58Z</time></trkpt><trkpt lat="42.28344608708333" lon="13.753372053178252"><ele>383.0</ele><time>2026-05-02T10:12:59Z</time></trkpt><trkpt lat="42.2834239538772" lon="13.753167182964198"><ele>383.0</ele><time>2026-05-02T10:13:00Z</time></trkpt><trkpt lat="42.283407927255" lon="13.752957346680509"><ele>383.5</ele><time>2026-05-02T10:13:01Z</time></trkpt><trkpt lat="42.283400558460364" lon="13.752766869471136"><ele>384.0</ele><time>2026-05-02T10:13:02Z</time></trkpt><trkpt lat="42.28338160232227" lon="13.752592921333251"><ele>384.5</ele><time>2026-05-02T10:13:03Z</time></trkpt><trkpt lat="42.28338111536789" lon="13.752444145628264"><ele>385.0</ele><time>2026-05-02T10:13:04Z</time></trkpt><trkpt lat="42.283378873167166" lon="13.752296655341539"><ele>385.25</ele><time>2026-05-02T10:13:05Z</time></trkpt><trkpt lat="42.283375263634746" lon="13.752139151597166"><ele>385.5</ele><time>2026-05-02T10:13:06Z</time></trkpt><trkpt lat="42.28337427458043" lon="13.751964376975817"><ele>385.75</ele><time>2026-05-02T10:13:07Z</time></trkpt><trkpt lat="42.28337686348032" lon="13.751798477969677"><ele>386.0</ele><time>2026-05-02T10:13:08Z</time></trkpt><trkpt lat="42.28337876088376" lon="13.751653169636684"><ele>386.0</ele><time>2026-05-02T10:13:09Z</time></trkpt><trkpt lat="42.28338303318161" lon="13.751541901633335"><ele>386.0</ele><time>2026-05-02T10:13:10Z</time></trkpt><trkpt lat="42.28339704692627" lon="13.751429016743684"><ele>386.0</ele><time>2026-05-02T10:13:12Z</time></trkpt><trkpt lat="42.28318240995229" lon="13.751380671458579"><ele>386.0</ele><time>2026-05-02T10:13:15Z</time></trkpt><trkpt lat="42.2830996670361" lon="13.7513589451207"><ele>386.3333333333333</ele><time>2026-05-02T10:13:16Z</time></trkpt><trkpt lat="42.28301954018293" lon="13.751335148051977"><ele>386.66666666666663</ele><time>2026-05-02T10:13:17Z</time></trkpt><trkpt lat="42.28292592611728" lon="13.751316393245176"><ele>387.0</ele><time>2026-05-02T10:13:18Z</time></trkpt><trkpt lat="42.28284127111048" lon="13.751300691464353"><ele>387.33333333333337</ele><time>2026-05-02T10:13:19Z</time></trkpt><trkpt lat="42.2827686089151" lon="13.751268244023446"><ele>387.6666666666667</ele><time>2026-05-02T10:13:20Z</time></trkpt><trkpt lat="42.28269495498967" lon="13.751216729414129"><ele>388.0</ele><time>2026-05-02T10:13:21Z</time></trkpt><trkpt lat="42.28261657046625" lon="13.751136761797916"><ele>388.0</ele><time>2026-05-02T10:13:22Z</time></trkpt><trkpt lat="42.28253963580639" lon="13.751050358971655"><ele>388.0</ele><time>2026-05-02T10:13:23Z</time></trkpt><trkpt lat="42.28247338309452" lon="13.750965797764023"><ele>388.0</ele><time>2026-05-02T10:13:24Z</time></trkpt><trkpt lat="42.28240382398672" lon="13.750876518118242"><ele>388.0</ele><time>2026-05-02T10:13:25Z</time></trkpt><trkpt lat="42.28233358876925" lon="13.750809990925227"><ele>388.0</ele><time>2026-05-02T10:13:26Z</time></trkpt><trkpt lat="42.28226056481721" lon="13.750770534497184"><ele>388.50000000000006</ele><time>2026-05-02T10:13:27Z</time></trkpt><trkpt lat="42.28217621607847" lon="13.750756979580723"><ele>389.0</ele><time>2026-05-02T10:13:28Z</time></trkpt><trkpt lat="42.28208430722515" lon="13.750744783919176"><ele>389.5</ele><time>2026-05-02T10:13:29Z</time></trkpt><trkpt lat="42.28200021424768" lon="13.750732522817252"><ele>390.0</ele><time>2026-05-02T10:13:30Z</time></trkpt><trkpt lat="42.28192120700794" lon="13.750712734551675"><ele>390.50000000000006</ele><time>2026-05-02T10:13:31Z</time></trkpt><trkpt lat="42.28184934712625" lon="13.75066975053914"><ele>391.0</ele><time>2026-05-02T10:13:32Z</time></trkpt><trkpt lat="42.28179136594144" lon="13.750611215840744"><ele>391.0</ele><time>2026-05-02T10:13:33Z</time></trkpt><trkpt lat="42.281730724508485" lon="13.75054188554747"><ele>391.0</ele><time>2026-05-02T10:13:34Z</time></trkpt><trkpt lat="42.281664943605904" lon="13.75045775285435"><ele>391.0</ele><time>2026-05-02T10:13:35Z</time></trkpt><trkpt lat="42.28158077728966" lon="13.75037393096936"><ele>391.0</ele><time>2026-05-02T10:13:36Z</time></trkpt><trkpt lat="42.28149016120271" lon="13.750300935703976"><ele>391.0</ele><time>2026-05-02T10:13:37Z</time></trkpt><trkpt lat="42.28138485636072" lon="13.750220370594798"><ele>391.6</ele><time>2026-05-02T10:13:38Z</time></trkpt><trkpt lat="42.2812813444928" lon="13.750157575229794"><ele>392.20000000000005</ele><time>2026-05-02T10:13:39Z</time></trkpt><trkpt lat="42.28118044021427" lon="13.750105134312665"><ele>392.79999999999995</ele><time>2026-05-02T10:13:40Z</time></trkpt><trkpt lat="42.2810850503043" lon="13.75003611429687"><ele>393.4</ele><time>2026-05-02T10:13:41Z</time></trkpt><trkpt lat="42.28098580670801" lon="13.749957184363875"><ele>394.0</ele><time>2026-05-02T10:13:42Z</time></trkpt><trkpt lat="42.280881993016926" lon="13.749867390218853"><ele>394.0</ele><time>2026-05-02T10:13:43Z</time></trkpt><trkpt lat="42.2807840601112" lon="13.749780177130308"><ele>394.0</ele><time>2026-05-02T10:13:44Z</time></trkpt><trkpt lat="42.28070012584923" lon="13.74969896366358"><ele>394.0</ele><time>2026-05-02T10:13:45Z</time></trkpt><trkpt lat="42.28061776979716" lon="13.749633242382655"><ele>394.0</ele><time>2026-05-02T10:13:46Z</time></trkpt><trkpt lat="42.28052633013447" lon="13.749585538530802"><ele>394.0</ele><time>2026-05-02T10:13:47Z</time></trkpt><trkpt lat="42.28042094054605" lon="13.749554647072237"><ele>394.0</ele><time>2026-05-02T10:13:48Z</time></trkpt><trkpt lat="42.280311322261355" lon="13.749527090147893"><ele>394.0</ele><time>2026-05-02T10:13:49Z</time></trkpt><trkpt lat="42.280213060325764" lon="13.74947436945184"><ele>394.0</ele><time>2026-05-02T10:13:50Z</time></trkpt><trkpt lat="42.28011165957816" lon="13.749402639899131"><ele>394.0</ele><time>2026-05-02T10:13:51Z</time></trkpt><trkpt lat="42.280025127838584" lon="13.74933268425654"><ele>394.0</ele><time>2026-05-02T10:13:52Z</time></trkpt><trkpt lat="42.27993080287036" lon="13.749241885231262"><ele>394.5</ele><time>2026-05-02T10:13:53Z</time></trkpt><trkpt lat="42.279840351436384" lon="13.749130981803562"><ele>395.0</ele><time>2026-05-02T10:13:54Z</time></trkpt><trkpt lat="42.27974963527738" lon="13.749021718563553"><ele>395.5</ele><time>2026-05-02T10:13:55Z</time></trkpt><trkpt lat="42.2796629738558" lon="13.748915270114573"><ele>396.0</ele><time>2026-05-02T10:13:56Z</time></trkpt><trkpt lat="42.279578352927054" lon="13.748817241972267"><ele>396.0</ele><time>2026-05-02T10:13:57Z</time></trkpt><trkpt lat="42.27948767830142" lon="13.74872143304967"><ele>396.0</ele><time>2026-05-02T10:13:58Z</time></trkpt><trkpt lat="42.279396964487375" lon="13.748630427203453"><ele>396.0</ele><time>2026-05-02T10:13:59Z</time></trkpt><trkpt lat="42.27930089100943" lon="13.748534531558672"><ele>396.0</ele><time>2026-05-02T10:14:00Z</time></trkpt><trkpt lat="42.27920386060484" lon="13.748439748731961"><ele>396.75</ele><time>2026-05-02T10:14:01Z</time></trkpt><trkpt lat="42.27910619814674" lon="13.7483466580453"><ele>397.5</ele><time>2026-05-02T10:14:02Z</time></trkpt><trkpt lat="42.27899607431799" lon="13.748260646699128"><ele>398.25</ele><time>2026-05-02T10:14:03Z</time></trkpt><trkpt lat="42.278894262320954" lon="13.748188857345989"><ele>399.0</ele><time>2026-05-02T10:14:04Z</time></trkpt><trkpt lat="42.27880801889454" lon="13.748113971236732"><ele>399.0</ele><time>2026-05-02T10:14:05Z</time></trkpt><trkpt lat="42.27872248929969" lon="13.748034674202753"><ele>399.0</ele><time>2026-05-02T10:14:06Z</time></trkpt><trkpt lat="42.27864342166182" lon="13.74796104575749"><ele>399.0</ele><time>2026-05-02T10:14:07Z</time></trkpt><trkpt lat="42.27858503525462" lon="13.747909990905866"><ele>399.0</ele><time>2026-05-02T10:14:08Z</time></trkpt><trkpt lat="42.2785331384398" lon="13.74785821022233"><ele>399.0</ele><time>2026-05-02T10:14:11Z</time></trkpt><trkpt lat="42.27850344818201" lon="13.747751668226678"><ele>399.0</ele><time>2026-05-02T10:14:21Z</time></trkpt><trkpt lat="42.278526435345164" lon="13.747572581262546"><ele>400.1666666666667</ele><time>2026-05-02T10:14:23Z</time></trkpt><trkpt lat="42.2785384509255" lon="13.747476552189472"><ele>401.33333333333337</ele><time>2026-05-02T10:14:24Z</time></trkpt><trkpt lat="42.27853969513794" lon="13.747361813063838"><ele>402.5</ele><time>2026-05-02T10:14:25Z</time></trkpt><trkpt lat="42.278543899650046" lon="13.747239196576944"><ele>403.6666666666667</ele><time>2026-05-02T10:14:26Z</time></trkpt><trkpt lat="42.27855461024203" lon="13.747132484277335"><ele>404.83333333333337</ele><time>2026-05-02T10:14:27Z</time></trkpt><trkpt lat="42.278564117938856" lon="13.747032547403178"><ele>406.0</ele><time>2026-05-02T10:14:29Z</time></trkpt><trkpt lat="42.278440906411205" lon="13.74713487485526"><ele>406.00000000000006</ele><time>2026-05-02T10:14:33Z</time></trkpt><trkpt lat="42.27845163244984" lon="13.747222360576584"><ele>406.0</ele><time>2026-05-02T10:14:34Z</time></trkpt><trkpt lat="42.278430774787694" lon="13.747312870758629"><ele>406.0</ele><time>2026-05-02T10:14:35Z</time></trkpt><trkpt lat="42.27841860878509" lon="13.747399424621578"><ele>406.0</ele><time>2026-05-02T10:14:36Z</time></trkpt><trkpt lat="42.27838511916537" lon="13.747541990245459"><ele>406.00000000000006</ele><time>2026-05-02T10:14:38Z</time></trkpt><trkpt lat="42.278320958095264" lon="13.747543906370494"><ele>406.0</ele><time>2026-05-02T10:14:39Z</time></trkpt><trkpt lat="42.27823760839491" lon="13.747463695763196"><ele>406.0</ele><time>2026-05-02T10:14:41Z</time></trkpt><trkpt lat="42.278195021924944" lon="13.747383625836624"><ele>406.0</ele><time>2026-05-02T10:14:42Z</time></trkpt><trkpt lat="42.27812256855862" lon="13.74731196587526"><ele>406.0</ele><time>2026-05-02T10:14:43Z</time></trkpt><trkpt lat="42.278050953933835" lon="13.747224233041795"><ele>406.0</ele><time>2026-05-02T10:14:44Z</time></trkpt><trkpt lat="42.27797030750678" lon="13.747139799457127"><ele>406.0</ele><time>2026-05-02T10:14:45Z</time></trkpt><trkpt lat="42.27787035264447" lon="13.747092401466437"><ele>405.4</ele><time>2026-05-02T10:14:46Z</time></trkpt><trkpt lat="42.277753652536425" lon="13.747065011203034"><ele>404.8</ele><time>2026-05-02T10:14:47Z</time></trkpt><trkpt lat="42.277652296201126" lon="13.747032219032143"><ele>404.2</ele><time>2026-05-02T10:14:48Z</time></trkpt><trkpt lat="42.277549968498036" lon="13.746972910960551"><ele>403.59999999999997</ele><time>2026-05-02T10:14:49Z</time></trkpt><trkpt lat="42.277459185108306" lon="13.746893697741257"><ele>403.0</ele><time>2026-05-02T10:14:50Z</time></trkpt><trkpt lat="42.27736715456002" lon="13.746787440665454"><ele>404.0</ele><time>2026-05-02T10:14:51Z</time></trkpt><trkpt lat="42.27725922589761" lon="13.746700447347573"><ele>405.0</ele><time>2026-05-02T10:14:52Z</time></trkpt><trkpt lat="42.277175454204624" lon="13.746608554537842"><ele>406.0</ele><time>2026-05-02T10:14:53Z</time></trkpt><trkpt lat="42.27708779133043" lon="13.746547236667226"><ele>407.0</ele><time>2026-05-02T10:14:54Z</time></trkpt><trkpt lat="42.27700028908127" lon="13.746486423973181"><ele>408.0</ele><time>2026-05-02T10:14:55Z</time></trkpt><trkpt lat="42.27688319447245" lon="13.746479357703443"><ele>408.0</ele><time>2026-05-02T10:14:56Z</time></trkpt><trkpt lat="42.276762810854976" lon="13.746483391656632"><ele>408.0</ele><time>2026-05-02T10:14:57Z</time></trkpt><trkpt lat="42.27664038466865" lon="13.74650980360312"><ele>408.0</ele><time>2026-05-02T10:14:58Z</time></trkpt><trkpt lat="42.27652375727296" lon="13.746555196226161"><ele>408.0</ele><time>2026-05-02T10:14:59Z</time></trkpt><trkpt lat="42.276413606531484" lon="13.746563882158473"><ele>408.5</ele><time>2026-05-02T10:15:00Z</time></trkpt><trkpt lat="42.27629723791094" lon="13.746563950055593"><ele>409.0</ele><time>2026-05-02T10:15:01Z</time></trkpt><trkpt lat="42.27617864541755" lon="13.746513684709157"><ele>409.5</ele><time>2026-05-02T10:15:02Z</time></trkpt><trkpt lat="42.276039431677845" lon="13.746460148956757"><ele>410.0</ele><time>2026-05-02T10:15:03Z</time></trkpt><trkpt lat="42.27589957232849" lon="13.746407740784152"><ele>410.0</ele><time>2026-05-02T10:15:04Z</time></trkpt><trkpt lat="42.275773776111656" lon="13.746350249330105"><ele>410.0</ele><time>2026-05-02T10:15:05Z</time></trkpt><trkpt lat="42.275665669540025" lon="13.746290189038431"><ele>410.0</ele><time>2026-05-02T10:15:06.001Z</time></trkpt><trkpt lat="42.27556963223392" lon="13.746225418153715"><ele>410.0</ele><time>2026-05-02T10:15:07.001Z</time></trkpt><trkpt lat="42.2754814382097" lon="13.746159689106484"><ele>409.49999999999994</ele><time>2026-05-02T10:15:08.001Z</time></trkpt><trkpt lat="42.275430361156744" lon="13.746089630943192"><ele>409.0</ele><time>2026-05-02T10:15:09.001Z</time></trkpt><trkpt lat="42.27539864128677" lon="13.74601267594241"><ele>408.5</ele><time>2026-05-02T10:15:10.001Z</time></trkpt><trkpt lat="42.27539493878446" lon="13.745903543752092"><ele>408.0</ele><time>2026-05-02T10:15:11.001Z</time></trkpt><trkpt lat="42.27540138286465" lon="13.745785034250543"><ele>407.49999999999994</ele><time>2026-05-02T10:15:12.001Z</time></trkpt><trkpt lat="42.275371045395644" lon="13.745680003077934"><ele>407.0</ele><time>2026-05-02T10:15:13.001Z</time></trkpt><trkpt lat="42.27530858248578" lon="13.74560987090672"><ele>408.75</ele><time>2026-05-02T10:15:14.001Z</time></trkpt><trkpt lat="42.275236148122495" lon="13.745527630487237"><ele>410.5</ele><time>2026-05-02T10:15:15.001Z</time></trkpt><trkpt lat="42.2751692941874" lon="13.745398554685147"><ele>412.25</ele><time>2026-05-02T10:15:16.001Z</time></trkpt><trkpt lat="42.27507378291459" lon="13.745289441196523"><ele>414.0</ele><time>2026-05-02T10:15:17.001Z</time></trkpt><trkpt lat="42.274989314883065" lon="13.74515839526819"><ele>415.0</ele><time>2026-05-02T10:15:18.001Z</time></trkpt><trkpt lat="42.27490376636068" lon="13.745033235109835"><ele>416.0</ele><time>2026-05-02T10:15:19.001Z</time></trkpt><trkpt lat="42.27483018707342" lon="13.744889197131599"><ele>417.0</ele><time>2026-05-02T10:15:20.001Z</time></trkpt><trkpt lat="42.274741223253635" lon="13.744782912823322"><ele>418.0</ele><time>2026-05-02T10:15:21.001Z</time></trkpt><trkpt lat="42.2746875286843" lon="13.744652132555125"><ele>418.0</ele><time>2026-05-02T10:15:22.001Z</time></trkpt><trkpt lat="42.27463043734702" lon="13.744520312688895"><ele>418.0</ele><time>2026-05-02T10:15:23.001Z</time></trkpt><trkpt lat="42.27455502755805" lon="13.744378686287163"><ele>418.0</ele><time>2026-05-02T10:15:24.001Z</time></trkpt><trkpt lat="42.274496048026656" lon="13.744228416210852"><ele>418.0</ele><time>2026-05-02T10:15:25.001Z</time></trkpt><trkpt lat="42.274435219799315" lon="13.74409992680124"><ele>418.75</ele><time>2026-05-02T10:15:26.001Z</time></trkpt><trkpt lat="42.274373506833" lon="13.743963894337899"><ele>419.5</ele><time>2026-05-02T10:15:27.001Z</time></trkpt><trkpt lat="42.27430284829366" lon="13.743825727118727"><ele>420.25</ele><time>2026-05-02T10:15:28.001Z</time></trkpt><trkpt lat="42.27424933211358" lon="13.7436686177973"><ele>421.0</ele><time>2026-05-02T10:15:29.001Z</time></trkpt><trkpt lat="42.27420460272785" lon="13.743514561016047"><ele>422.0</ele><time>2026-05-02T10:15:30.001Z</time></trkpt><trkpt lat="42.27418372132041" lon="13.743383059792283"><ele>423.0</ele><time>2026-05-02T10:15:31.001Z</time></trkpt><trkpt lat="42.274166813730766" lon="13.743272707707082"><ele>424.0</ele><time>2026-05-02T10:15:32.001Z</time></trkpt><trkpt lat="42.27413878318385" lon="13.743142304428167"><ele>425.0</ele><time>2026-05-02T10:15:33.001Z</time></trkpt><trkpt lat="42.27410850206504" lon="13.743012965731946"><ele>426.0</ele><time>2026-05-02T10:15:34.001Z</time></trkpt><trkpt lat="42.274056884178094" lon="13.742881742488947"><ele>426.0</ele><time>2026-05-02T10:15:35.001Z</time></trkpt><trkpt lat="42.274013831913805" lon="13.74272277634572"><ele>426.0</ele><time>2026-05-02T10:15:36.001Z</time></trkpt><trkpt lat="42.27397691863068" lon="13.742569820616465"><ele>426.0</ele><time>2026-05-02T10:15:37.001Z</time></trkpt><trkpt lat="42.27393812898307" lon="13.742441574196008"><ele>426.0</ele><time>2026-05-02T10:15:38.001Z</time></trkpt><trkpt lat="42.27391014150147" lon="13.742317239660254"><ele>426.0</ele><time>2026-05-02T10:15:39.001Z</time></trkpt><trkpt lat="42.273882991159525" lon="13.74222187335616"><ele>428.0</ele><time>2026-05-02T10:15:40.001Z</time></trkpt><trkpt lat="42.27385787421603" lon="13.742131419575571"><ele>430.0</ele><time>2026-05-02T10:15:41.001Z</time></trkpt><trkpt lat="42.27379603551374" lon="13.742028786776922"><ele>432.0</ele><time>2026-05-02T10:15:43.001Z</time></trkpt><trkpt lat="42.273735051730185" lon="13.742074594502338"><ele>434.0</ele><time>2026-05-02T10:15:45.001Z</time></trkpt><trkpt lat="42.27369658095831" lon="13.742149107584448"><ele>436.0</ele><time>2026-05-02T10:15:46.001Z</time></trkpt><trkpt lat="42.273661114449" lon="13.74224910971873"><ele>438.0</ele><time>2026-05-02T10:15:47.001Z</time></trkpt><trkpt lat="42.27360932428022" lon="13.742337993204998"><ele>438.0</ele><time>2026-05-02T10:15:48.001Z</time></trkpt><trkpt lat="42.27354426646298" lon="13.742415375844178"><ele>437.99999999999994</ele><time>2026-05-02T10:15:49.001Z</time></trkpt><trkpt lat="42.273456037889524" lon="13.74250105979542"><ele>437.99999999999994</ele><time>2026-05-02T10:15:50.001Z</time></trkpt><trkpt lat="42.27335468580258" lon="13.742572120998982"><ele>438.0</ele><time>2026-05-02T10:15:51.001Z</time></trkpt><trkpt lat="42.27324374589097" lon="13.74262878113923"><ele>438.0</ele><time>2026-05-02T10:15:52.001Z</time></trkpt><trkpt lat="42.273120981403125" lon="13.742692789560374"><ele>437.25</ele><time>2026-05-02T10:15:53.001Z</time></trkpt><trkpt lat="42.27299588512528" lon="13.742773641199491"><ele>436.5</ele><time>2026-05-02T10:15:54.001Z</time></trkpt><trkpt lat="42.27288035429101" lon="13.742861895432352"><ele>435.75</ele><time>2026-05-02T10:15:55.001Z</time></trkpt><trkpt lat="42.27275852329013" lon="13.742910362242066"><ele>435.0</ele><time>2026-05-02T10:15:56.001Z</time></trkpt><trkpt lat="42.27264958310458" lon="13.742967473547852"><ele>435.0</ele><time>2026-05-02T10:15:57.001Z</time></trkpt><trkpt lat="42.27254536636905" lon="13.743022128580524"><ele>435.0</ele><time>2026-05-02T10:15:58.001Z</time></trkpt><trkpt lat="42.27244635469811" lon="13.743074599339497"><ele>435.0</ele><time>2026-05-02T10:15:59.001Z</time></trkpt><trkpt lat="42.27235319103863" lon="13.743147326515885"><ele>435.0</ele><time>2026-05-02T10:16:00.001Z</time></trkpt><trkpt lat="42.27225189433748" lon="13.743200376966337"><ele>435.0</ele><time>2026-05-02T10:16:01.001Z</time></trkpt><trkpt lat="42.27215064563583" lon="13.743282533760542"><ele>436.8</ele><time>2026-05-02T10:16:02.001Z</time></trkpt><trkpt lat="42.27205462848203" lon="13.743371442346533"><ele>438.6</ele><time>2026-05-02T10:16:03.001Z</time></trkpt><trkpt lat="42.27197729697291" lon="13.743460313605206"><ele>440.4</ele><time>2026-05-02T10:16:04.001Z</time></trkpt><trkpt lat="42.271908678985724" lon="13.74353463162145"><ele>442.2</ele><time>2026-05-02T10:16:05.001Z</time></trkpt><trkpt lat="42.27183848814013" lon="13.74362074049634"><ele>444.0</ele><time>2026-05-02T10:16:06.001Z</time></trkpt><trkpt lat="42.27175759934481" lon="13.743717380881474"><ele>441.1666666666667</ele><time>2026-05-02T10:16:07.001Z</time></trkpt><trkpt lat="42.27167781716203" lon="13.743805881222677"><ele>438.33333333333337</ele><time>2026-05-02T10:16:08.001Z</time></trkpt><trkpt lat="42.27160488131055" lon="13.7438792840771"><ele>435.5</ele><time>2026-05-02T10:16:09.001Z</time></trkpt><trkpt lat="42.27153667340137" lon="13.743923934944876"><ele>432.6666666666667</ele><time>2026-05-02T10:16:10.001Z</time></trkpt><trkpt lat="42.27146170673849" lon="13.74395259100456"><ele>429.83333333333337</ele><time>2026-05-02T10:16:11.001Z</time></trkpt><trkpt lat="42.27137369277437" lon="13.743975890319367"><ele>427.0</ele><time>2026-05-02T10:16:12.001Z</time></trkpt><trkpt lat="42.2712662987279" lon="13.743992537307166"><ele>427.0</ele><time>2026-05-02T10:16:13.001Z</time></trkpt><trkpt lat="42.27116879474964" lon="13.744002099056216"><ele>427.00000000000006</ele><time>2026-05-02T10:16:14.001Z</time></trkpt><trkpt lat="42.27109369857006" lon="13.744011726716277"><ele>427.00000000000006</ele><time>2026-05-02T10:16:15.001Z</time></trkpt><trkpt lat="42.27098272979305" lon="13.744064502204864"><ele>427.0</ele><time>2026-05-02T10:16:17.001Z</time></trkpt><trkpt lat="42.27090869405275" lon="13.744113677194848"><ele>427.0</ele><time>2026-05-02T10:16:19.001Z</time></trkpt><trkpt lat="42.2708282261103" lon="13.744089924793538"><ele>427.0</ele><time>2026-05-02T10:16:22.001Z</time></trkpt><trkpt lat="42.270669487388" lon="13.74390858569109"><ele>427.0</ele><time>2026-05-02T10:16:24.001Z</time></trkpt><trkpt lat="42.270569943472154" lon="13.743882165694036"><ele>427.0</ele><time>2026-05-02T10:16:25.001Z</time></trkpt><trkpt lat="42.27046186132424" lon="13.743850898763228"><ele>427.0</ele><time>2026-05-02T10:16:26.001Z</time></trkpt><trkpt lat="42.27037278974151" lon="13.74381836925349"><ele>427.20000000000005</ele><time>2026-05-02T10:16:27.001Z</time></trkpt><trkpt lat="42.270287369108004" lon="13.743772383212328"><ele>427.40000000000003</ele><time>2026-05-02T10:16:28.001Z</time></trkpt><trkpt lat="42.27020843458861" lon="13.743703298743064"><ele>427.59999999999997</ele><time>2026-05-02T10:16:29.001Z</time></trkpt><trkpt lat="42.270105715461945" lon="13.743625280757461"><ele>427.79999999999995</ele><time>2026-05-02T10:16:30.001Z</time></trkpt><trkpt lat="42.27000121422506" lon="13.743548847179518"><ele>428.0</ele><time>2026-05-02T10:16:31.001Z</time></trkpt><trkpt lat="42.269909068528996" lon="13.743462754190348"><ele>429.2</ele><time>2026-05-02T10:16:32.001Z</time></trkpt><trkpt lat="42.26982943838347" lon="13.743381505347521"><ele>430.4</ele><time>2026-05-02T10:16:33.001Z</time></trkpt><trkpt lat="42.26972955484526" lon="13.74331074125016"><ele>431.59999999999997</ele><time>2026-05-02T10:16:34.001Z</time></trkpt><trkpt lat="42.26962273594529" lon="13.743263660558572"><ele>432.79999999999995</ele><time>2026-05-02T10:16:35.001Z</time></trkpt><trkpt lat="42.26951226843425" lon="13.743219915780834"><ele>434.0</ele><time>2026-05-02T10:16:36.001Z</time></trkpt><trkpt lat="42.269398491604846" lon="13.743202456859166"><ele>434.2</ele><time>2026-05-02T10:16:37.001Z</time></trkpt><trkpt lat="42.26929453453242" lon="13.743211761796275"><ele>434.4</ele><time>2026-05-02T10:16:38.001Z</time></trkpt><trkpt lat="42.26920204110417" lon="13.74324375567992"><ele>434.6</ele><time>2026-05-02T10:16:39.001Z</time></trkpt><trkpt lat="42.26911466675153" lon="13.74327887641549"><ele>434.8</ele><time>2026-05-02T10:16:40.001Z</time></trkpt><trkpt lat="42.26905974014423" lon="13.743324778562584"><ele>435.0</ele><time>2026-05-02T10:16:41.001Z</time></trkpt><trkpt lat="42.26901570052385" lon="13.743457805114685"><ele>436.4</ele><time>2026-05-02T10:16:43.001Z</time></trkpt><trkpt lat="42.26894987081732" lon="13.743586125672458"><ele>437.8</ele><time>2026-05-02T10:16:45.001Z</time></trkpt><trkpt lat="42.26888771978881" lon="13.743633177844425"><ele>439.20000000000005</ele><time>2026-05-02T10:16:46.001Z</time></trkpt><trkpt lat="42.26881508325561" lon="13.743711059868854"><ele>440.6</ele><time>2026-05-02T10:16:47.001Z</time></trkpt><trkpt lat="42.268734508620526" lon="13.743786273106043"><ele>442.0</ele><time>2026-05-02T10:16:48.001Z</time></trkpt><trkpt lat="42.26865376542672" lon="13.743804792335501"><ele>442.40000000000003</ele><time>2026-05-02T10:16:49.001Z</time></trkpt><trkpt lat="42.26857221990932" lon="13.74379523899994"><ele>442.80000000000007</ele><time>2026-05-02T10:16:50.001Z</time></trkpt><trkpt lat="42.26849305848186" lon="13.743767199137103"><ele>443.2</ele><time>2026-05-02T10:16:51.001Z</time></trkpt><trkpt lat="42.26839435559666" lon="13.743737650311287"><ele>443.6</ele><time>2026-05-02T10:16:52.001Z</time></trkpt><trkpt lat="42.26829951781051" lon="13.74372937054027"><ele>444.0</ele><time>2026-05-02T10:16:53.001Z</time></trkpt><trkpt lat="42.26820188573151" lon="13.743686689835098"><ele>444.0</ele><time>2026-05-02T10:16:54.001Z</time></trkpt><trkpt lat="42.268117259559325" lon="13.743623715981112"><ele>444.0</ele><time>2026-05-02T10:16:55.001Z</time></trkpt><trkpt lat="42.26802102872499" lon="13.743545920198114"><ele>444.0</ele><time>2026-05-02T10:16:56.001Z</time></trkpt><trkpt lat="42.2679201950902" lon="13.743470577036426"><ele>444.0</ele><time>2026-05-02T10:16:57.001Z</time></trkpt><trkpt lat="42.267815285214425" lon="13.743406125047027"><ele>444.0</ele><time>2026-05-02T10:16:58.001Z</time></trkpt><trkpt lat="42.26771131252955" lon="13.743367480684254"><ele>444.4</ele><time>2026-05-02T10:16:59.001Z</time></trkpt><trkpt lat="42.267605411256" lon="13.743347277754017"><ele>444.79999999999995</ele><time>2026-05-02T10:17:00.001Z</time></trkpt><trkpt lat="42.267511480213294" lon="13.743345651429218"><ele>445.20000000000005</ele><time>2026-05-02T10:17:01.001Z</time></trkpt><trkpt lat="42.26741887484579" lon="13.743370517356377"><ele>445.6</ele><time>2026-05-02T10:17:02.001Z</time></trkpt><trkpt lat="42.267304792390924" lon="13.74340452999191"><ele>446.0</ele><time>2026-05-02T10:17:03.001Z</time></trkpt><trkpt lat="42.267198561757795" lon="13.743419999242809"><ele>446.0</ele><time>2026-05-02T10:17:04.001Z</time></trkpt><trkpt lat="42.26709258659379" lon="13.74344197322304"><ele>446.0</ele><time>2026-05-02T10:17:05.001Z</time></trkpt><trkpt lat="42.26698162202171" lon="13.743506171303071"><ele>446.0</ele><time>2026-05-02T10:17:06.001Z</time></trkpt><trkpt lat="42.26687918422308" lon="13.743562209595426"><ele>446.0</ele><time>2026-05-02T10:17:07.001Z</time></trkpt><trkpt lat="42.26679010749112" lon="13.743595699158014"><ele>446.0</ele><time>2026-05-02T10:17:08.001Z</time></trkpt><trkpt lat="42.26668514821701" lon="13.743607424905912"><ele>446.5</ele><time>2026-05-02T10:17:09.001Z</time></trkpt><trkpt lat="42.26656926992374" lon="13.743603300289468"><ele>447.0</ele><time>2026-05-02T10:17:10.001Z</time></trkpt><trkpt lat="42.26645180922785" lon="13.743583570776028"><ele>447.5</ele><time>2026-05-02T10:17:11.001Z</time></trkpt><trkpt lat="42.266325627561415" lon="13.743554343935797"><ele>448.0</ele><time>2026-05-02T10:17:12.001Z</time></trkpt><trkpt lat="42.266206321152985" lon="13.743514806356767"><ele>448.0</ele><time>2026-05-02T10:17:13.001Z</time></trkpt><trkpt lat="42.26609735892435" lon="13.743493276373503"><ele>448.0</ele><time>2026-05-02T10:17:14.001Z</time></trkpt><trkpt lat="42.26599256999939" lon="13.743496109300214"><ele>448.0</ele><time>2026-05-02T10:17:15.001Z</time></trkpt><trkpt lat="42.26587404110175" lon="13.743518332347794"><ele>448.0</ele><time>2026-05-02T10:17:16.001Z</time></trkpt><trkpt lat="42.265747717514415" lon="13.743531111595212"><ele>448.0</ele><time>2026-05-02T10:17:17.001Z</time></trkpt><trkpt lat="42.26561204893852" lon="13.743525917559273"><ele>448.0</ele><time>2026-05-02T10:17:18.001Z</time></trkpt><trkpt lat="42.26549241239033" lon="13.743527123702975"><ele>448.0</ele><time>2026-05-02T10:17:19.001Z</time></trkpt><trkpt lat="42.2653854757761" lon="13.743550945293133"><ele>448.0</ele><time>2026-05-02T10:17:20.001Z</time></trkpt><trkpt lat="42.26527426814821" lon="13.74360798142627"><ele>448.0</ele><time>2026-05-02T10:17:21.001Z</time></trkpt><trkpt lat="42.26516066777042" lon="13.743682801560128"><ele>448.0</ele><time>2026-05-02T10:17:22.001Z</time></trkpt><trkpt lat="42.26504296744718" lon="13.743758875805018"><ele>448.0</ele><time>2026-05-02T10:17:23.001Z</time></trkpt><trkpt lat="42.26493622644483" lon="13.743847974747482"><ele>448.0</ele><time>2026-05-02T10:17:24.001Z</time></trkpt><trkpt lat="42.264844038198945" lon="13.743936629453941"><ele>448.0</ele><time>2026-05-02T10:17:25.001Z</time></trkpt><trkpt lat="42.264745848030586" lon="13.744011667386538"><ele>448.0</ele><time>2026-05-02T10:17:26.001Z</time></trkpt><trkpt lat="42.26462786376489" lon="13.744071176505804"><ele>448.0</ele><time>2026-05-02T10:17:27.001Z</time></trkpt><trkpt lat="42.264504346219915" lon="13.744102789466798"><ele>448.0</ele><time>2026-05-02T10:17:28.001Z</time></trkpt><trkpt lat="42.26438531058986" lon="13.744108129012776"><ele>448.0</ele><time>2026-05-02T10:17:29.001Z</time></trkpt><trkpt lat="42.26426004894679" lon="13.744086816226332"><ele>448.0</ele><time>2026-05-02T10:17:30.001Z</time></trkpt><trkpt lat="42.26411921311505" lon="13.744049749673971"><ele>448.0</ele><time>2026-05-02T10:17:31.001Z</time></trkpt><trkpt lat="42.263975079256646" lon="13.744022813702086"><ele>448.0</ele><time>2026-05-02T10:17:32.001Z</time></trkpt><trkpt lat="42.26382753274933" lon="13.743997343405509"><ele>448.5</ele><time>2026-05-02T10:17:33.001Z</time></trkpt><trkpt lat="42.26368484304131" lon="13.743963862652532"><ele>449.0</ele><time>2026-05-02T10:17:34.001Z</time></trkpt><trkpt lat="42.26354124507587" lon="13.743923582014084"><ele>449.5</ele><time>2026-05-02T10:17:35.001Z</time></trkpt><trkpt lat="42.2633920490918" lon="13.743895728957067"><ele>450.0</ele><time>2026-05-02T10:17:36.001Z</time></trkpt><trkpt lat="42.26324098410401" lon="13.74390173463289"><ele>450.75</ele><time>2026-05-02T10:17:37.001Z</time></trkpt><trkpt lat="42.2630894931591" lon="13.74391951512591"><ele>451.5</ele><time>2026-05-02T10:17:38.001Z</time></trkpt><trkpt lat="42.26293499117834" lon="13.743939672522702"><ele>452.25</ele><time>2026-05-02T10:17:39.001Z</time></trkpt><trkpt lat="42.262794460415364" lon="13.743951410181264"><ele>453.0</ele><time>2026-05-02T10:17:40.001Z</time></trkpt><trkpt lat="42.26266434919545" lon="13.743967851146722"><ele>453.0</ele><time>2026-05-02T10:17:41.001Z</time></trkpt><trkpt lat="42.26254442391796" lon="13.743981029265324"><ele>452.99999999999994</ele><time>2026-05-02T10:17:42.001Z</time></trkpt><trkpt lat="42.262435093764175" lon="13.74399056533049"><ele>452.99999999999994</ele><time>2026-05-02T10:17:43.001Z</time></trkpt><trkpt lat="42.26234563308848" lon="13.743994255638277"><ele>453.0</ele><time>2026-05-02T10:17:44.001Z</time></trkpt><trkpt lat="42.262274303468374" lon="13.743973712601134"><ele>453.0</ele><time>2026-05-02T10:17:45.001Z</time></trkpt><trkpt lat="42.262216180424545" lon="13.743918351790517"><ele>453.79999999999995</ele><time>2026-05-02T10:17:46.001Z</time></trkpt><trkpt lat="42.262166892684995" lon="13.743830851137412"><ele>454.59999999999997</ele><time>2026-05-02T10:17:47.001Z</time></trkpt><trkpt lat="42.26211250912855" lon="13.743725418517865"><ele>455.40000000000003</ele><time>2026-05-02T10:17:48.001Z</time></trkpt><trkpt lat="42.26204429160068" lon="13.743624224522101"><ele>456.20000000000005</ele><time>2026-05-02T10:17:49.001Z</time></trkpt><trkpt lat="42.26195300262262" lon="13.743552586607633"><ele>457.0</ele><time>2026-05-02T10:17:50.001Z</time></trkpt><trkpt lat="42.26184312251626" lon="13.743474054949328"><ele>457.25</ele><time>2026-05-02T10:17:51.001Z</time></trkpt><trkpt lat="42.26173373598011" lon="13.743383001877548"><ele>457.5</ele><time>2026-05-02T10:17:52.001Z</time></trkpt><trkpt lat="42.26162549800576" lon="13.743295885375174"><ele>457.75</ele><time>2026-05-02T10:17:53.001Z</time></trkpt><trkpt lat="42.261505617531924" lon="13.74320676214827"><ele>458.0</ele><time>2026-05-02T10:17:54.001Z</time></trkpt><trkpt lat="42.26138848164053" lon="13.74312315805491"><ele>458.5</ele><time>2026-05-02T10:17:55.001Z</time></trkpt><trkpt lat="42.26127592919888" lon="13.743055445498848"><ele>459.0</ele><time>2026-05-02T10:17:56.001Z</time></trkpt><trkpt lat="42.261155823287766" lon="13.742991273399525"><ele>459.5</ele><time>2026-05-02T10:17:57.001Z</time></trkpt><trkpt lat="42.261025718822886" lon="13.742923932574389"><ele>460.0</ele><time>2026-05-02T10:17:58.001Z</time></trkpt><trkpt lat="42.260887234375566" lon="13.742866719459665"><ele>460.0</ele><time>2026-05-02T10:17:59.001Z</time></trkpt><trkpt lat="42.26076052104356" lon="13.74281576280239"><ele>460.0</ele><time>2026-05-02T10:18:00.001Z</time></trkpt><trkpt lat="42.26064861068732" lon="13.742761788065904"><ele>460.0</ele><time>2026-05-02T10:18:01.001Z</time></trkpt><trkpt lat="42.260550628114316" lon="13.74269299795975"><ele>460.0</ele><time>2026-05-02T10:18:02.001Z</time></trkpt><trkpt lat="42.260471098287795" lon="13.742600988270125"><ele>461.8</ele><time>2026-05-02T10:18:03.001Z</time></trkpt><trkpt lat="42.26038906060176" lon="13.742539193775494"><ele>463.6</ele><time>2026-05-02T10:18:04.001Z</time></trkpt><trkpt lat="42.26029617316134" lon="13.742522377390765"><ele>465.4</ele><time>2026-05-02T10:18:05.001Z</time></trkpt><trkpt lat="42.2601865966172" lon="13.742525073652843"><ele>467.2</ele><time>2026-05-02T10:18:06.001Z</time></trkpt><trkpt lat="42.260084709160004" lon="13.74251938447882"><ele>469.0</ele><time>2026-05-02T10:18:07.001Z</time></trkpt><trkpt lat="42.25999947261685" lon="13.742518432849979"><ele>469.0</ele><time>2026-05-02T10:18:08.001Z</time></trkpt><trkpt lat="42.25991776457631" lon="13.742563438620689"><ele>469.0</ele><time>2026-05-02T10:18:09.001Z</time></trkpt><trkpt lat="42.25983903671063" lon="13.742638333618585"><ele>469.0</ele><time>2026-05-02T10:18:10.001Z</time></trkpt><trkpt lat="42.25974597651105" lon="13.742721897552459"><ele>469.0</ele><time>2026-05-02T10:18:11.001Z</time></trkpt><trkpt lat="42.259642420473824" lon="13.742803655939603"><ele>469.0</ele><time>2026-05-02T10:18:12.001Z</time></trkpt><trkpt lat="42.25954540189455" lon="13.742902203300215"><ele>470.2</ele><time>2026-05-02T10:18:13.001Z</time></trkpt><trkpt lat="42.259463690570904" lon="13.743002166003116"><ele>471.4</ele><time>2026-05-02T10:18:14.001Z</time></trkpt><trkpt lat="42.2593837282545" lon="13.743110683042845"><ele>472.6</ele><time>2026-05-02T10:18:15.001Z</time></trkpt><trkpt lat="42.25930715613295" lon="13.743231213876518"><ele>473.8</ele><time>2026-05-02T10:18:16.001Z</time></trkpt><trkpt lat="42.25924531392675" lon="13.74333191528092"><ele>475.0</ele><time>2026-05-02T10:18:17.001Z</time></trkpt><trkpt lat="42.25917820035547" lon="13.743400534447266"><ele>475.0</ele><time>2026-05-02T10:18:18.001Z</time></trkpt><trkpt lat="42.259097406142544" lon="13.743448788533497"><ele>475.0</ele><time>2026-05-02T10:18:19.001Z</time></trkpt><trkpt lat="42.25900436820484" lon="13.743492167757452"><ele>475.0</ele><time>2026-05-02T10:18:20.001Z</time></trkpt><trkpt lat="42.258914454446554" lon="13.743556825413627"><ele>475.0</ele><time>2026-05-02T10:18:21.001Z</time></trkpt><trkpt lat="42.258840059237855" lon="13.74365943258085"><ele>475.0</ele><time>2026-05-02T10:18:22.001Z</time></trkpt><trkpt lat="42.25877926159925" lon="13.743761770917773"><ele>478.0</ele><time>2026-05-02T10:18:23.001Z</time></trkpt><trkpt lat="42.258712035347834" lon="13.743840788549413"><ele>481.0</ele><time>2026-05-02T10:18:24.001Z</time></trkpt><trkpt lat="42.25863915449939" lon="13.743877006302462"><ele>484.0</ele><time>2026-05-02T10:18:25.001Z</time></trkpt><trkpt lat="42.25855271031935" lon="13.743882186001667"><ele>487.0</ele><time>2026-05-02T10:18:26.001Z</time></trkpt><trkpt lat="42.25845453271411" lon="13.743896670627734"><ele>490.0</ele><time>2026-05-02T10:18:27.001Z</time></trkpt><trkpt lat="42.25834965944815" lon="13.743912253628178"><ele>490.00000000000006</ele><time>2026-05-02T10:18:28.001Z</time></trkpt><trkpt lat="42.25824020755555" lon="13.743921333982303"><ele>490.0</ele><time>2026-05-02T10:18:29.001Z</time></trkpt><trkpt lat="42.25813528851189" lon="13.743917666559192"><ele>490.0</ele><time>2026-05-02T10:18:30.001Z</time></trkpt><trkpt lat="42.258059793563184" lon="13.74393258302207"><ele>490.0</ele><time>2026-05-02T10:18:31.001Z</time></trkpt><trkpt lat="42.25801492650259" lon="13.744001586662371"><ele>490.00000000000006</ele><time>2026-05-02T10:18:32.001Z</time></trkpt><trkpt lat="42.25799502332132" lon="13.744089734888497"><ele>490.0</ele><time>2026-05-02T10:18:33.001Z</time></trkpt><trkpt lat="42.25797474193735" lon="13.744204156453163"><ele>493.0</ele><time>2026-05-02T10:18:34.001Z</time></trkpt><trkpt lat="42.2579490166157" lon="13.74433124996695"><ele>496.0</ele><time>2026-05-02T10:18:35.001Z</time></trkpt><trkpt lat="42.257920417235766" lon="13.744475477835385"><ele>499.0</ele><time>2026-05-02T10:18:36.001Z</time></trkpt><trkpt lat="42.257897853195146" lon="13.744623665840784"><ele>502.0</ele><time>2026-05-02T10:18:37.001Z</time></trkpt><trkpt lat="42.25788437787535" lon="13.744730317281613"><ele>505.0</ele><time>2026-05-02T10:18:38.001Z</time></trkpt><trkpt lat="42.25782983566689" lon="13.744786674705763"><ele>505.0</ele><time>2026-05-02T10:18:40.001Z</time></trkpt><trkpt lat="42.257743526055" lon="13.744676911213311"><ele>505.0</ele><time>2026-05-02T10:18:42.001Z</time></trkpt><trkpt lat="42.25769529682443" lon="13.744578326502253"><ele>505.0</ele><time>2026-05-02T10:18:43.001Z</time></trkpt><trkpt lat="42.25764005811648" lon="13.744448146156198"><ele>505.0</ele><time>2026-05-02T10:18:44.001Z</time></trkpt><trkpt lat="42.25758148813516" lon="13.7443101752158"><ele>505.0</ele><time>2026-05-02T10:18:45.001Z</time></trkpt><trkpt lat="42.25751750721841" lon="13.744190424796217"><ele>505.0</ele><time>2026-05-02T10:18:46.001Z</time></trkpt><trkpt lat="42.25745222832822" lon="13.744088086559989"><ele>505.0</ele><time>2026-05-02T10:18:47.001Z</time></trkpt><trkpt lat="42.25738007020912" lon="13.74401918233083"><ele>505.0</ele><time>2026-05-02T10:18:48.001Z</time></trkpt><trkpt lat="42.25729147970477" lon="13.743976216497996"><ele>505.0</ele><time>2026-05-02T10:18:49.001Z</time></trkpt><trkpt lat="42.25717766966048" lon="13.743956201592693"><ele>505.0</ele><time>2026-05-02T10:18:50.001Z</time></trkpt><trkpt lat="42.25705963932836" lon="13.743937034252864"><ele>506.50000000000006</ele><time>2026-05-02T10:18:51.001Z</time></trkpt><trkpt lat="42.25695498493844" lon="13.74391192200333"><ele>508.0</ele><time>2026-05-02T10:18:52.001Z</time></trkpt><trkpt lat="42.256859833870195" lon="13.743896672336572"><ele>509.5</ele><time>2026-05-02T10:18:53.001Z</time></trkpt><trkpt lat="42.25677788782526" lon="13.74391636085132"><ele>511.0</ele><time>2026-05-02T10:18:54.001Z</time></trkpt><trkpt lat="42.25670961197636" lon="13.743962859616582"><ele>512.5</ele><time>2026-05-02T10:18:55.001Z</time></trkpt><trkpt lat="42.25665091345472" lon="13.744041660183631"><ele>514.0</ele><time>2026-05-02T10:18:56.001Z</time></trkpt><trkpt lat="42.25659138561498" lon="13.744145364525536"><ele>514.0</ele><time>2026-05-02T10:18:57.001Z</time></trkpt><trkpt lat="42.25651781419154" lon="13.74427052774536"><ele>514.0</ele><time>2026-05-02T10:18:58.001Z</time></trkpt><trkpt lat="42.256436015415694" lon="13.744396567661456"><ele>514.0</ele><time>2026-05-02T10:18:59.001Z</time></trkpt><trkpt lat="42.25633673886152" lon="13.744518402085864"><ele>514.0</ele><time>2026-05-02T10:19:00.001Z</time></trkpt><trkpt lat="42.25622951324786" lon="13.74463747141635"><ele>517.75</ele><time>2026-05-02T10:19:01.001Z</time></trkpt><trkpt lat="42.25613002294361" lon="13.744764331946069"><ele>521.5</ele><time>2026-05-02T10:19:02.001Z</time></trkpt><trkpt lat="42.25604831951629" lon="13.744904492518687"><ele>525.25</ele><time>2026-05-02T10:19:03.001Z</time></trkpt><trkpt lat="42.255980802784606" lon="13.745023790075962"><ele>529.0</ele><time>2026-05-02T10:19:04.001Z</time></trkpt><trkpt lat="42.25592161505977" lon="13.745124694079266"><ele>530.8333333333334</ele><time>2026-05-02T10:19:05.001Z</time></trkpt><trkpt lat="42.255860399399154" lon="13.74521334060504"><ele>532.6666666666667</ele><time>2026-05-02T10:19:06.001Z</time></trkpt><trkpt lat="42.2557914311365" lon="13.745255506763208"><ele>534.5</ele><time>2026-05-02T10:19:07.001Z</time></trkpt><trkpt lat="42.255711092246976" lon="13.745267129354009"><ele>536.3333333333334</ele><time>2026-05-02T10:19:08.001Z</time></trkpt><trkpt lat="42.255623143306074" lon="13.745242465557112"><ele>538.1666666666666</ele><time>2026-05-02T10:19:09.001Z</time></trkpt><trkpt lat="42.25553461517997" lon="13.745207907685055"><ele>540.0</ele><time>2026-05-02T10:19:10.001Z</time></trkpt><trkpt lat="42.255441575568526" lon="13.745225584897307"><ele>541.2</ele><time>2026-05-02T10:19:11.001Z</time></trkpt><trkpt lat="42.25534683267129" lon="13.745279641035545"><ele>542.4</ele><time>2026-05-02T10:19:12.001Z</time></trkpt><trkpt lat="42.25525868734059" lon="13.745304547814817"><ele>543.6</ele><time>2026-05-02T10:19:13.001Z</time></trkpt><trkpt lat="42.25517583878805" lon="13.745263963776466"><ele>544.8</ele><time>2026-05-02T10:19:14.001Z</time></trkpt><trkpt lat="42.25511404684144" lon="13.745227384736323"><ele>546.0</ele><time>2026-05-02T10:19:15.001Z</time></trkpt><trkpt lat="42.25504465657009" lon="13.74533329850551"><ele>546.0</ele><time>2026-05-02T10:19:17.001Z</time></trkpt><trkpt lat="42.25506079582175" lon="13.74546587657165"><ele>546.0</ele><time>2026-05-02T10:19:19.001Z</time></trkpt><trkpt lat="42.25496489604188" lon="13.745436190690663"><ele>546.0</ele><time>2026-05-02T10:19:21.001Z</time></trkpt><trkpt lat="42.254884556455586" lon="13.74537596308385"><ele>546.0</ele><time>2026-05-02T10:19:23.001Z</time></trkpt><trkpt lat="42.25485967313414" lon="13.745546221204199"><ele>546.0</ele><time>2026-05-02T10:19:25.001Z</time></trkpt><trkpt lat="42.25486996422831" lon="13.745649389544349"><ele>546.0</ele><time>2026-05-02T10:19:26.001Z</time></trkpt><trkpt lat="42.25479975928938" lon="13.745763733176128"><ele>546.0</ele><time>2026-05-02T10:19:28.001Z</time></trkpt><trkpt lat="42.25473924882957" lon="13.745735947284507"><ele>546.0</ele><time>2026-05-02T10:19:29.001Z</time></trkpt><trkpt lat="42.254691073194685" lon="13.745665850964333"><ele>546.0</ele><time>2026-05-02T10:19:30.001Z</time></trkpt><trkpt lat="42.25464245708355" lon="13.7455754405223"><ele>546.0</ele><time>2026-05-02T10:19:31.001Z</time></trkpt><trkpt lat="42.25457686839426" lon="13.745477221028366"><ele>546.0</ele><time>2026-05-02T10:19:32.001Z</time></trkpt><trkpt lat="42.25451230418126" lon="13.745383290790405"><ele>549.8</ele><time>2026-05-02T10:19:33.001Z</time></trkpt><trkpt lat="42.254442905319735" lon="13.745289009475202"><ele>553.6</ele><time>2026-05-02T10:19:34.001Z</time></trkpt><trkpt lat="42.254374532352855" lon="13.745253281286118"><ele>557.4</ele><time>2026-05-02T10:19:35.001Z</time></trkpt><trkpt lat="42.25429490615613" lon="13.74528215623973"><ele>561.2</ele><time>2026-05-02T10:19:36.001Z</time></trkpt><trkpt lat="42.25420605775231" lon="13.745339267281683"><ele>565.0</ele><time>2026-05-02T10:19:37.001Z</time></trkpt><trkpt lat="42.254106688959254" lon="13.745384638406644"><ele>565.0</ele><time>2026-05-02T10:19:38.001Z</time></trkpt><trkpt lat="42.25399858187182" lon="13.745388066059625"><ele>565.0</ele><time>2026-05-02T10:19:39.001Z</time></trkpt><trkpt lat="42.253896821901954" lon="13.745365832002042"><ele>565.0</ele><time>2026-05-02T10:19:40.001Z</time></trkpt><trkpt lat="42.253814959808324" lon="13.745323555145426"><ele>565.0</ele><time>2026-05-02T10:19:41.001Z</time></trkpt><trkpt lat="42.25373013954429" lon="13.74525627711902"><ele>565.0</ele><time>2026-05-02T10:19:42.001Z</time></trkpt><trkpt lat="42.253628024491114" lon="13.745215849109305"><ele>566.25</ele><time>2026-05-02T10:19:43.001Z</time></trkpt><trkpt lat="42.2535226827103" lon="13.7451863822482"><ele>567.5</ele><time>2026-05-02T10:19:44.001Z</time></trkpt><trkpt lat="42.25340523385789" lon="13.745154472825005"><ele>568.75</ele><time>2026-05-02T10:19:45.001Z</time></trkpt><trkpt lat="42.253288899047234" lon="13.74511569649828"><ele>570.0</ele><time>2026-05-02T10:19:46.001Z</time></trkpt><trkpt lat="42.25317389035904" lon="13.745056855151613"><ele>571.6666666666666</ele><time>2026-05-02T10:19:47.001Z</time></trkpt><trkpt lat="42.25307275329704" lon="13.744997057585808"><ele>573.3333333333334</ele><time>2026-05-02T10:19:48.001Z</time></trkpt><trkpt lat="42.25300059751811" lon="13.744960907680122"><ele>575.0</ele><time>2026-05-02T10:19:49.001Z</time></trkpt><trkpt lat="42.25293909822886" lon="13.744980758014202"><ele>576.6666666666667</ele><time>2026-05-02T10:19:51.001Z</time></trkpt><trkpt lat="42.25296564251132" lon="13.745106764065488"><ele>578.3333333333334</ele><time>2026-05-02T10:19:54.001Z</time></trkpt><trkpt lat="42.2530332107319" lon="13.745172878276383"><ele>580.0</ele><time>2026-05-02T10:19:55.001Z</time></trkpt><trkpt lat="42.25308235094526" lon="13.745238542563468"><ele>584.2</ele><time>2026-05-02T10:19:56.001Z</time></trkpt><trkpt lat="42.253019497524605" lon="13.745328310999035"><ele>588.4</ele><time>2026-05-02T10:19:58.001Z</time></trkpt><trkpt lat="42.25295494807484" lon="13.745315895795903"><ele>592.6</ele><time>2026-05-02T10:19:59.001Z</time></trkpt><trkpt lat="42.25287137563402" lon="13.74529085263561"><ele>596.8</ele><time>2026-05-02T10:20:00.001Z</time></trkpt><trkpt lat="42.25276669192982" lon="13.745271410984023"><ele>601.0</ele><time>2026-05-02T10:20:01.001Z</time></trkpt><trkpt lat="42.25266175298464" lon="13.74526353235469"><ele>601.0</ele><time>2026-05-02T10:20:02.001Z</time></trkpt><trkpt lat="42.25254118094203" lon="13.745249556468613"><ele>601.0</ele><time>2026-05-02T10:20:03.001Z</time></trkpt><trkpt lat="42.252428978356335" lon="13.745235030911003"><ele>601.0</ele><time>2026-05-02T10:20:04.001Z</time></trkpt><trkpt lat="42.252317838392166" lon="13.745252187890395"><ele>601.0</ele><time>2026-05-02T10:20:05.001Z</time></trkpt><trkpt lat="42.25220607789457" lon="13.745309705437798"><ele>603.75</ele><time>2026-05-02T10:20:06.001Z</time></trkpt><trkpt lat="42.252093478086806" lon="13.745371404654664"><ele>606.5</ele><time>2026-05-02T10:20:07.001Z</time></trkpt><trkpt lat="42.25196644540952" lon="13.74541723407582"><ele>609.25</ele><time>2026-05-02T10:20:08.001Z</time></trkpt><trkpt lat="42.25182689251707" lon="13.745449995985872"><ele>612.0</ele><time>2026-05-02T10:20:09.001Z</time></trkpt><trkpt lat="42.251679768627085" lon="13.745471476967287"><ele>612.0</ele><time>2026-05-02T10:20:10.001Z</time></trkpt><trkpt lat="42.25154286268619" lon="13.745481855396655"><ele>612.0</ele><time>2026-05-02T10:20:11.001Z</time></trkpt><trkpt lat="42.25139462806361" lon="13.745482247012793"><ele>612.0</ele><time>2026-05-02T10:20:12.001Z</time></trkpt><trkpt lat="42.25125617721397" lon="13.745473653526513"><ele>612.0</ele><time>2026-05-02T10:20:13.001Z</time></trkpt><trkpt lat="42.2511357774203" lon="13.74546673697326"><ele>612.5</ele><time>2026-05-02T10:20:14.001Z</time></trkpt><trkpt lat="42.251011073202775" lon="13.745473725435359"><ele>613.0</ele><time>2026-05-02T10:20:15.001Z</time></trkpt><trkpt lat="42.25086978299784" lon="13.745493233332054"><ele>613.5</ele><time>2026-05-02T10:20:16.001Z</time></trkpt><trkpt lat="42.25072910549902" lon="13.745517444688536"><ele>614.0</ele><time>2026-05-02T10:20:17.001Z</time></trkpt><trkpt lat="42.25060407140184" lon="13.745546363810185"><ele>614.0</ele><time>2026-05-02T10:20:18.001Z</time></trkpt><trkpt lat="42.25049015978895" lon="13.745569590623179"><ele>614.0</ele><time>2026-05-02T10:20:19.001Z</time></trkpt><trkpt lat="42.250383289406564" lon="13.745595967201032"><ele>614.0</ele><time>2026-05-02T10:20:20.001Z</time></trkpt><trkpt lat="42.25026865866674" lon="13.745649073633414"><ele>614.0</ele><time>2026-05-02T10:20:21.001Z</time></trkpt><trkpt lat="42.25015199171842" lon="13.74572613834792"><ele>614.0</ele><time>2026-05-02T10:20:22.001Z</time></trkpt><trkpt lat="42.25003150525743" lon="13.745803651302674"><ele>614.0</ele><time>2026-05-02T10:20:23.001Z</time></trkpt><trkpt lat="42.2499148087381" lon="13.745895112352414"><ele>614.0</ele><time>2026-05-02T10:20:24.001Z</time></trkpt><trkpt lat="42.24980952792464" lon="13.74600849117075"><ele>614.0</ele><time>2026-05-02T10:20:25.001Z</time></trkpt><trkpt lat="42.249706317319514" lon="13.746129808481104"><ele>618.0</ele><time>2026-05-02T10:20:26.001Z</time></trkpt><trkpt lat="42.24961418404726" lon="13.746232317727483"><ele>622.0</ele><time>2026-05-02T10:20:27.001Z</time></trkpt><trkpt lat="42.2495356298265" lon="13.746312189698237"><ele>626.0</ele><time>2026-05-02T10:20:28.001Z</time></trkpt><trkpt lat="42.24946504269926" lon="13.746377970855846"><ele>630.0</ele><time>2026-05-02T10:20:29.001Z</time></trkpt><trkpt lat="42.24939689906099" lon="13.746413748247495"><ele>634.0</ele><time>2026-05-02T10:20:30.001Z</time></trkpt><trkpt lat="42.24931282602201" lon="13.746420228370742"><ele>634.0</ele><time>2026-05-02T10:20:31.001Z</time></trkpt><trkpt lat="42.24920141389812" lon="13.746393436316204"><ele>634.0</ele><time>2026-05-02T10:20:32.001Z</time></trkpt><trkpt lat="42.24908205227453" lon="13.746364693261016"><ele>634.0</ele><time>2026-05-02T10:20:33.001Z</time></trkpt><trkpt lat="42.24896336711208" lon="13.746320051439987"><ele>634.0</ele><time>2026-05-02T10:20:34.001Z</time></trkpt><trkpt lat="42.24886602532441" lon="13.746260804575368"><ele>637.2</ele><time>2026-05-02T10:20:35.001Z</time></trkpt><trkpt lat="42.24879367662433" lon="13.746199830107724"><ele>640.4</ele><time>2026-05-02T10:20:36.001Z</time></trkpt><trkpt lat="42.24873198520893" lon="13.746106233988447"><ele>643.6</ele><time>2026-05-02T10:20:37.001Z</time></trkpt><trkpt lat="42.24868684645716" lon="13.745975674261555"><ele>646.8</ele><time>2026-05-02T10:20:38.001Z</time></trkpt><trkpt lat="42.24864186680548" lon="13.745826442701944"><ele>650.0</ele><time>2026-05-02T10:20:39.001Z</time></trkpt><trkpt lat="42.248601464215284" lon="13.745667057531454"><ele>650.0</ele><time>2026-05-02T10:20:40.001Z</time></trkpt><trkpt lat="42.24856422614679" lon="13.74548986210917"><ele>650.0</ele><time>2026-05-02T10:20:41.001Z</time></trkpt><trkpt lat="42.2485251839597" lon="13.745311149630528"><ele>650.0</ele><time>2026-05-02T10:20:42.001Z</time></trkpt><trkpt lat="42.24849269104979" lon="13.745122495498528"><ele>650.0</ele><time>2026-05-02T10:20:43.001Z</time></trkpt><trkpt lat="42.24847506365799" lon="13.744943495805044"><ele>648.8</ele><time>2026-05-02T10:20:44.001Z</time></trkpt><trkpt lat="42.248465956215284" lon="13.744775666275864"><ele>647.6</ele><time>2026-05-02T10:20:45.001Z</time></trkpt><trkpt lat="42.24845340188624" lon="13.744635013238168"><ele>646.4000000000001</ele><time>2026-05-02T10:20:46.001Z</time></trkpt><trkpt lat="42.24841409120465" lon="13.744521514518794"><ele>645.2</ele><time>2026-05-02T10:20:47.001Z</time></trkpt><trkpt lat="42.24835377719762" lon="13.744393777544698"><ele>644.0</ele><time>2026-05-02T10:20:48.001Z</time></trkpt><trkpt lat="42.24829406003128" lon="13.744256730476113"><ele>641.75</ele><time>2026-05-02T10:20:49.001Z</time></trkpt><trkpt lat="42.24821968922935" lon="13.744127694447599"><ele>639.5</ele><time>2026-05-02T10:20:50.001Z</time></trkpt><trkpt lat="42.248136466831795" lon="13.744002107899911"><ele>637.25</ele><time>2026-05-02T10:20:51.001Z</time></trkpt><trkpt lat="42.24805166230363" lon="13.743861658975772"><ele>635.0</ele><time>2026-05-02T10:20:52.001Z</time></trkpt><trkpt lat="42.2479683741994" lon="13.74370977719831"><ele>642.25</ele><time>2026-05-02T10:20:53.001Z</time></trkpt><trkpt lat="42.24787868701342" lon="13.743552947789645"><ele>649.5</ele><time>2026-05-02T10:20:54.001Z</time></trkpt><trkpt lat="42.247797733523484" lon="13.743402414059805"><ele>656.75</ele><time>2026-05-02T10:20:55.001Z</time></trkpt><trkpt lat="42.24771330993916" lon="13.74326406587966"><ele>664.0</ele><time>2026-05-02T10:20:56.001Z</time></trkpt><trkpt lat="42.24762362748932" lon="13.743132306483412"><ele>664.0</ele><time>2026-05-02T10:20:57.001Z</time></trkpt><trkpt lat="42.247536063087615" lon="13.742996515678243"><ele>664.0</ele><time>2026-05-02T10:20:58.001Z</time></trkpt><trkpt lat="42.247457818737544" lon="13.742857485478298"><ele>664.0</ele><time>2026-05-02T10:20:59.001Z</time></trkpt><trkpt lat="42.2473724604026" lon="13.742695500131525"><ele>664.0</ele><time>2026-05-02T10:21:00.001Z</time></trkpt><trkpt lat="42.247146032739316" lon="13.742706699054585"><ele>669.5</ele><time>2026-05-02T10:21:01.001Z</time></trkpt><trkpt lat="42.24707411339691" lon="13.742584644334206"><ele>675.0</ele><time>2026-05-02T10:21:02.001Z</time></trkpt><trkpt lat="42.24699010717055" lon="13.74245264963949"><ele>680.5</ele><time>2026-05-02T10:21:03.001Z</time></trkpt><trkpt lat="42.246899274539196" lon="13.742315139109767"><ele>686.0</ele><time>2026-05-02T10:21:04.001Z</time></trkpt><trkpt lat="42.24680571999676" lon="13.742184199406186"><ele>686.0</ele><time>2026-05-02T10:21:05.001Z</time></trkpt><trkpt lat="42.24670933239266" lon="13.742056477909623"><ele>686.0</ele><time>2026-05-02T10:21:06.001Z</time></trkpt><trkpt lat="42.246611584822304" lon="13.741940775468375"><ele>686.0</ele><time>2026-05-02T10:21:07.001Z</time></trkpt><trkpt lat="42.24652545591262" lon="13.741848351120069"><ele>686.0</ele><time>2026-05-02T10:21:08.001Z</time></trkpt><trkpt lat="42.246454137517205" lon="13.741766269549021"><ele>688.8</ele><time>2026-05-02T10:21:09.001Z</time></trkpt><trkpt lat="42.246407473243686" lon="13.74169528680437"><ele>691.5999999999999</ele><time>2026-05-02T10:21:10.001Z</time></trkpt><trkpt lat="42.246326763060324" lon="13.74162487447101"><ele>694.4</ele><time>2026-05-02T10:21:12.001Z</time></trkpt><trkpt lat="42.24628707414758" lon="13.741550392062436"><ele>697.2</ele><time>2026-05-02T10:21:13.001Z</time></trkpt><trkpt lat="42.24622634329469" lon="13.741443608048865"><ele>700.0</ele><time>2026-05-02T10:21:14.001Z</time></trkpt><trkpt lat="42.2461482601166" lon="13.741310144365812"><ele>700.0</ele><time>2026-05-02T10:21:15.001Z</time></trkpt><trkpt lat="42.24606403200758" lon="13.741166602977813"><ele>700.0</ele><time>2026-05-02T10:21:16.001Z</time></trkpt><trkpt lat="42.24597379346867" lon="13.741025236368047"><ele>700.0</ele><time>2026-05-02T10:21:17.001Z</time></trkpt><trkpt lat="42.24588794667403" lon="13.740853997433538"><ele>700.0</ele><time>2026-05-02T10:21:18.001Z</time></trkpt><trkpt lat="42.245801894166625" lon="13.740668534883591"><ele>699.0</ele><time>2026-05-02T10:21:19.001Z</time></trkpt><trkpt lat="42.245720349142395" lon="13.740484214163233"><ele>698.0</ele><time>2026-05-02T10:21:20.001Z</time></trkpt><trkpt lat="42.24563878199183" lon="13.740318251861783"><ele>697.0</ele><time>2026-05-02T10:21:21.001Z</time></trkpt><trkpt lat="42.245569943058165" lon="13.74015975323746"><ele>696.0</ele><time>2026-05-02T10:21:22.001Z</time></trkpt><trkpt lat="42.245483721822715" lon="13.739995750521773"><ele>696.0</ele><time>2026-05-02T10:21:23.001Z</time></trkpt><trkpt lat="42.24538241803633" lon="13.739822375845986"><ele>696.0</ele><time>2026-05-02T10:21:24.001Z</time></trkpt><trkpt lat="42.245251410937264" lon="13.73967903573566"><ele>696.0</ele><time>2026-05-02T10:21:25.001Z</time></trkpt><trkpt lat="42.24511131647318" lon="13.739549170379723"><ele>690.3333333333334</ele><time>2026-05-02T10:21:26.001Z</time></trkpt><trkpt lat="42.24501759707194" lon="13.73936425648392"><ele>684.6666666666667</ele><time>2026-05-02T10:21:27.001Z</time></trkpt><trkpt lat="42.24491781907665" lon="13.739176645689817"><ele>679.0</ele><time>2026-05-02T10:21:28.001Z</time></trkpt><trkpt lat="42.2448005138944" lon="13.739003068677146"><ele>679.6666666666667</ele><time>2026-05-02T10:21:29.001Z</time></trkpt><trkpt lat="42.2446946577586" lon="13.73882357004349"><ele>680.3333333333334</ele><time>2026-05-02T10:21:30.001Z</time></trkpt><trkpt lat="42.24458436907366" lon="13.738658889286828"><ele>681.0</ele><time>2026-05-02T10:21:31.001Z</time></trkpt><trkpt lat="42.24447143018153" lon="13.73851886749259"><ele>681.0</ele><time>2026-05-02T10:21:32.001Z</time></trkpt><trkpt lat="42.244355063163184" lon="13.738382339375706"><ele>681.0</ele><time>2026-05-02T10:21:33.001Z</time></trkpt><trkpt lat="42.244238582039024" lon="13.738269735125995"><ele>681.0</ele><time>2026-05-02T10:21:34.001Z</time></trkpt><trkpt lat="42.24411713454536" lon="13.738199044939908"><ele>681.0</ele><time>2026-05-02T10:21:35.001Z</time></trkpt><trkpt lat="42.24397447372578" lon="13.73817792956785"><ele>680.0</ele><time>2026-05-02T10:21:36.001Z</time></trkpt><trkpt lat="42.24381678985311" lon="13.738208661799401"><ele>679.0</ele><time>2026-05-02T10:21:37.001Z</time></trkpt><trkpt lat="42.24365972684924" lon="13.738267613649619"><ele>678.0</ele><time>2026-05-02T10:21:38.001Z</time></trkpt><trkpt lat="42.24350825670987" lon="13.738295996118893"><ele>678.0</ele><time>2026-05-02T10:21:39.001Z</time></trkpt><trkpt lat="42.243369423739466" lon="13.738271195063508"><ele>678.0</ele><time>2026-05-02T10:21:40.001Z</time></trkpt><trkpt lat="42.24321369545495" lon="13.738214102287184"><ele>678.0</ele><time>2026-05-02T10:21:41.001Z</time></trkpt><trkpt lat="42.243049294910506" lon="13.738156497879986"><ele>678.0</ele><time>2026-05-02T10:21:42.001Z</time></trkpt><trkpt lat="42.242869928247586" lon="13.738111175790033"><ele>678.0</ele><time>2026-05-02T10:21:43.001Z</time></trkpt><trkpt lat="42.24269460742259" lon="13.738051471124189"><ele>678.0</ele><time>2026-05-02T10:21:44.001Z</time></trkpt><trkpt lat="42.24250944488882" lon="13.737987050761792"><ele>678.0</ele><time>2026-05-02T10:21:45.001Z</time></trkpt><trkpt lat="42.24233546122777" lon="13.73790067070489"><ele>678.0</ele><time>2026-05-02T10:21:46.001Z</time></trkpt><trkpt lat="42.24214300430628" lon="13.737830996571361"><ele>678.0</ele><time>2026-05-02T10:21:47.001Z</time></trkpt><trkpt lat="42.24194760794918" lon="13.73778207000643"><ele>677.6666666666666</ele><time>2026-05-02T10:21:48.001Z</time></trkpt><trkpt lat="42.24175143901295" lon="13.737714764660685"><ele>677.3333333333333</ele><time>2026-05-02T10:21:49.001Z</time></trkpt><trkpt lat="42.241552462702465" lon="13.737649806830934"><ele>677.0</ele><time>2026-05-02T10:21:50.001Z</time></trkpt><trkpt lat="42.2413629204006" lon="13.737590432908283"><ele>677.0</ele><time>2026-05-02T10:21:51.001Z</time></trkpt><trkpt lat="42.24118472557912" lon="13.737539898382567"><ele>677.0</ele><time>2026-05-02T10:21:52.001Z</time></trkpt><trkpt lat="42.24101431691985" lon="13.737483109105263"><ele>677.0</ele><time>2026-05-02T10:21:53.001Z</time></trkpt><trkpt lat="42.24084509882423" lon="13.737420284458643"><ele>677.0</ele><time>2026-05-02T10:21:54.001Z</time></trkpt><trkpt lat="42.240691695741724" lon="13.737326342640099"><ele>677.0</ele><time>2026-05-02T10:21:55.001Z</time></trkpt><trkpt lat="42.24055247296758" lon="13.737204257275"><ele>677.0</ele><time>2026-05-02T10:21:56.001Z</time></trkpt><trkpt lat="42.24041798507968" lon="13.737045678004549"><ele>676.3333333333333</ele><time>2026-05-02T10:21:57.001Z</time></trkpt><trkpt lat="42.240301443448686" lon="13.73685970763574"><ele>675.6666666666666</ele><time>2026-05-02T10:21:58.001Z</time></trkpt><trkpt lat="42.24020873617491" lon="13.736649519176437"><ele>675.0</ele><time>2026-05-02T10:21:59.001Z</time></trkpt><trkpt lat="42.24013949828926" lon="13.736428671454899"><ele>675.0</ele><time>2026-05-02T10:22:00.001Z</time></trkpt><trkpt lat="42.24007000377309" lon="13.736205187915461"><ele>675.0</ele><time>2026-05-02T10:22:01.001Z</time></trkpt><trkpt lat="42.239980524936186" lon="13.735984118552167"><ele>675.0</ele><time>2026-05-02T10:22:02.001Z</time></trkpt><trkpt lat="42.239853343642096" lon="13.735780347338542"><ele>675.3333333333334</ele><time>2026-05-02T10:22:03.001Z</time></trkpt><trkpt lat="42.23971721967293" lon="13.735582105498027"><ele>675.6666666666667</ele><time>2026-05-02T10:22:04.001Z</time></trkpt><trkpt lat="42.23955768403609" lon="13.735425343497514"><ele>676.0</ele><time>2026-05-02T10:22:05.001Z</time></trkpt><trkpt lat="42.23937374679182" lon="13.735327146148652"><ele>676.0</ele><time>2026-05-02T10:22:06.001Z</time></trkpt><trkpt lat="42.239209934934976" lon="13.735223249150524"><ele>676.0</ele><time>2026-05-02T10:22:07.001Z</time></trkpt><trkpt lat="42.23901558526561" lon="13.735182325028179"><ele>676.0</ele><time>2026-05-02T10:22:08.001Z</time></trkpt><trkpt lat="42.238820968018054" lon="13.735160228572012"><ele>676.0</ele><time>2026-05-02T10:22:09.001Z</time></trkpt><trkpt lat="42.23863027610229" lon="13.735136828586779"><ele>676.0</ele><time>2026-05-02T10:22:10.001Z</time></trkpt><trkpt lat="42.238431496968715" lon="13.735100026378861"><ele>676.0</ele><time>2026-05-02T10:22:11.001Z</time></trkpt><trkpt lat="42.23823897307951" lon="13.735019313321411"><ele>676.6666666666667</ele><time>2026-05-02T10:22:12.001Z</time></trkpt><trkpt lat="42.238063753993146" lon="13.734935165106"><ele>677.3333333333334</ele><time>2026-05-02T10:22:13.001Z</time></trkpt><trkpt lat="42.237905164880104" lon="13.734840209534156"><ele>678.0</ele><time>2026-05-02T10:22:14.001Z</time></trkpt><trkpt lat="42.23775490346724" lon="13.73472246518977"><ele>678.0</ele><time>2026-05-02T10:22:15.001Z</time></trkpt><trkpt lat="42.237617770347356" lon="13.73458145499586"><ele>678.0</ele><time>2026-05-02T10:22:16.001Z</time></trkpt><trkpt lat="42.23750072102888" lon="13.734434422967206"><ele>678.0</ele><time>2026-05-02T10:22:17.001Z</time></trkpt><trkpt lat="42.23738916797138" lon="13.734291177130713"><ele>678.75</ele><time>2026-05-02T10:22:18.001Z</time></trkpt><trkpt lat="42.23729430837688" lon="13.734150454052388"><ele>679.5</ele><time>2026-05-02T10:22:19.001Z</time></trkpt><trkpt lat="42.237201329520154" lon="13.73401325897306"><ele>680.25</ele><time>2026-05-02T10:22:20.001Z</time></trkpt><trkpt lat="42.23709876784062" lon="13.733865295846986"><ele>681.0</ele><time>2026-05-02T10:22:21.001Z</time></trkpt><trkpt lat="42.2369911313404" lon="13.73371354363033"><ele>681.0</ele><time>2026-05-02T10:22:22.001Z</time></trkpt><trkpt lat="42.236889079934045" lon="13.73357436671735"><ele>681.0</ele><time>2026-05-02T10:22:23.001Z</time></trkpt><trkpt lat="42.23676944191324" lon="13.733444253888837"><ele>681.0</ele><time>2026-05-02T10:22:24.001Z</time></trkpt><trkpt lat="42.23666026674631" lon="13.733292404355165"><ele>681.3333333333334</ele><time>2026-05-02T10:22:25.001Z</time></trkpt><trkpt lat="42.236549015410525" lon="13.73313820136357"><ele>681.6666666666667</ele><time>2026-05-02T10:22:26.001Z</time></trkpt><trkpt lat="42.23643574186701" lon="13.732987289171726"><ele>682.0</ele><time>2026-05-02T10:22:27.001Z</time></trkpt><trkpt lat="42.23632688269982" lon="13.73281929097832"><ele>682.0</ele><time>2026-05-02T10:22:28.001Z</time></trkpt><trkpt lat="42.23620196477863" lon="13.732684514907524"><ele>682.0</ele><time>2026-05-02T10:22:29.001Z</time></trkpt><trkpt lat="42.23609858492827" lon="13.732534174863813"><ele>682.0</ele><time>2026-05-02T10:22:30.001Z</time></trkpt><trkpt lat="42.23598972018614" lon="13.732387823789846"><ele>682.0</ele><time>2026-05-02T10:22:31.001Z</time></trkpt><trkpt lat="42.235883172297676" lon="13.732246135675613"><ele>682.0</ele><time>2026-05-02T10:22:32.001Z</time></trkpt><trkpt lat="42.23577858323759" lon="13.732106951053021"><ele>682.0</ele><time>2026-05-02T10:22:33.001Z</time></trkpt><trkpt lat="42.23568821145404" lon="13.731959857494328"><ele>682.0</ele><time>2026-05-02T10:22:34.001Z</time></trkpt><trkpt lat="42.235572433134905" lon="13.731841138773653"><ele>682.5</ele><time>2026-05-02T10:22:35.001Z</time></trkpt><trkpt lat="42.23547816954032" lon="13.731691778584485"><ele>683.0</ele><time>2026-05-02T10:22:36.001Z</time></trkpt><trkpt lat="42.235369992387405" lon="13.731579604669498"><ele>683.5</ele><time>2026-05-02T10:22:37.001Z</time></trkpt><trkpt lat="42.23527742345366" lon="13.731454479284066"><ele>684.0</ele><time>2026-05-02T10:22:38.001Z</time></trkpt><trkpt lat="42.23517557464115" lon="13.731325541256131"><ele>684.0</ele><time>2026-05-02T10:22:39.001Z</time></trkpt><trkpt lat="42.235067307619545" lon="13.731178906615323"><ele>684.0</ele><time>2026-05-02T10:22:40.001Z</time></trkpt><trkpt lat="42.234953301655565" lon="13.731029052371602"><ele>684.0</ele><time>2026-05-02T10:22:41.001Z</time></trkpt><trkpt lat="42.234827706691185" lon="13.73087891663349"><ele>683.6666666666666</ele><time>2026-05-02T10:22:42.001Z</time></trkpt><trkpt lat="42.23470811481422" lon="13.730726440622872"><ele>683.3333333333333</ele><time>2026-05-02T10:22:43.001Z</time></trkpt><trkpt lat="42.234600178403205" lon="13.730555145953076"><ele>683.0</ele><time>2026-05-02T10:22:44.001Z</time></trkpt><trkpt lat="42.234478355425765" lon="13.730428164572837"><ele>683.0</ele><time>2026-05-02T10:22:45.001Z</time></trkpt><trkpt lat="42.234377487620925" lon="13.730291996395762"><ele>683.0</ele><time>2026-05-02T10:22:46.001Z</time></trkpt><trkpt lat="42.234292659689466" lon="13.730160150440156"><ele>683.0</ele><time>2026-05-02T10:22:47.001Z</time></trkpt><trkpt lat="42.234226742946" lon="13.730056587052866"><ele>683.0</ele><time>2026-05-02T10:22:48.001Z</time></trkpt><trkpt lat="42.23416547723583" lon="13.729981497607797"><ele>683.0</ele><time>2026-05-02T10:22:49.001Z</time></trkpt><trkpt lat="42.23410588887293" lon="13.729927592983334"><ele>683.0</ele><time>2026-05-02T10:22:50.001Z</time></trkpt><trkpt lat="42.234034067755026" lon="13.729905026791945"><ele>683.0</ele><time>2026-05-02T10:22:51.001Z</time></trkpt><trkpt lat="42.23396428532055" lon="13.729915115797072"><ele>683.0</ele><time>2026-05-02T10:22:52.001Z</time></trkpt><trkpt lat="42.23387125618308" lon="13.729990000220376"><ele>683.0</ele><time>2026-05-02T10:22:54.001Z</time></trkpt><trkpt lat="42.233836531340195" lon="13.730072855528668"><ele>683.0</ele><time>2026-05-02T10:22:55.001Z</time></trkpt><trkpt lat="42.23378366890282" lon="13.730154536349376"><ele>683.25</ele><time>2026-05-02T10:22:56.001Z</time></trkpt><trkpt lat="42.233765665841894" lon="13.730316643225773"><ele>683.5</ele><time>2026-05-02T10:22:57.001Z</time></trkpt><trkpt lat="42.23371979723534" lon="13.73046770009854"><ele>683.75</ele><time>2026-05-02T10:22:58.001Z</time></trkpt><trkpt lat="42.23366302921235" lon="13.730642070843155"><ele>684.0</ele><time>2026-05-02T10:22:59.001Z</time></trkpt><trkpt lat="42.233601280874474" lon="13.73083194010898"><ele>684.0</ele><time>2026-05-02T10:23:00.001Z</time></trkpt><trkpt lat="42.23353331209864" lon="13.731039842092672"><ele>684.0</ele><time>2026-05-02T10:23:01.001Z</time></trkpt><trkpt lat="42.23346589090353" lon="13.731249100792667"><ele>684.0</ele><time>2026-05-02T10:23:02.001Z</time></trkpt><trkpt lat="42.23338978921641" lon="13.731468639685097"><ele>684.0</ele><time>2026-05-02T10:23:03.001Z</time></trkpt><trkpt lat="42.233314755104914" lon="13.731706719170159"><ele>684.0</ele><time>2026-05-02T10:23:04.001Z</time></trkpt><trkpt lat="42.233239198064055" lon="13.731946955680469"><ele>684.0</ele><time>2026-05-02T10:23:05.001Z</time></trkpt><trkpt lat="42.233159637483666" lon="13.732196230325945"><ele>684.0</ele><time>2026-05-02T10:23:06.001Z</time></trkpt><trkpt lat="42.233074628682886" lon="13.732454158193"><ele>684.0</ele><time>2026-05-02T10:23:07.001Z</time></trkpt><trkpt lat="42.23299685786404" lon="13.732710074770827"><ele>684.0</ele><time>2026-05-02T10:23:08.001Z</time></trkpt><trkpt lat="42.232922253176866" lon="13.732945878972254"><ele>684.0</ele><time>2026-05-02T10:23:09.001Z</time></trkpt><trkpt lat="42.232848692456336" lon="13.733171671766979"><ele>684.0</ele><time>2026-05-02T10:23:10.001Z</time></trkpt><trkpt lat="42.232774219263625" lon="13.733400661821122"><ele>684.0</ele><time>2026-05-02T10:23:11.001Z</time></trkpt><trkpt lat="42.23270037524333" lon="13.733633006744444"><ele>684.3333333333334</ele><time>2026-05-02T10:23:12.001Z</time></trkpt><trkpt lat="42.2326255189463" lon="13.73387449641384"><ele>684.6666666666667</ele><time>2026-05-02T10:23:13.001Z</time></trkpt><trkpt lat="42.23254392664292" lon="13.734114695631206"><ele>685.0</ele><time>2026-05-02T10:23:14.001Z</time></trkpt><trkpt lat="42.23246357992946" lon="13.73435240797556"><ele>685.6666666666667</ele><time>2026-05-02T10:23:15.001Z</time></trkpt><trkpt lat="42.23238679477767" lon="13.734593288297724"><ele>686.3333333333334</ele><time>2026-05-02T10:23:16.001Z</time></trkpt><trkpt lat="42.23231264998668" lon="13.73482951822892"><ele>687.0</ele><time>2026-05-02T10:23:17.001Z</time></trkpt><trkpt lat="42.23223731678565" lon="13.735069484031909"><ele>686.6666666666666</ele><time>2026-05-02T10:23:18.001Z</time></trkpt><trkpt lat="42.232160255865196" lon="13.735310390450925"><ele>686.3333333333333</ele><time>2026-05-02T10:23:19.001Z</time></trkpt><trkpt lat="42.23208439976112" lon="13.735553014143218"><ele>686.0</ele><time>2026-05-02T10:23:20.001Z</time></trkpt><trkpt lat="42.23200468878108" lon="13.735798348739806"><ele>686.0</ele><time>2026-05-02T10:23:21.001Z</time></trkpt><trkpt lat="42.23192581264017" lon="13.73604706397699"><ele>686.0</ele><time>2026-05-02T10:23:22.001Z</time></trkpt><trkpt lat="42.23184853788909" lon="13.736294563963764"><ele>686.0</ele><time>2026-05-02T10:23:23.001Z</time></trkpt><trkpt lat="42.2317706387536" lon="13.73654575378768"><ele>687.0</ele><time>2026-05-02T10:23:24.001Z</time></trkpt><trkpt lat="42.231692118802904" lon="13.736796005896105"><ele>688.0</ele><time>2026-05-02T10:23:25.001Z</time></trkpt><trkpt lat="42.23160863409258" lon="13.737046281010826"><ele>689.0</ele><time>2026-05-02T10:23:26.001Z</time></trkpt><trkpt lat="42.23152350938126" lon="13.73729697449241"><ele>688.3333333333333</ele><time>2026-05-02T10:23:27.001Z</time></trkpt><trkpt lat="42.2314424786207" lon="13.737550046894304"><ele>687.6666666666666</ele><time>2026-05-02T10:23:28.001Z</time></trkpt><trkpt lat="42.23136329247019" lon="13.737805619017909"><ele>687.0</ele><time>2026-05-02T10:23:29.001Z</time></trkpt><trkpt lat="42.23128339060846" lon="13.738063566193011"><ele>687.0</ele><time>2026-05-02T10:23:30.001Z</time></trkpt><trkpt lat="42.23120164917014" lon="13.738325904147922"><ele>687.0</ele><time>2026-05-02T10:23:31.001Z</time></trkpt><trkpt lat="42.23112595345206" lon="13.738576647991055"><ele>687.0</ele><time>2026-05-02T10:23:32.001Z</time></trkpt><trkpt lat="42.231051826086265" lon="13.738823776407376"><ele>687.0</ele><time>2026-05-02T10:23:33.001Z</time></trkpt><trkpt lat="42.230977824320185" lon="13.739075961485591"><ele>687.0</ele><time>2026-05-02T10:23:34.001Z</time></trkpt><trkpt lat="42.23089836704705" lon="13.739337049455557"><ele>687.0</ele><time>2026-05-02T10:23:35.001Z</time></trkpt><trkpt lat="42.2308206568409" lon="13.739606201510574"><ele>686.6666666666666</ele><time>2026-05-02T10:23:36.001Z</time></trkpt><trkpt lat="42.23073688736959" lon="13.739881219207273"><ele>686.3333333333333</ele><time>2026-05-02T10:23:37.001Z</time></trkpt><trkpt lat="42.23065642540211" lon="13.740153808358116"><ele>686.0</ele><time>2026-05-02T10:23:38.001Z</time></trkpt><trkpt lat="42.23057421996829" lon="13.740429650829423"><ele>686.0</ele><time>2026-05-02T10:23:39.001Z</time></trkpt><trkpt lat="42.23049093614999" lon="13.740702989261905"><ele>686.0</ele><time>2026-05-02T10:23:40.001Z</time></trkpt><trkpt lat="42.230407729733194" lon="13.740977314181515"><ele>686.0</ele><time>2026-05-02T10:23:41.001Z</time></trkpt><trkpt lat="42.230326152054936" lon="13.741249235816884"><ele>685.3333333333333</ele><time>2026-05-02T10:23:42.001Z</time></trkpt><trkpt lat="42.23024629738861" lon="13.741518329083474"><ele>684.6666666666666</ele><time>2026-05-02T10:23:43.001Z</time></trkpt><trkpt lat="42.230166287010505" lon="13.741782575477028"><ele>684.0</ele><time>2026-05-02T10:23:44.001Z</time></trkpt><trkpt lat="42.23008808029714" lon="13.742044657063472"><ele>684.0</ele><time>2026-05-02T10:23:45.001Z</time></trkpt><trkpt lat="42.23001129972166" lon="13.742304900678942"><ele>684.0</ele><time>2026-05-02T10:23:46.001Z</time></trkpt><trkpt lat="42.22993350253143" lon="13.74256817031864"><ele>684.0</ele><time>2026-05-02T10:23:47.001Z</time></trkpt><trkpt lat="42.22985503700173" lon="13.742824713356278"><ele>683.6666666666666</ele><time>2026-05-02T10:23:48.001Z</time></trkpt><trkpt lat="42.22977744234493" lon="13.74308566325176"><ele>683.3333333333333</ele><time>2026-05-02T10:23:49.001Z</time></trkpt><trkpt lat="42.2296989694288" lon="13.74334455643597"><ele>683.0</ele><time>2026-05-02T10:23:50.001Z</time></trkpt><trkpt lat="42.22962034615317" lon="13.743602464164098"><ele>683.0</ele><time>2026-05-02T10:23:51.001Z</time></trkpt><trkpt lat="42.22954314430108" lon="13.743865697189378"><ele>683.0</ele><time>2026-05-02T10:23:52.001Z</time></trkpt><trkpt lat="42.229467654203326" lon="13.744133548371638"><ele>683.0</ele><time>2026-05-02T10:23:53.001Z</time></trkpt><trkpt lat="42.229386333226344" lon="13.744398969167072"><ele>683.0</ele><time>2026-05-02T10:23:54.001Z</time></trkpt><trkpt lat="42.22930199444848" lon="13.744675177810764"><ele>683.0</ele><time>2026-05-02T10:23:55.001Z</time></trkpt><trkpt lat="42.2292173997021" lon="13.744951967781258"><ele>683.0</ele><time>2026-05-02T10:23:56.001Z</time></trkpt><trkpt lat="42.22913250587077" lon="13.745228173510935"><ele>682.3333333333333</ele><time>2026-05-02T10:23:57.001Z</time></trkpt><trkpt lat="42.22904875117954" lon="13.74550211981856"><ele>681.6666666666666</ele><time>2026-05-02T10:23:58.001Z</time></trkpt><trkpt lat="42.22896684641491" lon="13.745775137229419"><ele>681.0</ele><time>2026-05-02T10:23:59.001Z</time></trkpt><trkpt lat="42.228885881914465" lon="13.74604855653442"><ele>680.6666666666666</ele><time>2026-05-02T10:24:00.001Z</time></trkpt><trkpt lat="42.228801561085014" lon="13.746321545802273"><ele>680.3333333333333</ele><time>2026-05-02T10:24:01.001Z</time></trkpt><trkpt lat="42.22871933496008" lon="13.746592369682848"><ele>680.0</ele><time>2026-05-02T10:24:02.001Z</time></trkpt><trkpt lat="42.228636632901676" lon="13.746868613924992"><ele>679.3333333333333</ele><time>2026-05-02T10:24:03.001Z</time></trkpt><trkpt lat="42.2285543931835" lon="13.747142720190201"><ele>678.6666666666666</ele><time>2026-05-02T10:24:04.001Z</time></trkpt><trkpt lat="42.22847298762348" lon="13.747417642789872"><ele>678.0</ele><time>2026-05-02T10:24:05.001Z</time></trkpt><trkpt lat="42.228389947700066" lon="13.747689071887933"><ele>678.6666666666666</ele><time>2026-05-02T10:24:06.001Z</time></trkpt><trkpt lat="42.22830806053057" lon="13.747965065709815"><ele>679.3333333333333</ele><time>2026-05-02T10:24:07.001Z</time></trkpt><trkpt lat="42.22822829273707" lon="13.748242764997507"><ele>680.0</ele><time>2026-05-02T10:24:08.001Z</time></trkpt><trkpt lat="42.228144958933406" lon="13.748521042665855"><ele>680.6666666666666</ele><time>2026-05-02T10:24:09.001Z</time></trkpt><trkpt lat="42.22806232374982" lon="13.748800388590688"><ele>681.3333333333334</ele><time>2026-05-02T10:24:10.001Z</time></trkpt><trkpt lat="42.22797701204931" lon="13.749081216656522"><ele>682.0</ele><time>2026-05-02T10:24:11.001Z</time></trkpt><trkpt lat="42.22789138449695" lon="13.749363773010083"><ele>681.5</ele><time>2026-05-02T10:24:12.001Z</time></trkpt><trkpt lat="42.22780593495615" lon="13.74964801063496"><ele>681.0</ele><time>2026-05-02T10:24:13.001Z</time></trkpt><trkpt lat="42.22772204985828" lon="13.749934509901097"><ele>680.6666666666666</ele><time>2026-05-02T10:24:14.001Z</time></trkpt><trkpt lat="42.22763771798742" lon="13.750213165105668"><ele>680.3333333333333</ele><time>2026-05-02T10:24:15.001Z</time></trkpt><trkpt lat="42.2275541376438" lon="13.750488749363408"><ele>680.0</ele><time>2026-05-02T10:24:16.001Z</time></trkpt><trkpt lat="42.227470013937655" lon="13.750757207194498"><ele>680.0</ele><time>2026-05-02T10:24:17.001Z</time></trkpt><trkpt lat="42.2273938990487" lon="13.75101457111801"><ele>680.0</ele><time>2026-05-02T10:24:18.001Z</time></trkpt><trkpt lat="42.22731853316549" lon="13.751270403434297"><ele>680.0</ele><time>2026-05-02T10:24:19.001Z</time></trkpt><trkpt lat="42.22724563155028" lon="13.751524170942494"><ele>680.0</ele><time>2026-05-02T10:24:20.001Z</time></trkpt><trkpt lat="42.227170965748385" lon="13.751777242356384"><ele>680.0</ele><time>2026-05-02T10:24:21.001Z</time></trkpt><trkpt lat="42.22709209123626" lon="13.75204256358152"><ele>680.0</ele><time>2026-05-02T10:24:22.001Z</time></trkpt><trkpt lat="42.22701213932822" lon="13.752313721315499"><ele>679.3333333333333</ele><time>2026-05-02T10:24:23.001Z</time></trkpt><trkpt lat="42.226924383315755" lon="13.752589065071366"><ele>678.6666666666666</ele><time>2026-05-02T10:24:24.001Z</time></trkpt><trkpt lat="42.226839776928" lon="13.752868694139124"><ele>678.0</ele><time>2026-05-02T10:24:25.001Z</time></trkpt><trkpt lat="42.22675602082136" lon="13.753144758800145"><ele>678.0</ele><time>2026-05-02T10:24:26.001Z</time></trkpt><trkpt lat="42.22667250450428" lon="13.753424971572837"><ele>678.0</ele><time>2026-05-02T10:24:27.001Z</time></trkpt><trkpt lat="42.22658936556617" lon="13.753710012631759"><ele>678.0</ele><time>2026-05-02T10:24:28.001Z</time></trkpt><trkpt lat="42.2264978477418" lon="13.754009552616258"><ele>678.0</ele><time>2026-05-02T10:24:29.001Z</time></trkpt><trkpt lat="42.22641210422941" lon="13.754299471730045"><ele>677.6666666666666</ele><time>2026-05-02T10:24:30.001Z</time></trkpt><trkpt lat="42.22633255498116" lon="13.75457299915152"><ele>677.3333333333333</ele><time>2026-05-02T10:24:31.001Z</time></trkpt><trkpt lat="42.22625420525016" lon="13.754839457445998"><ele>677.0</ele><time>2026-05-02T10:24:32.001Z</time></trkpt><trkpt lat="42.22617193254273" lon="13.75510527212011"><ele>677.0</ele><time>2026-05-02T10:24:33.001Z</time></trkpt><trkpt lat="42.22608830382623" lon="13.755381884619073"><ele>677.0</ele><time>2026-05-02T10:24:34.001Z</time></trkpt><trkpt lat="42.22600752924417" lon="13.755651539899041"><ele>677.0</ele><time>2026-05-02T10:24:35.001Z</time></trkpt><trkpt lat="42.22592870800691" lon="13.755909223606158"><ele>677.0</ele><time>2026-05-02T10:24:36.001Z</time></trkpt><trkpt lat="42.22585727935208" lon="13.756149196448305"><ele>677.0</ele><time>2026-05-02T10:24:37.001Z</time></trkpt><trkpt lat="42.22578850032383" lon="13.756383864469214"><ele>677.0</ele><time>2026-05-02T10:24:38.001Z</time></trkpt><trkpt lat="42.225713034608276" lon="13.756637392927384"><ele>677.3333333333333</ele><time>2026-05-02T10:24:39.001Z</time></trkpt><trkpt lat="42.22563608657469" lon="13.756896993856211"><ele>677.6666666666666</ele><time>2026-05-02T10:24:40.001Z</time></trkpt><trkpt lat="42.22555873586862" lon="13.757151349049536"><ele>678.0</ele><time>2026-05-02T10:24:41.001Z</time></trkpt><trkpt lat="42.22548690364512" lon="13.75739016013446"><ele>678.0</ele><time>2026-05-02T10:24:42.001Z</time></trkpt><trkpt lat="42.22542725696159" lon="13.757600794650038"><ele>678.0</ele><time>2026-05-02T10:24:43.001Z</time></trkpt><trkpt lat="42.22537289771687" lon="13.757782632934706"><ele>678.0</ele><time>2026-05-02T10:24:44.001Z</time></trkpt><trkpt lat="42.22531809733465" lon="13.757978171555486"><ele>678.0</ele><time>2026-05-02T10:24:45.001Z</time></trkpt><trkpt lat="42.225246988841235" lon="13.75820119589276"><ele>678.0</ele><time>2026-05-02T10:24:46.001Z</time></trkpt><trkpt lat="42.2251828799512" lon="13.758417265247896"><ele>678.0</ele><time>2026-05-02T10:24:47.001Z</time></trkpt><trkpt lat="42.22511730692466" lon="13.758635103131589"><ele>677.6666666666666</ele><time>2026-05-02T10:24:48.001Z</time></trkpt><trkpt lat="42.225052398694594" lon="13.758855591968349"><ele>677.3333333333333</ele><time>2026-05-02T10:24:49.001Z</time></trkpt><trkpt lat="42.22499138371685" lon="13.759063494365469"><ele>677.0</ele><time>2026-05-02T10:24:50.001Z</time></trkpt><trkpt lat="42.224930402314044" lon="13.759271815249713"><ele>677.0</ele><time>2026-05-02T10:24:51.001Z</time></trkpt><trkpt lat="42.22486539831462" lon="13.75949391857846"><ele>677.0</ele><time>2026-05-02T10:24:52.001Z</time></trkpt><trkpt lat="42.22479899300598" lon="13.759724373046996"><ele>677.0</ele><time>2026-05-02T10:24:53.001Z</time></trkpt><trkpt lat="42.22473211647411" lon="13.75995457350588"><ele>679.3333333333333</ele><time>2026-05-02T10:24:54.001Z</time></trkpt><trkpt lat="42.224663343710326" lon="13.76018828849928"><ele>681.6666666666666</ele><time>2026-05-02T10:24:55.001Z</time></trkpt><trkpt lat="42.224590630403476" lon="13.760426211756513"><ele>684.0</ele><time>2026-05-02T10:24:56.001Z</time></trkpt><trkpt lat="42.224509838515736" lon="13.76066275947505"><ele>684.0</ele><time>2026-05-02T10:24:57.001Z</time></trkpt><trkpt lat="42.22441433266513" lon="13.760899735796588"><ele>684.0</ele><time>2026-05-02T10:24:58.001Z</time></trkpt><trkpt lat="42.224337082566166" lon="13.761129258850445"><ele>684.0</ele><time>2026-05-02T10:24:59.001Z</time></trkpt><trkpt lat="42.22422738761035" lon="13.76135444923093"><ele>682.6666666666666</ele><time>2026-05-02T10:25:00.001Z</time></trkpt><trkpt lat="42.224102390863145" lon="13.761574086466291"><ele>681.3333333333333</ele><time>2026-05-02T10:25:01.001Z</time></trkpt><trkpt lat="42.22396488468487" lon="13.761781226886352"><ele>680.0</ele><time>2026-05-02T10:25:02.001Z</time></trkpt><trkpt lat="42.22382045150524" lon="13.761978221482844"><ele>680.0</ele><time>2026-05-02T10:25:03.001Z</time></trkpt><trkpt lat="42.22366519437569" lon="13.762177273946339"><ele>680.0</ele><time>2026-05-02T10:25:04.001Z</time></trkpt><trkpt lat="42.22350971789708" lon="13.762381117608177"><ele>680.0</ele><time>2026-05-02T10:25:05.001Z</time></trkpt><trkpt lat="42.223354759786" lon="13.762586576411122"><ele>681.5</ele><time>2026-05-02T10:25:06.001Z</time></trkpt><trkpt lat="42.22319274705826" lon="13.762793986374204"><ele>683.0</ele><time>2026-05-02T10:25:07.001Z</time></trkpt><trkpt lat="42.22302482384269" lon="13.763007005396172"><ele>683.0</ele><time>2026-05-02T10:25:08.001Z</time></trkpt><trkpt lat="42.22286295722923" lon="13.763227387563047"><ele>683.0</ele><time>2026-05-02T10:25:09.001Z</time></trkpt><trkpt lat="42.22270096698725" lon="13.763445394222606"><ele>679.0</ele><time>2026-05-02T10:25:10.001Z</time></trkpt><trkpt lat="42.22253666410295" lon="13.763659605245012"><ele>675.0</ele><time>2026-05-02T10:25:11.001Z</time></trkpt><trkpt lat="42.22236879885729" lon="13.763886334376652"><ele>683.0</ele><time>2026-05-02T10:25:12.001Z</time></trkpt><trkpt lat="42.22220001589342" lon="13.764105422033177"><ele>691.0</ele><time>2026-05-02T10:25:13.001Z</time></trkpt><trkpt lat="42.222030746427784" lon="13.764325360708243"><ele>685.0</ele><time>2026-05-02T10:25:14.001Z</time></trkpt><trkpt lat="42.22185964444213" lon="13.764546681144282"><ele>679.0</ele><time>2026-05-02T10:25:15.001Z</time></trkpt><trkpt lat="42.2216921742661" lon="13.764771670352975"><ele>679.0</ele><time>2026-05-02T10:25:16.001Z</time></trkpt><trkpt lat="42.22152875291835" lon="13.764992563030525"><ele>679.0</ele><time>2026-05-02T10:25:17.001Z</time></trkpt><trkpt lat="42.2213749278295" lon="13.765192946091242"><ele>679.0</ele><time>2026-05-02T10:25:18.001Z</time></trkpt><trkpt lat="42.2212287321504" lon="13.765387656910391"><ele>681.0</ele><time>2026-05-02T10:25:19.001Z</time></trkpt><trkpt lat="42.22108348296182" lon="13.765580874566488"><ele>683.0</ele><time>2026-05-02T10:25:20.001Z</time></trkpt><trkpt lat="42.22092135121564" lon="13.765786569356905"><ele>685.0</ele><time>2026-05-02T10:25:21.001Z</time></trkpt><trkpt lat="42.22077560897781" lon="13.765994716658504"><ele>685.3333333333334</ele><time>2026-05-02T10:25:22.001Z</time></trkpt><trkpt lat="42.22061820753174" lon="13.766192424893918"><ele>685.6666666666666</ele><time>2026-05-02T10:25:23.001Z</time></trkpt><trkpt lat="42.22046043038739" lon="13.766391777995905"><ele>686.0</ele><time>2026-05-02T10:25:24.001Z</time></trkpt><trkpt lat="42.22030686044996" lon="13.766597252724935"><ele>686.0</ele><time>2026-05-02T10:25:25.001Z</time></trkpt><trkpt lat="42.22015820004262" lon="13.766799572710154"><ele>686.0</ele><time>2026-05-02T10:25:26.001Z</time></trkpt><trkpt lat="42.22002173634946" lon="13.766991092299108"><ele>686.0</ele><time>2026-05-02T10:25:27.001Z</time></trkpt><trkpt lat="42.21988875764855" lon="13.767173262009704"><ele>683.0</ele><time>2026-05-02T10:25:28.001Z</time></trkpt><trkpt lat="42.219749429909974" lon="13.767336240788007"><ele>680.0</ele><time>2026-05-02T10:25:29.001Z</time></trkpt><trkpt lat="42.219585244488044" lon="13.767474279885759"><ele>677.0</ele><time>2026-05-02T10:25:30.001Z</time></trkpt><trkpt lat="42.219403575241344" lon="13.767579771332422"><ele>677.0</ele><time>2026-05-02T10:25:31.001Z</time></trkpt><trkpt lat="42.21920833401632" lon="13.767674791072524"><ele>677.0</ele><time>2026-05-02T10:25:32.001Z</time></trkpt><trkpt lat="42.219012034636435" lon="13.767779397588846"><ele>677.0</ele><time>2026-05-02T10:25:33.001Z</time></trkpt><trkpt lat="42.21882032215211" lon="13.767887020831342"><ele>678.6666666666666</ele><time>2026-05-02T10:25:34.001Z</time></trkpt><trkpt lat="42.2186347214952" lon="13.767993654224238"><ele>680.3333333333334</ele><time>2026-05-02T10:25:35.001Z</time></trkpt><trkpt lat="42.21845034366722" lon="13.768094922016296"><ele>682.0</ele><time>2026-05-02T10:25:36.001Z</time></trkpt><trkpt lat="42.21826622055004" lon="13.768196654817327"><ele>680.6666666666667</ele><time>2026-05-02T10:25:37.001Z</time></trkpt><trkpt lat="42.21808121686122" lon="13.7682975819647"><ele>679.3333333333334</ele><time>2026-05-02T10:25:38.001Z</time></trkpt><trkpt lat="42.217897148853694" lon="13.768401979709799"><ele>678.0</ele><time>2026-05-02T10:25:39.001Z</time></trkpt><trkpt lat="42.21771413430836" lon="13.768507959809062"><ele>677.6666666666666</ele><time>2026-05-02T10:25:40.001Z</time></trkpt><trkpt lat="42.217527678590365" lon="13.768616837836205"><ele>677.3333333333333</ele><time>2026-05-02T10:25:41.001Z</time></trkpt><trkpt lat="42.2173373859446" lon="13.768724705211598"><ele>677.0</ele><time>2026-05-02T10:25:42.001Z</time></trkpt><trkpt lat="42.217147087907136" lon="13.768832195854788"><ele>677.0</ele><time>2026-05-02T10:25:43.001Z</time></trkpt><trkpt lat="42.21695907600079" lon="13.76893766555256"><ele>677.0</ele><time>2026-05-02T10:25:44.001Z</time></trkpt><trkpt lat="42.216773390924345" lon="13.769045308027106"><ele>677.0</ele><time>2026-05-02T10:25:45.001Z</time></trkpt><trkpt lat="42.21659075828144" lon="13.769148940731421"><ele>677.0</ele><time>2026-05-02T10:25:46.001Z</time></trkpt><trkpt lat="42.21641297210901" lon="13.769247763839005"><ele>677.0</ele><time>2026-05-02T10:25:47.001Z</time></trkpt><trkpt lat="42.21624431082429" lon="13.769337858417867"><ele>677.0</ele><time>2026-05-02T10:25:48.001Z</time></trkpt><trkpt lat="42.216082980180666" lon="13.769427547669562"><ele>677.0</ele><time>2026-05-02T10:25:49.001Z</time></trkpt><trkpt lat="42.21592891357418" lon="13.76951094965896"><ele>677.0</ele><time>2026-05-02T10:25:50.001Z</time></trkpt><trkpt lat="42.21578524189705" lon="13.769589138987268"><ele>677.0</ele><time>2026-05-02T10:25:51.001Z</time></trkpt><trkpt lat="42.215646120272446" lon="13.769666124404589"><ele>677.5</ele><time>2026-05-02T10:25:52.001Z</time></trkpt><trkpt lat="42.2155105413912" lon="13.769741715603587"><ele>678.0</ele><time>2026-05-02T10:25:53.001Z</time></trkpt><trkpt lat="42.21537147871622" lon="13.769821213386882"><ele>678.5</ele><time>2026-05-02T10:25:54.001Z</time></trkpt><trkpt lat="42.215236328562966" lon="13.76989748363144"><ele>679.0</ele><time>2026-05-02T10:25:55.001Z</time></trkpt><trkpt lat="42.2151001559821" lon="13.769971771252312"><ele>679.0</ele><time>2026-05-02T10:25:56.001Z</time></trkpt><trkpt lat="42.21495925792789" lon="13.7700477123251"><ele>679.0</ele><time>2026-05-02T10:25:57.001Z</time></trkpt><trkpt lat="42.21480256186536" lon="13.770137764372764"><ele>679.0</ele><time>2026-05-02T10:25:58.001Z</time></trkpt><trkpt lat="42.21463317943581" lon="13.770239289168526"><ele>679.0</ele><time>2026-05-02T10:25:59.001Z</time></trkpt><trkpt lat="42.21445385205333" lon="13.770344140741141"><ele>679.0</ele><time>2026-05-02T10:26:00.001Z</time></trkpt><trkpt lat="42.2142738193399" lon="13.770454616945239"><ele>679.0</ele><time>2026-05-02T10:26:01.001Z</time></trkpt><trkpt lat="42.21409642981778" lon="13.770560680414809"><ele>679.3333333333334</ele><time>2026-05-02T10:26:02.001Z</time></trkpt><trkpt lat="42.213905280247445" lon="13.77067003406562"><ele>679.6666666666666</ele><time>2026-05-02T10:26:03.001Z</time></trkpt><trkpt lat="42.213711735514565" lon="13.770782802464765"><ele>680.0</ele><time>2026-05-02T10:26:04.001Z</time></trkpt><trkpt lat="42.21351493923683" lon="13.77089059137505"><ele>680.0</ele><time>2026-05-02T10:26:05.001Z</time></trkpt><trkpt lat="42.213321344379246" lon="13.77100208570989"><ele>680.0</ele><time>2026-05-02T10:26:06.001Z</time></trkpt><trkpt lat="42.21311733114497" lon="13.771119745648859"><ele>680.0</ele><time>2026-05-02T10:26:07.001Z</time></trkpt><trkpt lat="42.21290701648585" lon="13.77123532298089"><ele>680.0</ele><time>2026-05-02T10:26:08.001Z</time></trkpt><trkpt lat="42.21269154697423" lon="13.77135345199992"><ele>680.0</ele><time>2026-05-02T10:26:09.001Z</time></trkpt><trkpt lat="42.21247384510253" lon="13.771474215449956"><ele>680.5</ele><time>2026-05-02T10:26:10.001Z</time></trkpt><trkpt lat="42.212257856331895" lon="13.771594247615853"><ele>681.0</ele><time>2026-05-02T10:26:11.001Z</time></trkpt><trkpt lat="42.212041459692" lon="13.771717368695446"><ele>681.0</ele><time>2026-05-02T10:26:12.001Z</time></trkpt><trkpt lat="42.21182313736772" lon="13.771842522946066"><ele>681.0</ele><time>2026-05-02T10:26:13.001Z</time></trkpt><trkpt lat="42.211605382468576" lon="13.771968415418389"><ele>679.5</ele><time>2026-05-02T10:26:14.001Z</time></trkpt><trkpt lat="42.21138836098943" lon="13.772092323102502"><ele>678.0</ele><time>2026-05-02T10:26:15.001Z</time></trkpt><trkpt lat="42.211173016464784" lon="13.772212512033803"><ele>678.0</ele><time>2026-05-02T10:26:16.001Z</time></trkpt><trkpt lat="42.21095529873092" lon="13.772334579131337"><ele>678.0</ele><time>2026-05-02T10:26:17.001Z</time></trkpt><trkpt lat="42.210737161675915" lon="13.772458754325115"><ele>678.0</ele><time>2026-05-02T10:26:18.001Z</time></trkpt><trkpt lat="42.21050321903777" lon="13.772594905727807"><ele>678.0</ele><time>2026-05-02T10:26:19.001Z</time></trkpt><trkpt lat="42.210263267012365" lon="13.772728449946706"><ele>678.5</ele><time>2026-05-02T10:26:20.001Z</time></trkpt><trkpt lat="42.210021007795845" lon="13.772865249789815"><ele>679.0</ele><time>2026-05-02T10:26:21.001Z</time></trkpt><trkpt lat="42.209779881838585" lon="13.773002954783625"><ele>679.0</ele><time>2026-05-02T10:26:22.001Z</time></trkpt><trkpt lat="42.20954489817101" lon="13.773134482504641"><ele>679.0</ele><time>2026-05-02T10:26:23.001Z</time></trkpt><trkpt lat="42.20930766324143" lon="13.77327143301526"><ele>679.0</ele><time>2026-05-02T10:26:24.001Z</time></trkpt><trkpt lat="42.209074856161244" lon="13.773404321619648"><ele>679.0</ele><time>2026-05-02T10:26:25.001Z</time></trkpt><trkpt lat="42.20884126334958" lon="13.773536785391622"><ele>679.0</ele><time>2026-05-02T10:26:26.001Z</time></trkpt><trkpt lat="42.20861104781312" lon="13.773669665381254"><ele>679.0</ele><time>2026-05-02T10:26:27.001Z</time></trkpt><trkpt lat="42.20838055154048" lon="13.773801054787281"><ele>679.5</ele><time>2026-05-02T10:26:28.001Z</time></trkpt><trkpt lat="42.20815031582285" lon="13.773929368439966"><ele>680.0</ele><time>2026-05-02T10:26:29.001Z</time></trkpt><trkpt lat="42.207918986602095" lon="13.774062518255707"><ele>680.0</ele><time>2026-05-02T10:26:30.001Z</time></trkpt><trkpt lat="42.20768941349841" lon="13.77419479382792"><ele>680.0</ele><time>2026-05-02T10:26:31.001Z</time></trkpt><trkpt lat="42.20745896699167" lon="13.774332066666139"><ele>680.5</ele><time>2026-05-02T10:26:32.001Z</time></trkpt><trkpt lat="42.20722775789316" lon="13.774457804989543"><ele>681.0</ele><time>2026-05-02T10:26:33.001Z</time></trkpt><trkpt lat="42.206999212528935" lon="13.774586827826322"><ele>681.0</ele><time>2026-05-02T10:26:34.001Z</time></trkpt><trkpt lat="42.20678779505539" lon="13.77470627213502"><ele>681.0</ele><time>2026-05-02T10:26:35.001Z</time></trkpt><trkpt lat="42.206588708664825" lon="13.774820791335502"><ele>681.0</ele><time>2026-05-02T10:26:36.001Z</time></trkpt><trkpt lat="42.206389413009624" lon="13.774929160580795"><ele>681.0</ele><time>2026-05-02T10:26:37.001Z</time></trkpt><trkpt lat="42.206182382241984" lon="13.775045774382473"><ele>681.0</ele><time>2026-05-02T10:26:38.001Z</time></trkpt><trkpt lat="42.20597311737092" lon="13.775161762354589"><ele>681.0</ele><time>2026-05-02T10:26:39.001Z</time></trkpt><trkpt lat="42.20576323195626" lon="13.775282673639602"><ele>681.0</ele><time>2026-05-02T10:26:40.001Z</time></trkpt><trkpt lat="42.20555644909259" lon="13.775403721758323"><ele>682.5</ele><time>2026-05-02T10:26:41.001Z</time></trkpt><trkpt lat="42.205341342922175" lon="13.77552279919066"><ele>684.0</ele><time>2026-05-02T10:26:42.001Z</time></trkpt><trkpt lat="42.2051310206469" lon="13.775642023609292"><ele>684.0</ele><time>2026-05-02T10:26:43.001Z</time></trkpt><trkpt lat="42.20492338656374" lon="13.775759971283824"><ele>684.0</ele><time>2026-05-02T10:26:44.001Z</time></trkpt><trkpt lat="42.2047091569577" lon="13.775879136498313"><ele>684.5</ele><time>2026-05-02T10:26:45.001Z</time></trkpt><trkpt lat="42.20450013333186" lon="13.775998963636914"><ele>685.0</ele><time>2026-05-02T10:26:46.001Z</time></trkpt><trkpt lat="42.20428876147731" lon="13.776115483317474"><ele>685.0</ele><time>2026-05-02T10:26:47.001Z</time></trkpt><trkpt lat="42.204075146069385" lon="13.776232279791428"><ele>685.0</ele><time>2026-05-02T10:26:48.001Z</time></trkpt><trkpt lat="42.203862060222384" lon="13.776350916148433"><ele>687.5</ele><time>2026-05-02T10:26:49.001Z</time></trkpt><trkpt lat="42.203652770583396" lon="13.776470107151873"><ele>690.0</ele><time>2026-05-02T10:26:50.001Z</time></trkpt><trkpt lat="42.203445670131245" lon="13.776587955044498"><ele>690.0</ele><time>2026-05-02T10:26:51.001Z</time></trkpt><trkpt lat="42.20324701815425" lon="13.776700017649254"><ele>690.0</ele><time>2026-05-02T10:26:52.001Z</time></trkpt><trkpt lat="42.20304775263237" lon="13.776806263031409"><ele>690.0</ele><time>2026-05-02T10:26:53.001Z</time></trkpt><trkpt lat="42.20286734353549" lon="13.776905875419297"><ele>694.6666666666666</ele><time>2026-05-02T10:26:54.001Z</time></trkpt><trkpt lat="42.20270545565681" lon="13.776993832159844"><ele>699.3333333333333</ele><time>2026-05-02T10:26:55.001Z</time></trkpt><trkpt lat="42.20256135676749" lon="13.777075897646691"><ele>704.0</ele><time>2026-05-02T10:26:56.001Z</time></trkpt><trkpt lat="42.20243413255118" lon="13.777151916812695"><ele>703.25</ele><time>2026-05-02T10:26:57.001Z</time></trkpt><trkpt lat="42.20233136947375" lon="13.77723540576058"><ele>702.5</ele><time>2026-05-02T10:26:58.001Z</time></trkpt><trkpt lat="42.20226470534393" lon="13.77737373968116"><ele>701.75</ele><time>2026-05-02T10:26:59.002Z</time></trkpt><trkpt lat="42.202230327480045" lon="13.777554284835075"><ele>701.0</ele><time>2026-05-02T10:27:00.001Z</time></trkpt><trkpt lat="42.202204142939266" lon="13.777749964097396"><ele>701.0</ele><time>2026-05-02T10:27:01.001Z</time></trkpt><trkpt lat="42.20216510538768" lon="13.77795882449921"><ele>701.0</ele><time>2026-05-02T10:27:02.001Z</time></trkpt><trkpt lat="42.202116081016186" lon="13.77817486588802"><ele>701.0</ele><time>2026-05-02T10:27:03.001Z</time></trkpt><trkpt lat="42.20206477546059" lon="13.77840549502938"><ele>703.0</ele><time>2026-05-02T10:27:04.001Z</time></trkpt><trkpt lat="42.20201387780998" lon="13.778649163559292"><ele>705.0</ele><time>2026-05-02T10:27:05.001Z</time></trkpt><trkpt lat="42.20196163955248" lon="13.778908003734024"><ele>707.0</ele><time>2026-05-02T10:27:06.001Z</time></trkpt><trkpt lat="42.20190726001207" lon="13.779179064631387"><ele>710.0</ele><time>2026-05-02T10:27:07.001Z</time></trkpt><trkpt lat="42.20185071524619" lon="13.779451199319832"><ele>713.0</ele><time>2026-05-02T10:27:08.001Z</time></trkpt><trkpt lat="42.20179195605715" lon="13.77973005769013"><ele>716.0</ele><time>2026-05-02T10:27:09.001Z</time></trkpt><trkpt lat="42.201737237047496" lon="13.780002748472118"><ele>718.0</ele><time>2026-05-02T10:27:10.001Z</time></trkpt><trkpt lat="42.20168968505087" lon="13.780284464001628"><ele>720.0</ele><time>2026-05-02T10:27:11.001Z</time></trkpt><trkpt lat="42.2016582132013" lon="13.780566704232443"><ele>722.0</ele><time>2026-05-02T10:27:12.001Z</time></trkpt><trkpt lat="42.201645901220445" lon="13.78083953017127"><ele>723.3333333333333</ele><time>2026-05-02T10:27:13.001Z</time></trkpt><trkpt lat="42.20165342566817" lon="13.781111221323535"><ele>724.6666666666666</ele><time>2026-05-02T10:27:14.001Z</time></trkpt><trkpt lat="42.20167690728599" lon="13.781391700806367"><ele>726.0</ele><time>2026-05-02T10:27:15.001Z</time></trkpt><trkpt lat="42.20170809378219" lon="13.781669128132279"><ele>728.6666666666666</ele><time>2026-05-02T10:27:16.001Z</time></trkpt><trkpt lat="42.20172654749886" lon="13.781921744544949"><ele>731.3333333333333</ele><time>2026-05-02T10:27:17.001Z</time></trkpt><trkpt lat="42.20170991352103" lon="13.782161117557948"><ele>734.0</ele><time>2026-05-02T10:27:18.001Z</time></trkpt><trkpt lat="42.20164749280086" lon="13.782391683963736"><ele>734.0</ele><time>2026-05-02T10:27:19.001Z</time></trkpt><trkpt lat="42.201559744144625" lon="13.782610128856296"><ele>734.0</ele><time>2026-05-02T10:27:20.001Z</time></trkpt><trkpt lat="42.20147090090157" lon="13.782839617116334"><ele>734.0</ele><time>2026-05-02T10:27:21.001Z</time></trkpt><trkpt lat="42.20138332157332" lon="13.783074639630128"><ele>733.3333333333333</ele><time>2026-05-02T10:27:22.001Z</time></trkpt><trkpt lat="42.20129436336843" lon="13.783313853371949"><ele>732.6666666666666</ele><time>2026-05-02T10:27:23.001Z</time></trkpt><trkpt lat="42.201194378262215" lon="13.783546641714176"><ele>732.0</ele><time>2026-05-02T10:27:24.001Z</time></trkpt><trkpt lat="42.20108567489257" lon="13.783774582206908"><ele>737.0</ele><time>2026-05-02T10:27:25.001Z</time></trkpt><trkpt lat="42.20097237650862" lon="13.78400377213274"><ele>742.0</ele><time>2026-05-02T10:27:26.001Z</time></trkpt><trkpt lat="42.20086259498936" lon="13.784234854643081"><ele>747.0</ele><time>2026-05-02T10:27:27.001Z</time></trkpt><trkpt lat="42.20075021274774" lon="13.784463987889175"><ele>750.0</ele><time>2026-05-02T10:27:28.001Z</time></trkpt><trkpt lat="42.2006259633582" lon="13.784679780862483"><ele>753.0</ele><time>2026-05-02T10:27:29.001Z</time></trkpt><trkpt lat="42.20049335520737" lon="13.784878077964285"><ele>756.0</ele><time>2026-05-02T10:27:30.001Z</time></trkpt><trkpt lat="42.2003705472128" lon="13.785052763828194"><ele>756.0</ele><time>2026-05-02T10:27:31.001Z</time></trkpt><trkpt lat="42.20028025561689" lon="13.785177116827262"><ele>756.0</ele><time>2026-05-02T10:27:32.001Z</time></trkpt><trkpt lat="42.20021721534412" lon="13.785250823775572"><ele>756.0</ele><time>2026-05-02T10:27:33.001Z</time></trkpt><trkpt lat="42.200144817534664" lon="13.785183780890918"><ele>756.0</ele><time>2026-05-02T10:27:36.001Z</time></trkpt><trkpt lat="42.20014145883594" lon="13.784992316435194"><ele>756.0</ele><time>2026-05-02T10:27:38.001Z</time></trkpt><trkpt lat="42.20014127900366" lon="13.78483568486026"><ele>756.0</ele><time>2026-05-02T10:27:39.001Z</time></trkpt><trkpt lat="42.20011952441916" lon="13.784669069855708"><ele>756.0</ele><time>2026-05-02T10:27:40.001Z</time></trkpt><trkpt lat="42.20006735034158" lon="13.784473109000642"><ele>756.0</ele><time>2026-05-02T10:27:41.001Z</time></trkpt><trkpt lat="42.19999517031369" lon="13.784273557191723"><ele>756.0</ele><time>2026-05-02T10:27:42.001Z</time></trkpt><trkpt lat="42.199908774723895" lon="13.784080721928769"><ele>760.0</ele><time>2026-05-02T10:27:43.001Z</time></trkpt><trkpt lat="42.19981876448632" lon="13.78387620647614"><ele>764.0</ele><time>2026-05-02T10:27:44.001Z</time></trkpt><trkpt lat="42.19976784997198" lon="13.783694327935047"><ele>768.0</ele><time>2026-05-02T10:27:45.001Z</time></trkpt><trkpt lat="42.19975727363182" lon="13.783508761740608"><ele>768.0</ele><time>2026-05-02T10:27:46.001Z</time></trkpt><trkpt lat="42.199760312166106" lon="13.783342339845646"><ele>768.0</ele><time>2026-05-02T10:27:47.001Z</time></trkpt><trkpt lat="42.19972420097565" lon="13.783188026020019"><ele>768.0</ele><time>2026-05-02T10:27:48.001Z</time></trkpt><trkpt lat="42.199626016292676" lon="13.78307535920712"><ele>768.0</ele><time>2026-05-02T10:27:49.001Z</time></trkpt><trkpt lat="42.19950654731186" lon="13.782987955089919"><ele>768.0</ele><time>2026-05-02T10:27:50.001Z</time></trkpt><trkpt lat="42.1993793756932" lon="13.782924260501197"><ele>768.0</ele><time>2026-05-02T10:27:51.001Z</time></trkpt><trkpt lat="42.19926653427003" lon="13.782840014200247"><ele>768.0</ele><time>2026-05-02T10:27:52.001Z</time></trkpt><trkpt lat="42.19910900345943" lon="13.782837005380403"><ele>768.0</ele><time>2026-05-02T10:27:53.001Z</time></trkpt><trkpt lat="42.19893897751833" lon="13.782865924614178"><ele>769.6666666666667</ele><time>2026-05-02T10:27:54.001Z</time></trkpt><trkpt lat="42.19876086969079" lon="13.782870698922316"><ele>771.3333333333334</ele><time>2026-05-02T10:27:55.001Z</time></trkpt><trkpt lat="42.19858905908327" lon="13.782808295716478"><ele>773.0</ele><time>2026-05-02T10:27:56.001Z</time></trkpt><trkpt lat="42.198410747140485" lon="13.782721938744308"><ele>774.3333333333334</ele><time>2026-05-02T10:27:57.001Z</time></trkpt><trkpt lat="42.19822794551335" lon="13.782673788440468"><ele>775.6666666666667</ele><time>2026-05-02T10:27:58.001Z</time></trkpt><trkpt lat="42.19803474009802" lon="13.782665523998258"><ele>777.0</ele><time>2026-05-02T10:27:59.001Z</time></trkpt><trkpt lat="42.197825960526615" lon="13.782702211362947"><ele>777.0</ele><time>2026-05-02T10:28:00.001Z</time></trkpt><trkpt lat="42.19762848977335" lon="13.78273650287145"><ele>777.0</ele><time>2026-05-02T10:28:01.001Z</time></trkpt><trkpt lat="42.19743924395665" lon="13.782735620391922"><ele>777.0</ele><time>2026-05-02T10:28:02.001Z</time></trkpt><trkpt lat="42.19726439523277" lon="13.782702256389358"><ele>776.25</ele><time>2026-05-02T10:28:03.001Z</time></trkpt><trkpt lat="42.19710961692395" lon="13.782626828860476"><ele>775.5</ele><time>2026-05-02T10:28:04.001Z</time></trkpt><trkpt lat="42.196990499976806" lon="13.782506983594804"><ele>774.75</ele><time>2026-05-02T10:28:05.001Z</time></trkpt><trkpt lat="42.196914403134315" lon="13.78235545422192"><ele>774.0</ele><time>2026-05-02T10:28:06.001Z</time></trkpt><trkpt lat="42.19681502322223" lon="13.782197109478323"><ele>774.0</ele><time>2026-05-02T10:28:07.001Z</time></trkpt><trkpt lat="42.19670547628543" lon="13.78206080989055"><ele>774.0</ele><time>2026-05-02T10:28:08.001Z</time></trkpt><trkpt lat="42.196575891638474" lon="13.781973836657208"><ele>774.0</ele><time>2026-05-02T10:28:09.001Z</time></trkpt><trkpt lat="42.19640945965763" lon="13.781940695951212"><ele>778.0</ele><time>2026-05-02T10:28:10.001Z</time></trkpt><trkpt lat="42.19623147251831" lon="13.78193051082148"><ele>782.0</ele><time>2026-05-02T10:28:11.001Z</time></trkpt><trkpt lat="42.196048437612724" lon="13.78189954658395"><ele>786.0</ele><time>2026-05-02T10:28:12.001Z</time></trkpt><trkpt lat="42.1958646812004" lon="13.781858610250904"><ele>784.3333333333333</ele><time>2026-05-02T10:28:13.001Z</time></trkpt><trkpt lat="42.19566902553794" lon="13.78181242016231"><ele>782.6666666666666</ele><time>2026-05-02T10:28:14.001Z</time></trkpt><trkpt lat="42.19547696183877" lon="13.781774230821142"><ele>781.0</ele><time>2026-05-02T10:28:15.001Z</time></trkpt><trkpt lat="42.195303448053174" lon="13.781733167448019"><ele>781.0</ele><time>2026-05-02T10:28:16.001Z</time></trkpt><trkpt lat="42.19513816215648" lon="13.781696535422743"><ele>781.0</ele><time>2026-05-02T10:28:17.001Z</time></trkpt><trkpt lat="42.19496148081828" lon="13.781686115160074"><ele>781.0</ele><time>2026-05-02T10:28:18.001Z</time></trkpt><trkpt lat="42.194790100342544" lon="13.78171186860058"><ele>782.5</ele><time>2026-05-02T10:28:19.001Z</time></trkpt><trkpt lat="42.194630369367445" lon="13.781747605242467"><ele>784.0</ele><time>2026-05-02T10:28:20.001Z</time></trkpt><trkpt lat="42.19448780038229" lon="13.781721524330495"><ele>785.5</ele><time>2026-05-02T10:28:21.001Z</time></trkpt><trkpt lat="42.1943481089068" lon="13.781690203845763"><ele>787.0</ele><time>2026-05-02T10:28:22.001Z</time></trkpt><trkpt lat="42.19421980066169" lon="13.781623285623414"><ele>787.0</ele><time>2026-05-02T10:28:23.001Z</time></trkpt><trkpt lat="42.19411503757645" lon="13.78152821095243"><ele>787.0</ele><time>2026-05-02T10:28:24.001Z</time></trkpt><trkpt lat="42.19404596155375" lon="13.781399338595621"><ele>787.0</ele><time>2026-05-02T10:28:25.001Z</time></trkpt><trkpt lat="42.194012042562186" lon="13.781249187189896"><ele>787.0</ele><time>2026-05-02T10:28:26.001Z</time></trkpt><trkpt lat="42.193983812254" lon="13.781074119768478"><ele>793.0</ele><time>2026-05-02T10:28:27.001Z</time></trkpt><trkpt lat="42.19396591349209" lon="13.780866706124524"><ele>799.0</ele><time>2026-05-02T10:28:28.001Z</time></trkpt><trkpt lat="42.193963253022375" lon="13.780646122827466"><ele>805.0</ele><time>2026-05-02T10:28:29.001Z</time></trkpt><trkpt lat="42.193973664861005" lon="13.780423512039777"><ele>805.0</ele><time>2026-05-02T10:28:30.001Z</time></trkpt><trkpt lat="42.19400062285521" lon="13.780192713182872"><ele>805.0</ele><time>2026-05-02T10:28:31.001Z</time></trkpt><trkpt lat="42.194050311845984" lon="13.779959404993292"><ele>805.0</ele><time>2026-05-02T10:28:32.001Z</time></trkpt><trkpt lat="42.19408609548666" lon="13.7797182839455"><ele>802.0</ele><time>2026-05-02T10:28:33.001Z</time></trkpt><trkpt lat="42.194137856977136" lon="13.77947761438594"><ele>799.0</ele><time>2026-05-02T10:28:34.001Z</time></trkpt><trkpt lat="42.194181817303345" lon="13.779245629239531"><ele>796.0</ele><time>2026-05-02T10:28:35.001Z</time></trkpt><trkpt lat="42.19419367172918" lon="13.779006330946395"><ele>796.0</ele><time>2026-05-02T10:28:36.001Z</time></trkpt><trkpt lat="42.194158318922376" lon="13.778764557262766"><ele>796.0</ele><time>2026-05-02T10:28:37.001Z</time></trkpt><trkpt lat="42.19411071790415" lon="13.77852036417085"><ele>796.0</ele><time>2026-05-02T10:28:38.001Z</time></trkpt><trkpt lat="42.19411202061099" lon="13.778264275381861"><ele>799.0</ele><time>2026-05-02T10:28:39.001Z</time></trkpt><trkpt lat="42.19413347897548" lon="13.777999148914745"><ele>802.0</ele><time>2026-05-02T10:28:40.001Z</time></trkpt><trkpt lat="42.194163849789526" lon="13.777741743013305"><ele>805.0</ele><time>2026-05-02T10:28:41.001Z</time></trkpt><trkpt lat="42.19420455756498" lon="13.777472042506085"><ele>808.3333333333333</ele><time>2026-05-02T10:28:42.001Z</time></trkpt><trkpt lat="42.19425966598263" lon="13.777204451295995"><ele>811.6666666666667</ele><time>2026-05-02T10:28:43.001Z</time></trkpt><trkpt lat="42.19433189756329" lon="13.776947021583233"><ele>815.0</ele><time>2026-05-02T10:28:44.001Z</time></trkpt><trkpt lat="42.194419277820295" lon="13.776702321227837"><ele>817.6666666666667</ele><time>2026-05-02T10:28:45.001Z</time></trkpt><trkpt lat="42.194529889011" lon="13.776472493383743"><ele>820.3333333333333</ele><time>2026-05-02T10:28:46.001Z</time></trkpt><trkpt lat="42.19464382171656" lon="13.776241111417928"><ele>823.0</ele><time>2026-05-02T10:28:47.001Z</time></trkpt><trkpt lat="42.19471304918127" lon="13.775993433587715"><ele>820.3333333333333</ele><time>2026-05-02T10:28:48.001Z</time></trkpt><trkpt lat="42.19478034426707" lon="13.775760249303381"><ele>817.6666666666667</ele><time>2026-05-02T10:28:49.001Z</time></trkpt><trkpt lat="42.19488534226997" lon="13.775577147033262"><ele>815.0</ele><time>2026-05-02T10:28:50.001Z</time></trkpt><trkpt lat="42.19500321551155" lon="13.77541000168699"><ele>815.0</ele><time>2026-05-02T10:28:51.001Z</time></trkpt><trkpt lat="42.19514025741668" lon="13.775235816764715"><ele>815.0</ele><time>2026-05-02T10:28:52.001Z</time></trkpt><trkpt lat="42.19525454314965" lon="13.775029034577699"><ele>815.0</ele><time>2026-05-02T10:28:53.001Z</time></trkpt><trkpt lat="42.19538517964124" lon="13.774842123632268"><ele>818.6666666666667</ele><time>2026-05-02T10:28:54.001Z</time></trkpt><trkpt lat="42.195503190540755" lon="13.774631162616837"><ele>822.3333333333333</ele><time>2026-05-02T10:28:55.001Z</time></trkpt><trkpt lat="42.195608838824796" lon="13.774407185121802"><ele>826.0</ele><time>2026-05-02T10:28:56.001Z</time></trkpt><trkpt lat="42.19573301615753" lon="13.774201464143284"><ele>827.0</ele><time>2026-05-02T10:28:57.001Z</time></trkpt><trkpt lat="42.1958469438375" lon="13.77399347822918"><ele>828.0</ele><time>2026-05-02T10:28:58.001Z</time></trkpt><trkpt lat="42.195946957312856" lon="13.773812893785832"><ele>829.0</ele><time>2026-05-02T10:28:59.001Z</time></trkpt><trkpt lat="42.19602213013192" lon="13.773652208177916"><ele>832.6666666666666</ele><time>2026-05-02T10:29:00.001Z</time></trkpt><trkpt lat="42.196059893681756" lon="13.773466695653314"><ele>836.3333333333333</ele><time>2026-05-02T10:29:01.002Z</time></trkpt><trkpt lat="42.1960551138854" lon="13.773244003667092"><ele>840.0</ele><time>2026-05-02T10:29:02.002Z</time></trkpt><trkpt lat="42.19605228179331" lon="13.773002363593013"><ele>840.0</ele><time>2026-05-02T10:29:03.002Z</time></trkpt><trkpt lat="42.19605109896463" lon="13.772755809947203"><ele>840.0</ele><time>2026-05-02T10:29:04.002Z</time></trkpt><trkpt lat="42.19607313178925" lon="13.772507877378036"><ele>840.0</ele><time>2026-05-02T10:29:05.002Z</time></trkpt><trkpt lat="42.19611420287191" lon="13.772277612717163"><ele>840.75</ele><time>2026-05-02T10:29:06.002Z</time></trkpt><trkpt lat="42.19613305124189" lon="13.77206404445294"><ele>841.5</ele><time>2026-05-02T10:29:07.002Z</time></trkpt><trkpt lat="42.19614414829954" lon="13.77187196462216"><ele>842.25</ele><time>2026-05-02T10:29:08.002Z</time></trkpt><trkpt lat="42.19613494513629" lon="13.771692925978934"><ele>843.0</ele><time>2026-05-02T10:29:09.002Z</time></trkpt><trkpt lat="42.1961004768213" lon="13.77154623068589"><ele>843.0</ele><time>2026-05-02T10:29:10.001Z</time></trkpt><trkpt lat="42.19601695053937" lon="13.771426065462132"><ele>843.0</ele><time>2026-05-02T10:29:11.001Z</time></trkpt><trkpt lat="42.19589145052318" lon="13.771359172418544"><ele>843.0</ele><time>2026-05-02T10:29:12.001Z</time></trkpt><trkpt lat="42.19574310861325" lon="13.771333037039348"><ele>843.0</ele><time>2026-05-02T10:29:13.001Z</time></trkpt><trkpt lat="42.19558454165565" lon="13.771333611467854"><ele>846.6666666666667</ele><time>2026-05-02T10:29:14.001Z</time></trkpt><trkpt lat="42.195419243119666" lon="13.771351679314915"><ele>850.3333333333334</ele><time>2026-05-02T10:29:15.001Z</time></trkpt><trkpt lat="42.195260531519985" lon="13.771379957366557"><ele>854.0</ele><time>2026-05-02T10:29:16.001Z</time></trkpt><trkpt lat="42.19512530672732" lon="13.771359869820486"><ele>854.0</ele><time>2026-05-02T10:29:17.001Z</time></trkpt><trkpt lat="42.19500475884468" lon="13.771344433877314"><ele>854.0</ele><time>2026-05-02T10:29:18.001Z</time></trkpt><trkpt lat="42.19493126139713" lon="13.771218261525707"><ele>854.0</ele><time>2026-05-02T10:29:19.001Z</time></trkpt><trkpt lat="42.194924665782175" lon="13.771062392076391"><ele>854.0</ele><time>2026-05-02T10:29:20.001Z</time></trkpt><trkpt lat="42.194908575942385" lon="13.77089797370828"><ele>852.6666666666667</ele><time>2026-05-02T10:29:21.001Z</time></trkpt><trkpt lat="42.19487642507215" lon="13.770710585486857"><ele>851.3333333333333</ele><time>2026-05-02T10:29:22.001Z</time></trkpt><trkpt lat="42.19484337290144" lon="13.770508637290241"><ele>850.0</ele><time>2026-05-02T10:29:23.001Z</time></trkpt><trkpt lat="42.19477828533554" lon="13.77030323695818"><ele>852.75</ele><time>2026-05-02T10:29:24.001Z</time></trkpt><trkpt lat="42.19469834691681" lon="13.770119872651293"><ele>855.5</ele><time>2026-05-02T10:29:25.001Z</time></trkpt><trkpt lat="42.194620563080655" lon="13.769953293770273"><ele>858.25</ele><time>2026-05-02T10:29:26.001Z</time></trkpt><trkpt lat="42.194553422795565" lon="13.769801103301095"><ele>861.0</ele><time>2026-05-02T10:29:27.001Z</time></trkpt><trkpt lat="42.19448749170456" lon="13.769666864796317"><ele>861.0</ele><time>2026-05-02T10:29:28.001Z</time></trkpt><trkpt lat="42.19439251486137" lon="13.769572634705979"><ele>861.0</ele><time>2026-05-02T10:29:29.001Z</time></trkpt><trkpt lat="42.19426069629249" lon="13.769533470717956"><ele>861.0</ele><time>2026-05-02T10:29:30.001Z</time></trkpt><trkpt lat="42.19411344399141" lon="13.769551898598014"><ele>861.0</ele><time>2026-05-02T10:29:31.001Z</time></trkpt><trkpt lat="42.19396317149984" lon="13.769601384255795"><ele>863.5</ele><time>2026-05-02T10:29:32.001Z</time></trkpt><trkpt lat="42.19381834118645" lon="13.769644484050394"><ele>866.0</ele><time>2026-05-02T10:29:33.001Z</time></trkpt><trkpt lat="42.1936727001739" lon="13.769660788214326"><ele>868.5</ele><time>2026-05-02T10:29:34.001Z</time></trkpt><trkpt lat="42.193524205077885" lon="13.76960649299655"><ele>871.0</ele><time>2026-05-02T10:29:35.001Z</time></trkpt><trkpt lat="42.193373615157455" lon="13.769595877892252"><ele>871.0</ele><time>2026-05-02T10:29:36.001Z</time></trkpt><trkpt lat="42.19321436901209" lon="13.769579939783224"><ele>871.0</ele><time>2026-05-02T10:29:37.001Z</time></trkpt><trkpt lat="42.193055035363166" lon="13.769588565022476"><ele>871.0</ele><time>2026-05-02T10:29:38.001Z</time></trkpt><trkpt lat="42.192901313929845" lon="13.769590528407567"><ele>871.75</ele><time>2026-05-02T10:29:39.001Z</time></trkpt><trkpt lat="42.192755967943455" lon="13.769583173387169"><ele>872.5</ele><time>2026-05-02T10:29:40.001Z</time></trkpt><trkpt lat="42.19262273563287" lon="13.76957363499386"><ele>873.25</ele><time>2026-05-02T10:29:41.001Z</time></trkpt><trkpt lat="42.19249844999242" lon="13.76955702961977"><ele>874.0</ele><time>2026-05-02T10:29:42.001Z</time></trkpt><trkpt lat="42.192381774826124" lon="13.76951936766435"><ele>873.8000000000001</ele><time>2026-05-02T10:29:43.001Z</time></trkpt><trkpt lat="42.192274819754296" lon="13.769464059136643"><ele>873.6000000000001</ele><time>2026-05-02T10:29:44.001Z</time></trkpt><trkpt lat="42.19217392237881" lon="13.769418351708312"><ele>873.4</ele><time>2026-05-02T10:29:45.001Z</time></trkpt><trkpt lat="42.19206748392727" lon="13.769389569284412"><ele>873.2</ele><time>2026-05-02T10:29:46.001Z</time></trkpt><trkpt lat="42.19194854689203" lon="13.769383383019951"><ele>873.0</ele><time>2026-05-02T10:29:47.001Z</time></trkpt><trkpt lat="42.19181961808289" lon="13.769393795399811"><ele>873.0</ele><time>2026-05-02T10:29:48.001Z</time></trkpt><trkpt lat="42.191690493233914" lon="13.769377042206733"><ele>873.0</ele><time>2026-05-02T10:29:49.001Z</time></trkpt><trkpt lat="42.19157532011892" lon="13.769374555784621"><ele>873.0</ele><time>2026-05-02T10:29:50.001Z</time></trkpt><trkpt lat="42.191466053164305" lon="13.769368049716409"><ele>873.0</ele><time>2026-05-02T10:29:51.001Z</time></trkpt><trkpt lat="42.19136201692007" lon="13.769343420166487"><ele>872.8</ele><time>2026-05-02T10:29:52.001Z</time></trkpt><trkpt lat="42.19126235486586" lon="13.769314837116138"><ele>872.5999999999999</ele><time>2026-05-02T10:29:53.001Z</time></trkpt><trkpt lat="42.191217800472906" lon="13.769183827650975"><ele>872.4000000000001</ele><time>2026-05-02T10:29:54.001Z</time></trkpt><trkpt lat="42.19116884255377" lon="13.769091187321157"><ele>872.2</ele><time>2026-05-02T10:29:55.001Z</time></trkpt><trkpt lat="42.19111535039011" lon="13.769028620387642"><ele>872.0</ele><time>2026-05-02T10:29:56.001Z</time></trkpt><trkpt lat="42.19103701558979" lon="13.768901860175987"><ele>872.0</ele><time>2026-05-02T10:29:58.001Z</time></trkpt><trkpt lat="42.19097376781764" lon="13.768780790149801"><ele>872.0</ele><time>2026-05-02T10:30:00.001Z</time></trkpt><trkpt lat="42.19090007860016" lon="13.768699728516472"><ele>872.0</ele><time>2026-05-02T10:30:02.001Z</time></trkpt><trkpt lat="42.19078869717942" lon="13.768607413374907"><ele>872.0</ele><time>2026-05-02T10:30:04.001Z</time></trkpt><trkpt lat="42.19068359323739" lon="13.768562141955039"><ele>872.0</ele><time>2026-05-02T10:30:05.001Z</time></trkpt><trkpt lat="42.19056588616588" lon="13.7685363366348"><ele>869.0</ele><time>2026-05-02T10:30:06.001Z</time></trkpt><trkpt lat="42.19044698804872" lon="13.768479472074526"><ele>866.0</ele><time>2026-05-02T10:30:07.001Z</time></trkpt><trkpt lat="42.190335887304016" lon="13.768408323468215"><ele>863.0</ele><time>2026-05-02T10:30:08.001Z</time></trkpt><trkpt lat="42.19025628814247" lon="13.768272460708822"><ele>860.0</ele><time>2026-05-02T10:30:09.001Z</time></trkpt><trkpt lat="42.190181722742985" lon="13.768103053169481"><ele>860.0</ele><time>2026-05-02T10:30:10.001Z</time></trkpt><trkpt lat="42.19010211040962" lon="13.767922418193182"><ele>860.0</ele><time>2026-05-02T10:30:11.001Z</time></trkpt><trkpt lat="42.19000745275705" lon="13.767739704160677"><ele>860.0</ele><time>2026-05-02T10:30:12.001Z</time></trkpt><trkpt lat="42.18994178336195" lon="13.76752965868605"><ele>859.0</ele><time>2026-05-02T10:30:13.001Z</time></trkpt><trkpt lat="42.1898649739614" lon="13.767341824197645"><ele>858.0</ele><time>2026-05-02T10:30:14.001Z</time></trkpt><trkpt lat="42.189784229513606" lon="13.767170007003843"><ele>857.0</ele><time>2026-05-02T10:30:15.001Z</time></trkpt><trkpt lat="42.18976520560622" lon="13.766997022188452"><ele>856.0</ele><time>2026-05-02T10:30:16.001Z</time></trkpt><trkpt lat="42.189749385550485" lon="13.766836902679524"><ele>856.0</ele><time>2026-05-02T10:30:17.001Z</time></trkpt><trkpt lat="42.18971301851256" lon="13.766700959222169"><ele>856.0</ele><time>2026-05-02T10:30:18.001Z</time></trkpt><trkpt lat="42.18966617974697" lon="13.766577658218525"><ele>856.0</ele><time>2026-05-02T10:30:19.001Z</time></trkpt><trkpt lat="42.189597417779936" lon="13.766470121342913"><ele>856.0</ele><time>2026-05-02T10:30:20.001Z</time></trkpt><trkpt lat="42.18946430285224" lon="13.766422841241361"><ele>856.0</ele><time>2026-05-02T10:30:21.001Z</time></trkpt><trkpt lat="42.18931758098334" lon="13.766403351898493"><ele>856.0</ele><time>2026-05-02T10:30:22.001Z</time></trkpt><trkpt lat="42.189176534682936" lon="13.766408223690645"><ele>856.0</ele><time>2026-05-02T10:30:23.001Z</time></trkpt><trkpt lat="42.189040559297865" lon="13.766447480510301"><ele>856.0</ele><time>2026-05-02T10:30:24Z</time></trkpt><trkpt lat="42.188908871918585" lon="13.766551053626404"><ele>855.6666666666666</ele><time>2026-05-02T10:30:25Z</time></trkpt><trkpt lat="42.18877969608035" lon="13.766711353593015"><ele>855.3333333333333</ele><time>2026-05-02T10:30:26Z</time></trkpt><trkpt lat="42.18864194742449" lon="13.766890394266234"><ele>855.0</ele><time>2026-05-02T10:30:27Z</time></trkpt><trkpt lat="42.18848036144239" lon="13.767051430239631"><ele>852.3333333333333</ele><time>2026-05-02T10:30:28Z</time></trkpt><trkpt lat="42.188337199094626" lon="13.767245836681825"><ele>849.6666666666666</ele><time>2026-05-02T10:30:29Z</time></trkpt><trkpt lat="42.18819688225846" lon="13.767407977065465"><ele>847.0</ele><time>2026-05-02T10:30:30Z</time></trkpt><trkpt lat="42.18806893513001" lon="13.767554494273407"><ele>846.0</ele><time>2026-05-02T10:30:31Z</time></trkpt><trkpt lat="42.187936668232396" lon="13.767687956891592"><ele>845.0</ele><time>2026-05-02T10:30:32Z</time></trkpt><trkpt lat="42.18778431173135" lon="13.767800487437318"><ele>844.0</ele><time>2026-05-02T10:30:33Z</time></trkpt><trkpt lat="42.18760167083236" lon="13.767855232488948"><ele>842.0</ele><time>2026-05-02T10:30:34Z</time></trkpt><trkpt lat="42.187413647298456" lon="13.767913483194553"><ele>840.0</ele><time>2026-05-02T10:30:35Z</time></trkpt><trkpt lat="42.18721584537737" lon="13.767989538281098"><ele>838.0</ele><time>2026-05-02T10:30:36Z</time></trkpt><trkpt lat="42.18701236366197" lon="13.768055474513808"><ele>837.3333333333333</ele><time>2026-05-02T10:30:37Z</time></trkpt><trkpt lat="42.186817397168944" lon="13.768120711492234"><ele>836.6666666666667</ele><time>2026-05-02T10:30:38Z</time></trkpt><trkpt lat="42.186635793684744" lon="13.768180139819606"><ele>836.0</ele><time>2026-05-02T10:30:39Z</time></trkpt><trkpt lat="42.18647379042302" lon="13.76823235387549"><ele>835.5</ele><time>2026-05-02T10:30:40Z</time></trkpt><trkpt lat="42.186326767757706" lon="13.768280279140367"><ele>835.0</ele><time>2026-05-02T10:30:41Z</time></trkpt><trkpt lat="42.18618260805033" lon="13.768328735366696"><ele>834.5</ele><time>2026-05-02T10:30:42Z</time></trkpt><trkpt lat="42.18603928276062" lon="13.768376084516413"><ele>834.0</ele><time>2026-05-02T10:30:43Z</time></trkpt><trkpt lat="42.1858991951072" lon="13.768429288950614"><ele>834.0</ele><time>2026-05-02T10:30:44Z</time></trkpt><trkpt lat="42.1857489261085" lon="13.768478996717862"><ele>834.0</ele><time>2026-05-02T10:30:45Z</time></trkpt><trkpt lat="42.18559154690031" lon="13.768529095499709"><ele>834.0</ele><time>2026-05-02T10:30:46Z</time></trkpt><trkpt lat="42.18543584042361" lon="13.768583763441727"><ele>835.0</ele><time>2026-05-02T10:30:47Z</time></trkpt><trkpt lat="42.185278000106834" lon="13.768652441707738"><ele>836.0</ele><time>2026-05-02T10:30:48Z</time></trkpt><trkpt lat="42.18513499033313" lon="13.768732363459861"><ele>837.0</ele><time>2026-05-02T10:30:49Z</time></trkpt><trkpt lat="42.18500578927812" lon="13.768854671521616"><ele>837.0</ele><time>2026-05-02T10:30:50Z</time></trkpt><trkpt lat="42.18488957347737" lon="13.769001699496485"><ele>837.0</ele><time>2026-05-02T10:30:51Z</time></trkpt><trkpt lat="42.184780665687995" lon="13.769136023094285"><ele>837.0</ele><time>2026-05-02T10:30:52Z</time></trkpt><trkpt lat="42.18466434821058" lon="13.769230373597352"><ele>837.0</ele><time>2026-05-02T10:30:53Z</time></trkpt><trkpt lat="42.18452264928809" lon="13.769222666039687"><ele>837.5</ele><time>2026-05-02T10:30:54Z</time></trkpt><trkpt lat="42.18437429035574" lon="13.769240397515338"><ele>838.0</ele><time>2026-05-02T10:30:55Z</time></trkpt><trkpt lat="42.184234903763915" lon="13.769277272556216"><ele>838.5</ele><time>2026-05-02T10:30:56Z</time></trkpt><trkpt lat="42.18410331032059" lon="13.769290447063582"><ele>839.0</ele><time>2026-05-02T10:30:57Z</time></trkpt><trkpt lat="42.18398221635051" lon="13.76931313537147"><ele>839.25</ele><time>2026-05-02T10:30:58Z</time></trkpt><trkpt lat="42.18385918453163" lon="13.769349338257895"><ele>839.5</ele><time>2026-05-02T10:30:59Z</time></trkpt><trkpt lat="42.18373991421341" lon="13.769380227925103"><ele>839.75</ele><time>2026-05-02T10:31:00Z</time></trkpt><trkpt lat="42.18363833232418" lon="13.769405363465946"><ele>840.0</ele><time>2026-05-02T10:31:01Z</time></trkpt><trkpt lat="42.18354001865715" lon="13.76943948901929"><ele>839.6666666666666</ele><time>2026-05-02T10:31:02Z</time></trkpt><trkpt lat="42.18344940596452" lon="13.76946740354453"><ele>839.3333333333333</ele><time>2026-05-02T10:31:03Z</time></trkpt><trkpt lat="42.18336468404506" lon="13.769494671811803"><ele>839.0</ele><time>2026-05-02T10:31:04Z</time></trkpt><trkpt lat="42.18327110369151" lon="13.769529593270942"><ele>838.6666666666666</ele><time>2026-05-02T10:31:05Z</time></trkpt><trkpt lat="42.18317967990487" lon="13.769555788416453"><ele>838.3333333333333</ele><time>2026-05-02T10:31:06.001Z</time></trkpt><trkpt lat="42.18311165671849" lon="13.769580913423946"><ele>838.0</ele><time>2026-05-02T10:31:07.001Z</time></trkpt><trkpt lat="42.18304985780523" lon="13.76960098212682"><ele>837.9999999999999</ele><time>2026-05-02T10:31:08.001Z</time></trkpt><trkpt lat="42.18298971214899" lon="13.769642422872849"><ele>838.0</ele><time>2026-05-02T10:31:09.001Z</time></trkpt><trkpt lat="42.182924267981136" lon="13.76965358835272"><ele>838.0</ele><time>2026-05-02T10:31:10.001Z</time></trkpt><trkpt lat="42.182832758364285" lon="13.769688464505295"><ele>838.0</ele><time>2026-05-02T10:31:12.001Z</time></trkpt><trkpt lat="42.18275558315891" lon="13.769692574070618"><ele>837.9999999999999</ele><time>2026-05-02T10:31:14.001Z</time></trkpt><trkpt lat="42.182713531875244" lon="13.769508956442833"><ele>838.0</ele><time>2026-05-02T10:31:16.001Z</time></trkpt><trkpt lat="42.18265421603812" lon="13.76939635890511"><ele>838.8333333333333</ele><time>2026-05-02T10:31:18.001Z</time></trkpt><trkpt lat="42.18257582711278" lon="13.76929878397677"><ele>839.6666666666666</ele><time>2026-05-02T10:31:20.001Z</time></trkpt><trkpt lat="42.18252228581301" lon="13.769239087413554"><ele>840.5</ele><time>2026-05-02T10:31:21.001Z</time></trkpt><trkpt lat="42.18245913861163" lon="13.769172091949084"><ele>841.3333333333333</ele><time>2026-05-02T10:31:22.001Z</time></trkpt><trkpt lat="42.18239554150427" lon="13.769107932105818"><ele>842.1666666666666</ele><time>2026-05-02T10:31:23.001Z</time></trkpt><trkpt lat="42.18233180045918" lon="13.769045993460415"><ele>843.0</ele><time>2026-05-02T10:31:24.001Z</time></trkpt><trkpt lat="42.182267799602" lon="13.768987377767095"><ele>843.0</ele><time>2026-05-02T10:31:25.001Z</time></trkpt><trkpt lat="42.18219603980318" lon="13.768926200805462"><ele>843.0</ele><time>2026-05-02T10:31:26.001Z</time></trkpt><trkpt lat="42.18212552011249" lon="13.768868342819562"><ele>843.0</ele><time>2026-05-02T10:31:27.001Z</time></trkpt><trkpt lat="42.18204520049162" lon="13.768808531547416"><ele>843.0</ele><time>2026-05-02T10:31:28.001Z</time></trkpt><trkpt lat="42.181971923592734" lon="13.768753919566455"><ele>843.0</ele><time>2026-05-02T10:31:29.001Z</time></trkpt><trkpt lat="42.181910483559506" lon="13.768677981019993"><ele>843.0</ele><time>2026-05-02T10:31:30.001Z</time></trkpt><trkpt lat="42.18187513003173" lon="13.768581361092954"><ele>845.5</ele><time>2026-05-02T10:31:31.001Z</time></trkpt><trkpt lat="42.18185027607055" lon="13.768454034650444"><ele>848.0</ele><time>2026-05-02T10:31:32.001Z</time></trkpt><trkpt lat="42.18183112978996" lon="13.768306224449208"><ele>850.5</ele><time>2026-05-02T10:31:33.001Z</time></trkpt><trkpt lat="42.18181930870386" lon="13.768145461808782"><ele>853.0</ele><time>2026-05-02T10:31:34.001Z</time></trkpt><trkpt lat="42.18182067414989" lon="13.767978808772963"><ele>853.0</ele><time>2026-05-02T10:31:35.001Z</time></trkpt><trkpt lat="42.18186858589821" lon="13.767831896474215"><ele>853.0</ele><time>2026-05-02T10:31:36.001Z</time></trkpt><trkpt lat="42.18190908150478" lon="13.76766391751224"><ele>853.0</ele><time>2026-05-02T10:31:37.001Z</time></trkpt><trkpt lat="42.18197584930888" lon="13.767500820540878"><ele>853.0</ele><time>2026-05-02T10:31:38.001Z</time></trkpt><trkpt lat="42.18204283424652" lon="13.767340191275146"><ele>852.25</ele><time>2026-05-02T10:31:39.001Z</time></trkpt><trkpt lat="42.18211904192214" lon="13.7671925621561"><ele>851.5</ele><time>2026-05-02T10:31:40.001Z</time></trkpt><trkpt lat="42.18221388123955" lon="13.767094971930325"><ele>850.75</ele><time>2026-05-02T10:31:41.001Z</time></trkpt><trkpt lat="42.18232123848336" lon="13.767019541632449"><ele>850.0</ele><time>2026-05-02T10:31:42.001Z</time></trkpt><trkpt lat="42.1824401296581" lon="13.766926435329239"><ele>856.0</ele><time>2026-05-02T10:31:43.001Z</time></trkpt><trkpt lat="42.182571380468026" lon="13.766847340354305"><ele>862.0</ele><time>2026-05-02T10:31:44.001Z</time></trkpt><trkpt lat="42.18270532483419" lon="13.766772772933587"><ele>868.0</ele><time>2026-05-02T10:31:45.001Z</time></trkpt><trkpt lat="42.182840245039024" lon="13.76671156423345"><ele>874.0</ele><time>2026-05-02T10:31:46.001Z</time></trkpt><trkpt lat="42.18297355274901" lon="13.76665969292413"><ele>873.9999999999999</ele><time>2026-05-02T10:31:47.001Z</time></trkpt><trkpt lat="42.18309195551191" lon="13.766616009166937"><ele>874.0</ele><time>2026-05-02T10:31:48.001Z</time></trkpt><trkpt lat="42.18319103689411" lon="13.766574418566243"><ele>874.0</ele><time>2026-05-02T10:31:49.001Z</time></trkpt><trkpt lat="42.18326303445015" lon="13.766531534805189"><ele>874.0</ele><time>2026-05-02T10:31:50.001Z</time></trkpt><trkpt lat="42.183319998252976" lon="13.766491593230143"><ele>873.9999999999999</ele><time>2026-05-02T10:31:51.001Z</time></trkpt><trkpt lat="42.18331664893685" lon="13.76639988514141"><ele>874.0</ele><time>2026-05-02T10:31:52.001Z</time></trkpt><trkpt lat="42.18325809317329" lon="13.766282390752302"><ele>874.0</ele><time>2026-05-02T10:31:54Z</time></trkpt><trkpt lat="42.18314535343806" lon="13.766317641638347"><ele>874.0</ele><time>2026-05-02T10:31:55Z</time></trkpt><trkpt lat="42.18305257785797" lon="13.76636651394634"><ele>874.0</ele><time>2026-05-02T10:31:56Z</time></trkpt><trkpt lat="42.18294700906994" lon="13.766417828521137"><ele>874.0</ele><time>2026-05-02T10:31:57Z</time></trkpt><trkpt lat="42.182823393414246" lon="13.766464013442905"><ele>874.0</ele><time>2026-05-02T10:31:58Z</time></trkpt><trkpt lat="42.18268955818186" lon="13.76649767556714"><ele>874.0</ele><time>2026-05-02T10:31:59Z</time></trkpt><trkpt lat="42.18254679454483" lon="13.766528496865336"><ele>874.0</ele><time>2026-05-02T10:32:00Z</time></trkpt><trkpt lat="42.182380289046115" lon="13.766556094782874"><ele>874.0</ele><time>2026-05-02T10:32:01Z</time></trkpt><trkpt lat="42.18218831607231" lon="13.766581091339903"><ele>878.6666666666666</ele><time>2026-05-02T10:32:02Z</time></trkpt><trkpt lat="42.182016494837775" lon="13.766567410573547"><ele>883.3333333333333</ele><time>2026-05-02T10:32:03Z</time></trkpt><trkpt lat="42.181866363066185" lon="13.766607541372453"><ele>888.0</ele><time>2026-05-02T10:32:04Z</time></trkpt><trkpt lat="42.18173786867115" lon="13.766686770795754"><ele>888.0</ele><time>2026-05-02T10:32:05Z</time></trkpt><trkpt lat="42.181646253445074" lon="13.766817493431898"><ele>888.0</ele><time>2026-05-02T10:32:06Z</time></trkpt><trkpt lat="42.18156320634529" lon="13.766886817753837"><ele>888.0</ele><time>2026-05-02T10:32:07Z</time></trkpt><trkpt lat="42.181485043621855" lon="13.76692112186598"><ele>888.0</ele><time>2026-05-02T10:32:08Z</time></trkpt><trkpt lat="42.18139809250551" lon="13.76686718930303"><ele>888.0</ele><time>2026-05-02T10:32:09Z</time></trkpt><trkpt lat="42.1813335285384" lon="13.766733335272308"><ele>886.0</ele><time>2026-05-02T10:32:10Z</time></trkpt><trkpt lat="42.18123435622789" lon="13.766620348279245"><ele>884.0</ele><time>2026-05-02T10:32:11Z</time></trkpt><trkpt lat="42.181134751371275" lon="13.766478368871883"><ele>882.0</ele><time>2026-05-02T10:32:12Z</time></trkpt><trkpt lat="42.18102553092369" lon="13.766319807100377"><ele>880.0</ele><time>2026-05-02T10:32:13Z</time></trkpt><trkpt lat="42.18089656582933" lon="13.766180485294274"><ele>880.0</ele><time>2026-05-02T10:32:14Z</time></trkpt><trkpt lat="42.18076758794817" lon="13.766048048769377"><ele>880.0</ele><time>2026-05-02T10:32:15Z</time></trkpt><trkpt lat="42.18067728876294" lon="13.76584738539585"><ele>880.0</ele><time>2026-05-02T10:32:16Z</time></trkpt><trkpt lat="42.18056403737984" lon="13.765655096102149"><ele>880.0</ele><time>2026-05-02T10:32:17Z</time></trkpt><trkpt lat="42.180463365630324" lon="13.765436499872637"><ele>880.0</ele><time>2026-05-02T10:32:18Z</time></trkpt><trkpt lat="42.18035744238977" lon="13.76521618622493"><ele>880.0</ele><time>2026-05-02T10:32:19Z</time></trkpt><trkpt lat="42.18025444497088" lon="13.76497976022846"><ele>887.3333333333333</ele><time>2026-05-02T10:32:20Z</time></trkpt><trkpt lat="42.180118426158046" lon="13.764800236463731"><ele>894.6666666666667</ele><time>2026-05-02T10:32:21Z</time></trkpt><trkpt lat="42.17998570319472" lon="13.764624478795941"><ele>902.0</ele><time>2026-05-02T10:32:22Z</time></trkpt><trkpt lat="42.17985850929021" lon="13.764459398606753"><ele>901.5</ele><time>2026-05-02T10:32:23Z</time></trkpt><trkpt lat="42.17971602109307" lon="13.764371599258087"><ele>901.0</ele><time>2026-05-02T10:32:24Z</time></trkpt><trkpt lat="42.17958973770793" lon="13.7642965237253"><ele>900.5</ele><time>2026-05-02T10:32:25Z</time></trkpt><trkpt lat="42.17951520164879" lon="13.764178143838505"><ele>900.0</ele><time>2026-05-02T10:32:26Z</time></trkpt><trkpt lat="42.17946139922966" lon="13.764037241489515"><ele>900.0</ele><time>2026-05-02T10:32:27Z</time></trkpt><trkpt lat="42.17941291678779" lon="13.76386685898158"><ele>900.0</ele><time>2026-05-02T10:32:28Z</time></trkpt><trkpt lat="42.179366958273924" lon="13.763677520627873"><ele>900.0</ele><time>2026-05-02T10:32:29Z</time></trkpt><trkpt lat="42.17932778818467" lon="13.763483839590334"><ele>900.0</ele><time>2026-05-02T10:32:30Z</time></trkpt><trkpt lat="42.179294199230064" lon="13.763276615780173"><ele>905.6666666666667</ele><time>2026-05-02T10:32:31Z</time></trkpt><trkpt lat="42.17926157942832" lon="13.763054835525436"><ele>911.3333333333334</ele><time>2026-05-02T10:32:32Z</time></trkpt><trkpt lat="42.17922957144689" lon="13.762829476743137"><ele>917.0</ele><time>2026-05-02T10:32:33Z</time></trkpt><trkpt lat="42.17920129629343" lon="13.762590072459568"><ele>920.3333333333334</ele><time>2026-05-02T10:32:34Z</time></trkpt><trkpt lat="42.17918490904829" lon="13.762346492453995"><ele>923.6666666666667</ele><time>2026-05-02T10:32:35Z</time></trkpt><trkpt lat="42.179179613781656" lon="13.762092637028351"><ele>927.0</ele><time>2026-05-02T10:32:36Z</time></trkpt><trkpt lat="42.17917961901079" lon="13.761837175561642"><ele>929.6666666666667</ele><time>2026-05-02T10:32:37Z</time></trkpt><trkpt lat="42.1791731520043" lon="13.761573282841256"><ele>932.3333333333334</ele><time>2026-05-02T10:32:38Z</time></trkpt><trkpt lat="42.17912818830465" lon="13.761315848960095"><ele>935.0</ele><time>2026-05-02T10:32:39Z</time></trkpt><trkpt lat="42.179116193721406" lon="13.761046259602349"><ele>939.6666666666667</ele><time>2026-05-02T10:32:40Z</time></trkpt><trkpt lat="42.17909172879696" lon="13.760781712298435"><ele>944.3333333333333</ele><time>2026-05-02T10:32:41Z</time></trkpt><trkpt lat="42.179081652681425" lon="13.760534240990072"><ele>949.0</ele><time>2026-05-02T10:32:42Z</time></trkpt><trkpt lat="42.179096998853275" lon="13.760280880428288"><ele>950.6666666666666</ele><time>2026-05-02T10:32:43Z</time></trkpt><trkpt lat="42.17913337858824" lon="13.76004672816734"><ele>952.3333333333333</ele><time>2026-05-02T10:32:44Z</time></trkpt><trkpt lat="42.179177713463915" lon="13.759810585972934"><ele>954.0</ele><time>2026-05-02T10:32:45Z</time></trkpt><trkpt lat="42.179220113555566" lon="13.75954822273892"><ele>954.6666666666667</ele><time>2026-05-02T10:32:46Z</time></trkpt><trkpt lat="42.17925174016296" lon="13.759291274726138"><ele>955.3333333333334</ele><time>2026-05-02T10:32:47Z</time></trkpt><trkpt lat="42.17928465140632" lon="13.759040525909294"><ele>956.0</ele><time>2026-05-02T10:32:48Z</time></trkpt><trkpt lat="42.179329732011155" lon="13.758817111730275"><ele>956.0</ele><time>2026-05-02T10:32:49Z</time></trkpt><trkpt lat="42.179405095412555" lon="13.758630450307246"><ele>956.0</ele><time>2026-05-02T10:32:50Z</time></trkpt><trkpt lat="42.17948960674733" lon="13.758424568937007"><ele>956.0</ele><time>2026-05-02T10:32:51Z</time></trkpt><trkpt lat="42.17956488402791" lon="13.758200513593048"><ele>955.0</ele><time>2026-05-02T10:32:52Z</time></trkpt><trkpt lat="42.17965099844006" lon="13.757995963027378"><ele>954.0</ele><time>2026-05-02T10:32:53Z</time></trkpt><trkpt lat="42.17973388063759" lon="13.75777250025396"><ele>953.0</ele><time>2026-05-02T10:32:54Z</time></trkpt><trkpt lat="42.179815182156865" lon="13.757537626315717"><ele>963.6666666666667</ele><time>2026-05-02T10:32:55Z</time></trkpt><trkpt lat="42.17989515355391" lon="13.75729101478724"><ele>974.3333333333333</ele><time>2026-05-02T10:32:56Z</time></trkpt><trkpt lat="42.17997001031904" lon="13.757050811790538"><ele>985.0</ele><time>2026-05-02T10:32:57Z</time></trkpt><trkpt lat="42.18001925619711" lon="13.756834226859759"><ele>985.6666666666666</ele><time>2026-05-02T10:32:58Z</time></trkpt><trkpt lat="42.18003745815901" lon="13.756618102063326"><ele>986.3333333333333</ele><time>2026-05-02T10:32:59Z</time></trkpt><trkpt lat="42.18001523455895" lon="13.756382159104511"><ele>987.0</ele><time>2026-05-02T10:33:00Z</time></trkpt><trkpt lat="42.17996528419075" lon="13.756139592352696"><ele>990.3333333333333</ele><time>2026-05-02T10:33:01Z</time></trkpt><trkpt lat="42.17993997007136" lon="13.755889402714145"><ele>993.6666666666666</ele><time>2026-05-02T10:33:02Z</time></trkpt><trkpt lat="42.179906584627986" lon="13.755629614907845"><ele>997.0</ele><time>2026-05-02T10:33:03Z</time></trkpt><trkpt lat="42.1798674084374" lon="13.755366694199372"><ele>998.6666666666666</ele><time>2026-05-02T10:33:04Z</time></trkpt><trkpt lat="42.17982362262026" lon="13.755102951199545"><ele>1000.3333333333333</ele><time>2026-05-02T10:33:05Z</time></trkpt><trkpt lat="42.17978876049376" lon="13.754861349451522"><ele>1002.0</ele><time>2026-05-02T10:33:06Z</time></trkpt><trkpt lat="42.17977620234616" lon="13.754662854844412"><ele>1002.0</ele><time>2026-05-02T10:33:07Z</time></trkpt><trkpt lat="42.179755410133325" lon="13.754499590077756"><ele>1002.0</ele><time>2026-05-02T10:33:08Z</time></trkpt><trkpt lat="42.1797451361145" lon="13.754370476316646"><ele>1002.0</ele><time>2026-05-02T10:33:09Z</time></trkpt><trkpt lat="42.17969443993686" lon="13.754274636687079"><ele>1002.0</ele><time>2026-05-02T10:33:10Z</time></trkpt><trkpt lat="42.17961247513204" lon="13.754203878880404"><ele>1002.0</ele><time>2026-05-02T10:33:11Z</time></trkpt><trkpt lat="42.179488043036244" lon="13.754233376768674"><ele>1002.0</ele><time>2026-05-02T10:33:12.001Z</time></trkpt><trkpt lat="42.179372328404746" lon="13.754294916446767"><ele>1002.0</ele><time>2026-05-02T10:33:13.001Z</time></trkpt><trkpt lat="42.17926628115211" lon="13.754398983683364"><ele>1002.0</ele><time>2026-05-02T10:33:14.001Z</time></trkpt><trkpt lat="42.17913629988024" lon="13.754476255895765"><ele>1002.0</ele><time>2026-05-02T10:33:15.001Z</time></trkpt><trkpt lat="42.178996720171604" lon="13.754507491007775"><ele>1003.0</ele><time>2026-05-02T10:33:16.001Z</time></trkpt><trkpt lat="42.17884237394763" lon="13.75456553336818"><ele>1004.0</ele><time>2026-05-02T10:33:17Z</time></trkpt><trkpt lat="42.17867598883063" lon="13.754590561080347"><ele>1005.0</ele><time>2026-05-02T10:33:18Z</time></trkpt><trkpt lat="42.17849987138874" lon="13.754588377771885"><ele>1005.0</ele><time>2026-05-02T10:33:19Z</time></trkpt><trkpt lat="42.178316414993084" lon="13.75453274281812"><ele>1005.0</ele><time>2026-05-02T10:33:20Z</time></trkpt><trkpt lat="42.17812659034482" lon="13.754513771433711"><ele>1005.0</ele><time>2026-05-02T10:33:21Z</time></trkpt><trkpt lat="42.177946432472424" lon="13.75448540200846"><ele>1005.2</ele><time>2026-05-02T10:33:22Z</time></trkpt><trkpt lat="42.17779259219753" lon="13.754492570993932"><ele>1005.4</ele><time>2026-05-02T10:33:23Z</time></trkpt><trkpt lat="42.17767719218903" lon="13.754473947480477"><ele>1005.5999999999999</ele><time>2026-05-02T10:33:24Z</time></trkpt><trkpt lat="42.177605027522716" lon="13.754454380108672"><ele>1005.8</ele><time>2026-05-02T10:33:25Z</time></trkpt><trkpt lat="42.17758425554066" lon="13.754326995511185"><ele>1006.0</ele><time>2026-05-02T10:33:27Z</time></trkpt><trkpt lat="42.177642648993434" lon="13.754262557812064"><ele>1011.75</ele><time>2026-05-02T10:33:28Z</time></trkpt><trkpt lat="42.17773533151348" lon="13.75424507111106"><ele>1017.5</ele><time>2026-05-02T10:33:29Z</time></trkpt><trkpt lat="42.1778449753574" lon="13.754247979060835"><ele>1023.25</ele><time>2026-05-02T10:33:30Z</time></trkpt><trkpt lat="42.17797064465086" lon="13.754229336030926"><ele>1029.0</ele><time>2026-05-02T10:33:31Z</time></trkpt><trkpt lat="42.17810952636262" lon="13.754183805242777"><ele>1029.6666666666667</ele><time>2026-05-02T10:33:32Z</time></trkpt><trkpt lat="42.17824796241289" lon="13.754109432418694"><ele>1030.3333333333335</ele><time>2026-05-02T10:33:33Z</time></trkpt><trkpt lat="42.178403700025584" lon="13.754056753616025"><ele>1031.0</ele><time>2026-05-02T10:33:34Z</time></trkpt><trkpt lat="42.17854947960699" lon="13.754003692519113"><ele>1031.0</ele><time>2026-05-02T10:33:35Z</time></trkpt><trkpt lat="42.17866965597518" lon="13.75394568541457"><ele>1031.0</ele><time>2026-05-02T10:33:36Z</time></trkpt><trkpt lat="42.17876781066272" lon="13.75385200779184"><ele>1031.0</ele><time>2026-05-02T10:33:37Z</time></trkpt><trkpt lat="42.17884531952044" lon="13.753699792722951"><ele>1031.0</ele><time>2026-05-02T10:33:38Z</time></trkpt><trkpt lat="42.17889717187978" lon="13.75352018422604"><ele>1036.3333333333335</ele><time>2026-05-02T10:33:39Z</time></trkpt><trkpt lat="42.1789182402621" lon="13.753324302302365"><ele>1041.6666666666667</ele><time>2026-05-02T10:33:40Z</time></trkpt><trkpt lat="42.178906267861784" lon="13.753124270840123"><ele>1047.0</ele><time>2026-05-02T10:33:41Z</time></trkpt><trkpt lat="42.17890259873256" lon="13.75290814024518"><ele>1048.6666666666667</ele><time>2026-05-02T10:33:42Z</time></trkpt><trkpt lat="42.17889227616613" lon="13.75267815881957"><ele>1050.3333333333335</ele><time>2026-05-02T10:33:43Z</time></trkpt><trkpt lat="42.17891134030019" lon="13.752454593521865"><ele>1052.0</ele><time>2026-05-02T10:33:44Z</time></trkpt><trkpt lat="42.178967358441426" lon="13.752275574058581"><ele>1052.0</ele><time>2026-05-02T10:33:45Z</time></trkpt><trkpt lat="42.17900276306496" lon="13.752101883543853"><ele>1052.0</ele><time>2026-05-02T10:33:46Z</time></trkpt><trkpt lat="42.17903713808074" lon="13.751949748687554"><ele>1052.0</ele><time>2026-05-02T10:33:47Z</time></trkpt><trkpt lat="42.17903787257928" lon="13.751786021099186"><ele>1052.0</ele><time>2026-05-02T10:33:48Z</time></trkpt><trkpt lat="42.17901839581006" lon="13.75160526799762"><ele>1051.75</ele><time>2026-05-02T10:33:49Z</time></trkpt><trkpt lat="42.178974539112446" lon="13.751409598132598"><ele>1051.5</ele><time>2026-05-02T10:33:50Z</time></trkpt><trkpt lat="42.17892868194774" lon="13.751230860196115"><ele>1051.25</ele><time>2026-05-02T10:33:51Z</time></trkpt><trkpt lat="42.178878269372" lon="13.751078421625877"><ele>1051.0</ele><time>2026-05-02T10:33:52Z</time></trkpt><trkpt lat="42.17880557577605" lon="13.750957383444637"><ele>1047.3333333333333</ele><time>2026-05-02T10:33:53Z</time></trkpt><trkpt lat="42.178689419188814" lon="13.750861686130724"><ele>1043.6666666666667</ele><time>2026-05-02T10:33:54Z</time></trkpt><trkpt lat="42.17853774462628" lon="13.750780161776845"><ele>1040.0</ele><time>2026-05-02T10:33:55Z</time></trkpt><trkpt lat="42.17836714162575" lon="13.750698460645564"><ele>1040.0</ele><time>2026-05-02T10:33:56Z</time></trkpt><trkpt lat="42.178188830925954" lon="13.750622369904278"><ele>1040.0</ele><time>2026-05-02T10:33:57Z</time></trkpt><trkpt lat="42.17799522591218" lon="13.750568921489824"><ele>1040.0</ele><time>2026-05-02T10:33:58Z</time></trkpt><trkpt lat="42.177781376097585" lon="13.750537699746522"><ele>1040.0</ele><time>2026-05-02T10:33:59Z</time></trkpt><trkpt lat="42.17756181212135" lon="13.750517091500727"><ele>1040.0</ele><time>2026-05-02T10:34:00Z</time></trkpt><trkpt lat="42.17734690947872" lon="13.750499794983636"><ele>1040.0</ele><time>2026-05-02T10:34:01Z</time></trkpt><trkpt lat="42.17714125175641" lon="13.750481199254086"><ele>1040.3333333333335</ele><time>2026-05-02T10:34:02Z</time></trkpt><trkpt lat="42.1769747409564" lon="13.750459751862989"><ele>1040.6666666666667</ele><time>2026-05-02T10:34:03Z</time></trkpt><trkpt lat="42.17682249438119" lon="13.750435221565677"><ele>1041.0</ele><time>2026-05-02T10:34:04Z</time></trkpt><trkpt lat="42.176655712394506" lon="13.750408198276242"><ele>1039.0</ele><time>2026-05-02T10:34:05Z</time></trkpt><trkpt lat="42.17648045817695" lon="13.750392104782179"><ele>1037.0</ele><time>2026-05-02T10:34:06Z</time></trkpt><trkpt lat="42.17632280134942" lon="13.75042015195391"><ele>1035.0</ele><time>2026-05-02T10:34:07Z</time></trkpt><trkpt lat="42.17618693048485" lon="13.750469646268964"><ele>1035.0</ele><time>2026-05-02T10:34:08Z</time></trkpt><trkpt lat="42.17606276545773" lon="13.75048795758537"><ele>1035.0</ele><time>2026-05-02T10:34:09Z</time></trkpt><trkpt lat="42.175957044398615" lon="13.750505818530998"><ele>1035.0</ele><time>2026-05-02T10:34:10Z</time></trkpt><trkpt lat="42.17586221378867" lon="13.750516192931993"><ele>1035.0</ele><time>2026-05-02T10:34:11Z</time></trkpt><trkpt lat="42.17579766692891" lon="13.750451004544066"><ele>1035.0</ele><time>2026-05-02T10:34:12Z</time></trkpt><trkpt lat="42.17577847752185" lon="13.750340259309741"><ele>1035.0</ele><time>2026-05-02T10:34:13Z</time></trkpt><trkpt lat="42.17580960065988" lon="13.750211386701732"><ele>1035.0</ele><time>2026-05-02T10:34:14Z</time></trkpt><trkpt lat="42.17590500488212" lon="13.75013175009398"><ele>1035.0</ele><time>2026-05-02T10:34:15Z</time></trkpt><trkpt lat="42.17602448156938" lon="13.750066232782698"><ele>1035.0</ele><time>2026-05-02T10:34:16Z</time></trkpt><trkpt lat="42.176157471723776" lon="13.749973110975612"><ele>1029.6666666666667</ele><time>2026-05-02T10:34:17Z</time></trkpt><trkpt lat="42.17631168648688" lon="13.749895674891855"><ele>1024.3333333333335</ele><time>2026-05-02T10:34:18Z</time></trkpt><trkpt lat="42.176481313620016" lon="13.749841579536566"><ele>1019.0</ele><time>2026-05-02T10:34:19Z</time></trkpt><trkpt lat="42.17666124745394" lon="13.749773816265362"><ele>1019.0</ele><time>2026-05-02T10:34:20Z</time></trkpt><trkpt lat="42.17683510614462" lon="13.749691394256946"><ele>1019.0</ele><time>2026-05-02T10:34:21Z</time></trkpt><trkpt lat="42.17700827636138" lon="13.749634762851244"><ele>1019.0</ele><time>2026-05-02T10:34:22Z</time></trkpt><trkpt lat="42.17719295217457" lon="13.74957165099773"><ele>1019.0</ele><time>2026-05-02T10:34:23Z</time></trkpt><trkpt lat="42.1773799066639" lon="13.749492026142844"><ele>1019.0</ele><time>2026-05-02T10:34:24Z</time></trkpt><trkpt lat="42.17756879789306" lon="13.749384647161694"><ele>1019.0</ele><time>2026-05-02T10:34:25Z</time></trkpt><trkpt lat="42.17775569471879" lon="13.749252129848676"><ele>1013.3333333333334</ele><time>2026-05-02T10:34:26Z</time></trkpt><trkpt lat="42.17794092937268" lon="13.749111862204153"><ele>1007.6666666666667</ele><time>2026-05-02T10:34:27Z</time></trkpt><trkpt lat="42.178121770027666" lon="13.748968829848655"><ele>1002.0</ele><time>2026-05-02T10:34:28Z</time></trkpt><trkpt lat="42.17831597223126" lon="13.748848094261678"><ele>1002.0</ele><time>2026-05-02T10:34:29Z</time></trkpt><trkpt lat="42.178499505336795" lon="13.748715593948024"><ele>1002.0</ele><time>2026-05-02T10:34:30Z</time></trkpt><trkpt lat="42.1786776792954" lon="13.748575381626553"><ele>1002.0</ele><time>2026-05-02T10:34:31Z</time></trkpt><trkpt lat="42.178837688480385" lon="13.748418964592139"><ele>998.3333333333333</ele><time>2026-05-02T10:34:32Z</time></trkpt><trkpt lat="42.17899382768727" lon="13.748257168550664"><ele>994.6666666666666</ele><time>2026-05-02T10:34:33Z</time></trkpt><trkpt lat="42.179146575131085" lon="13.74809927094409"><ele>991.0</ele><time>2026-05-02T10:34:34Z</time></trkpt><trkpt lat="42.179295637254036" lon="13.74794569183903"><ele>991.0</ele><time>2026-05-02T10:34:35Z</time></trkpt><trkpt lat="42.1794359418004" lon="13.747802280107948"><ele>991.0</ele><time>2026-05-02T10:34:36Z</time></trkpt><trkpt lat="42.179561853719214" lon="13.747676414282491"><ele>991.0</ele><time>2026-05-02T10:34:37Z</time></trkpt><trkpt lat="42.17967446014568" lon="13.74757150473662"><ele>989.0</ele><time>2026-05-02T10:34:38Z</time></trkpt><trkpt lat="42.17976901150449" lon="13.747484400870963"><ele>986.9999999999999</ele><time>2026-05-02T10:34:39Z</time></trkpt><trkpt lat="42.179868956912124" lon="13.747450300478578"><ele>984.9999999999999</ele><time>2026-05-02T10:34:40Z</time></trkpt><trkpt lat="42.17995153464149" lon="13.747408897288484"><ele>983.0</ele><time>2026-05-02T10:34:41Z</time></trkpt><trkpt lat="42.18000848773891" lon="13.747340965989757"><ele>981.0</ele><time>2026-05-02T10:34:42Z</time></trkpt><trkpt lat="42.180019871681125" lon="13.747225742705032"><ele>981.0</ele><time>2026-05-02T10:34:43Z</time></trkpt><trkpt lat="42.179977167627584" lon="13.74709985129935"><ele>981.0</ele><time>2026-05-02T10:34:44Z</time></trkpt><trkpt lat="42.17984982787405" lon="13.747048783107823"><ele>981.0</ele><time>2026-05-02T10:34:45Z</time></trkpt><trkpt lat="42.17971964363355" lon="13.747067557554626"><ele>981.0</ele><time>2026-05-02T10:34:46Z</time></trkpt><trkpt lat="42.17958975345086" lon="13.747143012342116"><ele>976.0</ele><time>2026-05-02T10:34:47Z</time></trkpt><trkpt lat="42.17945175353316" lon="13.747232747896414"><ele>971.0</ele><time>2026-05-02T10:34:48Z</time></trkpt><trkpt lat="42.179300527526195" lon="13.747305327337843"><ele>966.0</ele><time>2026-05-02T10:34:49Z</time></trkpt><trkpt lat="42.179144092659385" lon="13.747375938861422"><ele>961.6666666666667</ele><time>2026-05-02T10:34:50Z</time></trkpt><trkpt lat="42.178976463425265" lon="13.747457053503423"><ele>957.3333333333334</ele><time>2026-05-02T10:34:51Z</time></trkpt><trkpt lat="42.17879807563789" lon="13.747538501885934"><ele>953.0</ele><time>2026-05-02T10:34:52Z</time></trkpt><trkpt lat="42.17861412927858" lon="13.747604933983087"><ele>953.0</ele><time>2026-05-02T10:34:53Z</time></trkpt><trkpt lat="42.17842295210315" lon="13.747654416511162"><ele>953.0</ele><time>2026-05-02T10:34:54Z</time></trkpt><trkpt lat="42.178223456362836" lon="13.747649589804212"><ele>953.0</ele><time>2026-05-02T10:34:55Z</time></trkpt><trkpt lat="42.178028079987364" lon="13.747657407721395"><ele>950.3333333333334</ele><time>2026-05-02T10:34:56Z</time></trkpt><trkpt lat="42.17783277267469" lon="13.747654606958335"><ele>947.6666666666667</ele><time>2026-05-02T10:34:57Z</time></trkpt><trkpt lat="42.17764144820768" lon="13.747647721610136"><ele>945.0</ele><time>2026-05-02T10:34:58Z</time></trkpt><trkpt lat="42.177453575707375" lon="13.747628294473698"><ele>945.0</ele><time>2026-05-02T10:34:59Z</time></trkpt><trkpt lat="42.17726914635512" lon="13.747585869735136"><ele>945.0</ele><time>2026-05-02T10:35:00Z</time></trkpt><trkpt lat="42.17709923042151" lon="13.747487308524745"><ele>945.0</ele><time>2026-05-02T10:35:01Z</time></trkpt><trkpt lat="42.176931901774054" lon="13.747425493090187"><ele>945.0</ele><time>2026-05-02T10:35:02Z</time></trkpt><trkpt lat="42.17678303177013" lon="13.747341473438004"><ele>945.0</ele><time>2026-05-02T10:35:03Z</time></trkpt><trkpt lat="42.176663957713764" lon="13.747242399192398"><ele>945.0</ele><time>2026-05-02T10:35:04Z</time></trkpt><trkpt lat="42.17659184411489" lon="13.747081954190339"><ele>945.0</ele><time>2026-05-02T10:35:05Z</time></trkpt><trkpt lat="42.17655571088391" lon="13.746901213623609"><ele>940.6666666666667</ele><time>2026-05-02T10:35:06Z</time></trkpt><trkpt lat="42.17653767639054" lon="13.74670457980406"><ele>936.3333333333334</ele><time>2026-05-02T10:35:07Z</time></trkpt><trkpt lat="42.17652122411984" lon="13.746494990482416"><ele>932.0</ele><time>2026-05-02T10:35:08Z</time></trkpt><trkpt lat="42.176520329183475" lon="13.74627230675669"><ele>932.0</ele><time>2026-05-02T10:35:09Z</time></trkpt><trkpt lat="42.1765252036781" lon="13.74605430296902"><ele>932.0</ele><time>2026-05-02T10:35:10Z</time></trkpt><trkpt lat="42.17653994643111" lon="13.74585880708508"><ele>932.0</ele><time>2026-05-02T10:35:10.999Z</time></trkpt><trkpt lat="42.17654548320195" lon="13.74567656299093"><ele>932.0</ele><time>2026-05-02T10:35:11.999Z</time></trkpt><trkpt lat="42.17653715353508" lon="13.745490601009788"><ele>930.6666666666667</ele><time>2026-05-02T10:35:12.999Z</time></trkpt><trkpt lat="42.176460725899936" lon="13.74530055823486"><ele>929.3333333333333</ele><time>2026-05-02T10:35:13.999Z</time></trkpt><trkpt lat="42.176341007194104" lon="13.74510911507579"><ele>928.0</ele><time>2026-05-02T10:35:14.999Z</time></trkpt><trkpt lat="42.17621452291518" lon="13.744915974047256"><ele>928.0</ele><time>2026-05-02T10:35:15.999Z</time></trkpt><trkpt lat="42.17610918853332" lon="13.744728242511544"><ele>928.0</ele><time>2026-05-02T10:35:16.999Z</time></trkpt><trkpt lat="42.17601730583919" lon="13.744565298648427"><ele>928.0</ele><time>2026-05-02T10:35:18Z</time></trkpt><trkpt lat="42.1759197317719" lon="13.744441885445545"><ele>920.6666666666666</ele><time>2026-05-02T10:35:19Z</time></trkpt><trkpt lat="42.17578982518474" lon="13.744362125158526"><ele>913.3333333333333</ele><time>2026-05-02T10:35:20Z</time></trkpt><trkpt lat="42.175599525695034" lon="13.744319593794618"><ele>906.0</ele><time>2026-05-02T10:35:21Z</time></trkpt><trkpt lat="42.17539737512248" lon="13.744286558915691"><ele>906.0</ele><time>2026-05-02T10:35:22Z</time></trkpt><trkpt lat="42.17517680555648" lon="13.744256371997759"><ele>906.0</ele><time>2026-05-02T10:35:23Z</time></trkpt><trkpt lat="42.17496868466492" lon="13.744198678570863"><ele>906.0</ele><time>2026-05-02T10:35:24Z</time></trkpt><trkpt lat="42.17476468296441" lon="13.7441568676998"><ele>903.6666666666667</ele><time>2026-05-02T10:35:25Z</time></trkpt><trkpt lat="42.17457581075371" lon="13.744119493638538"><ele>901.3333333333334</ele><time>2026-05-02T10:35:26Z</time></trkpt><trkpt lat="42.17439549581986" lon="13.744092325254945"><ele>899.0</ele><time>2026-05-02T10:35:27Z</time></trkpt><trkpt lat="42.17421719491586" lon="13.744116849959836"><ele>899.0</ele><time>2026-05-02T10:35:28Z</time></trkpt><trkpt lat="42.174027230498865" lon="13.744189985894815"><ele>899.0</ele><time>2026-05-02T10:35:29Z</time></trkpt><trkpt lat="42.17384143252531" lon="13.744269155160756"><ele>899.0</ele><time>2026-05-02T10:35:30Z</time></trkpt><trkpt lat="42.17366355097154" lon="13.744310938652502"><ele>896.6666666666667</ele><time>2026-05-02T10:35:31Z</time></trkpt><trkpt lat="42.173473618479804" lon="13.744327742796852"><ele>894.3333333333333</ele><time>2026-05-02T10:35:32Z</time></trkpt><trkpt lat="42.17329556356581" lon="13.744303103634902"><ele>892.0</ele><time>2026-05-02T10:35:33Z</time></trkpt><trkpt lat="42.17313336941339" lon="13.744253447749298"><ele>892.0</ele><time>2026-05-02T10:35:34Z</time></trkpt><trkpt lat="42.17297672821432" lon="13.744162604798507"><ele>892.0</ele><time>2026-05-02T10:35:35Z</time></trkpt><trkpt lat="42.172803267638535" lon="13.74404706190475"><ele>892.0</ele><time>2026-05-02T10:35:36Z</time></trkpt><trkpt lat="42.17263027708207" lon="13.743911012304615"><ele>892.0</ele><time>2026-05-02T10:35:37Z</time></trkpt><trkpt lat="42.1724741931409" lon="13.743776914934271"><ele>892.0</ele><time>2026-05-02T10:35:38Z</time></trkpt><trkpt lat="42.17233510669269" lon="13.74362166779891"><ele>892.0</ele><time>2026-05-02T10:35:39Z</time></trkpt><trkpt lat="42.1722129684777" lon="13.743435201803399"><ele>884.3333333333333</ele><time>2026-05-02T10:35:40Z</time></trkpt><trkpt lat="42.172106377205225" lon="13.743222181089802"><ele>876.6666666666667</ele><time>2026-05-02T10:35:41Z</time></trkpt><trkpt lat="42.17201569621688" lon="13.743001103327103"><ele>869.0</ele><time>2026-05-02T10:35:42Z</time></trkpt><trkpt lat="42.17194280578404" lon="13.742790878764174"><ele>869.0</ele><time>2026-05-02T10:35:43Z</time></trkpt><trkpt lat="42.171906740354274" lon="13.742608621110845"><ele>869.0</ele><time>2026-05-02T10:35:44Z</time></trkpt><trkpt lat="42.17192589176763" lon="13.742433070775236"><ele>869.0</ele><time>2026-05-02T10:35:45Z</time></trkpt><trkpt lat="42.17198836270594" lon="13.742259057281434"><ele>869.0</ele><time>2026-05-02T10:35:46Z</time></trkpt><trkpt lat="42.1720663615752" lon="13.742066883111349"><ele>869.0</ele><time>2026-05-02T10:35:47Z</time></trkpt><trkpt lat="42.172166662290216" lon="13.74190361137025"><ele>869.0</ele><time>2026-05-02T10:35:48Z</time></trkpt><trkpt lat="42.17225765485507" lon="13.741804683948754"><ele>869.0</ele><time>2026-05-02T10:35:49Z</time></trkpt><trkpt lat="42.17234329513926" lon="13.74178194829742"><ele>869.0</ele><time>2026-05-02T10:35:50Z</time></trkpt><trkpt lat="42.172446194970036" lon="13.74180198255618"><ele>866.25</ele><time>2026-05-02T10:35:51Z</time></trkpt><trkpt lat="42.17256217796013" lon="13.74187906113702"><ele>863.5</ele><time>2026-05-02T10:35:52Z</time></trkpt><trkpt lat="42.17268983997841" lon="13.741948047078635"><ele>860.75</ele><time>2026-05-02T10:35:53Z</time></trkpt><trkpt lat="42.1728002515108" lon="13.741968374470446"><ele>858.0</ele><time>2026-05-02T10:35:54Z</time></trkpt><trkpt lat="42.17290766313606" lon="13.741938511746373"><ele>856.3333333333333</ele><time>2026-05-02T10:35:55Z</time></trkpt><trkpt lat="42.1730211995814" lon="13.741830657385721"><ele>854.6666666666666</ele><time>2026-05-02T10:35:56Z</time></trkpt><trkpt lat="42.17312673577729" lon="13.74168409097676"><ele>853.0</ele><time>2026-05-02T10:35:57Z</time></trkpt><trkpt lat="42.17323785783642" lon="13.741525835415064"><ele>852.25</ele><time>2026-05-02T10:35:58Z</time></trkpt><trkpt lat="42.17332449257703" lon="13.7413646296923"><ele>851.5</ele><time>2026-05-02T10:35:59Z</time></trkpt><trkpt lat="42.17337944965631" lon="13.741167314220778"><ele>850.75</ele><time>2026-05-02T10:36:00Z</time></trkpt><trkpt lat="42.173410510168495" lon="13.740977455577182"><ele>850.0</ele><time>2026-05-02T10:36:01Z</time></trkpt><trkpt lat="42.1734625067691" lon="13.740842717954258"><ele>848.0</ele><time>2026-05-02T10:36:02Z</time></trkpt><trkpt lat="42.173538288285776" lon="13.740717111092895"><ele>846.0</ele><time>2026-05-02T10:36:03Z</time></trkpt><trkpt lat="42.17364602350256" lon="13.740605261414109"><ele>844.0</ele><time>2026-05-02T10:36:04Z</time></trkpt><trkpt lat="42.173756291511204" lon="13.740467317227829"><ele>842.0</ele><time>2026-05-02T10:36:05Z</time></trkpt><trkpt lat="42.17387404606341" lon="13.740366987883792"><ele>842.0</ele><time>2026-05-02T10:36:06Z</time></trkpt><trkpt lat="42.17399318483496" lon="13.74029240683485"><ele>842.0</ele><time>2026-05-02T10:36:07Z</time></trkpt><trkpt lat="42.17410489015143" lon="13.740239324991352"><ele>842.0</ele><time>2026-05-02T10:36:08Z</time></trkpt><trkpt lat="42.174207814306556" lon="13.740251864510423"><ele>842.0</ele><time>2026-05-02T10:36:09Z</time></trkpt><trkpt lat="42.17429354728622" lon="13.740350274572368"><ele>841.0</ele><time>2026-05-02T10:36:10Z</time></trkpt><trkpt lat="42.17442385669374" lon="13.740433287137396"><ele>840.0</ele><time>2026-05-02T10:36:11Z</time></trkpt><trkpt lat="42.1745771463148" lon="13.740518346043833"><ele>839.0</ele><time>2026-05-02T10:36:12Z</time></trkpt><trkpt lat="42.17470171900458" lon="13.740630416219066"><ele>839.0</ele><time>2026-05-02T10:36:13Z</time></trkpt><trkpt lat="42.17481735971418" lon="13.740752037194616"><ele>839.0</ele><time>2026-05-02T10:36:14Z</time></trkpt><trkpt lat="42.17493156552237" lon="13.740887376324519"><ele>839.0</ele><time>2026-05-02T10:36:15Z</time></trkpt><trkpt lat="42.17504065737786" lon="13.741007139914009"><ele>839.0</ele><time>2026-05-02T10:36:16Z</time></trkpt><trkpt lat="42.17513088390856" lon="13.741128905570653"><ele>840.2</ele><time>2026-05-02T10:36:17Z</time></trkpt><trkpt lat="42.17521509361817" lon="13.741236562354548"><ele>841.4000000000001</ele><time>2026-05-02T10:36:18Z</time></trkpt><trkpt lat="42.17529368234804" lon="13.741305355988697"><ele>842.6</ele><time>2026-05-02T10:36:19Z</time></trkpt><trkpt lat="42.175376570308956" lon="13.741331594824885"><ele>843.8</ele><time>2026-05-02T10:36:20Z</time></trkpt><trkpt lat="42.17547208927755" lon="13.741290265148596"><ele>845.0</ele><time>2026-05-02T10:36:21Z</time></trkpt><trkpt lat="42.175552963054926" lon="13.741172953158921"><ele>838.5</ele><time>2026-05-02T10:36:22Z</time></trkpt><trkpt lat="42.17558423156725" lon="13.741013692737369"><ele>832.0</ele><time>2026-05-02T10:36:23Z</time></trkpt><trkpt lat="42.175564605510836" lon="13.740852366974549"><ele>825.5</ele><time>2026-05-02T10:36:24Z</time></trkpt><trkpt lat="42.17549111027941" lon="13.740706472589665"><ele>819.0</ele><time>2026-05-02T10:36:25Z</time></trkpt><trkpt lat="42.175390576979794" lon="13.740569070501978"><ele>819.0</ele><time>2026-05-02T10:36:26Z</time></trkpt><trkpt lat="42.17529824810136" lon="13.740394764121291"><ele>819.0</ele><time>2026-05-02T10:36:27Z</time></trkpt><trkpt lat="42.17518768135807" lon="13.740240200110934"><ele>819.0</ele><time>2026-05-02T10:36:28Z</time></trkpt><trkpt lat="42.17510569237891" lon="13.740065674642336"><ele>816.0</ele><time>2026-05-02T10:36:29Z</time></trkpt><trkpt lat="42.17501735266911" lon="13.739916591597078"><ele>813.0</ele><time>2026-05-02T10:36:30Z</time></trkpt><trkpt lat="42.174950515095055" lon="13.739778064241367"><ele>810.0</ele><time>2026-05-02T10:36:31Z</time></trkpt><trkpt lat="42.17493722533468" lon="13.739598672166426"><ele>807.0</ele><time>2026-05-02T10:36:32Z</time></trkpt><trkpt lat="42.17492485891013" lon="13.739388528990522"><ele>804.25</ele><time>2026-05-02T10:36:33Z</time></trkpt><trkpt lat="42.17498269529308" lon="13.739216556779736"><ele>801.5</ele><time>2026-05-02T10:36:34Z</time></trkpt><trkpt lat="42.17506341413784" lon="13.739093231843725"><ele>798.75</ele><time>2026-05-02T10:36:35Z</time></trkpt><trkpt lat="42.17515627724746" lon="13.738944179854512"><ele>796.0</ele><time>2026-05-02T10:36:36Z</time></trkpt><trkpt lat="42.175275794936" lon="13.738813585217477"><ele>796.0</ele><time>2026-05-02T10:36:37Z</time></trkpt><trkpt lat="42.175377970022474" lon="13.738658958745752"><ele>796.0</ele><time>2026-05-02T10:36:38Z</time></trkpt><trkpt lat="42.17545633444474" lon="13.738453616813603"><ele>796.0</ele><time>2026-05-02T10:36:39Z</time></trkpt><trkpt lat="42.17550052124338" lon="13.738207844870342"><ele>793.3333333333333</ele><time>2026-05-02T10:36:40Z</time></trkpt><trkpt lat="42.17553232116195" lon="13.737938525045406"><ele>790.6666666666667</ele><time>2026-05-02T10:36:41Z</time></trkpt><trkpt lat="42.175592170946906" lon="13.73768893472691"><ele>788.0</ele><time>2026-05-02T10:36:42Z</time></trkpt><trkpt lat="42.175665224752926" lon="13.737422268857742"><ele>787.6666666666667</ele><time>2026-05-02T10:36:43Z</time></trkpt><trkpt lat="42.17574202768294" lon="13.737151342370433"><ele>787.3333333333333</ele><time>2026-05-02T10:36:44Z</time></trkpt><trkpt lat="42.17581825016583" lon="13.736890149093723"><ele>787.0</ele><time>2026-05-02T10:36:45Z</time></trkpt><trkpt lat="42.17589319006309" lon="13.736639037858247"><ele>780.3333333333333</ele><time>2026-05-02T10:36:46Z</time></trkpt><trkpt lat="42.17596531014126" lon="13.736403955746646"><ele>773.6666666666666</ele><time>2026-05-02T10:36:47Z</time></trkpt><trkpt lat="42.17601206800529" lon="13.7361727500795"><ele>767.0</ele><time>2026-05-02T10:36:48Z</time></trkpt><trkpt lat="42.17603833822579" lon="13.73592934414666"><ele>762.3333333333333</ele><time>2026-05-02T10:36:49Z</time></trkpt><trkpt lat="42.17604286940112" lon="13.735682696588173"><ele>757.6666666666666</ele><time>2026-05-02T10:36:50Z</time></trkpt><trkpt lat="42.176027683578354" lon="13.735452467885173"><ele>753.0</ele><time>2026-05-02T10:36:51Z</time></trkpt><trkpt lat="42.176030071856864" lon="13.735250924452657"><ele>751.25</ele><time>2026-05-02T10:36:52Z</time></trkpt><trkpt lat="42.17603659248854" lon="13.735071905306874"><ele>749.5</ele><time>2026-05-02T10:36:53Z</time></trkpt><trkpt lat="42.17607101232" lon="13.734884720486585"><ele>747.75</ele><time>2026-05-02T10:36:54Z</time></trkpt><trkpt lat="42.1761222263845" lon="13.734681665972232"><ele>746.0</ele><time>2026-05-02T10:36:55Z</time></trkpt><trkpt lat="42.17618922881098" lon="13.734493671923254"><ele>743.0</ele><time>2026-05-02T10:36:56Z</time></trkpt><trkpt lat="42.17628553321665" lon="13.734330726959005"><ele>740.0</ele><time>2026-05-02T10:36:57Z</time></trkpt><trkpt lat="42.17638899455366" lon="13.734159638793901"><ele>737.0</ele><time>2026-05-02T10:36:57.999Z</time></trkpt><trkpt lat="42.17647304330551" lon="13.73397105896597"><ele>735.3333333333333</ele><time>2026-05-02T10:36:58.999Z</time></trkpt><trkpt lat="42.17653535976719" lon="13.733767336942782"><ele>733.6666666666666</ele><time>2026-05-02T10:36:59.999Z</time></trkpt><trkpt lat="42.176554231122424" lon="13.73354555460836"><ele>732.0</ele><time>2026-05-02T10:37:00.999Z</time></trkpt><trkpt lat="42.17657902887135" lon="13.733354358242803"><ele>732.0</ele><time>2026-05-02T10:37:01.999Z</time></trkpt><trkpt lat="42.176601584180375" lon="13.733203995949326"><ele>732.0</ele><time>2026-05-02T10:37:02.999Z</time></trkpt><trkpt lat="42.17664920316127" lon="13.733106379559334"><ele>732.0</ele><time>2026-05-02T10:37:03.999Z</time></trkpt><trkpt lat="42.176720065706384" lon="13.733037187199717"><ele>732.0</ele><time>2026-05-02T10:37:04.999Z</time></trkpt><trkpt lat="42.17682804692442" lon="13.732965639125783"><ele>732.0</ele><time>2026-05-02T10:37:05.999Z</time></trkpt><trkpt lat="42.17693628671392" lon="13.732836978457307"><ele>725.3333333333334</ele><time>2026-05-02T10:37:06.999Z</time></trkpt><trkpt lat="42.17705793171951" lon="13.732716620036447"><ele>718.6666666666667</ele><time>2026-05-02T10:37:07.999Z</time></trkpt><trkpt lat="42.177156610278644" lon="13.732562076561086"><ele>712.0</ele><time>2026-05-02T10:37:08.999Z</time></trkpt><trkpt lat="42.17724603728184" lon="13.732378088534546"><ele>712.0</ele><time>2026-05-02T10:37:09.999Z</time></trkpt><trkpt lat="42.17733100668043" lon="13.732172324784502"><ele>712.0</ele><time>2026-05-02T10:37:10.999Z</time></trkpt><trkpt lat="42.17741493916749" lon="13.731970655505014"><ele>712.0</ele><time>2026-05-02T10:37:11.999Z</time></trkpt><trkpt lat="42.17749655039246" lon="13.73179068404816"><ele>713.25</ele><time>2026-05-02T10:37:12.999Z</time></trkpt><trkpt lat="42.17756733009476" lon="13.731627166721838"><ele>714.5</ele><time>2026-05-02T10:37:13.999Z</time></trkpt><trkpt lat="42.17760995655897" lon="13.731467219939045"><ele>715.75</ele><time>2026-05-02T10:37:14.999Z</time></trkpt><trkpt lat="42.177610379153805" lon="13.73128876954196"><ele>717.0</ele><time>2026-05-02T10:37:15.999Z</time></trkpt><trkpt lat="42.177565238262616" lon="13.731091458811889"><ele>715.75</ele><time>2026-05-02T10:37:16.999Z</time></trkpt><trkpt lat="42.17753871062477" lon="13.7309004815658"><ele>714.5</ele><time>2026-05-02T10:37:17.999Z</time></trkpt><trkpt lat="42.17752977664596" lon="13.730714853856199"><ele>713.25</ele><time>2026-05-02T10:37:18.999Z</time></trkpt><trkpt lat="42.177573469845" lon="13.73052076923555"><ele>712.0</ele><time>2026-05-02T10:37:19.999Z</time></trkpt><trkpt lat="42.177642838423886" lon="13.73032426501555"><ele>711.0</ele><time>2026-05-02T10:37:20.999Z</time></trkpt><trkpt lat="42.17772380631159" lon="13.730113935731094"><ele>710.0</ele><time>2026-05-02T10:37:21.999Z</time></trkpt><trkpt lat="42.177785779620876" lon="13.729908355635555"><ele>709.0</ele><time>2026-05-02T10:37:22.999Z</time></trkpt><trkpt lat="42.17785957041823" lon="13.72972114254542"><ele>709.0</ele><time>2026-05-02T10:37:24Z</time></trkpt><trkpt lat="42.177950477565545" lon="13.729533702560381"><ele>709.0</ele><time>2026-05-02T10:37:25Z</time></trkpt><trkpt lat="42.17803161743965" lon="13.729317591056638"><ele>709.0</ele><time>2026-05-02T10:37:26Z</time></trkpt><trkpt lat="42.17811265615621" lon="13.729095749962827"><ele>705.6666666666667</ele><time>2026-05-02T10:37:27Z</time></trkpt><trkpt lat="42.17816945288652" lon="13.728864576423025"><ele>702.3333333333334</ele><time>2026-05-02T10:37:28Z</time></trkpt><trkpt lat="42.17822544169298" lon="13.728641895913851"><ele>699.0</ele><time>2026-05-02T10:37:29Z</time></trkpt><trkpt lat="42.17826226028712" lon="13.728414128629117"><ele>696.75</ele><time>2026-05-02T10:37:30Z</time></trkpt><trkpt lat="42.178292063824344" lon="13.728213203184362"><ele>694.5</ele><time>2026-05-02T10:37:31Z</time></trkpt><trkpt lat="42.17833486020927" lon="13.728034799801584"><ele>692.25</ele><time>2026-05-02T10:37:32Z</time></trkpt><trkpt lat="42.178341282619606" lon="13.72787104820961"><ele>690.0</ele><time>2026-05-02T10:37:33Z</time></trkpt><trkpt lat="42.17836460288695" lon="13.727730429119724"><ele>688.25</ele><time>2026-05-02T10:37:34Z</time></trkpt><trkpt lat="42.17831329765284" lon="13.727581291286931"><ele>686.5</ele><time>2026-05-02T10:37:35Z</time></trkpt><trkpt lat="42.17820944657981" lon="13.727433999296977"><ele>684.75</ele><time>2026-05-02T10:37:36Z</time></trkpt><trkpt lat="42.17807915406952" lon="13.727300625373452"><ele>683.0</ele><time>2026-05-02T10:37:37Z</time></trkpt><trkpt lat="42.177964650984705" lon="13.727131899050576"><ele>680.3333333333333</ele><time>2026-05-02T10:37:38Z</time></trkpt><trkpt lat="42.17784787569603" lon="13.726978838202498"><ele>677.6666666666666</ele><time>2026-05-02T10:37:39Z</time></trkpt><trkpt lat="42.177747583926106" lon="13.726830527258397"><ele>675.0</ele><time>2026-05-02T10:37:40Z</time></trkpt><trkpt lat="42.17767350291287" lon="13.726666876193333"><ele>674.8</ele><time>2026-05-02T10:37:41Z</time></trkpt><trkpt lat="42.17763128116867" lon="13.726496172713189"><ele>674.6</ele><time>2026-05-02T10:37:42Z</time></trkpt><trkpt lat="42.17761849701479" lon="13.726355114304951"><ele>674.4000000000001</ele><time>2026-05-02T10:37:43Z</time></trkpt><trkpt lat="42.17761724649891" lon="13.726243972244134"><ele>674.2</ele><time>2026-05-02T10:37:44Z</time></trkpt><trkpt lat="42.177689031865704" lon="13.726151871226481"><ele>674.0</ele><time>2026-05-02T10:37:45Z</time></trkpt><trkpt lat="42.17776180187611" lon="13.726033057205347"><ele>673.25</ele><time>2026-05-02T10:37:46Z</time></trkpt><trkpt lat="42.17783765549387" lon="13.725879729659352"><ele>672.5</ele><time>2026-05-02T10:37:47Z</time></trkpt><trkpt lat="42.17791652219117" lon="13.725733742724907"><ele>671.75</ele><time>2026-05-02T10:37:48Z</time></trkpt><trkpt lat="42.17796841515405" lon="13.725573820481335"><ele>671.0</ele><time>2026-05-02T10:37:49Z</time></trkpt><trkpt lat="42.17799139087989" lon="13.725392103551163"><ele>668.5</ele><time>2026-05-02T10:37:50Z</time></trkpt><trkpt lat="42.17800408234383" lon="13.725200427521077"><ele>666.0</ele><time>2026-05-02T10:37:51Z</time></trkpt><trkpt lat="42.17800654594373" lon="13.725001694438717"><ele>663.5</ele><time>2026-05-02T10:37:52Z</time></trkpt><trkpt lat="42.17799668991717" lon="13.724798481544385"><ele>661.0</ele><time>2026-05-02T10:37:53Z</time></trkpt><trkpt lat="42.17797149778722" lon="13.724585793113743"><ele>656.6666666666667</ele><time>2026-05-02T10:37:54Z</time></trkpt><trkpt lat="42.177957952798145" lon="13.72436596776027"><ele>652.3333333333334</ele><time>2026-05-02T10:37:55Z</time></trkpt><trkpt lat="42.17792786241967" lon="13.72413210605814"><ele>648.0</ele><time>2026-05-02T10:37:56Z</time></trkpt><trkpt lat="42.177879229155174" lon="13.723884812152207"><ele>648.0</ele><time>2026-05-02T10:37:57Z</time></trkpt><trkpt lat="42.1778425041891" lon="13.723625736006104"><ele>648.0</ele><time>2026-05-02T10:37:58Z</time></trkpt><trkpt lat="42.177826453181254" lon="13.723362581385947"><ele>648.0</ele><time>2026-05-02T10:37:59Z</time></trkpt><trkpt lat="42.177795741777224" lon="13.723100768048953"><ele>644.3333333333334</ele><time>2026-05-02T10:38:00Z</time></trkpt><trkpt lat="42.177765736053914" lon="13.72283427404102"><ele>640.6666666666667</ele><time>2026-05-02T10:38:01Z</time></trkpt><trkpt lat="42.17773585007894" lon="13.722567484265175"><ele>637.0</ele><time>2026-05-02T10:38:02Z</time></trkpt><trkpt lat="42.177707671286996" lon="13.722315720456578"><ele>634.6666666666667</ele><time>2026-05-02T10:38:03Z</time></trkpt><trkpt lat="42.177678718792606" lon="13.722075395069185"><ele>632.3333333333334</ele><time>2026-05-02T10:38:04Z</time></trkpt><trkpt lat="42.1776462963055" lon="13.721848022278694"><ele>630.0</ele><time>2026-05-02T10:38:05Z</time></trkpt><trkpt lat="42.17761359122125" lon="13.72163051305176"><ele>627.6666666666666</ele><time>2026-05-02T10:38:06Z</time></trkpt><trkpt lat="42.17757896335818" lon="13.72141270737699"><ele>625.3333333333333</ele><time>2026-05-02T10:38:07Z</time></trkpt><trkpt lat="42.177544043235805" lon="13.721194891885913"><ele>623.0</ele><time>2026-05-02T10:38:08Z</time></trkpt><trkpt lat="42.17749575480472" lon="13.720998203013705"><ele>621.5</ele><time>2026-05-02T10:38:09Z</time></trkpt><trkpt lat="42.17746487771949" lon="13.72080391681369"><ele>620.0</ele><time>2026-05-02T10:38:10Z</time></trkpt><trkpt lat="42.17745312065573" lon="13.720609635675002"><ele>618.5</ele><time>2026-05-02T10:38:11Z</time></trkpt><trkpt lat="42.17742676228413" lon="13.720418047527685"><ele>617.0</ele><time>2026-05-02T10:38:12Z</time></trkpt><trkpt lat="42.17740117565997" lon="13.720226716885625"><ele>616.0</ele><time>2026-05-02T10:38:13Z</time></trkpt><trkpt lat="42.177358761532865" lon="13.72004872795285"><ele>615.0</ele><time>2026-05-02T10:38:14Z</time></trkpt><trkpt lat="42.17733246682249" lon="13.719868186395134"><ele>614.0</ele><time>2026-05-02T10:38:15Z</time></trkpt><trkpt lat="42.17729297411068" lon="13.719690130282123"><ele>613.0</ele><time>2026-05-02T10:38:16Z</time></trkpt><trkpt lat="42.177242067205995" lon="13.71952165025777"><ele>610.5</ele><time>2026-05-02T10:38:17Z</time></trkpt><trkpt lat="42.17719106906167" lon="13.719355814237835"><ele>608.0</ele><time>2026-05-02T10:38:18Z</time></trkpt><trkpt lat="42.17714521123887" lon="13.719192807591398"><ele>605.5</ele><time>2026-05-02T10:38:19Z</time></trkpt><trkpt lat="42.177100901765456" lon="13.719026995620647"><ele>603.0</ele><time>2026-05-02T10:38:20Z</time></trkpt><trkpt lat="42.17705513872669" lon="13.718864098476969"><ele>603.0</ele><time>2026-05-02T10:38:21Z</time></trkpt><trkpt lat="42.17701568547602" lon="13.71872013703851"><ele>603.0</ele><time>2026-05-02T10:38:22Z</time></trkpt><trkpt lat="42.17697907083588" lon="13.718582167842468"><ele>603.0</ele><time>2026-05-02T10:38:23Z</time></trkpt><trkpt lat="42.17694898078728" lon="13.718459381702118"><ele>603.0</ele><time>2026-05-02T10:38:24Z</time></trkpt><trkpt lat="42.17693149688035" lon="13.718369986495157"><ele>603.0</ele><time>2026-05-02T10:38:25Z</time></trkpt><trkpt lat="42.17691663899835" lon="13.718261078019127"><ele>602.6</ele><time>2026-05-02T10:38:27Z</time></trkpt><trkpt lat="42.177005577717225" lon="13.718201869720076"><ele>602.1999999999999</ele><time>2026-05-02T10:38:28Z</time></trkpt><trkpt lat="42.177109799568115" lon="13.71820020970101"><ele>601.8</ele><time>2026-05-02T10:38:30Z</time></trkpt><trkpt lat="42.17720725880861" lon="13.718326563862433"><ele>601.4</ele><time>2026-05-02T10:38:32Z</time></trkpt><trkpt lat="42.17727086363477" lon="13.718413678730995"><ele>601.0</ele><time>2026-05-02T10:38:33Z</time></trkpt><trkpt lat="42.17734871367831" lon="13.718509392218087"><ele>602.5</ele><time>2026-05-02T10:38:34Z</time></trkpt><trkpt lat="42.17742624400099" lon="13.718630194413986"><ele>604.0</ele><time>2026-05-02T10:38:35Z</time></trkpt><trkpt lat="42.17749833065563" lon="13.718760137889271"><ele>605.5</ele><time>2026-05-02T10:38:36Z</time></trkpt><trkpt lat="42.17756825452233" lon="13.71891534764351"><ele>607.0</ele><time>2026-05-02T10:38:37Z</time></trkpt><trkpt lat="42.1776267726727" lon="13.719090969528972"><ele>607.0</ele><time>2026-05-02T10:38:38Z</time></trkpt><trkpt lat="42.177676519474936" lon="13.719278519629588"><ele>607.0</ele><time>2026-05-02T10:38:39Z</time></trkpt><trkpt lat="42.17772348537182" lon="13.719470512250204"><ele>607.0</ele><time>2026-05-02T10:38:40Z</time></trkpt><trkpt lat="42.17777140890765" lon="13.719661808731612"><ele>607.0</ele><time>2026-05-02T10:38:41Z</time></trkpt><trkpt lat="42.17782041427995" lon="13.719860708438372"><ele>608.5</ele><time>2026-05-02T10:38:42Z</time></trkpt><trkpt lat="42.17787100357133" lon="13.720043614397364"><ele>610.0</ele><time>2026-05-02T10:38:43Z</time></trkpt><trkpt lat="42.17793456219155" lon="13.720199504995998"><ele>611.5</ele><time>2026-05-02T10:38:43.999Z</time></trkpt><trkpt lat="42.17801566611025" lon="13.720330492784734"><ele>613.0</ele><time>2026-05-02T10:38:44.999Z</time></trkpt><trkpt lat="42.178108938822724" lon="13.720421589045205"><ele>612.75</ele><time>2026-05-02T10:38:45.999Z</time></trkpt><trkpt lat="42.17821982197244" lon="13.720482044915189"><ele>612.5</ele><time>2026-05-02T10:38:46.999Z</time></trkpt><trkpt lat="42.1783339245964" lon="13.720497302045231"><ele>612.25</ele><time>2026-05-02T10:38:47.999Z</time></trkpt><trkpt lat="42.17843541781173" lon="13.720451446841857"><ele>612.0</ele><time>2026-05-02T10:38:48.999Z</time></trkpt><trkpt lat="42.178518022347646" lon="13.7203373459065"><ele>611.25</ele><time>2026-05-02T10:38:49.999Z</time></trkpt><trkpt lat="42.17857623759244" lon="13.720172439363154"><ele>610.5</ele><time>2026-05-02T10:38:50.999Z</time></trkpt><trkpt lat="42.17862029299836" lon="13.719977366443423"><ele>609.75</ele><time>2026-05-02T10:38:51.999Z</time></trkpt><trkpt lat="42.178680222779086" lon="13.719780069849655"><ele>609.0</ele><time>2026-05-02T10:38:52.999Z</time></trkpt><trkpt lat="42.17874868479969" lon="13.719589176511285"><ele>607.0</ele><time>2026-05-02T10:38:53.999Z</time></trkpt><trkpt lat="42.17883768660322" lon="13.719398924711019"><ele>605.0</ele><time>2026-05-02T10:38:54.999Z</time></trkpt><trkpt lat="42.17894041953586" lon="13.71922724064023"><ele>603.0</ele><time>2026-05-02T10:38:55.999Z</time></trkpt><trkpt lat="42.17906188167809" lon="13.719077660625013"><ele>607.3333333333334</ele><time>2026-05-02T10:38:56.999Z</time></trkpt><trkpt lat="42.17920709751004" lon="13.71897830220471"><ele>611.6666666666667</ele><time>2026-05-02T10:38:57.999Z</time></trkpt><trkpt lat="42.17935353136709" lon="13.718862070885233"><ele>616.0</ele><time>2026-05-02T10:38:58.999Z</time></trkpt><trkpt lat="42.17951968180513" lon="13.718778881355362"><ele>616.0</ele><time>2026-05-02T10:38:59.999Z</time></trkpt><trkpt lat="42.179693875900384" lon="13.718698320742039"><ele>616.0</ele><time>2026-05-02T10:39:00.999Z</time></trkpt><trkpt lat="42.17986825972998" lon="13.718621368344788"><ele>616.0</ele><time>2026-05-02T10:39:01.999Z</time></trkpt><trkpt lat="42.18003342183435" lon="13.718552245538579"><ele>616.5</ele><time>2026-05-02T10:39:02.999Z</time></trkpt><trkpt lat="42.180183169118614" lon="13.718480412311024"><ele>617.0</ele><time>2026-05-02T10:39:03.999Z</time></trkpt><trkpt lat="42.180323109674745" lon="13.718416495346633"><ele>617.5</ele><time>2026-05-02T10:39:04.999Z</time></trkpt><trkpt lat="42.18045279559406" lon="13.718358699378253"><ele>618.0</ele><time>2026-05-02T10:39:05.999Z</time></trkpt><trkpt lat="42.180567089658" lon="13.71829130135197"><ele>618.0</ele><time>2026-05-02T10:39:06.999Z</time></trkpt><trkpt lat="42.18065211728299" lon="13.71819527404263"><ele>618.0</ele><time>2026-05-02T10:39:07.999Z</time></trkpt><trkpt lat="42.18070119712004" lon="13.71807127253072"><ele>618.0</ele><time>2026-05-02T10:39:08.999Z</time></trkpt><trkpt lat="42.18072334069085" lon="13.717942815983472"><ele>618.0</ele><time>2026-05-02T10:39:09.999Z</time></trkpt><trkpt lat="42.18070925845298" lon="13.717822295286036"><ele>618.0</ele><time>2026-05-02T10:39:10.999Z</time></trkpt><trkpt lat="42.18065037476303" lon="13.717702071659817"><ele>618.3333333333334</ele><time>2026-05-02T10:39:11.999Z</time></trkpt><trkpt lat="42.18057097566976" lon="13.717566824201924"><ele>618.6666666666667</ele><time>2026-05-02T10:39:12.999Z</time></trkpt><trkpt lat="42.180440077306955" lon="13.717436077412104"><ele>619.0</ele><time>2026-05-02T10:39:13.999Z</time></trkpt><trkpt lat="42.18030715559086" lon="13.717305579042891"><ele>619.0</ele><time>2026-05-02T10:39:14.999Z</time></trkpt><trkpt lat="42.18017768956961" lon="13.71719111800192"><ele>619.0</ele><time>2026-05-02T10:39:15.999Z</time></trkpt><trkpt lat="42.18010247916375" lon="13.71704411503547"><ele>619.0</ele><time>2026-05-02T10:39:16.999Z</time></trkpt><trkpt lat="42.1800305851278" lon="13.716924382918455"><ele>619.0</ele><time>2026-05-02T10:39:17.999Z</time></trkpt><trkpt lat="42.18001292679015" lon="13.716777439409885"><ele>621.0</ele><time>2026-05-02T10:39:18.999Z</time></trkpt><trkpt lat="42.18004697642018" lon="13.716631360660053"><ele>623.0</ele><time>2026-05-02T10:39:19.999Z</time></trkpt><trkpt lat="42.18014108297015" lon="13.716508432149151"><ele>625.0</ele><time>2026-05-02T10:39:20.999Z</time></trkpt><trkpt lat="42.180257335813906" lon="13.716369821632677"><ele>627.0</ele><time>2026-05-02T10:39:21.999Z</time></trkpt><trkpt lat="42.18038842575605" lon="13.716220527748517"><ele>627.0</ele><time>2026-05-02T10:39:22.999Z</time></trkpt><trkpt lat="42.18052082185696" lon="13.716043235557777"><ele>627.0</ele><time>2026-05-02T10:39:23.999Z</time></trkpt><trkpt lat="42.18066974513545" lon="13.715893776943677"><ele>627.0</ele><time>2026-05-02T10:39:24.999Z</time></trkpt><trkpt lat="42.18080683645794" lon="13.715732597351481"><ele>627.3333333333334</ele><time>2026-05-02T10:39:25.999Z</time></trkpt><trkpt lat="42.18096131035618" lon="13.715547670234649"><ele>627.6666666666667</ele><time>2026-05-02T10:39:26.999Z</time></trkpt><trkpt lat="42.18112295134919" lon="13.715355777003502"><ele>628.0</ele><time>2026-05-02T10:39:27.999Z</time></trkpt><trkpt lat="42.181272474113065" lon="13.715180695169469"><ele>628.75</ele><time>2026-05-02T10:39:29Z</time></trkpt><trkpt lat="42.18140084972308" lon="13.715039582892079"><ele>629.5</ele><time>2026-05-02T10:39:30Z</time></trkpt><trkpt lat="42.18150710962151" lon="13.714958861812944"><ele>630.25</ele><time>2026-05-02T10:39:31Z</time></trkpt><trkpt lat="42.181616924917314" lon="13.71492465039868"><ele>631.0</ele><time>2026-05-02T10:39:32Z</time></trkpt><trkpt lat="42.18173349652701" lon="13.714952026493968"><ele>631.0</ele><time>2026-05-02T10:39:33Z</time></trkpt><trkpt lat="42.18186519776795" lon="13.715035600003343"><ele>631.0</ele><time>2026-05-02T10:39:34Z</time></trkpt><trkpt lat="42.18201980691288" lon="13.715143333431712"><ele>631.0</ele><time>2026-05-02T10:39:35Z</time></trkpt><trkpt lat="42.182180416125" lon="13.71527029276134"><ele>635.0</ele><time>2026-05-02T10:39:36Z</time></trkpt><trkpt lat="42.18234668541934" lon="13.715406616660502"><ele>639.0</ele><time>2026-05-02T10:39:37Z</time></trkpt><trkpt lat="42.18251369300222" lon="13.715553658795159"><ele>643.0</ele><time>2026-05-02T10:39:38Z</time></trkpt><trkpt lat="42.18268309167659" lon="13.715712359486183"><ele>643.3333333333334</ele><time>2026-05-02T10:39:39Z</time></trkpt><trkpt lat="42.1828513228785" lon="13.715856908344595"><ele>643.6666666666666</ele><time>2026-05-02T10:39:40Z</time></trkpt><trkpt lat="42.18304405683202" lon="13.715971853701724"><ele>644.0</ele><time>2026-05-02T10:39:41Z</time></trkpt><trkpt lat="42.18321869252478" lon="13.71607182192352"><ele>648.6666666666666</ele><time>2026-05-02T10:39:42Z</time></trkpt><trkpt lat="42.183419565528446" lon="13.71612890755044"><ele>653.3333333333334</ele><time>2026-05-02T10:39:43Z</time></trkpt><trkpt lat="42.18361822268683" lon="13.716215208412347"><ele>658.0</ele><time>2026-05-02T10:39:44Z</time></trkpt><trkpt lat="42.1837995850578" lon="13.716260811952232"><ele>658.0</ele><time>2026-05-02T10:39:45Z</time></trkpt><trkpt lat="42.18397588536762" lon="13.716307562947353"><ele>658.0</ele><time>2026-05-02T10:39:46Z</time></trkpt><trkpt lat="42.18416851031542" lon="13.71630717545505"><ele>658.0</ele><time>2026-05-02T10:39:47Z</time></trkpt><trkpt lat="42.1843614379577" lon="13.716260258285581"><ele>657.3333333333334</ele><time>2026-05-02T10:39:48Z</time></trkpt><trkpt lat="42.184556817101445" lon="13.716186182945359"><ele>656.6666666666666</ele><time>2026-05-02T10:39:49Z</time></trkpt><trkpt lat="42.18472024717231" lon="13.71609182403056"><ele>656.0</ele><time>2026-05-02T10:39:50Z</time></trkpt><trkpt lat="42.18486649283667" lon="13.715980454504557"><ele>656.0</ele><time>2026-05-02T10:39:51Z</time></trkpt><trkpt lat="42.18500038939407" lon="13.715737467171914"><ele>656.0</ele><time>2026-05-02T10:39:52Z</time></trkpt><trkpt lat="42.18510319341556" lon="13.715490553792913"><ele>656.0</ele><time>2026-05-02T10:39:53Z</time></trkpt><trkpt lat="42.18518463880662" lon="13.71522693067138"><ele>651.3333333333333</ele><time>2026-05-02T10:39:54Z</time></trkpt><trkpt lat="42.185297123711734" lon="13.71496782965966"><ele>646.6666666666666</ele><time>2026-05-02T10:39:55Z</time></trkpt><trkpt lat="42.18537391245688" lon="13.714747873034769"><ele>642.0</ele><time>2026-05-02T10:39:56Z</time></trkpt><trkpt lat="42.18547226435487" lon="13.714558361877465"><ele>645.0</ele><time>2026-05-02T10:39:57Z</time></trkpt><trkpt lat="42.185606366863674" lon="13.714395018242328"><ele>648.0</ele><time>2026-05-02T10:39:58Z</time></trkpt><trkpt lat="42.18574952923008" lon="13.714229114741107"><ele>651.0</ele><time>2026-05-02T10:39:59Z</time></trkpt><trkpt lat="42.185890125299785" lon="13.714085327364836"><ele>651.0</ele><time>2026-05-02T10:40:00Z</time></trkpt><trkpt lat="42.1860407416947" lon="13.713986443739541"><ele>651.0</ele><time>2026-05-02T10:40:01Z</time></trkpt><trkpt lat="42.18620713993297" lon="13.713926472071686"><ele>651.0</ele><time>2026-05-02T10:40:02Z</time></trkpt><trkpt lat="42.18637385684639" lon="13.713863624748306"><ele>651.6666666666666</ele><time>2026-05-02T10:40:03Z</time></trkpt><trkpt lat="42.18651789059532" lon="13.713754702682238"><ele>652.3333333333333</ele><time>2026-05-02T10:40:04Z</time></trkpt><trkpt lat="42.18666608791307" lon="13.713598224170722"><ele>653.0</ele><time>2026-05-02T10:40:05Z</time></trkpt><trkpt lat="42.18679618356656" lon="13.713396004266178"><ele>653.0</ele><time>2026-05-02T10:40:06Z</time></trkpt><trkpt lat="42.186910123392664" lon="13.713161423634972"><ele>653.0</ele><time>2026-05-02T10:40:07Z</time></trkpt><trkpt lat="42.18703884298186" lon="13.712940047948276"><ele>653.0</ele><time>2026-05-02T10:40:08Z</time></trkpt><trkpt lat="42.1871627328573" lon="13.712706035390315"><ele>650.0</ele><time>2026-05-02T10:40:09Z</time></trkpt><trkpt lat="42.187281102343356" lon="13.712470290135641"><ele>647.0</ele><time>2026-05-02T10:40:10Z</time></trkpt><trkpt lat="42.18736620693189" lon="13.712215492768072"><ele>644.0</ele><time>2026-05-02T10:40:11Z</time></trkpt><trkpt lat="42.18743540536679" lon="13.711935017738165"><ele>651.0</ele><time>2026-05-02T10:40:12Z</time></trkpt><trkpt lat="42.18748574428122" lon="13.711640642535707"><ele>658.0</ele><time>2026-05-02T10:40:13Z</time></trkpt><trkpt lat="42.18756034838232" lon="13.711356403406995"><ele>665.0</ele><time>2026-05-02T10:40:14Z</time></trkpt><trkpt lat="42.187619030128346" lon="13.711064082389655"><ele>665.0</ele><time>2026-05-02T10:40:14.999Z</time></trkpt><trkpt lat="42.187651971538294" lon="13.710767971629384"><ele>665.0</ele><time>2026-05-02T10:40:15.999Z</time></trkpt><trkpt lat="42.18769883902135" lon="13.71047824321269"><ele>665.0</ele><time>2026-05-02T10:40:16.999Z</time></trkpt><trkpt lat="42.18771772306512" lon="13.710182528516043"><ele>665.0</ele><time>2026-05-02T10:40:17.999Z</time></trkpt><trkpt lat="42.187695060643705" lon="13.70990328881031"><ele>665.0</ele><time>2026-05-02T10:40:18.999Z</time></trkpt><trkpt lat="42.18770560972182" lon="13.709661415019054"><ele>665.0</ele><time>2026-05-02T10:40:19.999Z</time></trkpt><trkpt lat="42.18772305552188" lon="13.709436628140594"><ele>664.6666666666666</ele><time>2026-05-02T10:40:20.999Z</time></trkpt><trkpt lat="42.18778787948892" lon="13.709210445582915"><ele>664.3333333333334</ele><time>2026-05-02T10:40:21.999Z</time></trkpt><trkpt lat="42.18786638565511" lon="13.708967399284601"><ele>664.0</ele><time>2026-05-02T10:40:22.999Z</time></trkpt><trkpt lat="42.18792738578748" lon="13.708735799322303"><ele>663.6666666666667</ele><time>2026-05-02T10:40:23.999Z</time></trkpt><trkpt lat="42.187973695290715" lon="13.708508561444352"><ele>663.3333333333334</ele><time>2026-05-02T10:40:24.999Z</time></trkpt><trkpt lat="42.187966664963675" lon="13.708282192423377"><ele>663.0</ele><time>2026-05-02T10:40:25.999Z</time></trkpt><trkpt lat="42.187913801671144" lon="13.708049204301327"><ele>663.0</ele><time>2026-05-02T10:40:26.999Z</time></trkpt><trkpt lat="42.1878358980655" lon="13.707834905457025"><ele>663.0</ele><time>2026-05-02T10:40:27.999Z</time></trkpt><trkpt lat="42.18772588544018" lon="13.707642259107418"><ele>663.0</ele><time>2026-05-02T10:40:28.999Z</time></trkpt><trkpt lat="42.18758533679494" lon="13.707477465532294"><ele>662.0</ele><time>2026-05-02T10:40:29.999Z</time></trkpt><trkpt lat="42.1874360873317" lon="13.707340055869764"><ele>661.0</ele><time>2026-05-02T10:40:30.999Z</time></trkpt><trkpt lat="42.18729236219766" lon="13.707226518728032"><ele>660.0</ele><time>2026-05-02T10:40:31.999Z</time></trkpt><trkpt lat="42.18716113413013" lon="13.707128081387042"><ele>660.0</ele><time>2026-05-02T10:40:32.999Z</time></trkpt><trkpt lat="42.18706472782258" lon="13.707051424376214"><ele>660.0</ele><time>2026-05-02T10:40:33.999Z</time></trkpt><trkpt lat="42.187017203193605" lon="13.706986482545716"><ele>660.0</ele><time>2026-05-02T10:40:34.999Z</time></trkpt><trkpt lat="42.18693688418287" lon="13.706854802648452"><ele>660.0</ele><time>2026-05-02T10:40:36.999Z</time></trkpt><trkpt lat="42.187210054100355" lon="13.706819309897401"><ele>662.5</ele><time>2026-05-02T10:40:38.999Z</time></trkpt><trkpt lat="42.18731556660024" lon="13.706849144476385"><ele>665.0</ele><time>2026-05-02T10:40:39.999Z</time></trkpt><trkpt lat="42.18744239639927" lon="13.70687280591035"><ele>667.5</ele><time>2026-05-02T10:40:40.999Z</time></trkpt><trkpt lat="42.18758399352298" lon="13.706908282096885"><ele>670.0</ele><time>2026-05-02T10:40:41.999Z</time></trkpt><trkpt lat="42.1877292703012" lon="13.706935422167538"><ele>670.0</ele><time>2026-05-02T10:40:42.999Z</time></trkpt><trkpt lat="42.187887051887884" lon="13.706941366546914"><ele>670.0</ele><time>2026-05-02T10:40:43.999Z</time></trkpt><trkpt lat="42.18805474770166" lon="13.706917881453883"><ele>670.0</ele><time>2026-05-02T10:40:44.999Z</time></trkpt><trkpt lat="42.18821694832001" lon="13.706860634765015"><ele>674.3333333333334</ele><time>2026-05-02T10:40:45.999Z</time></trkpt><trkpt lat="42.18838322362656" lon="13.706786927227716"><ele>678.6666666666666</ele><time>2026-05-02T10:40:46.999Z</time></trkpt><trkpt lat="42.18855940464094" lon="13.706742457638278"><ele>683.0</ele><time>2026-05-02T10:40:47.999Z</time></trkpt><trkpt lat="42.18873435884677" lon="13.706659557020117"><ele>683.0</ele><time>2026-05-02T10:40:48.999Z</time></trkpt><trkpt lat="42.188918706872286" lon="13.706602284975402"><ele>683.0</ele><time>2026-05-02T10:40:49.999Z</time></trkpt><trkpt lat="42.189105869523054" lon="13.706539381673059"><ele>683.0</ele><time>2026-05-02T10:40:50.999Z</time></trkpt><trkpt lat="42.18930476420005" lon="13.706473027612116"><ele>687.0</ele><time>2026-05-02T10:40:51.999Z</time></trkpt><trkpt lat="42.18950498410107" lon="13.706411164046704"><ele>691.0</ele><time>2026-05-02T10:40:52.999Z</time></trkpt><trkpt lat="42.189699587071324" lon="13.706351711438183"><ele>695.0</ele><time>2026-05-02T10:40:53.999Z</time></trkpt><trkpt lat="42.18989735002945" lon="13.706283216559937"><ele>696.6666666666666</ele><time>2026-05-02T10:40:54.999Z</time></trkpt><trkpt lat="42.1900927531788" lon="13.706173709660078"><ele>698.3333333333334</ele><time>2026-05-02T10:40:55.999Z</time></trkpt><trkpt lat="42.19027474868018" lon="13.70601395293518"><ele>700.0</ele><time>2026-05-02T10:40:56.999Z</time></trkpt><trkpt lat="42.19044626527875" lon="13.705839843718708"><ele>700.0</ele><time>2026-05-02T10:40:57.999Z</time></trkpt><trkpt lat="42.190605885131745" lon="13.705659030817024"><ele>700.0</ele><time>2026-05-02T10:40:58.999Z</time></trkpt><trkpt lat="42.19074789081191" lon="13.705451862765736"><ele>700.0</ele><time>2026-05-02T10:40:59.999Z</time></trkpt><trkpt lat="42.1908609478891" lon="13.705217678434416"><ele>705.3333333333334</ele><time>2026-05-02T10:41:00.999Z</time></trkpt><trkpt lat="42.19097609982664" lon="13.704984067253932"><ele>710.6666666666666</ele><time>2026-05-02T10:41:01.999Z</time></trkpt><trkpt lat="42.191079477107394" lon="13.704763880357385"><ele>716.0</ele><time>2026-05-02T10:41:02.999Z</time></trkpt><trkpt lat="42.19121194519739" lon="13.70462546213109"><ele>716.0</ele><time>2026-05-02T10:41:03.999Z</time></trkpt><trkpt lat="42.19135747087" lon="13.704497787548648"><ele>716.0</ele><time>2026-05-02T10:41:04.999Z</time></trkpt><trkpt lat="42.19151719716808" lon="13.70436214944457"><ele>716.0</ele><time>2026-05-02T10:41:05.999Z</time></trkpt><trkpt lat="42.1916896516507" lon="13.704232611917375"><ele>717.6666666666666</ele><time>2026-05-02T10:41:06.999Z</time></trkpt><trkpt lat="42.19186501022954" lon="13.704110596630837"><ele>719.3333333333334</ele><time>2026-05-02T10:41:07.999Z</time></trkpt><trkpt lat="42.1920576606562" lon="13.70400325894446"><ele>721.0</ele><time>2026-05-02T10:41:08.999Z</time></trkpt><trkpt lat="42.19225132439258" lon="13.703871033224868"><ele>724.3333333333334</ele><time>2026-05-02T10:41:09.999Z</time></trkpt><trkpt lat="42.19245794388451" lon="13.703785089077702"><ele>727.6666666666666</ele><time>2026-05-02T10:41:10.999Z</time></trkpt><trkpt lat="42.192653667565686" lon="13.703700330779366"><ele>731.0</ele><time>2026-05-02T10:41:11.999Z</time></trkpt><trkpt lat="42.192836351306504" lon="13.703622274007724"><ele>731.0</ele><time>2026-05-02T10:41:12.999Z</time></trkpt><trkpt lat="42.19300225564424" lon="13.703521875645476"><ele>731.0</ele><time>2026-05-02T10:41:13.999Z</time></trkpt><trkpt lat="42.19316531050233" lon="13.703390929919212"><ele>731.0</ele><time>2026-05-02T10:41:14.999Z</time></trkpt><trkpt lat="42.193309669098156" lon="13.703211155244825"><ele>731.0</ele><time>2026-05-02T10:41:15.999Z</time></trkpt><trkpt lat="42.19342049013985" lon="13.702992055706774"><ele>731.0</ele><time>2026-05-02T10:41:16.999Z</time></trkpt><trkpt lat="42.19355105738615" lon="13.702835170117769"><ele>731.0</ele><time>2026-05-02T10:41:17.999Z</time></trkpt><trkpt lat="42.19368587954276" lon="13.70271859283934"><ele>732.6666666666666</ele><time>2026-05-02T10:41:18.999Z</time></trkpt><trkpt lat="42.193849068177464" lon="13.70262025481004"><ele>734.3333333333334</ele><time>2026-05-02T10:41:19.999Z</time></trkpt><trkpt lat="42.19401329248926" lon="13.702521312508994"><ele>736.0</ele><time>2026-05-02T10:41:20.999Z</time></trkpt><trkpt lat="42.19414632318739" lon="13.702401010164193"><ele>736.0</ele><time>2026-05-02T10:41:21.999Z</time></trkpt><trkpt lat="42.1942697514137" lon="13.702255141774064"><ele>736.0</ele><time>2026-05-02T10:41:22.999Z</time></trkpt><trkpt lat="42.19437439484739" lon="13.702066962707255"><ele>736.0</ele><time>2026-05-02T10:41:23.999Z</time></trkpt><trkpt lat="42.19444575680579" lon="13.701841988793266"><ele>731.6666666666667</ele><time>2026-05-02T10:41:24.999Z</time></trkpt><trkpt lat="42.19448265163738" lon="13.701591698179088"><ele>727.3333333333334</ele><time>2026-05-02T10:41:25.999Z</time></trkpt><trkpt lat="42.1945171662647" lon="13.701332820837827"><ele>723.0</ele><time>2026-05-02T10:41:26.999Z</time></trkpt><trkpt lat="42.194563993753704" lon="13.701096754245349"><ele>722.3333333333334</ele><time>2026-05-02T10:41:27.999Z</time></trkpt><trkpt lat="42.19462339137003" lon="13.700877751308274"><ele>721.6666666666667</ele><time>2026-05-02T10:41:28.999Z</time></trkpt><trkpt lat="42.19470283928093" lon="13.70067217065203"><ele>721.0</ele><time>2026-05-02T10:41:29.999Z</time></trkpt><trkpt lat="42.1948012287548" lon="13.70050159337292"><ele>722.0</ele><time>2026-05-02T10:41:30.999Z</time></trkpt><trkpt lat="42.19491184768503" lon="13.700356430008306"><ele>723.0</ele><time>2026-05-02T10:41:31.999Z</time></trkpt><trkpt lat="42.19503177176761" lon="13.70023980235876"><ele>724.0</ele><time>2026-05-02T10:41:32.999Z</time></trkpt><trkpt lat="42.195155482770936" lon="13.700148790966754"><ele>725.0</ele><time>2026-05-02T10:41:33.999Z</time></trkpt><trkpt lat="42.19527938853658" lon="13.700060885515889"><ele>725.0</ele><time>2026-05-02T10:41:34.999Z</time></trkpt><trkpt lat="42.19539399215801" lon="13.699964450609128"><ele>725.0</ele><time>2026-05-02T10:41:35.999Z</time></trkpt><trkpt lat="42.19550110838625" lon="13.699867866524261"><ele>725.0</ele><time>2026-05-02T10:41:36.999Z</time></trkpt><trkpt lat="42.19560276782158" lon="13.699774323187135"><ele>725.0</ele><time>2026-05-02T10:41:37.999Z</time></trkpt><trkpt lat="42.195700995188744" lon="13.699683309992338"><ele>724.5</ele><time>2026-05-02T10:41:38.999Z</time></trkpt><trkpt lat="42.195795841356876" lon="13.699591850315132"><ele>724.0</ele><time>2026-05-02T10:41:39.999Z</time></trkpt><trkpt lat="42.195883664665494" lon="13.699480022926226"><ele>723.5</ele><time>2026-05-02T10:41:40.999Z</time></trkpt><trkpt lat="42.195992441445185" lon="13.699370634704833"><ele>723.0</ele><time>2026-05-02T10:41:41.999Z</time></trkpt><trkpt lat="42.19610315885942" lon="13.699278494080035"><ele>723.0</ele><time>2026-05-02T10:41:42.999Z</time></trkpt><trkpt lat="42.19618465625309" lon="13.69915929512164"><ele>723.0</ele><time>2026-05-02T10:41:43.999Z</time></trkpt><trkpt lat="42.19628010747577" lon="13.699061850176015"><ele>723.0</ele><time>2026-05-02T10:41:44.999Z</time></trkpt><trkpt lat="42.19637326804961" lon="13.698941020092194"><ele>723.0</ele><time>2026-05-02T10:41:45.999Z</time></trkpt><trkpt lat="42.19647214976541" lon="13.698821529905173"><ele>725.0</ele><time>2026-05-02T10:41:46.999Z</time></trkpt><trkpt lat="42.196572016975665" lon="13.698724808119056"><ele>727.0</ele><time>2026-05-02T10:41:47.999Z</time></trkpt><trkpt lat="42.19666480305146" lon="13.698635139087285"><ele>729.0</ele><time>2026-05-02T10:41:48.999Z</time></trkpt><trkpt lat="42.19675259207674" lon="13.69855234042149"><ele>731.0</ele><time>2026-05-02T10:41:49.999Z</time></trkpt><trkpt lat="42.196812976549914" lon="13.698415155245012"><ele>731.0</ele><time>2026-05-02T10:41:50.999Z</time></trkpt><trkpt lat="42.19681264524456" lon="13.698221252299318"><ele>731.0</ele><time>2026-05-02T10:41:51.999Z</time></trkpt><trkpt lat="42.19683079196681" lon="13.698054730058033"><ele>731.0</ele><time>2026-05-02T10:41:52.999Z</time></trkpt><trkpt lat="42.19687521666118" lon="13.697923494077312"><ele>731.0</ele><time>2026-05-02T10:41:53.999Z</time></trkpt><trkpt lat="42.196887040095525" lon="13.697796907004225"><ele>732.1999999999999</ele><time>2026-05-02T10:41:54.999Z</time></trkpt><trkpt lat="42.196897653187776" lon="13.697689186457406"><ele>733.4</ele><time>2026-05-02T10:41:55.999Z</time></trkpt><trkpt lat="42.196847781335585" lon="13.69758075007649"><ele>734.6</ele><time>2026-05-02T10:41:56.999Z</time></trkpt><trkpt lat="42.196727608787754" lon="13.69752077408208"><ele>735.8</ele><time>2026-05-02T10:41:57.999Z</time></trkpt><trkpt lat="42.19663771583312" lon="13.69744355200909"><ele>737.0</ele><time>2026-05-02T10:41:58.999Z</time></trkpt><trkpt lat="42.19654320059024" lon="13.697371707843159"><ele>735.0</ele><time>2026-05-02T10:41:59.999Z</time></trkpt><trkpt lat="42.19644583777912" lon="13.697339701137997"><ele>733.0</ele><time>2026-05-02T10:42:00.999Z</time></trkpt><trkpt lat="42.19638170216476" lon="13.697346066100723"><ele>731.0</ele><time>2026-05-02T10:42:01.999Z</time></trkpt><trkpt lat="42.19630795754833" lon="13.69732433663323"><ele>729.0</ele><time>2026-05-02T10:42:04.999Z</time></trkpt><trkpt lat="42.19641193031407" lon="13.696866346442086"><ele>728.6666666666666</ele><time>2026-05-02T10:47:53Z</time></trkpt><trkpt lat="42.19648263664244" lon="13.696772790509321"><ele>728.3333333333334</ele><time>2026-05-02T10:47:54Z</time></trkpt><trkpt lat="42.196494917126095" lon="13.696679153486217"><ele>728.0</ele><time>2026-05-02T10:47:55Z</time></trkpt><trkpt lat="42.19648997454506" lon="13.69657073693967"><ele>727.6666666666667</ele><time>2026-05-02T10:47:56Z</time></trkpt><trkpt lat="42.19649927635209" lon="13.696470965102174"><ele>727.3333333333334</ele><time>2026-05-02T10:47:57Z</time></trkpt><trkpt lat="42.196514114711015" lon="13.696371670558502"><ele>727.0</ele><time>2026-05-02T10:47:58Z</time></trkpt><trkpt lat="42.19645931983726" lon="13.69623870165842"><ele>727.0</ele><time>2026-05-02T10:47:59Z</time></trkpt><trkpt lat="42.19643648938317" lon="13.696105043457582"><ele>727.0</ele><time>2026-05-02T10:48:00Z</time></trkpt><trkpt lat="42.19641705529985" lon="13.695970423918086"><ele>727.0</ele><time>2026-05-02T10:48:01Z</time></trkpt><trkpt lat="42.19639652405255" lon="13.695832361133228"><ele>727.0</ele><time>2026-05-02T10:48:02Z</time></trkpt><trkpt lat="42.19637613348283" lon="13.695696816836081"><ele>727.0</ele><time>2026-05-02T10:48:03Z</time></trkpt><trkpt lat="42.19638091868986" lon="13.69557002267851"><ele>727.6</ele><time>2026-05-02T10:48:04Z</time></trkpt><trkpt lat="42.19633501419436" lon="13.695466251589052"><ele>728.2</ele><time>2026-05-02T10:48:05Z</time></trkpt><trkpt lat="42.19631649950356" lon="13.695353130106385"><ele>728.8</ele><time>2026-05-02T10:48:06Z</time></trkpt><trkpt lat="42.19629288701913" lon="13.69522401542327"><ele>729.4</ele><time>2026-05-02T10:48:07Z</time></trkpt><trkpt lat="42.196275476145786" lon="13.695093592560124"><ele>730.0</ele><time>2026-05-02T10:48:08Z</time></trkpt><trkpt lat="42.196273021726014" lon="13.694956865253426"><ele>730.2</ele><time>2026-05-02T10:48:09Z</time></trkpt><trkpt lat="42.19624694122627" lon="13.694819467956005"><ele>730.4</ele><time>2026-05-02T10:48:10Z</time></trkpt><trkpt lat="42.19622873183066" lon="13.694689026921488"><ele>730.5999999999999</ele><time>2026-05-02T10:48:11Z</time></trkpt><trkpt lat="42.196218254677106" lon="13.694557099400658"><ele>730.8</ele><time>2026-05-02T10:48:12Z</time></trkpt><trkpt lat="42.196177183441456" lon="13.694450614395288"><ele>731.0</ele><time>2026-05-02T10:48:13Z</time></trkpt><trkpt lat="42.1961361101775" lon="13.69435262092522"><ele>731.0</ele><time>2026-05-02T10:48:14Z</time></trkpt><trkpt lat="42.196113213220755" lon="13.694234717486989"><ele>731.0</ele><time>2026-05-02T10:48:15Z</time></trkpt><trkpt lat="42.19606397030488" lon="13.694127853769261"><ele>731.0</ele><time>2026-05-02T10:48:16Z</time></trkpt><trkpt lat="42.1960360919166" lon="13.694028393556385"><ele>731.0</ele><time>2026-05-02T10:48:17Z</time></trkpt><trkpt lat="42.19600278610956" lon="13.69392124030737"><ele>731.0</ele><time>2026-05-02T10:48:18Z</time></trkpt><trkpt lat="42.19597395545717" lon="13.69381575203438"><ele>731.0</ele><time>2026-05-02T10:48:19Z</time></trkpt><trkpt lat="42.19593933221473" lon="13.69370633066303"><ele>729.8333333333333</ele><time>2026-05-02T10:48:20Z</time></trkpt><trkpt lat="42.19592857662898" lon="13.693583464753011"><ele>728.6666666666666</ele><time>2026-05-02T10:48:21Z</time></trkpt><trkpt lat="42.195918293556474" lon="13.693471823733782"><ele>727.5</ele><time>2026-05-02T10:48:22Z</time></trkpt><trkpt lat="42.19590074711148" lon="13.69337228958699"><ele>726.3333333333334</ele><time>2026-05-02T10:48:23Z</time></trkpt><trkpt lat="42.195891669009" lon="13.693271464932808"><ele>725.1666666666667</ele><time>2026-05-02T10:48:24Z</time></trkpt><trkpt lat="42.19589039183242" lon="13.693173075432524"><ele>724.0</ele><time>2026-05-02T10:48:25Z</time></trkpt><trkpt lat="42.19588494171376" lon="13.693078765599328"><ele>724.0</ele><time>2026-05-02T10:48:26Z</time></trkpt><trkpt lat="42.19586578971427" lon="13.692984017324767"><ele>724.0</ele><time>2026-05-02T10:48:27Z</time></trkpt><trkpt lat="42.19584281914097" lon="13.692891083245076"><ele>724.0</ele><time>2026-05-02T10:48:28Z</time></trkpt><trkpt lat="42.19581895457502" lon="13.692735157795374"><ele>724.0</ele><time>2026-05-02T10:48:30Z</time></trkpt><trkpt lat="42.19581742549135" lon="13.692641750699716"><ele>724.0</ele><time>2026-05-02T10:48:31Z</time></trkpt><trkpt lat="42.19581456104443" lon="13.692535375186276"><ele>724.0</ele><time>2026-05-02T10:48:32Z</time></trkpt><trkpt lat="42.195812910590284" lon="13.692420759883364"><ele>722.0</ele><time>2026-05-02T10:48:33Z</time></trkpt><trkpt lat="42.19581459983838" lon="13.692296478376058"><ele>720.0</ele><time>2026-05-02T10:48:34Z</time></trkpt><trkpt lat="42.195816776972485" lon="13.69216147241526"><ele>718.0</ele><time>2026-05-02T10:48:35Z</time></trkpt><trkpt lat="42.195819394593464" lon="13.692021230181776"><ele>716.0</ele><time>2026-05-02T10:48:36Z</time></trkpt><trkpt lat="42.19581701507934" lon="13.691888288031615"><ele>714.0</ele><time>2026-05-02T10:48:37Z</time></trkpt><trkpt lat="42.19581782441545" lon="13.691760474459832"><ele>712.6</ele><time>2026-05-02T10:48:38Z</time></trkpt><trkpt lat="42.195821764056504" lon="13.691643051081112"><ele>711.2</ele><time>2026-05-02T10:48:39Z</time></trkpt><trkpt lat="42.19582825801408" lon="13.691543388205245"><ele>709.8000000000001</ele><time>2026-05-02T10:48:40Z</time></trkpt><trkpt lat="42.195808839210756" lon="13.691396747738182"><ele>708.4000000000001</ele><time>2026-05-02T10:48:42Z</time></trkpt><trkpt lat="42.19573184967947" lon="13.691272963682856"><ele>707.0</ele><time>2026-05-02T10:48:44Z</time></trkpt><trkpt lat="42.19560865799402" lon="13.691190772885555"><ele>704.8</ele><time>2026-05-02T10:48:45Z</time></trkpt><trkpt lat="42.19549899014443" lon="13.691113053152588"><ele>702.6</ele><time>2026-05-02T10:48:46Z</time></trkpt><trkpt lat="42.19560956548808" lon="13.69098274932879"><ele>700.4</ele><time>2026-05-02T10:48:47Z</time></trkpt><trkpt lat="42.195563342080305" lon="13.690906881794016"><ele>698.1999999999999</ele><time>2026-05-02T10:48:48Z</time></trkpt><trkpt lat="42.19550467784655" lon="13.69083852112287"><ele>696.0</ele><time>2026-05-02T10:48:49Z</time></trkpt><trkpt lat="42.19543185786053" lon="13.690788127167481"><ele>695.3333333333334</ele><time>2026-05-02T10:48:50Z</time></trkpt><trkpt lat="42.19535558866163" lon="13.69074660554941"><ele>694.6666666666666</ele><time>2026-05-02T10:48:51Z</time></trkpt><trkpt lat="42.19527215158193" lon="13.690720099030385"><ele>694.0</ele><time>2026-05-02T10:48:52Z</time></trkpt><trkpt lat="42.19517978491686" lon="13.69069425242296"><ele>693.3333333333333</ele><time>2026-05-02T10:48:53Z</time></trkpt><trkpt lat="42.19508828487016" lon="13.690674983354146"><ele>692.6666666666666</ele><time>2026-05-02T10:48:54Z</time></trkpt><trkpt lat="42.19500097342354" lon="13.690635225616054"><ele>692.0</ele><time>2026-05-02T10:48:55Z</time></trkpt><trkpt lat="42.194908417498524" lon="13.69060151315756"><ele>689.6</ele><time>2026-05-02T10:48:56Z</time></trkpt><trkpt lat="42.1948116484706" lon="13.69056666425175"><ele>687.2</ele><time>2026-05-02T10:48:57Z</time></trkpt><trkpt lat="42.1947114837089" lon="13.690529011183747"><ele>684.8</ele><time>2026-05-02T10:48:58Z</time></trkpt><trkpt lat="42.194612801095566" lon="13.690506964184978"><ele>682.4</ele><time>2026-05-02T10:48:59Z</time></trkpt><trkpt lat="42.19451182232868" lon="13.690478173340221"><ele>680.0</ele><time>2026-05-02T10:49:00Z</time></trkpt><trkpt lat="42.194425085940836" lon="13.69044496804867"><ele>680.0</ele><time>2026-05-02T10:49:01Z</time></trkpt><trkpt lat="42.19434754597471" lon="13.690398650779017"><ele>680.0</ele><time>2026-05-02T10:49:02Z</time></trkpt><trkpt lat="42.19428727489816" lon="13.690339529594945"><ele>680.0</ele><time>2026-05-02T10:49:03Z</time></trkpt><trkpt lat="42.194227902477664" lon="13.690265035721552"><ele>680.0</ele><time>2026-05-02T10:49:04Z</time></trkpt><trkpt lat="42.19416674859435" lon="13.69016976909058"><ele>680.0</ele><time>2026-05-02T10:49:05Z</time></trkpt><trkpt lat="42.19412582669253" lon="13.690084056247537"><ele>680.0</ele><time>2026-05-02T10:49:06Z</time></trkpt><trkpt lat="42.19404837670635" lon="13.689981199624965"><ele>677.5</ele><time>2026-05-02T10:49:07Z</time></trkpt><trkpt lat="42.19399350469826" lon="13.689902967200695"><ele>675.0</ele><time>2026-05-02T10:49:08Z</time></trkpt><trkpt lat="42.19395184149719" lon="13.689794050612088"><ele>672.5</ele><time>2026-05-02T10:49:09Z</time></trkpt><trkpt lat="42.19392184214067" lon="13.689684792434953"><ele>670.0</ele><time>2026-05-02T10:49:10Z</time></trkpt><trkpt lat="42.193893725526905" lon="13.689580516365778"><ele>667.5</ele><time>2026-05-02T10:49:10.999Z</time></trkpt><trkpt lat="42.193853512312785" lon="13.689502068977129"><ele>665.0</ele><time>2026-05-02T10:49:11.999Z</time></trkpt><trkpt lat="42.19372741166706" lon="13.689432840509108"><ele>665.0</ele><time>2026-05-02T10:49:13.999Z</time></trkpt><trkpt lat="42.19364781305108" lon="13.689421636688634"><ele>665.0</ele><time>2026-05-02T10:49:14.999Z</time></trkpt><trkpt lat="42.19358193267301" lon="13.68942590264822"><ele>665.0</ele><time>2026-05-02T10:49:15.999Z</time></trkpt><trkpt lat="42.193472280641046" lon="13.689461492100683"><ele>665.0</ele><time>2026-05-02T10:49:17.999Z</time></trkpt><trkpt lat="42.19341234765743" lon="13.689405977751758"><ele>665.0</ele><time>2026-05-02T10:49:21.999Z</time></trkpt><trkpt lat="42.193338147833266" lon="13.689227939905852"><ele>665.1666666666666</ele><time>2026-05-02T10:49:23.999Z</time></trkpt><trkpt lat="42.193286376822286" lon="13.689142554491172"><ele>665.3333333333333</ele><time>2026-05-02T10:49:24.999Z</time></trkpt><trkpt lat="42.19322331579698" lon="13.689059006962863"><ele>665.5</ele><time>2026-05-02T10:49:25.999Z</time></trkpt><trkpt lat="42.193150053913534" lon="13.688969496941928"><ele>665.6666666666666</ele><time>2026-05-02T10:49:26.999Z</time></trkpt><trkpt lat="42.19310364564851" lon="13.688871620487568"><ele>665.8333333333334</ele><time>2026-05-02T10:49:27.999Z</time></trkpt><trkpt lat="42.19307993550016" lon="13.68875788201327"><ele>666.0</ele><time>2026-05-02T10:49:28.999Z</time></trkpt><trkpt lat="42.19305447150808" lon="13.688635632709666"><ele>668.0</ele><time>2026-05-02T10:49:29.999Z</time></trkpt><trkpt lat="42.1930271396931" lon="13.688502211517466"><ele>670.0</ele><time>2026-05-02T10:49:30.999Z</time></trkpt><trkpt lat="42.193016050956786" lon="13.688371209329118"><ele>672.0</ele><time>2026-05-02T10:49:31.999Z</time></trkpt><trkpt lat="42.193015087632325" lon="13.688246723741214"><ele>674.0</ele><time>2026-05-02T10:49:32.999Z</time></trkpt><trkpt lat="42.19302820455604" lon="13.68811319259009"><ele>676.0</ele><time>2026-05-02T10:49:33.999Z</time></trkpt><trkpt lat="42.193054935807396" lon="13.687971409686945"><ele>676.0</ele><time>2026-05-02T10:49:34.999Z</time></trkpt><trkpt lat="42.19307784246186" lon="13.68783835610307"><ele>676.0</ele><time>2026-05-02T10:49:35.999Z</time></trkpt><trkpt lat="42.1930688317769" lon="13.687711813837824"><ele>676.0</ele><time>2026-05-02T10:49:36.999Z</time></trkpt><trkpt lat="42.19303276132276" lon="13.68757374326489"><ele>676.0</ele><time>2026-05-02T10:49:37.999Z</time></trkpt><trkpt lat="42.19298791780491" lon="13.687437141131854"><ele>676.0</ele><time>2026-05-02T10:49:38.999Z</time></trkpt><trkpt lat="42.19294823033712" lon="13.687324493464818"><ele>676.1999999999999</ele><time>2026-05-02T10:49:39.999Z</time></trkpt><trkpt lat="42.192932558064996" lon="13.687205209552893"><ele>676.4</ele><time>2026-05-02T10:49:40.999Z</time></trkpt><trkpt lat="42.19293674449521" lon="13.687076165192199"><ele>676.6</ele><time>2026-05-02T10:49:41.999Z</time></trkpt><trkpt lat="42.19296090363932" lon="13.68694675649805"><ele>676.8</ele><time>2026-05-02T10:49:42.999Z</time></trkpt><trkpt lat="42.192999531681366" lon="13.686799997855212"><ele>677.0</ele><time>2026-05-02T10:49:43.999Z</time></trkpt><trkpt lat="42.1930514012704" lon="13.686632162738519"><ele>676.5</ele><time>2026-05-02T10:49:44.999Z</time></trkpt><trkpt lat="42.19309899986638" lon="13.686455092516484"><ele>676.0</ele><time>2026-05-02T10:49:45.999Z</time></trkpt><trkpt lat="42.19313784943139" lon="13.686299421852214"><ele>675.5</ele><time>2026-05-02T10:49:46.999Z</time></trkpt><trkpt lat="42.19317650790806" lon="13.686144263258557"><ele>675.0</ele><time>2026-05-02T10:49:47.999Z</time></trkpt><trkpt lat="42.1932092220672" lon="13.686006216641257"><ele>675.0</ele><time>2026-05-02T10:49:48.999Z</time></trkpt><trkpt lat="42.19322159637237" lon="13.685881045476144"><ele>675.0</ele><time>2026-05-02T10:49:49.999Z</time></trkpt><trkpt lat="42.19321693407212" lon="13.685753161643493"><ele>675.0</ele><time>2026-05-02T10:49:50.999Z</time></trkpt><trkpt lat="42.19319004956454" lon="13.685600384941141"><ele>675.0</ele><time>2026-05-02T10:49:51.999Z</time></trkpt><trkpt lat="42.19315835018983" lon="13.685443378813213"><ele>675.0</ele><time>2026-05-02T10:49:52.999Z</time></trkpt><trkpt lat="42.193154156809086" lon="13.685284796765837"><ele>674.8</ele><time>2026-05-02T10:49:53.999Z</time></trkpt><trkpt lat="42.19316974234613" lon="13.685130375070667"><ele>674.6</ele><time>2026-05-02T10:49:54.999Z</time></trkpt><trkpt lat="42.1931950078551" lon="13.684986938735213"><ele>674.4000000000001</ele><time>2026-05-02T10:49:55.999Z</time></trkpt><trkpt lat="42.19319963429441" lon="13.68484366115319"><ele>674.2</ele><time>2026-05-02T10:49:56.999Z</time></trkpt><trkpt lat="42.19317966615586" lon="13.684687221404229"><ele>674.0</ele><time>2026-05-02T10:49:57.999Z</time></trkpt><trkpt lat="42.193142111624375" lon="13.68451428988134"><ele>670.75</ele><time>2026-05-02T10:49:58.999Z</time></trkpt><trkpt lat="42.19310657457434" lon="13.684352025959528"><ele>667.5</ele><time>2026-05-02T10:49:59.999Z</time></trkpt><trkpt lat="42.19307075762656" lon="13.684176000603795"><ele>664.25</ele><time>2026-05-02T10:50:00.999Z</time></trkpt><trkpt lat="42.19303069147637" lon="13.684010370591968"><ele>661.0</ele><time>2026-05-02T10:50:01.999Z</time></trkpt><trkpt lat="42.19299132117633" lon="13.68383939220766"><ele>661.0</ele><time>2026-05-02T10:50:02.999Z</time></trkpt><trkpt lat="42.1929529352004" lon="13.683677521717104"><ele>661.0</ele><time>2026-05-02T10:50:03.999Z</time></trkpt><trkpt lat="42.19291123886866" lon="13.683524077556271"><ele>661.0</ele><time>2026-05-02T10:50:04.999Z</time></trkpt><trkpt lat="42.192876330008474" lon="13.683354571023079"><ele>661.0</ele><time>2026-05-02T10:50:05.999Z</time></trkpt><trkpt lat="42.192849486135465" lon="13.683179821674551"><ele>661.75</ele><time>2026-05-02T10:50:06.999Z</time></trkpt><trkpt lat="42.19282614528192" lon="13.682996959530751"><ele>662.5</ele><time>2026-05-02T10:50:07.999Z</time></trkpt><trkpt lat="42.19280288903364" lon="13.68282481899063"><ele>663.25</ele><time>2026-05-02T10:50:08.999Z</time></trkpt><trkpt lat="42.192769979772805" lon="13.682667701498863"><ele>664.0</ele><time>2026-05-02T10:50:09.999Z</time></trkpt><trkpt lat="42.19274708074259" lon="13.682531430851625"><ele>664.1666666666667</ele><time>2026-05-02T10:50:10.999Z</time></trkpt><trkpt lat="42.19272699481224" lon="13.682425681070068"><ele>664.3333333333334</ele><time>2026-05-02T10:50:11.999Z</time></trkpt><trkpt lat="42.192698185948295" lon="13.682315292359965"><ele>664.5</ele><time>2026-05-02T10:50:12.999Z</time></trkpt><trkpt lat="42.19267432655037" lon="13.68222425604925"><ele>664.6666666666666</ele><time>2026-05-02T10:50:13.999Z</time></trkpt><trkpt lat="42.192650086675805" lon="13.682086367237108"><ele>664.8333333333333</ele><time>2026-05-02T10:50:15.999Z</time></trkpt><trkpt lat="42.19266286926648" lon="13.68195203099528"><ele>665.0</ele><time>2026-05-02T10:50:17.999Z</time></trkpt><trkpt lat="42.192703667191175" lon="13.681855591260152"><ele>665.0</ele><time>2026-05-02T10:50:18.999Z</time></trkpt><trkpt lat="42.192734334606286" lon="13.681744931294613"><ele>665.0</ele><time>2026-05-02T10:50:19.999Z</time></trkpt><trkpt lat="42.19275527034994" lon="13.681649326519102"><ele>665.0</ele><time>2026-05-02T10:50:20.999Z</time></trkpt><trkpt lat="42.19276512429639" lon="13.681525590080055"><ele>665.0</ele><time>2026-05-02T10:50:22.999Z</time></trkpt><trkpt lat="42.192736271777136" lon="13.681360466859768"><ele>665.0</ele><time>2026-05-02T10:50:24.999Z</time></trkpt><trkpt lat="42.19274592051394" lon="13.681206334906921"><ele>662.8333333333333</ele><time>2026-05-02T10:50:26.999Z</time></trkpt><trkpt lat="42.1927887010571" lon="13.681096687815606"><ele>660.6666666666666</ele><time>2026-05-02T10:50:28.999Z</time></trkpt><trkpt lat="42.19283830782822" lon="13.681035095275506"><ele>658.5</ele><time>2026-05-02T10:50:29.999Z</time></trkpt><trkpt lat="42.19290587785149" lon="13.680979553064493"><ele>656.3333333333334</ele><time>2026-05-02T10:50:30.999Z</time></trkpt><trkpt lat="42.19297377272938" lon="13.68091415495828"><ele>654.1666666666667</ele><time>2026-05-02T10:50:31.999Z</time></trkpt><trkpt lat="42.193035623390735" lon="13.680846856235398"><ele>652.0</ele><time>2026-05-02T10:50:32.999Z</time></trkpt><trkpt lat="42.19308403841013" lon="13.680732086423722"><ele>652.0</ele><time>2026-05-02T10:50:34.999Z</time></trkpt><trkpt lat="42.19303557640596" lon="13.680576837782482"><ele>652.0</ele><time>2026-05-02T10:50:36.999Z</time></trkpt><trkpt lat="42.19301384324858" lon="13.680472579058552"><ele>652.0</ele><time>2026-05-02T10:50:37.999Z</time></trkpt><trkpt lat="42.19299162619879" lon="13.68036875028785"><ele>652.0</ele><time>2026-05-02T10:50:38.999Z</time></trkpt><trkpt lat="42.192979958947795" lon="13.68025850721161"><ele>652.0</ele><time>2026-05-02T10:50:39.999Z</time></trkpt><trkpt lat="42.19297244319223" lon="13.68014398403149"><ele>649.2</ele><time>2026-05-02T10:50:40.999Z</time></trkpt><trkpt lat="42.192966637819666" lon="13.680052476859888"><ele>646.4000000000001</ele><time>2026-05-02T10:50:41.999Z</time></trkpt><trkpt lat="42.19296117720464" lon="13.67990614022367"><ele>643.5999999999999</ele><time>2026-05-02T10:50:43.999Z</time></trkpt><trkpt lat="42.192951519960005" lon="13.679800782293759"><ele>640.8</ele><time>2026-05-02T10:50:44.999Z</time></trkpt><trkpt lat="42.1930123092261" lon="13.679671620676011"><ele>638.0</ele><time>2026-05-02T10:50:45.999Z</time></trkpt><trkpt lat="42.193060259308574" lon="13.679530883695055"><ele>637.75</ele><time>2026-05-02T10:50:46.999Z</time></trkpt><trkpt lat="42.19310543693465" lon="13.67937580045404"><ele>637.5</ele><time>2026-05-02T10:50:47.999Z</time></trkpt><trkpt lat="42.193197533077424" lon="13.679226886780258"><ele>637.25</ele><time>2026-05-02T10:50:48.999Z</time></trkpt><trkpt lat="42.193303957581385" lon="13.679074934696464"><ele>637.0</ele><time>2026-05-02T10:50:49.999Z</time></trkpt><trkpt lat="42.193416239604744" lon="13.678905245413608"><ele>637.6666666666667</ele><time>2026-05-02T10:50:50.999Z</time></trkpt><trkpt lat="42.19354084873965" lon="13.678722695075134"><ele>638.3333333333334</ele><time>2026-05-02T10:50:51.999Z</time></trkpt><trkpt lat="42.19367175896366" lon="13.678520901930062"><ele>639.0</ele><time>2026-05-02T10:50:52.999Z</time></trkpt><trkpt lat="42.193804709517444" lon="13.67831906584361"><ele>639.0</ele><time>2026-05-02T10:50:53.999Z</time></trkpt><trkpt lat="42.19394289711963" lon="13.67810931336081"><ele>639.0</ele><time>2026-05-02T10:50:54.999Z</time></trkpt><trkpt lat="42.194085908689054" lon="13.677888874507738"><ele>639.0</ele><time>2026-05-02T10:50:55.999Z</time></trkpt><trkpt lat="42.19423221549525" lon="13.677661843356656"><ele>640.3333333333334</ele><time>2026-05-02T10:50:56.999Z</time></trkpt><trkpt lat="42.194373459853516" lon="13.677438633004098"><ele>641.6666666666667</ele><time>2026-05-02T10:50:57.999Z</time></trkpt><trkpt lat="42.19450649255841" lon="13.677225934655397"><ele>643.0</ele><time>2026-05-02T10:50:58.999Z</time></trkpt><trkpt lat="42.194636310364785" lon="13.67700250285097"><ele>644.6666666666667</ele><time>2026-05-02T10:50:59.999Z</time></trkpt><trkpt lat="42.19474921076261" lon="13.67676323609362"><ele>646.3333333333334</ele><time>2026-05-02T10:51:00.999Z</time></trkpt><trkpt lat="42.19485300637812" lon="13.67652388832531"><ele>648.0</ele><time>2026-05-02T10:51:01.999Z</time></trkpt><trkpt lat="42.194960162670235" lon="13.6763159326897"><ele>648.0</ele><time>2026-05-02T10:51:02.999Z</time></trkpt><trkpt lat="42.19505574260121" lon="13.676105713054833"><ele>648.0</ele><time>2026-05-02T10:51:03.999Z</time></trkpt><trkpt lat="42.195141226045024" lon="13.675892542584124"><ele>648.0</ele><time>2026-05-02T10:51:04.999Z</time></trkpt><trkpt lat="42.1952628195739" lon="13.675727618517758"><ele>649.0</ele><time>2026-05-02T10:51:05.999Z</time></trkpt><trkpt lat="42.19539526531549" lon="13.675591573954202"><ele>650.0</ele><time>2026-05-02T10:51:06.999Z</time></trkpt><trkpt lat="42.19555027975455" lon="13.675456256087658"><ele>651.0</ele><time>2026-05-02T10:51:07.999Z</time></trkpt><trkpt lat="42.195712175392906" lon="13.675325241814406"><ele>647.0</ele><time>2026-05-02T10:51:08.999Z</time></trkpt><trkpt lat="42.19586692834999" lon="13.675170633583242"><ele>643.0</ele><time>2026-05-02T10:51:09.999Z</time></trkpt><trkpt lat="42.1960364778344" lon="13.67502768174598"><ele>639.0</ele><time>2026-05-02T10:51:10.999Z</time></trkpt><trkpt lat="42.19618164885329" lon="13.674825189727223"><ele>639.0</ele><time>2026-05-02T10:51:11.999Z</time></trkpt><trkpt lat="42.196319346853855" lon="13.674605877106607"><ele>639.0</ele><time>2026-05-02T10:51:12.999Z</time></trkpt><trkpt lat="42.19644808477045" lon="13.674375724945829"><ele>639.0</ele><time>2026-05-02T10:51:13.999Z</time></trkpt><trkpt lat="42.19658346568653" lon="13.674138158710909"><ele>638.0</ele><time>2026-05-02T10:51:14.999Z</time></trkpt><trkpt lat="42.196720262991356" lon="13.673908900529897"><ele>637.0</ele><time>2026-05-02T10:51:15.999Z</time></trkpt><trkpt lat="42.19685448465969" lon="13.673687432897147"><ele>636.0</ele><time>2026-05-02T10:51:16.999Z</time></trkpt><trkpt lat="42.19697770521947" lon="13.673481244120936"><ele>633.0</ele><time>2026-05-02T10:51:17.999Z</time></trkpt><trkpt lat="42.19708816522009" lon="13.673292902963698"><ele>630.0</ele><time>2026-05-02T10:51:18.999Z</time></trkpt><trkpt lat="42.19715853874522" lon="13.673091249508179"><ele>627.0</ele><time>2026-05-02T10:51:19.999Z</time></trkpt><trkpt lat="42.19721090379063" lon="13.672906110930173"><ele>627.8000000000001</ele><time>2026-05-02T10:51:20.999Z</time></trkpt><trkpt lat="42.19723881456849" lon="13.67275459987353"><ele>628.6</ele><time>2026-05-02T10:51:21.999Z</time></trkpt><trkpt lat="42.19729147753861" lon="13.672633953966109"><ele>629.4000000000001</ele><time>2026-05-02T10:51:22.999Z</time></trkpt><trkpt lat="42.197354603909034" lon="13.672535096656869"><ele>630.2</ele><time>2026-05-02T10:51:23.999Z</time></trkpt><trkpt lat="42.19743904085229" lon="13.672452033812869"><ele>631.0</ele><time>2026-05-02T10:51:24.999Z</time></trkpt><trkpt lat="42.197536493710594" lon="13.672383434244537"><ele>631.0</ele><time>2026-05-02T10:51:25.999Z</time></trkpt><trkpt lat="42.197636075759306" lon="13.672339654901563"><ele>631.0</ele><time>2026-05-02T10:51:26.999Z</time></trkpt><trkpt lat="42.19774565914624" lon="13.672320569425805"><ele>631.0</ele><time>2026-05-02T10:51:27.999Z</time></trkpt><trkpt lat="42.19786558807139" lon="13.672344614239684"><ele>631.0</ele><time>2026-05-02T10:51:28.999Z</time></trkpt><trkpt lat="42.19798688693399" lon="13.672403856487277"><ele>631.0</ele><time>2026-05-02T10:51:29.999Z</time></trkpt><trkpt lat="42.198115119187335" lon="13.672462034217538"><ele>631.0</ele><time>2026-05-02T10:51:30.999Z</time></trkpt><trkpt lat="42.19824267273477" lon="13.672499461904412"><ele>631.0</ele><time>2026-05-02T10:51:31.999Z</time></trkpt><trkpt lat="42.19836462153175" lon="13.672510317264312"><ele>631.0</ele><time>2026-05-02T10:51:32.999Z</time></trkpt><trkpt lat="42.19847978656658" lon="13.672491808593016"><ele>632.2</ele><time>2026-05-02T10:51:33.999Z</time></trkpt><trkpt lat="42.19858224233237" lon="13.672467274255354"><ele>633.4000000000001</ele><time>2026-05-02T10:51:34.999Z</time></trkpt><trkpt lat="42.198669510626345" lon="13.672380095540516"><ele>634.6</ele><time>2026-05-02T10:51:35.999Z</time></trkpt><trkpt lat="42.198723085956914" lon="13.672260947763784"><ele>635.8000000000001</ele><time>2026-05-02T10:51:36.999Z</time></trkpt><trkpt lat="42.198701263181924" lon="13.672094568693248"><ele>637.0</ele><time>2026-05-02T10:51:37.999Z</time></trkpt><trkpt lat="42.198687471613574" lon="13.671927125594227"><ele>633.0</ele><time>2026-05-02T10:51:38.999Z</time></trkpt><trkpt lat="42.19869215344932" lon="13.671762373693833"><ele>629.0</ele><time>2026-05-02T10:51:39.999Z</time></trkpt><trkpt lat="42.19869753179992" lon="13.671581062835402"><ele>625.0</ele><time>2026-05-02T10:51:40.999Z</time></trkpt><trkpt lat="42.19875772620192" lon="13.67140054326061"><ele>621.0</ele><time>2026-05-02T10:51:41.999Z</time></trkpt><trkpt lat="42.19883860948434" lon="13.671248740015244"><ele>621.0</ele><time>2026-05-02T10:51:42.999Z</time></trkpt><trkpt lat="42.19895253198109" lon="13.671111875793635"><ele>621.0</ele><time>2026-05-02T10:51:43.999Z</time></trkpt><trkpt lat="42.199075235226736" lon="13.670983304117703"><ele>621.0</ele><time>2026-05-02T10:51:44.999Z</time></trkpt><trkpt lat="42.19918329973383" lon="13.670826847140047"><ele>620.6666666666666</ele><time>2026-05-02T10:51:45.999Z</time></trkpt><trkpt lat="42.19926797332678" lon="13.670627866850317"><ele>620.3333333333333</ele><time>2026-05-02T10:51:46.999Z</time></trkpt><trkpt lat="42.19934530934879" lon="13.670406826479093"><ele>620.0</ele><time>2026-05-02T10:51:47.999Z</time></trkpt><trkpt lat="42.19942588362354" lon="13.670197960426206"><ele>620.0</ele><time>2026-05-02T10:51:48.999Z</time></trkpt><trkpt lat="42.19953141803394" lon="13.670014917915678"><ele>620.0</ele><time>2026-05-02T10:51:49.999Z</time></trkpt><trkpt lat="42.199666628798944" lon="13.669864278422162"><ele>620.0</ele><time>2026-05-02T10:51:50.999Z</time></trkpt><trkpt lat="42.19976317650518" lon="13.669681280818057"><ele>623.3333333333333</ele><time>2026-05-02T10:51:51.999Z</time></trkpt><trkpt lat="42.19989584159505" lon="13.669530174867626"><ele>626.6666666666666</ele><time>2026-05-02T10:51:52.999Z</time></trkpt><trkpt lat="42.20002683696017" lon="13.66939303404397"><ele>630.0</ele><time>2026-05-02T10:51:53.999Z</time></trkpt><trkpt lat="42.200147219896756" lon="13.669277244590113"><ele>630.0</ele><time>2026-05-02T10:51:54.999Z</time></trkpt><trkpt lat="42.20022714556081" lon="13.669168322085692"><ele>630.0</ele><time>2026-05-02T10:51:55.999Z</time></trkpt><trkpt lat="42.20029345356113" lon="13.669069311495434"><ele>630.0</ele><time>2026-05-02T10:51:56.999Z</time></trkpt><trkpt lat="42.20033211954815" lon="13.668958984924013"><ele>630.0</ele><time>2026-05-02T10:51:57.999Z</time></trkpt><trkpt lat="42.20036984444691" lon="13.668823916724751"><ele>630.0</ele><time>2026-05-02T10:51:58.999Z</time></trkpt><trkpt lat="42.200410511317266" lon="13.668690810975049"><ele>627.6</ele><time>2026-05-02T10:51:59.999Z</time></trkpt><trkpt lat="42.20044473261208" lon="13.668593510320036"><ele>625.2</ele><time>2026-05-02T10:52:00.999Z</time></trkpt><trkpt lat="42.200481211483684" lon="13.668472283481508"><ele>622.8</ele><time>2026-05-02T10:52:02.999Z</time></trkpt><trkpt lat="42.200379596920364" lon="13.668445160838989"><ele>620.4</ele><time>2026-05-02T10:52:05.999Z</time></trkpt><trkpt lat="42.200298667393" lon="13.668472410235452"><ele>618.0</ele><time>2026-05-02T10:52:06.999Z</time></trkpt><trkpt lat="42.20019723952284" lon="13.668542401590123"><ele>621.0</ele><time>2026-05-02T10:52:07.999Z</time></trkpt><trkpt lat="42.20009807730104" lon="13.668620067564298"><ele>624.0</ele><time>2026-05-02T10:52:08.999Z</time></trkpt><trkpt lat="42.20000604352826" lon="13.668704545508334"><ele>627.0</ele><time>2026-05-02T10:52:09.999Z</time></trkpt><trkpt lat="42.199916299980345" lon="13.668827216202692"><ele>630.0</ele><time>2026-05-02T10:52:10.999Z</time></trkpt><trkpt lat="42.199821075380235" lon="13.668958424515305"><ele>628.0</ele><time>2026-05-02T10:52:11.999Z</time></trkpt><trkpt lat="42.199730260760816" lon="13.669084450470192"><ele>626.0</ele><time>2026-05-02T10:52:12.999Z</time></trkpt><trkpt lat="42.199655940316816" lon="13.669190139930844"><ele>624.0</ele><time>2026-05-02T10:52:13.999Z</time></trkpt><trkpt lat="42.19959892434042" lon="13.669275907994546"><ele>622.0</ele><time>2026-05-02T10:52:14.999Z</time></trkpt><trkpt lat="42.199544924449825" lon="13.669374769159642"><ele>620.0</ele><time>2026-05-02T10:52:15.999Z</time></trkpt><trkpt lat="42.1995061854634" lon="13.669448966204813"><ele>620.0</ele><time>2026-05-02T10:52:16.999Z</time></trkpt><trkpt lat="42.199460289045064" lon="13.66951297755603"><ele>620.0</ele><time>2026-05-02T10:52:17.999Z</time></trkpt><trkpt lat="42.19938532745572" lon="13.669492686583736"><ele>620.0</ele><time>2026-05-02T10:52:19.999Z</time></trkpt><trkpt lat="42.19940112630053" lon="13.669337468372445"><ele>620.0</ele><time>2026-05-02T10:52:21.999Z</time></trkpt><trkpt lat="42.19939951467283" lon="13.669193592131615"><ele>620.0</ele><time>2026-05-02T10:52:22.999Z</time></trkpt><trkpt lat="42.1994348789133" lon="13.669022259019343"><ele>616.5</ele><time>2026-05-02T10:52:23.999Z</time></trkpt><trkpt lat="42.19944746891973" lon="13.668836317495442"><ele>613.0</ele><time>2026-05-02T10:52:24.999Z</time></trkpt><trkpt lat="42.199438900326406" lon="13.668656207907599"><ele>609.5</ele><time>2026-05-02T10:52:25.999Z</time></trkpt><trkpt lat="42.19940376653676" lon="13.668475880867959"><ele>606.0</ele><time>2026-05-02T10:52:26.999Z</time></trkpt><trkpt lat="42.19937035066485" lon="13.668289864852145"><ele>606.5</ele><time>2026-05-02T10:52:27.999Z</time></trkpt><trkpt lat="42.19932274823792" lon="13.668120319952486"><ele>607.0</ele><time>2026-05-02T10:52:28.999Z</time></trkpt><trkpt lat="42.19927860071338" lon="13.667959350281762"><ele>607.5</ele><time>2026-05-02T10:52:29.999Z</time></trkpt><trkpt lat="42.19924296099727" lon="13.667798434344991"><ele>608.0</ele><time>2026-05-02T10:52:30.999Z</time></trkpt><trkpt lat="42.19921518490326" lon="13.667637694588784"><ele>608.0</ele><time>2026-05-02T10:52:31.999Z</time></trkpt><trkpt lat="42.199190812567586" lon="13.667508973653694"><ele>608.0</ele><time>2026-05-02T10:52:32.999Z</time></trkpt><trkpt lat="42.1991682212832" lon="13.667425136865342"><ele>608.0</ele><time>2026-05-02T10:52:33.999Z</time></trkpt><trkpt lat="42.1991211142194" lon="13.667331066507158"><ele>608.0</ele><time>2026-05-02T10:52:34.999Z</time></trkpt><trkpt lat="42.19908013708799" lon="13.667248292695167"><ele>608.0</ele><time>2026-05-02T10:52:35.999Z</time></trkpt><trkpt lat="42.199023348793354" lon="13.667113343544777"><ele>608.0</ele><time>2026-05-02T10:52:37.999Z</time></trkpt><trkpt lat="42.19895843146341" lon="13.667243472093151"><ele>608.25</ele><time>2026-05-02T10:52:38.999Z</time></trkpt><trkpt lat="42.198973553498874" lon="13.667032993841724"><ele>608.5</ele><time>2026-05-02T10:52:39.999Z</time></trkpt><trkpt lat="42.19898781852439" lon="13.666935239316292"><ele>608.75</ele><time>2026-05-02T10:52:40.999Z</time></trkpt><trkpt lat="42.199159201683464" lon="13.666815522617657"><ele>609.0</ele><time>2026-05-02T10:52:42.999Z</time></trkpt><trkpt lat="42.19925167030597" lon="13.66679955312177"><ele>609.0</ele><time>2026-05-02T10:52:44.999Z</time></trkpt><trkpt lat="42.19928509098094" lon="13.666713561121506"><ele>609.0</ele><time>2026-05-02T10:52:46.999Z</time></trkpt><trkpt lat="42.19924775936459" lon="13.66655626973901"><ele>609.0</ele><time>2026-05-02T10:52:48.999Z</time></trkpt><trkpt lat="42.19922898170382" lon="13.666451338714054"><ele>609.0</ele><time>2026-05-02T10:52:49.999Z</time></trkpt><trkpt lat="42.19922898369242" lon="13.66635033472361"><ele>609.0</ele><time>2026-05-02T10:52:50.999Z</time></trkpt><trkpt lat="42.19924264560416" lon="13.666221953779685"><ele>609.0</ele><time>2026-05-02T10:52:51.999Z</time></trkpt><trkpt lat="42.19925537616812" lon="13.666089918489131"><ele>608.2</ele><time>2026-05-02T10:52:52.999Z</time></trkpt><trkpt lat="42.199284027306454" lon="13.665957310981176"><ele>607.4</ele><time>2026-05-02T10:52:53.999Z</time></trkpt><trkpt lat="42.19933073667482" lon="13.665838116214374"><ele>606.6</ele><time>2026-05-02T10:52:54.999Z</time></trkpt><trkpt lat="42.19940042298026" lon="13.66573337192805"><ele>605.8</ele><time>2026-05-02T10:52:55.999Z</time></trkpt><trkpt lat="42.19946585447853" lon="13.665614721914938"><ele>605.0</ele><time>2026-05-02T10:52:56.999Z</time></trkpt><trkpt lat="42.19953425101523" lon="13.66550613581655"><ele>605.0</ele><time>2026-05-02T10:52:57.999Z</time></trkpt><trkpt lat="42.19959443272565" lon="13.665393091049953"><ele>605.0</ele><time>2026-05-02T10:52:58.999Z</time></trkpt><trkpt lat="42.199650029395166" lon="13.665285464396941"><ele>605.0</ele><time>2026-05-02T10:52:59.999Z</time></trkpt><trkpt lat="42.199719271501216" lon="13.665201626568376"><ele>605.0</ele><time>2026-05-02T10:53:00.999Z</time></trkpt><trkpt lat="42.19980258693036" lon="13.665104114464835"><ele>605.0</ele><time>2026-05-02T10:53:01.999Z</time></trkpt><trkpt lat="42.199877826386754" lon="13.665035287218418"><ele>605.0</ele><time>2026-05-02T10:53:02.999Z</time></trkpt><trkpt lat="42.19995057320148" lon="13.66498135330475"><ele>605.0</ele><time>2026-05-02T10:53:03.999Z</time></trkpt><trkpt lat="42.20002476397285" lon="13.664926930797263"><ele>605.0</ele><time>2026-05-02T10:53:04.999Z</time></trkpt><trkpt lat="42.2001075230059" lon="13.664866515481794"><ele>605.0</ele><time>2026-05-02T10:53:05.999Z</time></trkpt><trkpt lat="42.20019029420845" lon="13.664812964315063"><ele>605.0</ele><time>2026-05-02T10:53:06.999Z</time></trkpt><trkpt lat="42.2002765075718" lon="13.664781236433939"><ele>605.0</ele><time>2026-05-02T10:53:07.999Z</time></trkpt><trkpt lat="42.200349032975815" lon="13.664757729701513"><ele>605.0</ele><time>2026-05-02T10:53:08.999Z</time></trkpt><trkpt lat="42.20043095629932" lon="13.664726630787262"><ele>605.0</ele><time>2026-05-02T10:53:09.999Z</time></trkpt><trkpt lat="42.20055662831664" lon="13.664648159008065"><ele>605.0</ele><time>2026-05-02T10:53:11.999Z</time></trkpt><trkpt lat="42.20062168488934" lon="13.66461139931004"><ele>605.0</ele><time>2026-05-02T10:53:12.999Z</time></trkpt><trkpt lat="42.20068692164995" lon="13.664564055012411"><ele>605.0</ele><time>2026-05-02T10:53:13.999Z</time></trkpt><trkpt lat="42.20074775928957" lon="13.66453053548048"><ele>605.0</ele><time>2026-05-02T10:53:14.999Z</time></trkpt><trkpt lat="42.20081061933611" lon="13.664486090803617"><ele>601.6666666666666</ele><time>2026-05-02T10:53:15.999Z</time></trkpt><trkpt lat="42.20087135338469" lon="13.664441469852493"><ele>598.3333333333333</ele><time>2026-05-02T10:53:16.999Z</time></trkpt><trkpt lat="42.200926625621626" lon="13.66437399482236"><ele>595.0</ele><time>2026-05-02T10:53:17.999Z</time></trkpt><trkpt lat="42.20097904754989" lon="13.664301351101866"><ele>591.6666666666666</ele><time>2026-05-02T10:53:18.999Z</time></trkpt><trkpt lat="42.2010434057545" lon="13.66420282993332"><ele>588.3333333333334</ele><time>2026-05-02T10:53:19.999Z</time></trkpt><trkpt lat="42.201117231934084" lon="13.664127166290692"><ele>585.0</ele><time>2026-05-02T10:53:20.999Z</time></trkpt><trkpt lat="42.20121857240696" lon="13.66405114737262"><ele>585.0</ele><time>2026-05-02T10:53:22.999Z</time></trkpt><trkpt lat="42.201281726816305" lon="13.664033554585817"><ele>585.0</ele><time>2026-05-02T10:53:23.999Z</time></trkpt><trkpt lat="42.201357716092915" lon="13.664022239181946"><ele>585.0</ele><time>2026-05-02T10:53:24.999Z</time></trkpt><trkpt lat="42.20145931842419" lon="13.663996591097145"><ele>585.0</ele><time>2026-05-02T10:53:25.999Z</time></trkpt><trkpt lat="42.201569734206856" lon="13.663960502445596"><ele>585.0</ele><time>2026-05-02T10:53:26.999Z</time></trkpt><trkpt lat="42.20166551847443" lon="13.663926994671993"><ele>584.2</ele><time>2026-05-02T10:53:27.999Z</time></trkpt><trkpt lat="42.201754611272555" lon="13.663892094847853"><ele>583.4</ele><time>2026-05-02T10:53:28.999Z</time></trkpt><trkpt lat="42.20183788421708" lon="13.663845967151149"><ele>582.6</ele><time>2026-05-02T10:53:29.999Z</time></trkpt><trkpt lat="42.20191925408636" lon="13.663739600937978"><ele>581.8</ele><time>2026-05-02T10:53:31.999Z</time></trkpt><trkpt lat="42.20194858620084" lon="13.663655949929908"><ele>581.0</ele><time>2026-05-02T10:53:32.999Z</time></trkpt><trkpt lat="42.202001314539096" lon="13.663529395869622"><ele>578.6</ele><time>2026-05-02T10:53:33.999Z</time></trkpt><trkpt lat="42.202048693838464" lon="13.663405855958114"><ele>576.2</ele><time>2026-05-02T10:53:34.999Z</time></trkpt><trkpt lat="42.202096526242016" lon="13.663298372884574"><ele>573.8</ele><time>2026-05-02T10:53:35.999Z</time></trkpt><trkpt lat="42.20215094551576" lon="13.663179570737459"><ele>571.4</ele><time>2026-05-02T10:53:36.999Z</time></trkpt><trkpt lat="42.20220833497301" lon="13.663041365834335"><ele>569.0</ele><time>2026-05-02T10:53:37.999Z</time></trkpt><trkpt lat="42.20226838003345" lon="13.662895504991852"><ele>569.0</ele><time>2026-05-02T10:53:38.999Z</time></trkpt><trkpt lat="42.20231934812425" lon="13.662750029129178"><ele>569.0</ele><time>2026-05-02T10:53:39.999Z</time></trkpt><trkpt lat="42.20235780571276" lon="13.662577251182721"><ele>569.0</ele><time>2026-05-02T10:53:40.999Z</time></trkpt><trkpt lat="42.20239700220431" lon="13.662416015657351"><ele>569.0</ele><time>2026-05-02T10:53:41.999Z</time></trkpt><trkpt lat="42.202439523706275" lon="13.662267238005262"><ele>569.0</ele><time>2026-05-02T10:53:42.999Z</time></trkpt><trkpt lat="42.20249178326987" lon="13.662098724488391"><ele>569.0</ele><time>2026-05-02T10:53:43.999Z</time></trkpt><trkpt lat="42.20253719893187" lon="13.66193778083647"><ele>569.0</ele><time>2026-05-02T10:53:44.999Z</time></trkpt><trkpt lat="42.2025700374722" lon="13.661780247487577"><ele>569.0</ele><time>2026-05-02T10:53:45.999Z</time></trkpt><trkpt lat="42.202596477975874" lon="13.661629608736142"><ele>568.2</ele><time>2026-05-02T10:53:46.999Z</time></trkpt><trkpt lat="42.20263311294244" lon="13.661484909493222"><ele>567.4</ele><time>2026-05-02T10:53:47.999Z</time></trkpt><trkpt lat="42.202685448364186" lon="13.661361538321096"><ele>566.6</ele><time>2026-05-02T10:53:48.999Z</time></trkpt><trkpt lat="42.20274618018875" lon="13.661236921913565"><ele>565.8</ele><time>2026-05-02T10:53:49.999Z</time></trkpt><trkpt lat="42.20279951866823" lon="13.661101726256796"><ele>565.0</ele><time>2026-05-02T10:53:50.999Z</time></trkpt><trkpt lat="42.20283748618743" lon="13.660960197924881"><ele>564.2</ele><time>2026-05-02T10:53:51.999Z</time></trkpt><trkpt lat="42.202871618443645" lon="13.660808709423158"><ele>563.4</ele><time>2026-05-02T10:53:52.999Z</time></trkpt><trkpt lat="42.20290113780392" lon="13.660657432105564"><ele>562.6</ele><time>2026-05-02T10:53:53.999Z</time></trkpt><trkpt lat="42.20292545000663" lon="13.660512956303185"><ele>561.8</ele><time>2026-05-02T10:53:54.999Z</time></trkpt><trkpt lat="42.20294514661003" lon="13.66037564881882"><ele>561.0</ele><time>2026-05-02T10:53:55.999Z</time></trkpt><trkpt lat="42.20296303931373" lon="13.66024062559159"><ele>560.0</ele><time>2026-05-02T10:53:56.999Z</time></trkpt><trkpt lat="42.20299502095352" lon="13.660102845871405"><ele>559.0</ele><time>2026-05-02T10:53:57.999Z</time></trkpt><trkpt lat="42.203040216151244" lon="13.659961260507018"><ele>558.0</ele><time>2026-05-02T10:53:58.999Z</time></trkpt><trkpt lat="42.2030864248169" lon="13.659822326867792"><ele>557.0</ele><time>2026-05-02T10:53:59.999Z</time></trkpt><trkpt lat="42.2031390640166" lon="13.65968850189073"><ele>556.0</ele><time>2026-05-02T10:54:00.999Z</time></trkpt><trkpt lat="42.203187709416014" lon="13.659551491174172"><ele>553.6</ele><time>2026-05-02T10:54:01.999Z</time></trkpt><trkpt lat="42.203225626754765" lon="13.65940838492947"><ele>551.2</ele><time>2026-05-02T10:54:02.999Z</time></trkpt><trkpt lat="42.20326766293586" lon="13.659268239719177"><ele>548.8</ele><time>2026-05-02T10:54:03.999Z</time></trkpt><trkpt lat="42.20331667886962" lon="13.65915605233499"><ele>546.4</ele><time>2026-05-02T10:54:04.999Z</time></trkpt><trkpt lat="42.20337698318777" lon="13.659034921752252"><ele>544.0</ele><time>2026-05-02T10:54:05.999Z</time></trkpt><trkpt lat="42.20342956574874" lon="13.6589260904497"><ele>544.0</ele><time>2026-05-02T10:54:06.999Z</time></trkpt><trkpt lat="42.203476673478974" lon="13.65878348234124"><ele>544.0</ele><time>2026-05-02T10:54:08.999Z</time></trkpt><trkpt lat="42.20352209379136" lon="13.658706613776816"><ele>544.0</ele><time>2026-05-02T10:54:10.999Z</time></trkpt><trkpt lat="42.20353359145415" lon="13.658599558212368"><ele>544.0</ele><time>2026-05-02T10:54:13.999Z</time></trkpt><trkpt lat="42.20347357620942" lon="13.658524601908601"><ele>544.0</ele><time>2026-05-02T10:54:15.999Z</time></trkpt><trkpt lat="42.203377795552676" lon="13.65849752815647"><ele>544.0</ele><time>2026-05-02T10:54:16.999Z</time></trkpt><trkpt lat="42.203266068179936" lon="13.658464758566597"><ele>540.75</ele><time>2026-05-02T10:54:17.999Z</time></trkpt><trkpt lat="42.203133662261756" lon="13.658425182622286"><ele>537.5</ele><time>2026-05-02T10:54:18.999Z</time></trkpt><trkpt lat="42.20299751812066" lon="13.658348493922865"><ele>534.25</ele><time>2026-05-02T10:54:19.999Z</time></trkpt><trkpt lat="42.20285314705243" lon="13.658263433908422"><ele>531.0</ele><time>2026-05-02T10:54:20.999Z</time></trkpt><trkpt lat="42.202716233360206" lon="13.658130275270317"><ele>531.0</ele><time>2026-05-02T10:54:21.999Z</time></trkpt><trkpt lat="42.202562732859775" lon="13.657972435994296"><ele>531.0</ele><time>2026-05-02T10:54:22.999Z</time></trkpt><trkpt lat="42.20241080018236" lon="13.657820562200289"><ele>531.0</ele><time>2026-05-02T10:54:23.999Z</time></trkpt><trkpt lat="42.20227209098567" lon="13.65768338533191"><ele>526.3333333333334</ele><time>2026-05-02T10:54:24.999Z</time></trkpt><trkpt lat="42.20214183440006" lon="13.657549455229747"><ele>521.6666666666667</ele><time>2026-05-02T10:54:25.999Z</time></trkpt><trkpt lat="42.20198201019902" lon="13.65749083921414"><ele>517.0</ele><time>2026-05-02T10:54:26.999Z</time></trkpt><trkpt lat="42.20181881433449" lon="13.657476378996995"><ele>517.0</ele><time>2026-05-02T10:54:27.999Z</time></trkpt><trkpt lat="42.2016471763209" lon="13.657486792075597"><ele>517.0</ele><time>2026-05-02T10:54:28.999Z</time></trkpt><trkpt lat="42.201484678643425" lon="13.657519111053036"><ele>517.0</ele><time>2026-05-02T10:54:29.999Z</time></trkpt><trkpt lat="42.2013273661991" lon="13.657556650880084"><ele>518.0</ele><time>2026-05-02T10:54:30.999Z</time></trkpt><trkpt lat="42.201174520530245" lon="13.657616463022809"><ele>519.0</ele><time>2026-05-02T10:54:31.999Z</time></trkpt><trkpt lat="42.20103117867478" lon="13.657677165687137"><ele>520.0</ele><time>2026-05-02T10:54:32.999Z</time></trkpt><trkpt lat="42.20090787463082" lon="13.65781735753038"><ele>520.0</ele><time>2026-05-02T10:54:33.999Z</time></trkpt><trkpt lat="42.200798003512844" lon="13.657989641822052"><ele>520.0</ele><time>2026-05-02T10:54:34.999Z</time></trkpt><trkpt lat="42.20068790122988" lon="13.658164721102683"><ele>520.0</ele><time>2026-05-02T10:54:35.999Z</time></trkpt><trkpt lat="42.20053578112724" lon="13.658229919617154"><ele>516.0</ele><time>2026-05-02T10:54:36.999Z</time></trkpt><trkpt lat="42.20036437346287" lon="13.65827740340767"><ele>512.0</ele><time>2026-05-02T10:54:37.999Z</time></trkpt><trkpt lat="42.20017926538377" lon="13.658318408311178"><ele>508.0</ele><time>2026-05-02T10:54:38.999Z</time></trkpt><trkpt lat="42.200002712362895" lon="13.658352934088278"><ele>508.0</ele><time>2026-05-02T10:54:39.999Z</time></trkpt><trkpt lat="42.1998340923956" lon="13.658403686313912"><ele>508.0</ele><time>2026-05-02T10:54:40.999Z</time></trkpt><trkpt lat="42.19967137050316" lon="13.658438278273662"><ele>508.0</ele><time>2026-05-02T10:54:41.999Z</time></trkpt><trkpt lat="42.19951612323433" lon="13.658517175848763"><ele>508.0</ele><time>2026-05-02T10:54:42.999Z</time></trkpt><trkpt lat="42.19938929167199" lon="13.658652941014571"><ele>508.0</ele><time>2026-05-02T10:54:43.999Z</time></trkpt><trkpt lat="42.19927567571927" lon="13.65879293147424"><ele>508.0</ele><time>2026-05-02T10:54:44.999Z</time></trkpt><trkpt lat="42.19916334488931" lon="13.658929961273415"><ele>508.0</ele><time>2026-05-02T10:54:45.999Z</time></trkpt><trkpt lat="42.19905035163051" lon="13.659060286846142"><ele>508.0</ele><time>2026-05-02T10:54:46.999Z</time></trkpt><trkpt lat="42.19894091196976" lon="13.659177450783963"><ele>508.0</ele><time>2026-05-02T10:54:47.999Z</time></trkpt><trkpt lat="42.19882493238119" lon="13.65925885824051"><ele>508.0</ele><time>2026-05-02T10:54:48.999Z</time></trkpt><trkpt lat="42.198709878234496" lon="13.659311253523668"><ele>505.25</ele><time>2026-05-02T10:54:49.999Z</time></trkpt><trkpt lat="42.19857963046636" lon="13.659297377104835"><ele>502.5</ele><time>2026-05-02T10:54:50.999Z</time></trkpt><trkpt lat="42.1984535963294" lon="13.659261945391306"><ele>499.75</ele><time>2026-05-02T10:54:51.999Z</time></trkpt><trkpt lat="42.19833544915179" lon="13.65923766537266"><ele>497.0</ele><time>2026-05-02T10:54:52.999Z</time></trkpt><trkpt lat="42.19823100603416" lon="13.659224202217981"><ele>496.5</ele><time>2026-05-02T10:54:53.999Z</time></trkpt><trkpt lat="42.19814748721951" lon="13.659225649548107"><ele>496.0</ele><time>2026-05-02T10:54:54.999Z</time></trkpt><trkpt lat="42.19813939145888" lon="13.658996812716412"><ele>495.5</ele><time>2026-05-02T10:54:55.999Z</time></trkpt><trkpt lat="42.198086455714794" lon="13.658846620284871"><ele>495.0</ele><time>2026-05-02T10:54:56.999Z</time></trkpt><trkpt lat="42.198036615249485" lon="13.65867482106296"><ele>494.25</ele><time>2026-05-02T10:54:57.999Z</time></trkpt><trkpt lat="42.19795900889364" lon="13.65850161627109"><ele>493.5</ele><time>2026-05-02T10:54:58.999Z</time></trkpt><trkpt lat="42.197893993979754" lon="13.658336694508495"><ele>492.75</ele><time>2026-05-02T10:54:59.999Z</time></trkpt><trkpt lat="42.1978062821404" lon="13.658193771916055"><ele>492.0</ele><time>2026-05-02T10:55:00.999Z</time></trkpt><trkpt lat="42.197710768630046" lon="13.658052930721404"><ele>492.0</ele><time>2026-05-02T10:55:01.999Z</time></trkpt><trkpt lat="42.19761326340988" lon="13.65791201529808"><ele>492.0</ele><time>2026-05-02T10:55:02.999Z</time></trkpt><trkpt lat="42.197519255549224" lon="13.65777556103256"><ele>492.0</ele><time>2026-05-02T10:55:03.999Z</time></trkpt><trkpt lat="42.19742670332892" lon="13.657627973378652"><ele>492.0</ele><time>2026-05-02T10:55:04.999Z</time></trkpt><trkpt lat="42.1973541207072" lon="13.65748216469765"><ele>492.5</ele><time>2026-05-02T10:55:05.999Z</time></trkpt><trkpt lat="42.197271699194374" lon="13.657353710356437"><ele>493.0</ele><time>2026-05-02T10:55:06.999Z</time></trkpt><trkpt lat="42.197186424196865" lon="13.657222122487175"><ele>493.5</ele><time>2026-05-02T10:55:07.999Z</time></trkpt><trkpt lat="42.19710361982702" lon="13.657094347043914"><ele>494.0</ele><time>2026-05-02T10:55:08.999Z</time></trkpt><trkpt lat="42.197013631076295" lon="13.656954794267778"><ele>493.75</ele><time>2026-05-02T10:55:09.999Z</time></trkpt><trkpt lat="42.19692321503568" lon="13.656813222771266"><ele>493.5</ele><time>2026-05-02T10:55:10.999Z</time></trkpt><trkpt lat="42.1968295094639" lon="13.656691438502703"><ele>493.25</ele><time>2026-05-02T10:55:11.999Z</time></trkpt><trkpt lat="42.19674098405194" lon="13.656553784722712"><ele>493.0</ele><time>2026-05-02T10:55:12.999Z</time></trkpt><trkpt lat="42.19665825753368" lon="13.65642084827604"><ele>493.0</ele><time>2026-05-02T10:55:13.999Z</time></trkpt><trkpt lat="42.19658085390152" lon="13.656273330027426"><ele>493.0</ele><time>2026-05-02T10:55:14.999Z</time></trkpt><trkpt lat="42.196493032327645" lon="13.656135055580888"><ele>493.0</ele><time>2026-05-02T10:55:15.999Z</time></trkpt><trkpt lat="42.19640485527377" lon="13.655996221431836"><ele>493.0</ele><time>2026-05-02T10:55:16.999Z</time></trkpt><trkpt lat="42.196302908078906" lon="13.655870273178367"><ele>495.0</ele><time>2026-05-02T10:55:17.999Z</time></trkpt><trkpt lat="42.19621359986779" lon="13.655722215984895"><ele>497.0</ele><time>2026-05-02T10:55:18.999Z</time></trkpt><trkpt lat="42.19611880337228" lon="13.655579645988643"><ele>499.0</ele><time>2026-05-02T10:55:19.999Z</time></trkpt><trkpt lat="42.19602476165189" lon="13.655438073806168"><ele>501.0</ele><time>2026-05-02T10:55:20.999Z</time></trkpt><trkpt lat="42.195942719796335" lon="13.655281172475497"><ele>502.0</ele><time>2026-05-02T10:55:21.999Z</time></trkpt><trkpt lat="42.195849580744905" lon="13.655134271854116"><ele>503.0</ele><time>2026-05-02T10:55:22.999Z</time></trkpt><trkpt lat="42.19576518206572" lon="13.654982608669389"><ele>504.0</ele><time>2026-05-02T10:55:23.999Z</time></trkpt><trkpt lat="42.19569115892286" lon="13.654826412991941"><ele>505.0</ele><time>2026-05-02T10:55:24.999Z</time></trkpt><trkpt lat="42.195631262539216" lon="13.654661057475689"><ele>508.25</ele><time>2026-05-02T10:55:25.999Z</time></trkpt><trkpt lat="42.19557938507581" lon="13.654487885531028"><ele>511.5</ele><time>2026-05-02T10:55:26.999Z</time></trkpt><trkpt lat="42.19558638623269" lon="13.654296474890309"><ele>514.75</ele><time>2026-05-02T10:55:27.999Z</time></trkpt><trkpt lat="42.195604356255814" lon="13.654106241613984"><ele>518.0</ele><time>2026-05-02T10:55:28.999Z</time></trkpt><trkpt lat="42.19563045793556" lon="13.653911371709283"><ele>519.0</ele><time>2026-05-02T10:55:29.999Z</time></trkpt><trkpt lat="42.195654122030575" lon="13.653711462486738"><ele>520.0</ele><time>2026-05-02T10:55:30.999Z</time></trkpt><trkpt lat="42.19568930698254" lon="13.65350899574208"><ele>521.0</ele><time>2026-05-02T10:55:31.999Z</time></trkpt><trkpt lat="42.19572076124784" lon="13.653283044428692"><ele>521.0</ele><time>2026-05-02T10:55:32.999Z</time></trkpt><trkpt lat="42.19577686265756" lon="13.653048300515678"><ele>521.0</ele><time>2026-05-02T10:55:33.999Z</time></trkpt><trkpt lat="42.19580310943039" lon="13.652793171605593"><ele>521.0</ele><time>2026-05-02T10:55:34.999Z</time></trkpt><trkpt lat="42.195846496428054" lon="13.652538822695417"><ele>522.6666666666666</ele><time>2026-05-02T10:55:35.999Z</time></trkpt><trkpt lat="42.19589142437046" lon="13.652282773956106"><ele>524.3333333333334</ele><time>2026-05-02T10:55:36.999Z</time></trkpt><trkpt lat="42.19593996742016" lon="13.652025375873126"><ele>526.0</ele><time>2026-05-02T10:55:37.999Z</time></trkpt><trkpt lat="42.19598154901353" lon="13.651770703454059"><ele>527.6666666666667</ele><time>2026-05-02T10:55:38.999Z</time></trkpt><trkpt lat="42.19601498056885" lon="13.651523717079483"><ele>529.3333333333334</ele><time>2026-05-02T10:55:39.999Z</time></trkpt><trkpt lat="42.19606856735616" lon="13.651280680069672"><ele>531.0</ele><time>2026-05-02T10:55:40.999Z</time></trkpt><trkpt lat="42.19611169922948" lon="13.6510208711452"><ele>532.3333333333334</ele><time>2026-05-02T10:55:41.999Z</time></trkpt><trkpt lat="42.196155505619345" lon="13.65075965054332"><ele>533.6666666666667</ele><time>2026-05-02T10:55:42.999Z</time></trkpt><trkpt lat="42.19619909536366" lon="13.650499721812023"><ele>535.0</ele><time>2026-05-02T10:55:43.999Z</time></trkpt><trkpt lat="42.196227971752094" lon="13.65023081573294"><ele>537.3333333333334</ele><time>2026-05-02T10:55:44.999Z</time></trkpt><trkpt lat="42.19627491784142" lon="13.649958535920842"><ele>539.6666666666666</ele><time>2026-05-02T10:55:45.999Z</time></trkpt><trkpt lat="42.19632065507479" lon="13.649690534329604"><ele>542.0</ele><time>2026-05-02T10:55:46.999Z</time></trkpt><trkpt lat="42.19636811392352" lon="13.649423359945452"><ele>543.6666666666666</ele><time>2026-05-02T10:55:47.999Z</time></trkpt><trkpt lat="42.19641196063896" lon="13.649170539877248"><ele>545.3333333333334</ele><time>2026-05-02T10:55:48.999Z</time></trkpt><trkpt lat="42.196454913966825" lon="13.648937121729748"><ele>547.0</ele><time>2026-05-02T10:55:49.999Z</time></trkpt><trkpt lat="42.19649708047775" lon="13.648717365966688"><ele>547.0</ele><time>2026-05-02T10:55:50.999Z</time></trkpt><trkpt lat="42.19653749954673" lon="13.648524176387795"><ele>547.0</ele><time>2026-05-02T10:55:51.999Z</time></trkpt><trkpt lat="42.19657219219082" lon="13.648357001026566"><ele>547.0</ele><time>2026-05-02T10:55:52.999Z</time></trkpt><trkpt lat="42.196594255075745" lon="13.648214129864733"><ele>547.0</ele><time>2026-05-02T10:55:53.999Z</time></trkpt><trkpt lat="42.19662359277012" lon="13.648097663262558"><ele>549.2</ele><time>2026-05-02T10:55:54.999Z</time></trkpt><trkpt lat="42.19649360943745" lon="13.647941152332601"><ele>551.4000000000001</ele><time>2026-05-02T10:55:56.999Z</time></trkpt><trkpt lat="42.19641974361519" lon="13.647936653786607"><ele>553.5999999999999</ele><time>2026-05-02T10:55:57.999Z</time></trkpt><trkpt lat="42.1963386670776" lon="13.647924774519122"><ele>555.8</ele><time>2026-05-02T10:55:58.999Z</time></trkpt><trkpt lat="42.1962491389596" lon="13.64791595374199"><ele>558.0</ele><time>2026-05-02T10:55:59.999Z</time></trkpt><trkpt lat="42.196151958959604" lon="13.648124361709984"><ele>558.0</ele><time>2026-05-02T10:56:00.999Z</time></trkpt><trkpt lat="42.196055506328406" lon="13.648256783400539"><ele>558.0</ele><time>2026-05-02T10:56:01.999Z</time></trkpt><trkpt lat="42.19594838828685" lon="13.648388286805984"><ele>558.0</ele><time>2026-05-02T10:56:02.999Z</time></trkpt><trkpt lat="42.19580841824351" lon="13.648481351403062"><ele>558.0</ele><time>2026-05-02T10:56:03.999Z</time></trkpt><trkpt lat="42.19567644310175" lon="13.648558153579257"><ele>560.75</ele><time>2026-05-02T10:56:04.999Z</time></trkpt><trkpt lat="42.195533859805465" lon="13.648640330139726"><ele>563.5</ele><time>2026-05-02T10:56:05.999Z</time></trkpt><trkpt lat="42.19540934310078" lon="13.648731418954506"><ele>566.25</ele><time>2026-05-02T10:56:06.999Z</time></trkpt><trkpt lat="42.19530380114227" lon="13.648802767810999"><ele>569.0</ele><time>2026-05-02T10:56:07.999Z</time></trkpt><trkpt lat="42.195215455834415" lon="13.648902983989442"><ele>569.0</ele><time>2026-05-02T10:56:08.999Z</time></trkpt><trkpt lat="42.19513669988506" lon="13.649029182299008"><ele>569.0</ele><time>2026-05-02T10:56:09.999Z</time></trkpt><trkpt lat="42.195065596184214" lon="13.649174335225197"><ele>569.0</ele><time>2026-05-02T10:56:10.999Z</time></trkpt><trkpt lat="42.19500148743004" lon="13.649337174708615"><ele>569.0</ele><time>2026-05-02T10:56:11.999Z</time></trkpt><trkpt lat="42.19493323061454" lon="13.649506803832125"><ele>566.3333333333333</ele><time>2026-05-02T10:56:12.999Z</time></trkpt><trkpt lat="42.19485732478341" lon="13.649682333955065"><ele>563.6666666666666</ele><time>2026-05-02T10:56:13.999Z</time></trkpt><trkpt lat="42.19475846405318" lon="13.649833910513935"><ele>561.0</ele><time>2026-05-02T10:56:14.999Z</time></trkpt><trkpt lat="42.194653571472614" lon="13.649977688082297"><ele>564.0</ele><time>2026-05-02T10:56:15.999Z</time></trkpt><trkpt lat="42.194531877159626" lon="13.650097734950362"><ele>567.0</ele><time>2026-05-02T10:56:16.999Z</time></trkpt><trkpt lat="42.194390766962734" lon="13.650200818666285"><ele>570.0</ele><time>2026-05-02T10:56:17.999Z</time></trkpt><trkpt lat="42.19423971205183" lon="13.650311668407355"><ele>570.0</ele><time>2026-05-02T10:56:18.999Z</time></trkpt><trkpt lat="42.194085575325175" lon="13.650445605667613"><ele>570.0</ele><time>2026-05-02T10:56:19.999Z</time></trkpt><trkpt lat="42.193925325639924" lon="13.650565167769221"><ele>570.0</ele><time>2026-05-02T10:56:20.999Z</time></trkpt><trkpt lat="42.1937618056066" lon="13.650698033790816"><ele>573.6666666666666</ele><time>2026-05-02T10:56:21.999Z</time></trkpt><trkpt lat="42.19360556291471" lon="13.650837230350156"><ele>577.3333333333333</ele><time>2026-05-02T10:56:22.999Z</time></trkpt><trkpt lat="42.19346792082371" lon="13.651002529494196"><ele>581.0</ele><time>2026-05-02T10:56:23.999Z</time></trkpt><trkpt lat="42.193351026783425" lon="13.651195413006107"><ele>581.0</ele><time>2026-05-02T10:56:24.999Z</time></trkpt><trkpt lat="42.19327222212128" lon="13.651397736822748"><ele>581.0</ele><time>2026-05-02T10:56:25.999Z</time></trkpt><trkpt lat="42.1932204607678" lon="13.651589932477565"><ele>581.0</ele><time>2026-05-02T10:56:26.999Z</time></trkpt><trkpt lat="42.19321670676095" lon="13.651772695141348"><ele>583.0</ele><time>2026-05-02T10:56:27.999Z</time></trkpt><trkpt lat="42.19326445806839" lon="13.65196187544801"><ele>585.0</ele><time>2026-05-02T10:56:28.999Z</time></trkpt><trkpt lat="42.193300737281945" lon="13.65215492869187"><ele>587.0</ele><time>2026-05-02T10:56:29.999Z</time></trkpt><trkpt lat="42.193306176711786" lon="13.652363101247778"><ele>587.0</ele><time>2026-05-02T10:56:30.999Z</time></trkpt><trkpt lat="42.193290092282204" lon="13.652588019433209"><ele>587.0</ele><time>2026-05-02T10:56:31.999Z</time></trkpt><trkpt lat="42.19325928618462" lon="13.652799178669792"><ele>587.0</ele><time>2026-05-02T10:56:32.999Z</time></trkpt><trkpt lat="42.193229496723504" lon="13.652952615521048"><ele>587.0</ele><time>2026-05-02T10:56:33.999Z</time></trkpt><trkpt lat="42.193199552432596" lon="13.653072569833872"><ele>588.0</ele><time>2026-05-02T10:56:34.999Z</time></trkpt><trkpt lat="42.193165665277725" lon="13.653188859964034"><ele>589.0</ele><time>2026-05-02T10:56:35.999Z</time></trkpt><trkpt lat="42.19308011881947" lon="13.65324080930527"><ele>590.0</ele><time>2026-05-02T10:56:36.999Z</time></trkpt><trkpt lat="42.1929930785212" lon="13.653203428464431"><ele>591.0</ele><time>2026-05-02T10:56:37.999Z</time></trkpt><trkpt lat="42.19295007600342" lon="13.65310921287561"><ele>592.0</ele><time>2026-05-02T10:56:38.999Z</time></trkpt><trkpt lat="42.19294880938953" lon="13.652995216376384"><ele>593.0</ele><time>2026-05-02T10:56:39.999Z</time></trkpt><trkpt lat="42.19297902124862" lon="13.652847286465642"><ele>598.0</ele><time>2026-05-02T10:56:40.999Z</time></trkpt><trkpt lat="42.19302332884765" lon="13.65265564156503"><ele>603.0</ele><time>2026-05-02T10:56:41.999Z</time></trkpt><trkpt lat="42.19306419033414" lon="13.652484885629196"><ele>608.0</ele><time>2026-05-02T10:56:42.999Z</time></trkpt><trkpt lat="42.19308269960806" lon="13.652319954865803"><ele>613.0</ele><time>2026-05-02T10:56:43.999Z</time></trkpt><trkpt lat="42.193065888140914" lon="13.652184254562277"><ele>613.0</ele><time>2026-05-02T10:56:44.999Z</time></trkpt><trkpt lat="42.19301759299814" lon="13.652084377391796"><ele>613.0</ele><time>2026-05-02T10:56:45.999Z</time></trkpt><trkpt lat="42.19291292658168" lon="13.652072803931675"><ele>613.0</ele><time>2026-05-02T10:56:46.999Z</time></trkpt><trkpt lat="42.19282702811834" lon="13.652147921736413"><ele>613.0</ele><time>2026-05-02T10:56:47.999Z</time></trkpt><trkpt lat="42.19280834270999" lon="13.652321239544472"><ele>613.0</ele><time>2026-05-02T10:56:48.999Z</time></trkpt><trkpt lat="42.19279863817905" lon="13.65248827650675"><ele>613.0</ele><time>2026-05-02T10:56:49.999Z</time></trkpt><trkpt lat="42.19274977459833" lon="13.652654330867026"><ele>613.0</ele><time>2026-05-02T10:56:50.999Z</time></trkpt><trkpt lat="42.19266090708317" lon="13.652770010624225"><ele>613.0</ele><time>2026-05-02T10:56:51.999Z</time></trkpt><trkpt lat="42.192555896948576" lon="13.65287405973533"><ele>613.0</ele><time>2026-05-02T10:56:52.999Z</time></trkpt><trkpt lat="42.19246478633203" lon="13.65292009551625"><ele>613.0</ele><time>2026-05-02T10:56:53.999Z</time></trkpt><trkpt lat="42.192398200510034" lon="13.65293175972708"><ele>613.0</ele><time>2026-05-02T10:56:54.999Z</time></trkpt><trkpt lat="42.192339580844155" lon="13.652855676979737"><ele>613.0</ele><time>2026-05-02T10:56:55.999Z</time></trkpt><trkpt lat="42.19234586399485" lon="13.65273507243638"><ele>613.0</ele><time>2026-05-02T10:56:56.999Z</time></trkpt><trkpt lat="42.192408988316835" lon="13.652633498178284"><ele>613.0</ele><time>2026-05-02T10:56:57.999Z</time></trkpt><trkpt lat="42.192523561987514" lon="13.652591204664258"><ele>613.0</ele><time>2026-05-02T10:56:58.999Z</time></trkpt><trkpt lat="42.19261033598914" lon="13.652502273770311"><ele>613.0</ele><time>2026-05-02T10:56:59.999Z</time></trkpt><trkpt lat="42.19265484759438" lon="13.652415089781114"><ele>613.0</ele><time>2026-05-02T10:57:00.999Z</time></trkpt><trkpt lat="42.1926561717872" lon="13.652287167270993"><ele>613.0</ele><time>2026-05-02T10:57:01.999Z</time></trkpt><trkpt lat="42.19262546179096" lon="13.652185979788392"><ele>613.0</ele><time>2026-05-02T10:57:02.999Z</time></trkpt><trkpt lat="42.19253831717632" lon="13.65213513375789"><ele>613.0</ele><time>2026-05-02T10:57:03.999Z</time></trkpt><trkpt lat="42.19241673106929" lon="13.652205884871154"><ele>613.0</ele><time>2026-05-02T10:57:04.999Z</time></trkpt><trkpt lat="42.19232488086901" lon="13.652313657436508"><ele>613.0</ele><time>2026-05-02T10:57:05.999Z</time></trkpt><trkpt lat="42.1922498236853" lon="13.652438628525362"><ele>613.0</ele><time>2026-05-02T10:57:06.999Z</time></trkpt><trkpt lat="42.19215527099736" lon="13.652525285259903"><ele>616.5</ele><time>2026-05-02T10:57:07.999Z</time></trkpt><trkpt lat="42.19207456588235" lon="13.652626582465912"><ele>620.0</ele><time>2026-05-02T10:57:08.999Z</time></trkpt><trkpt lat="42.19196881718398" lon="13.652697296254132"><ele>623.5</ele><time>2026-05-02T10:57:09.999Z</time></trkpt><trkpt lat="42.191843068039894" lon="13.652713207768183"><ele>627.0</ele><time>2026-05-02T10:57:10.999Z</time></trkpt><trkpt lat="42.1917075773867" lon="13.652739226177655"><ele>627.0</ele><time>2026-05-02T10:57:11.999Z</time></trkpt><trkpt lat="42.191574195287096" lon="13.65277126596892"><ele>627.0</ele><time>2026-05-02T10:57:12.999Z</time></trkpt><trkpt lat="42.19142469082635" lon="13.652801136217708"><ele>627.0</ele><time>2026-05-02T10:57:13.999Z</time></trkpt><trkpt lat="42.191279984990224" lon="13.652853294289715"><ele>627.0</ele><time>2026-05-02T10:57:14.999Z</time></trkpt><trkpt lat="42.19114710723654" lon="13.652952840279191"><ele>628.0</ele><time>2026-05-02T10:57:15.999Z</time></trkpt><trkpt lat="42.191024975979225" lon="13.653085836421406"><ele>629.0</ele><time>2026-05-02T10:57:16.999Z</time></trkpt><trkpt lat="42.19090516794722" lon="13.653228055181824"><ele>630.0</ele><time>2026-05-02T10:57:17.999Z</time></trkpt><trkpt lat="42.190772119858465" lon="13.65332195705337"><ele>636.0</ele><time>2026-05-02T10:57:18.999Z</time></trkpt><trkpt lat="42.19063690620741" lon="13.653398508774153"><ele>642.0</ele><time>2026-05-02T10:57:19.999Z</time></trkpt><trkpt lat="42.190496995700514" lon="13.653468071498706"><ele>648.0</ele><time>2026-05-02T10:57:20.999Z</time></trkpt><trkpt lat="42.190355672638994" lon="13.653557199834175"><ele>648.0</ele><time>2026-05-02T10:57:21.999Z</time></trkpt><trkpt lat="42.190206502546545" lon="13.65361793763554"><ele>648.0</ele><time>2026-05-02T10:57:22.999Z</time></trkpt><trkpt lat="42.190068661853864" lon="13.653668659327458"><ele>648.0</ele><time>2026-05-02T10:57:23.999Z</time></trkpt><trkpt lat="42.189947223453515" lon="13.653713466735155"><ele>648.0</ele><time>2026-05-02T10:57:24.999Z</time></trkpt><trkpt lat="42.1898366423365" lon="13.653762255920775"><ele>648.8</ele><time>2026-05-02T10:57:25.999Z</time></trkpt><trkpt lat="42.18974266236353" lon="13.653821563995393"><ele>649.5999999999999</ele><time>2026-05-02T10:57:26.999Z</time></trkpt><trkpt lat="42.18967429627359" lon="13.653909566489196"><ele>650.4000000000001</ele><time>2026-05-02T10:57:27.999Z</time></trkpt><trkpt lat="42.189650754006095" lon="13.654052553398028"><ele>651.2</ele><time>2026-05-02T10:57:28.999Z</time></trkpt><trkpt lat="42.1896797618097" lon="13.65421786138797"><ele>652.0</ele><time>2026-05-02T10:57:29.999Z</time></trkpt><trkpt lat="42.18974529668833" lon="13.654377021570427"><ele>652.25</ele><time>2026-05-02T10:57:30.999Z</time></trkpt><trkpt lat="42.18982009785701" lon="13.654534599247649"><ele>652.5</ele><time>2026-05-02T10:57:31.999Z</time></trkpt><trkpt lat="42.189891482534875" lon="13.654700164537203"><ele>652.75</ele><time>2026-05-02T10:57:32.999Z</time></trkpt><trkpt lat="42.18994549491353" lon="13.654851422330625"><ele>653.0</ele><time>2026-05-02T10:57:33.999Z</time></trkpt><trkpt lat="42.18996807175145" lon="13.654992497777545"><ele>653.0</ele><time>2026-05-02T10:57:34.999Z</time></trkpt><trkpt lat="42.18998530808088" lon="13.65511161939074"><ele>653.0</ele><time>2026-05-02T10:57:35.999Z</time></trkpt><trkpt lat="42.18992047511483" lon="13.655212155804648"><ele>653.0</ele><time>2026-05-02T10:57:36.999Z</time></trkpt><trkpt lat="42.189825507924006" lon="13.6552680550682"><ele>653.0</ele><time>2026-05-02T10:57:37.999Z</time></trkpt><trkpt lat="42.18971382627802" lon="13.655321067943378"><ele>653.0</ele><time>2026-05-02T10:57:38.999Z</time></trkpt><trkpt lat="42.189591256950806" lon="13.655396977248934"><ele>652.75</ele><time>2026-05-02T10:57:39.999Z</time></trkpt><trkpt lat="42.189453878440574" lon="13.65546390639053"><ele>652.5</ele><time>2026-05-02T10:57:40.999Z</time></trkpt><trkpt lat="42.18932215874445" lon="13.655537905376377"><ele>652.25</ele><time>2026-05-02T10:57:41.999Z</time></trkpt><trkpt lat="42.189184314862736" lon="13.655618223258934"><ele>652.0</ele><time>2026-05-02T10:57:42.999Z</time></trkpt><trkpt lat="42.1890445648919" lon="13.655695675686852"><ele>654.3333333333334</ele><time>2026-05-02T10:57:43.999Z</time></trkpt><trkpt lat="42.188898830046035" lon="13.65576586223806"><ele>656.6666666666666</ele><time>2026-05-02T10:57:44.999Z</time></trkpt><trkpt lat="42.18874898556388" lon="13.655824910319126"><ele>659.0</ele><time>2026-05-02T10:57:45.999Z</time></trkpt><trkpt lat="42.188601585273794" lon="13.655877227392219"><ele>659.0</ele><time>2026-05-02T10:57:46.999Z</time></trkpt><trkpt lat="42.18847084024415" lon="13.655921583430585"><ele>659.0</ele><time>2026-05-02T10:57:47.999Z</time></trkpt><trkpt lat="42.18835396246063" lon="13.655965541449191"><ele>659.0</ele><time>2026-05-02T10:57:48.999Z</time></trkpt><trkpt lat="42.18825420618459" lon="13.656010211495618"><ele>659.0</ele><time>2026-05-02T10:57:49.999Z</time></trkpt><trkpt lat="42.18817850519938" lon="13.656055288716912"><ele>659.0</ele><time>2026-05-02T10:57:50.999Z</time></trkpt><trkpt lat="42.18813098407815" lon="13.656126658050486"><ele>660.2</ele><time>2026-05-02T10:57:51.999Z</time></trkpt><trkpt lat="42.18811915392081" lon="13.656234233516393"><ele>661.4000000000001</ele><time>2026-05-02T10:57:52.999Z</time></trkpt><trkpt lat="42.18816084149034" lon="13.656332004961492"><ele>662.6</ele><time>2026-05-02T10:57:53.999Z</time></trkpt><trkpt lat="42.188255076692194" lon="13.65638828660973"><ele>663.8</ele><time>2026-05-02T10:57:54.999Z</time></trkpt><trkpt lat="42.18837310621413" lon="13.656390549934546"><ele>665.0</ele><time>2026-05-02T10:57:55.999Z</time></trkpt><trkpt lat="42.18850086581911" lon="13.656359898528455"><ele>665.0</ele><time>2026-05-02T10:57:56.999Z</time></trkpt><trkpt lat="42.18864496859618" lon="13.656324136302123"><ele>665.0</ele><time>2026-05-02T10:57:57.999Z</time></trkpt><trkpt lat="42.18880695133415" lon="13.656309834003272"><ele>665.0</ele><time>2026-05-02T10:57:58.999Z</time></trkpt><trkpt lat="42.18895740300321" lon="13.656295916251583"><ele>663.75</ele><time>2026-05-02T10:57:59.999Z</time></trkpt><trkpt lat="42.189098286863604" lon="13.656277969934823"><ele>662.5</ele><time>2026-05-02T10:58:00.999Z</time></trkpt><trkpt lat="42.18922482412783" lon="13.656263713928928"><ele>661.25</ele><time>2026-05-02T10:58:01.999Z</time></trkpt><trkpt lat="42.189330279165546" lon="13.656252115661815"><ele>660.0</ele><time>2026-05-02T10:58:02.999Z</time></trkpt><trkpt lat="42.1894145395767" lon="13.656261555453021"><ele>660.0</ele><time>2026-05-02T10:58:03.999Z</time></trkpt><trkpt lat="42.189484251605286" lon="13.656329879695507"><ele>660.0</ele><time>2026-05-02T10:58:04.999Z</time></trkpt><trkpt lat="42.18949532322372" lon="13.656445987007432"><ele>660.0</ele><time>2026-05-02T10:58:05.999Z</time></trkpt><trkpt lat="42.189447539953285" lon="13.656546428299356"><ele>660.0</ele><time>2026-05-02T10:58:06.999Z</time></trkpt><trkpt lat="42.1893598314616" lon="13.656546923801518"><ele>660.0</ele><time>2026-05-02T10:58:07.999Z</time></trkpt><trkpt lat="42.1892728430803" lon="13.656525203524419"><ele>660.0</ele><time>2026-05-02T10:58:08.999Z</time></trkpt><trkpt lat="42.189155724683665" lon="13.656524352399266"><ele>660.0</ele><time>2026-05-02T10:58:09.999Z</time></trkpt><trkpt lat="42.189021076634596" lon="13.65652400595238"><ele>660.0</ele><time>2026-05-02T10:58:10.999Z</time></trkpt><trkpt lat="42.18886612367735" lon="13.656541402797847"><ele>660.0</ele><time>2026-05-02T10:58:11.999Z</time></trkpt><trkpt lat="42.188691747510056" lon="13.656541653416735"><ele>661.6666666666666</ele><time>2026-05-02T10:58:12.999Z</time></trkpt><trkpt lat="42.18852315602644" lon="13.656542112372918"><ele>663.3333333333333</ele><time>2026-05-02T10:58:13.999Z</time></trkpt><trkpt lat="42.18835558164761" lon="13.656556539335671"><ele>665.0</ele><time>2026-05-02T10:58:14.999Z</time></trkpt><trkpt lat="42.188196317577784" lon="13.656573844596219"><ele>666.3333333333333</ele><time>2026-05-02T10:58:15.999Z</time></trkpt><trkpt lat="42.18803782853866" lon="13.656596155155851"><ele>667.6666666666666</ele><time>2026-05-02T10:58:16.999Z</time></trkpt><trkpt lat="42.187871567829596" lon="13.656625308454265"><ele>669.0</ele><time>2026-05-02T10:58:17.999Z</time></trkpt><trkpt lat="42.18769853851002" lon="13.656659627145794"><ele>669.0</ele><time>2026-05-02T10:58:18.999Z</time></trkpt><trkpt lat="42.187511850193296" lon="13.656699047333294"><ele>669.0</ele><time>2026-05-02T10:58:19.999Z</time></trkpt><trkpt lat="42.18731285528022" lon="13.656739682294802"><ele>669.0</ele><time>2026-05-02T10:58:20.999Z</time></trkpt><trkpt lat="42.187114473819086" lon="13.656776470311133"><ele>671.3333333333334</ele><time>2026-05-02T10:58:21.999Z</time></trkpt><trkpt lat="42.18690257892527" lon="13.656811378428186"><ele>673.6666666666667</ele><time>2026-05-02T10:58:23Z</time></trkpt><trkpt lat="42.18681713153891" lon="13.656883552273216"><ele>676.0</ele><time>2026-05-02T10:58:24Z</time></trkpt><trkpt lat="42.18662510581348" lon="13.656935264820868"><ele>682.6666666666667</ele><time>2026-05-02T10:58:25Z</time></trkpt><trkpt lat="42.18642916853268" lon="13.656981562568857"><ele>689.3333333333334</ele><time>2026-05-02T10:58:26Z</time></trkpt><trkpt lat="42.18622591172099" lon="13.65702827288383"><ele>696.0</ele><time>2026-05-02T10:58:27Z</time></trkpt><trkpt lat="42.186040964744734" lon="13.657072939525394"><ele>696.0</ele><time>2026-05-02T10:58:28Z</time></trkpt><trkpt lat="42.18587001147938" lon="13.657116328834528"><ele>696.0</ele><time>2026-05-02T10:58:29Z</time></trkpt><trkpt lat="42.185716462681135" lon="13.657157062079536"><ele>696.0</ele><time>2026-05-02T10:58:30Z</time></trkpt><trkpt lat="42.185566237081645" lon="13.657189891220849"><ele>694.0</ele><time>2026-05-02T10:58:31Z</time></trkpt><trkpt lat="42.18540833292086" lon="13.657227260015414"><ele>692.0</ele><time>2026-05-02T10:58:32Z</time></trkpt><trkpt lat="42.18524374534424" lon="13.657293772262529"><ele>690.0</ele><time>2026-05-02T10:58:33Z</time></trkpt><trkpt lat="42.18509037052606" lon="13.657394080333903"><ele>690.0</ele><time>2026-05-02T10:58:34Z</time></trkpt><trkpt lat="42.1849401646844" lon="13.65754075887269"><ele>690.0</ele><time>2026-05-02T10:58:35Z</time></trkpt><trkpt lat="42.18478630300556" lon="13.657714365380697"><ele>690.0</ele><time>2026-05-02T10:58:36Z</time></trkpt><trkpt lat="42.18463785731531" lon="13.657896329600247"><ele>688.6666666666666</ele><time>2026-05-02T10:58:37Z</time></trkpt><trkpt lat="42.18450014446304" lon="13.658064693264082"><ele>687.3333333333333</ele><time>2026-05-02T10:58:38Z</time></trkpt><trkpt lat="42.184362640931006" lon="13.658220455528047"><ele>686.0</ele><time>2026-05-02T10:58:39Z</time></trkpt><trkpt lat="42.184202908782176" lon="13.658348287976755"><ele>686.0</ele><time>2026-05-02T10:58:40Z</time></trkpt><trkpt lat="42.18404563745356" lon="13.658481620070674"><ele>686.0</ele><time>2026-05-02T10:58:41Z</time></trkpt><trkpt lat="42.18387946686023" lon="13.658594256927165"><ele>686.0</ele><time>2026-05-02T10:58:42Z</time></trkpt><trkpt lat="42.18370729795088" lon="13.658698577610915"><ele>686.6666666666666</ele><time>2026-05-02T10:58:43Z</time></trkpt><trkpt lat="42.18352593255905" lon="13.65880323141382"><ele>687.3333333333334</ele><time>2026-05-02T10:58:44Z</time></trkpt><trkpt lat="42.18334156305674" lon="13.658927233852467"><ele>688.0</ele><time>2026-05-02T10:58:45Z</time></trkpt><trkpt lat="42.18313681284086" lon="13.65903203156859"><ele>688.0</ele><time>2026-05-02T10:58:46Z</time></trkpt><trkpt lat="42.18293819763275" lon="13.659135781680378"><ele>688.0</ele><time>2026-05-02T10:58:47Z</time></trkpt><trkpt lat="42.182743594095065" lon="13.659233458752016"><ele>688.0</ele><time>2026-05-02T10:58:48Z</time></trkpt><trkpt lat="42.18256287201196" lon="13.659326876725288"><ele>688.0</ele><time>2026-05-02T10:58:48.999Z</time></trkpt><trkpt lat="42.18238857806949" lon="13.659430363416817"><ele>688.0</ele><time>2026-05-02T10:58:49.999Z</time></trkpt><trkpt lat="42.18222695988799" lon="13.659531566931602"><ele>688.0</ele><time>2026-05-02T10:58:50.999Z</time></trkpt><trkpt lat="42.18206289293925" lon="13.659660419479044"><ele>687.0</ele><time>2026-05-02T10:58:51.999Z</time></trkpt><trkpt lat="42.181903489605084" lon="13.659813834277347"><ele>686.0</ele><time>2026-05-02T10:58:52.999Z</time></trkpt><trkpt lat="42.181750707372984" lon="13.659975488308339"><ele>685.0</ele><time>2026-05-02T10:58:53.999Z</time></trkpt><trkpt lat="42.18160044335257" lon="13.660150495513072"><ele>686.3333333333334</ele><time>2026-05-02T10:58:54.999Z</time></trkpt><trkpt lat="42.18145430874849" lon="13.660324422839423"><ele>687.6666666666666</ele><time>2026-05-02T10:58:55.999Z</time></trkpt><trkpt lat="42.18131358641901" lon="13.660494094824678"><ele>689.0</ele><time>2026-05-02T10:58:56.999Z</time></trkpt><trkpt lat="42.181176615435824" lon="13.660668184287228"><ele>689.0</ele><time>2026-05-02T10:58:57.999Z</time></trkpt><trkpt lat="42.181045970438554" lon="13.660844881893931"><ele>689.0</ele><time>2026-05-02T10:58:58.999Z</time></trkpt><trkpt lat="42.18093038003712" lon="13.661013266848034"><ele>689.0</ele><time>2026-05-02T10:58:59.999Z</time></trkpt><trkpt lat="42.18082110377764" lon="13.66117944952641"><ele>689.3333333333333</ele><time>2026-05-02T10:59:00.999Z</time></trkpt><trkpt lat="42.18071602412753" lon="13.661338936203148"><ele>689.6666666666666</ele><time>2026-05-02T10:59:01.999Z</time></trkpt><trkpt lat="42.18060217778808" lon="13.661479768502142"><ele>690.0</ele><time>2026-05-02T10:59:02.999Z</time></trkpt><trkpt lat="42.18047591906083" lon="13.661620559343561"><ele>690.0</ele><time>2026-05-02T10:59:03.999Z</time></trkpt><trkpt lat="42.180343397377435" lon="13.661745847700761"><ele>690.0</ele><time>2026-05-02T10:59:04.999Z</time></trkpt><trkpt lat="42.18020878934248" lon="13.661865403327415"><ele>690.0</ele><time>2026-05-02T10:59:05.999Z</time></trkpt><trkpt lat="42.180077497605794" lon="13.661982178849739"><ele>688.6666666666666</ele><time>2026-05-02T10:59:06.999Z</time></trkpt><trkpt lat="42.17995510405146" lon="13.662106872316324"><ele>687.3333333333333</ele><time>2026-05-02T10:59:07.999Z</time></trkpt><trkpt lat="42.17982774381024" lon="13.662254762837524"><ele>686.0</ele><time>2026-05-02T10:59:08.999Z</time></trkpt><trkpt lat="42.17970136803758" lon="13.662411787059646"><ele>686.0</ele><time>2026-05-02T10:59:09.999Z</time></trkpt><trkpt lat="42.17957243626833" lon="13.662579119334437"><ele>686.0</ele><time>2026-05-02T10:59:10.999Z</time></trkpt><trkpt lat="42.17944537128589" lon="13.66275752720016"><ele>686.0</ele><time>2026-05-02T10:59:11.999Z</time></trkpt><trkpt lat="42.17932209889107" lon="13.662930799654642"><ele>686.3333333333333</ele><time>2026-05-02T10:59:12.999Z</time></trkpt><trkpt lat="42.17919811813733" lon="13.663098909805594"><ele>686.6666666666666</ele><time>2026-05-02T10:59:13.999Z</time></trkpt><trkpt lat="42.17908569827882" lon="13.663255537756555"><ele>687.0</ele><time>2026-05-02T10:59:14.999Z</time></trkpt><trkpt lat="42.17897055044272" lon="13.663419442812778"><ele>688.6666666666666</ele><time>2026-05-02T10:59:15.999Z</time></trkpt><trkpt lat="42.17883124293363" lon="13.663562924721413"><ele>690.3333333333333</ele><time>2026-05-02T10:59:17Z</time></trkpt><trkpt lat="42.17869203764195" lon="13.663717599669113"><ele>692.0</ele><time>2026-05-02T10:59:18Z</time></trkpt><trkpt lat="42.17855844825455" lon="13.663860434290983"><ele>692.6666666666666</ele><time>2026-05-02T10:59:19Z</time></trkpt><trkpt lat="42.17842641793787" lon="13.66398537799199"><ele>693.3333333333334</ele><time>2026-05-02T10:59:20Z</time></trkpt><trkpt lat="42.17830093982849" lon="13.664109992577556"><ele>694.0</ele><time>2026-05-02T10:59:21Z</time></trkpt><trkpt lat="42.17817461313179" lon="13.66420277137147"><ele>695.0</ele><time>2026-05-02T10:59:22Z</time></trkpt><trkpt lat="42.17804989666642" lon="13.664286436612388"><ele>696.0</ele><time>2026-05-02T10:59:23Z</time></trkpt><trkpt lat="42.17791497796809" lon="13.664384337577445"><ele>697.0</ele><time>2026-05-02T10:59:24Z</time></trkpt><trkpt lat="42.177780675017985" lon="13.66447763444419"><ele>698.0</ele><time>2026-05-02T10:59:25Z</time></trkpt><trkpt lat="42.17765442817154" lon="13.664571410974894"><ele>699.0</ele><time>2026-05-02T10:59:26Z</time></trkpt><trkpt lat="42.177528966003315" lon="13.664671550828844"><ele>700.0</ele><time>2026-05-02T10:59:27Z</time></trkpt><trkpt lat="42.17740251863781" lon="13.664787991135919"><ele>701.0</ele><time>2026-05-02T10:59:28Z</time></trkpt><trkpt lat="42.17729300637645" lon="13.664908587568442"><ele>702.0</ele><time>2026-05-02T10:59:29Z</time></trkpt><trkpt lat="42.17718772724443" lon="13.665046585767204"><ele>705.0</ele><time>2026-05-02T10:59:30Z</time></trkpt><trkpt lat="42.17708387760886" lon="13.665196914310757"><ele>708.0</ele><time>2026-05-02T10:59:31Z</time></trkpt><trkpt lat="42.17698176552526" lon="13.665350628503678"><ele>711.0</ele><time>2026-05-02T10:59:32Z</time></trkpt><trkpt lat="42.17686120908239" lon="13.665477495981715"><ele>712.0</ele><time>2026-05-02T10:59:33Z</time></trkpt><trkpt lat="42.17674104981593" lon="13.665608992673786"><ele>713.0</ele><time>2026-05-02T10:59:34Z</time></trkpt><trkpt lat="42.17661834949669" lon="13.66573688523653"><ele>714.0</ele><time>2026-05-02T10:59:35Z</time></trkpt><trkpt lat="42.17650449650746" lon="13.665854478766986"><ele>716.75</ele><time>2026-05-02T10:59:36Z</time></trkpt><trkpt lat="42.176409944452395" lon="13.66595811264981"><ele>719.5</ele><time>2026-05-02T10:59:37Z</time></trkpt><trkpt lat="42.176334616846" lon="13.666064468859032"><ele>722.25</ele><time>2026-05-02T10:59:38Z</time></trkpt><trkpt lat="42.17624649452805" lon="13.666140004310037"><ele>725.0</ele><time>2026-05-02T10:59:39Z</time></trkpt><trkpt lat="42.17611395618916" lon="13.666076273199048"><ele>725.5</ele><time>2026-05-02T10:59:40Z</time></trkpt><trkpt lat="42.17598421275446" lon="13.66602990795963"><ele>726.0</ele><time>2026-05-02T10:59:41Z</time></trkpt><trkpt lat="42.17585045020752" lon="13.665981206066752"><ele>726.5</ele><time>2026-05-02T10:59:42Z</time></trkpt><trkpt lat="42.17571103114462" lon="13.665933861806081"><ele>727.0</ele><time>2026-05-02T10:59:43Z</time></trkpt><trkpt lat="42.17557589951096" lon="13.66588730633849"><ele>729.25</ele><time>2026-05-02T10:59:44Z</time></trkpt><trkpt lat="42.17545959495344" lon="13.665830604498982"><ele>731.5</ele><time>2026-05-02T10:59:45Z</time></trkpt><trkpt lat="42.17533327345995" lon="13.665748791069728"><ele>733.75</ele><time>2026-05-02T10:59:46Z</time></trkpt><trkpt lat="42.17521437718433" lon="13.66566993803269"><ele>736.0</ele><time>2026-05-02T10:59:47Z</time></trkpt><trkpt lat="42.175087764497476" lon="13.665585967340526"><ele>736.0</ele><time>2026-05-02T10:59:48Z</time></trkpt><trkpt lat="42.17495536896567" lon="13.665498942362778"><ele>736.0</ele><time>2026-05-02T10:59:49Z</time></trkpt><trkpt lat="42.174821433724006" lon="13.665410939318791"><ele>736.0</ele><time>2026-05-02T10:59:50Z</time></trkpt><trkpt lat="42.174682148687076" lon="13.66532156847474"><ele>740.3333333333334</ele><time>2026-05-02T10:59:51Z</time></trkpt><trkpt lat="42.17453651121622" lon="13.66522625199217"><ele>744.6666666666666</ele><time>2026-05-02T10:59:52Z</time></trkpt><trkpt lat="42.17439228295469" lon="13.665126327251452"><ele>749.0</ele><time>2026-05-02T10:59:53Z</time></trkpt><trkpt lat="42.17425084678142" lon="13.66502871846864"><ele>749.0</ele><time>2026-05-02T10:59:54Z</time></trkpt><trkpt lat="42.174124777989825" lon="13.66494324533417"><ele>749.0</ele><time>2026-05-02T10:59:55Z</time></trkpt><trkpt lat="42.174002642991276" lon="13.664860439276989"><ele>749.0</ele><time>2026-05-02T10:59:56Z</time></trkpt><trkpt lat="42.173868687972" lon="13.66476982797718"><ele>749.0</ele><time>2026-05-02T10:59:57Z</time></trkpt><trkpt lat="42.17373521891737" lon="13.664680599139652"><ele>754.0</ele><time>2026-05-02T10:59:58Z</time></trkpt><trkpt lat="42.173604585136566" lon="13.664593265775926"><ele>759.0</ele><time>2026-05-02T10:59:59Z</time></trkpt><trkpt lat="42.17346210108625" lon="13.664502680383128"><ele>764.0</ele><time>2026-05-02T11:00:00Z</time></trkpt><trkpt lat="42.17331586430204" lon="13.664409605236152"><ele>768.6666666666666</ele><time>2026-05-02T11:00:01Z</time></trkpt><trkpt lat="42.1731677379673" lon="13.66430734888348"><ele>773.3333333333333</ele><time>2026-05-02T11:00:02Z</time></trkpt><trkpt lat="42.17301580723148" lon="13.66418730680779"><ele>778.0</ele><time>2026-05-02T11:00:03Z</time></trkpt><trkpt lat="42.172871948948924" lon="13.664059757158334"><ele>778.0</ele><time>2026-05-02T11:00:04Z</time></trkpt><trkpt lat="42.17272703134308" lon="13.663923446989745"><ele>778.0</ele><time>2026-05-02T11:00:05Z</time></trkpt><trkpt lat="42.17258716922059" lon="13.663791454064553"><ele>778.0</ele><time>2026-05-02T11:00:06Z</time></trkpt><trkpt lat="42.17245523007076" lon="13.66365741488179"><ele>780.75</ele><time>2026-05-02T11:00:07Z</time></trkpt><trkpt lat="42.17234011283023" lon="13.663520228376234"><ele>783.5</ele><time>2026-05-02T11:00:08Z</time></trkpt><trkpt lat="42.17223865575383" lon="13.663371778334024"><ele>786.25</ele><time>2026-05-02T11:00:09Z</time></trkpt><trkpt lat="42.17216486634794" lon="13.663202351980559"><ele>789.0</ele><time>2026-05-02T11:00:10Z</time></trkpt><trkpt lat="42.17209402614969" lon="13.663019720446911"><ele>789.0</ele><time>2026-05-02T11:00:11Z</time></trkpt><trkpt lat="42.17201783545498" lon="13.662842937443544"><ele>789.0</ele><time>2026-05-02T11:00:12Z</time></trkpt><trkpt lat="42.17193900797719" lon="13.662649659756507"><ele>789.0</ele><time>2026-05-02T11:00:13Z</time></trkpt><trkpt lat="42.171849992206084" lon="13.662453661529241"><ele>790.0</ele><time>2026-05-02T11:00:14Z</time></trkpt><trkpt lat="42.17176195570858" lon="13.662261868925528"><ele>791.0</ele><time>2026-05-02T11:00:15Z</time></trkpt><trkpt lat="42.17168234223753" lon="13.662063039703185"><ele>792.0</ele><time>2026-05-02T11:00:16Z</time></trkpt><trkpt lat="42.17159491296485" lon="13.661875338539929"><ele>801.3333333333333</ele><time>2026-05-02T11:00:17Z</time></trkpt><trkpt lat="42.171494403259864" lon="13.661698911471971"><ele>810.6666666666666</ele><time>2026-05-02T11:00:18Z</time></trkpt><trkpt lat="42.171415418251925" lon="13.661514514715204"><ele>820.0</ele><time>2026-05-02T11:00:19Z</time></trkpt><trkpt lat="42.17135646196681" lon="13.661337810668432"><ele>820.0</ele><time>2026-05-02T11:00:20Z</time></trkpt><trkpt lat="42.17128250031812" lon="13.661201754517247"><ele>820.0</ele><time>2026-05-02T11:00:21Z</time></trkpt><trkpt lat="42.17122559198452" lon="13.661073367686758"><ele>820.0</ele><time>2026-05-02T11:00:22Z</time></trkpt><trkpt lat="42.171153170531625" lon="13.660964253902948"><ele>820.0</ele><time>2026-05-02T11:00:23Z</time></trkpt><trkpt lat="42.17105449886374" lon="13.660868085966932"><ele>819.75</ele><time>2026-05-02T11:00:24Z</time></trkpt><trkpt lat="42.17091782438547" lon="13.660802080796731"><ele>819.5</ele><time>2026-05-02T11:00:25Z</time></trkpt><trkpt lat="42.17077275803643" lon="13.660751079022496"><ele>819.25</ele><time>2026-05-02T11:00:26Z</time></trkpt><trkpt lat="42.1706267643172" lon="13.660700251238593"><ele>819.0</ele><time>2026-05-02T11:00:27Z</time></trkpt><trkpt lat="42.170480030607855" lon="13.660647065873375"><ele>823.75</ele><time>2026-05-02T11:00:28Z</time></trkpt><trkpt lat="42.170333636296654" lon="13.660583671940852"><ele>828.5</ele><time>2026-05-02T11:00:29.001Z</time></trkpt><trkpt lat="42.17019147637495" lon="13.660512374036768"><ele>833.25</ele><time>2026-05-02T11:00:30.001Z</time></trkpt><trkpt lat="42.170060609080885" lon="13.660434079220467"><ele>838.0</ele><time>2026-05-02T11:00:31.001Z</time></trkpt><trkpt lat="42.16992640179474" lon="13.660348281806629"><ele>843.0</ele><time>2026-05-02T11:00:32.001Z</time></trkpt><trkpt lat="42.16980159412283" lon="13.660294747331093"><ele>848.0</ele><time>2026-05-02T11:00:33.001Z</time></trkpt><trkpt lat="42.16967733265099" lon="13.660260161704691"><ele>853.0</ele><time>2026-05-02T11:00:34.001Z</time></trkpt><trkpt lat="42.169541255082564" lon="13.660226669795088"><ele>858.0</ele><time>2026-05-02T11:00:35.001Z</time></trkpt><trkpt lat="42.16939668624912" lon="13.660180282407211"><ele>858.0</ele><time>2026-05-02T11:00:36.001Z</time></trkpt><trkpt lat="42.1692600362079" lon="13.660125445968182"><ele>858.0</ele><time>2026-05-02T11:00:37.001Z</time></trkpt><trkpt lat="42.16912790404399" lon="13.660068672260676"><ele>858.0</ele><time>2026-05-02T11:00:38.001Z</time></trkpt><trkpt lat="42.16901535108775" lon="13.660006261186096"><ele>858.0</ele><time>2026-05-02T11:00:39.001Z</time></trkpt><trkpt lat="42.16890115696052" lon="13.659935366462467"><ele>861.5</ele><time>2026-05-02T11:00:40.001Z</time></trkpt><trkpt lat="42.168782216668575" lon="13.659874468582181"><ele>865.0</ele><time>2026-05-02T11:00:41.001Z</time></trkpt><trkpt lat="42.16865415193546" lon="13.65989674461826"><ele>868.5</ele><time>2026-05-02T11:00:42.001Z</time></trkpt><trkpt lat="42.1685396287205" lon="13.65998286258805"><ele>872.0</ele><time>2026-05-02T11:00:43.001Z</time></trkpt><trkpt lat="42.1684060520598" lon="13.660062164140841"><ele>872.0</ele><time>2026-05-02T11:00:44.001Z</time></trkpt><trkpt lat="42.168280458198126" lon="13.66013364415312"><ele>872.0</ele><time>2026-05-02T11:00:45.001Z</time></trkpt><trkpt lat="42.1681527668476" lon="13.660217941879354"><ele>872.0</ele><time>2026-05-02T11:00:46.001Z</time></trkpt><trkpt lat="42.16801542043627" lon="13.660327155312872"><ele>872.0</ele><time>2026-05-02T11:00:47.001Z</time></trkpt><trkpt lat="42.16788374437197" lon="13.660451574262181"><ele>875.25</ele><time>2026-05-02T11:00:48.001Z</time></trkpt><trkpt lat="42.16776891623526" lon="13.660560991659326"><ele>878.5</ele><time>2026-05-02T11:00:49.001Z</time></trkpt><trkpt lat="42.16765340256173" lon="13.660667893264439"><ele>881.75</ele><time>2026-05-02T11:00:50.001Z</time></trkpt><trkpt lat="42.16752178576704" lon="13.660782432491693"><ele>885.0</ele><time>2026-05-02T11:00:51.001Z</time></trkpt><trkpt lat="42.167387625477645" lon="13.660886761763194"><ele>888.6666666666667</ele><time>2026-05-02T11:00:52.001Z</time></trkpt><trkpt lat="42.16724679537532" lon="13.660970097959025"><ele>892.3333333333334</ele><time>2026-05-02T11:00:53.001Z</time></trkpt><trkpt lat="42.16710674895902" lon="13.661056068377986"><ele>896.0</ele><time>2026-05-02T11:00:54.001Z</time></trkpt><trkpt lat="42.16697223617895" lon="13.661181658409646"><ele>896.0</ele><time>2026-05-02T11:00:55.001Z</time></trkpt><trkpt lat="42.166852121717874" lon="13.661320685643606"><ele>896.0</ele><time>2026-05-02T11:00:56.001Z</time></trkpt><trkpt lat="42.16674168696436" lon="13.661455944845954"><ele>896.0</ele><time>2026-05-02T11:00:57Z</time></trkpt><trkpt lat="42.16664380907056" lon="13.661597564026886"><ele>896.0</ele><time>2026-05-02T11:00:58Z</time></trkpt><trkpt lat="42.16655799163443" lon="13.661764625524881"><ele>896.0</ele><time>2026-05-02T11:00:59Z</time></trkpt><trkpt lat="42.166471923073644" lon="13.661920069260558"><ele>896.0</ele><time>2026-05-02T11:01:00Z</time></trkpt><trkpt lat="42.16637652032051" lon="13.662059831104202"><ele>896.0</ele><time>2026-05-02T11:01:01Z</time></trkpt><trkpt lat="42.16628082971268" lon="13.662202849515932"><ele>897.0</ele><time>2026-05-02T11:01:02Z</time></trkpt><trkpt lat="42.16618985800831" lon="13.662346509298105"><ele>897.9999999999999</ele><time>2026-05-02T11:01:03Z</time></trkpt><trkpt lat="42.16611647206313" lon="13.662460670898756"><ele>898.9999999999999</ele><time>2026-05-02T11:01:04Z</time></trkpt><trkpt lat="42.16606649015057" lon="13.662529349995518"><ele>900.0</ele><time>2026-05-02T11:01:05Z</time></trkpt><trkpt lat="42.16598343636898" lon="13.662527647890629"><ele>901.0</ele><time>2026-05-02T11:01:07Z</time></trkpt><trkpt lat="42.16592605491141" lon="13.662453280857264"><ele>900.9999999999999</ele><time>2026-05-02T11:01:22Z</time></trkpt><trkpt lat="42.16590925335843" lon="13.662297310773665"><ele>901.0</ele><time>2026-05-02T11:01:24Z</time></trkpt><trkpt lat="42.16591004878214" lon="13.662203929670104"><ele>901.0</ele><time>2026-05-02T11:01:25Z</time></trkpt><trkpt lat="42.16591304113727" lon="13.662107567971752"><ele>901.0</ele><time>2026-05-02T11:01:26Z</time></trkpt><trkpt lat="42.16593143998149" lon="13.662014257697578"><ele>900.9999999999999</ele><time>2026-05-02T11:01:27Z</time></trkpt><trkpt lat="42.16597234976678" lon="13.661895813241516"><ele>901.0</ele><time>2026-05-02T11:01:29Z</time></trkpt><trkpt lat="42.16592951646493" lon="13.66204433555881"><ele>901.0</ele><time>2026-05-02T11:01:37Z</time></trkpt><trkpt lat="42.165904099601995" lon="13.662135716408875"><ele>901.0</ele><time>2026-05-02T11:01:38Z</time></trkpt><trkpt lat="42.16589382394045" lon="13.662226542386819"><ele>901.0</ele><time>2026-05-02T11:01:39Z</time></trkpt><trkpt lat="42.16588944244535" lon="13.662349221738568"><ele>901.0</ele><time>2026-05-02T11:01:41Z</time></trkpt></trkseg></trk></gpx>